<?xml version='1.0' encoding='UTF-8'?><gpx version="1.1" creator="JPX - https://github.com/jenetics/jpx" xmlns="http://www.topografix.com/GPX/1/1"><trk><trkseg><trkpt lat="43.843595" lon="6.221395"><ele>607.0</ele><time>2026-05-02T13:10:40.181Z</time></trkpt><trkpt lat="43.8436633" lon="6.2214383"><ele>607.0</ele><time>2026-05-02T13:10:49.274Z</time></trkpt><trkpt lat="43.8435917" lon="6.2214333"><ele>607.0</ele><time>2026-05-02T13:11:31.274Z</time></trkpt><trkpt lat="43.84353" lon="6.22149"><ele>607.0</ele><time>2026-05-02T13:11:35.275Z</time></trkpt><trkpt lat="43.8434433" lon="6.2215267"><ele>607.0</ele><time>2026-05-02T13:11:40.274Z</time></trkpt><trkpt lat="43.843365" lon="6.2215433"><ele>607.0</ele><time>2026-05-02T13:11:42.274Z</time></trkpt><trkpt lat="43.8432683" lon="6.2215433"><ele>607.0</ele><time>2026-05-02T13:11:44.274Z</time></trkpt><trkpt lat="43.8431617" lon="6.22152"><ele>607.0</ele><time>2026-05-02T13:11:46.274Z</time></trkpt><trkpt lat="43.84306" lon="6.22145"><ele>607.0</ele><time>2026-05-02T13:11:48.274Z</time></trkpt><trkpt lat="43.8429733" lon="6.2213617"><ele>607.0</ele><time>2026-05-02T13:11:50.274Z</time></trkpt><trkpt lat="43.84288" lon="6.221255"><ele>607.0</ele><time>2026-05-02T13:11:52.275Z</time></trkpt><trkpt lat="43.8428233" lon="6.2212"><ele>607.0</ele><time>2026-05-02T13:11:53.275Z</time></trkpt><trkpt lat="43.8427467" lon="6.2211367"><ele>607.0</ele><time>2026-05-02T13:11:54.274Z</time></trkpt><trkpt lat="43.8426817" lon="6.2210867"><ele>607.0</ele><time>2026-05-02T13:11:55.274Z</time></trkpt><trkpt lat="43.8426183" lon="6.2210517"><ele>607.0</ele><time>2026-05-02T13:11:56.274Z</time></trkpt><trkpt lat="43.8425" lon="6.2210317"><ele>607.0</ele><time>2026-05-02T13:11:58.275Z</time></trkpt><trkpt lat="43.8424367" lon="6.2210217"><ele>606.8333333333334</ele><time>2026-05-02T13:11:59.274Z</time></trkpt><trkpt lat="43.842355" lon="6.2210233"><ele>606.6666666666667</ele><time>2026-05-02T13:12:00.274Z</time></trkpt><trkpt lat="43.8422783" lon="6.2210283"><ele>606.5</ele><time>2026-05-02T13:12:01.274Z</time></trkpt><trkpt lat="43.8421933" lon="6.2210483"><ele>606.3333333333334</ele><time>2026-05-02T13:12:02.274Z</time></trkpt><trkpt lat="43.8421167" lon="6.22107"><ele>606.1666666666666</ele><time>2026-05-02T13:12:03.274Z</time></trkpt><trkpt lat="43.8420417" lon="6.2210983"><ele>606.0</ele><time>2026-05-02T13:12:04.274Z</time></trkpt><trkpt lat="43.841965" lon="6.22113"><ele>606.0</ele><time>2026-05-02T13:12:05.274Z</time></trkpt><trkpt lat="43.8418983" lon="6.2211583"><ele>606.0</ele><time>2026-05-02T13:12:06.275Z</time></trkpt><trkpt lat="43.8418283" lon="6.22119"><ele>606.0</ele><time>2026-05-02T13:12:07.274Z</time></trkpt><trkpt lat="43.8417683" lon="6.2212267"><ele>606.0</ele><time>2026-05-02T13:12:08.274Z</time></trkpt><trkpt lat="43.84171" lon="6.2212733"><ele>606.0</ele><time>2026-05-02T13:12:09.274Z</time></trkpt><trkpt lat="43.841655" lon="6.22132"><ele>606.0</ele><time>2026-05-02T13:12:10.274Z</time></trkpt><trkpt lat="43.8415467" lon="6.221395"><ele>604.4</ele><time>2026-05-02T13:12:12.274Z</time></trkpt><trkpt lat="43.8414333" lon="6.2213983"><ele>602.8</ele><time>2026-05-02T13:12:14.275Z</time></trkpt><trkpt lat="43.8413517" lon="6.2212917"><ele>601.1999999999999</ele><time>2026-05-02T13:12:16.274Z</time></trkpt><trkpt lat="43.8412683" lon="6.221185"><ele>599.6</ele><time>2026-05-02T13:12:18.274Z</time></trkpt><trkpt lat="43.8412067" lon="6.2211667"><ele>598.0</ele><time>2026-05-02T13:12:19.275Z</time></trkpt><trkpt lat="43.84114" lon="6.2211917"><ele>598.0</ele><time>2026-05-02T13:12:20.274Z</time></trkpt><trkpt lat="43.841075" lon="6.2212617"><ele>598.0</ele><time>2026-05-02T13:12:21.274Z</time></trkpt><trkpt lat="43.841" lon="6.2213617"><ele>598.0</ele><time>2026-05-02T13:12:22.274Z</time></trkpt><trkpt lat="43.8409217" lon="6.22144"><ele>598.0</ele><time>2026-05-02T13:12:23.274Z</time></trkpt><trkpt lat="43.8408367" lon="6.22152"><ele>598.0</ele><time>2026-05-02T13:12:24.274Z</time></trkpt><trkpt lat="43.84075" lon="6.2216017"><ele>598.6</ele><time>2026-05-02T13:12:25.274Z</time></trkpt><trkpt lat="43.84066" lon="6.2216767"><ele>599.1999999999999</ele><time>2026-05-02T13:12:26.274Z</time></trkpt><trkpt lat="43.840575" lon="6.2217417"><ele>599.8</ele><time>2026-05-02T13:12:27.274Z</time></trkpt><trkpt lat="43.8404883" lon="6.2218133"><ele>600.4</ele><time>2026-05-02T13:12:28.274Z</time></trkpt><trkpt lat="43.8403967" lon="6.2218683"><ele>601.0</ele><time>2026-05-02T13:12:29.274Z</time></trkpt><trkpt lat="43.840295" lon="6.221905"><ele>601.0</ele><time>2026-05-02T13:12:30.274Z</time></trkpt><trkpt lat="43.840185" lon="6.22192"><ele>601.0</ele><time>2026-05-02T13:12:31.275Z</time></trkpt><trkpt lat="43.8400717" lon="6.2219233"><ele>601.0</ele><time>2026-05-02T13:12:32.274Z</time></trkpt><trkpt lat="43.8399617" lon="6.2219267"><ele>601.0</ele><time>2026-05-02T13:12:33.274Z</time></trkpt><trkpt lat="43.83985" lon="6.221935"><ele>601.0</ele><time>2026-05-02T13:12:34.274Z</time></trkpt><trkpt lat="43.8397367" lon="6.2219283"><ele>598.5</ele><time>2026-05-02T13:12:35.274Z</time></trkpt><trkpt lat="43.83962" lon="6.2218983"><ele>596.0</ele><time>2026-05-02T13:12:36.274Z</time></trkpt><trkpt lat="43.8395167" lon="6.2218317"><ele>593.5</ele><time>2026-05-02T13:12:37.274Z</time></trkpt><trkpt lat="43.83942" lon="6.2217383"><ele>591.0</ele><time>2026-05-02T13:12:38.274Z</time></trkpt><trkpt lat="43.8393367" lon="6.221635"><ele>592.25</ele><time>2026-05-02T13:12:39.275Z</time></trkpt><trkpt lat="43.839255" lon="6.221515"><ele>593.5</ele><time>2026-05-02T13:12:40.274Z</time></trkpt><trkpt lat="43.8391717" lon="6.221405"><ele>594.75</ele><time>2026-05-02T13:12:41.274Z</time></trkpt><trkpt lat="43.8390783" lon="6.22131"><ele>596.0</ele><time>2026-05-02T13:12:42.274Z</time></trkpt><trkpt lat="43.838975" lon="6.2212483"><ele>596.0</ele><time>2026-05-02T13:12:43.275Z</time></trkpt><trkpt lat="43.8388633" lon="6.2212183"><ele>596.0</ele><time>2026-05-02T13:12:44.274Z</time></trkpt><trkpt lat="43.8387517" lon="6.2212283"><ele>596.0</ele><time>2026-05-02T13:12:45.274Z</time></trkpt><trkpt lat="43.8386533" lon="6.22128"><ele>596.0</ele><time>2026-05-02T13:12:46.274Z</time></trkpt><trkpt lat="43.8385667" lon="6.2213883"><ele>596.0</ele><time>2026-05-02T13:12:47.275Z</time></trkpt><trkpt lat="43.8385067" lon="6.2215167"><ele>594.6666666666666</ele><time>2026-05-02T13:12:48.274Z</time></trkpt><trkpt lat="43.8384433" lon="6.2216317"><ele>593.3333333333333</ele><time>2026-05-02T13:12:49.274Z</time></trkpt><trkpt lat="43.83838" lon="6.2217167"><ele>592.0</ele><time>2026-05-02T13:12:50.274Z</time></trkpt><trkpt lat="43.8383033" lon="6.2217633"><ele>590.6666666666666</ele><time>2026-05-02T13:12:51.274Z</time></trkpt><trkpt lat="43.838215" lon="6.2217533"><ele>589.3333333333334</ele><time>2026-05-02T13:12:52.274Z</time></trkpt><trkpt lat="43.8381417" lon="6.2217117"><ele>588.0</ele><time>2026-05-02T13:12:53.275Z</time></trkpt><trkpt lat="43.838075" lon="6.221625"><ele>588.0</ele><time>2026-05-02T13:12:54.274Z</time></trkpt><trkpt lat="43.83801" lon="6.221495"><ele>588.0</ele><time>2026-05-02T13:12:55.274Z</time></trkpt><trkpt lat="43.837935" lon="6.2213683"><ele>588.0</ele><time>2026-05-02T13:12:56.274Z</time></trkpt><trkpt lat="43.837835" lon="6.221265"><ele>588.0</ele><time>2026-05-02T13:12:57.275Z</time></trkpt><trkpt lat="43.8377233" lon="6.2211717"><ele>584.75</ele><time>2026-05-02T13:12:58.274Z</time></trkpt><trkpt lat="43.837605" lon="6.22109"><ele>581.5</ele><time>2026-05-02T13:12:59.274Z</time></trkpt><trkpt lat="43.8374817" lon="6.2210167"><ele>578.25</ele><time>2026-05-02T13:13:00.274Z</time></trkpt><trkpt lat="43.8373567" lon="6.2209517"><ele>575.0</ele><time>2026-05-02T13:13:01.274Z</time></trkpt><trkpt lat="43.8372333" lon="6.2208967"><ele>575.0</ele><time>2026-05-02T13:13:02.274Z</time></trkpt><trkpt lat="43.837105" lon="6.2208533"><ele>575.0</ele><time>2026-05-02T13:13:03.274Z</time></trkpt><trkpt lat="43.8369733" lon="6.2208067"><ele>575.0</ele><time>2026-05-02T13:13:04.274Z</time></trkpt><trkpt lat="43.8368467" lon="6.22077"><ele>575.0</ele><time>2026-05-02T13:13:05.274Z</time></trkpt><trkpt lat="43.8367117" lon="6.220725"><ele>574.25</ele><time>2026-05-02T13:13:06.273Z</time></trkpt><trkpt lat="43.83658" lon="6.2206883"><ele>573.5</ele><time>2026-05-02T13:13:07.273Z</time></trkpt><trkpt lat="43.83645" lon="6.22067"><ele>572.75</ele><time>2026-05-02T13:13:08.273Z</time></trkpt><trkpt lat="43.8363167" lon="6.2206667"><ele>572.0</ele><time>2026-05-02T13:13:09.273Z</time></trkpt><trkpt lat="43.836195" lon="6.2206883"><ele>572.0</ele><time>2026-05-02T13:13:10.273Z</time></trkpt><trkpt lat="43.8360717" lon="6.22075"><ele>572.0</ele><time>2026-05-02T13:13:11.273Z</time></trkpt><trkpt lat="43.8359483" lon="6.220815"><ele>572.0</ele><time>2026-05-02T13:13:12.273Z</time></trkpt><trkpt lat="43.8358183" lon="6.220865"><ele>572.0</ele><time>2026-05-02T13:13:13.274Z</time></trkpt><trkpt lat="43.8357017" lon="6.220885"><ele>570.6</ele><time>2026-05-02T13:13:14.273Z</time></trkpt><trkpt lat="43.8355883" lon="6.2208883"><ele>569.2</ele><time>2026-05-02T13:13:15.273Z</time></trkpt><trkpt lat="43.8354867" lon="6.22091"><ele>567.8</ele><time>2026-05-02T13:13:16.273Z</time></trkpt><trkpt lat="43.835385" lon="6.2209567"><ele>566.4</ele><time>2026-05-02T13:13:17.273Z</time></trkpt><trkpt lat="43.8352917" lon="6.221045"><ele>565.0</ele><time>2026-05-02T13:13:18.273Z</time></trkpt><trkpt lat="43.8352133" lon="6.2211567"><ele>563.25</ele><time>2026-05-02T13:13:19.273Z</time></trkpt><trkpt lat="43.8351367" lon="6.2212867"><ele>561.5</ele><time>2026-05-02T13:13:20.273Z</time></trkpt><trkpt lat="43.8350733" lon="6.2214333"><ele>559.75</ele><time>2026-05-02T13:13:21.273Z</time></trkpt><trkpt lat="43.8350433" lon="6.2215883"><ele>558.0</ele><time>2026-05-02T13:13:22.273Z</time></trkpt><trkpt lat="43.8350017" lon="6.221715"><ele>558.0</ele><time>2026-05-02T13:13:23.273Z</time></trkpt><trkpt lat="43.8349383" lon="6.22182"><ele>558.0</ele><time>2026-05-02T13:13:24.274Z</time></trkpt><trkpt lat="43.83486" lon="6.2218867"><ele>558.0</ele><time>2026-05-02T13:13:25.273Z</time></trkpt><trkpt lat="43.8347633" lon="6.2219267"><ele>558.0</ele><time>2026-05-02T13:13:26.274Z</time></trkpt><trkpt lat="43.834655" lon="6.2219533"><ele>558.0</ele><time>2026-05-02T13:13:27.273Z</time></trkpt><trkpt lat="43.8345417" lon="6.221985"><ele>558.0</ele><time>2026-05-02T13:13:28.273Z</time></trkpt><trkpt lat="43.83444" lon="6.2220383"><ele>558.0</ele><time>2026-05-02T13:13:29.273Z</time></trkpt><trkpt lat="43.834355" lon="6.2221017"><ele>558.0</ele><time>2026-05-02T13:13:30.273Z</time></trkpt><trkpt lat="43.8342917" lon="6.2221867"><ele>558.0</ele><time>2026-05-02T13:13:31.273Z</time></trkpt><trkpt lat="43.8342333" lon="6.2222667"><ele>558.0</ele><time>2026-05-02T13:13:32.273Z</time></trkpt><trkpt lat="43.8341667" lon="6.2223167"><ele>556.6666666666666</ele><time>2026-05-02T13:13:33.273Z</time></trkpt><trkpt lat="43.8340983" lon="6.2223233"><ele>555.3333333333334</ele><time>2026-05-02T13:13:34.273Z</time></trkpt><trkpt lat="43.83404" lon="6.222285"><ele>554.0</ele><time>2026-05-02T13:13:35.273Z</time></trkpt><trkpt lat="43.8340017" lon="6.2222067"><ele>552.6666666666667</ele><time>2026-05-02T13:13:36.273Z</time></trkpt><trkpt lat="43.8339867" lon="6.2221133"><ele>551.3333333333334</ele><time>2026-05-02T13:13:37.273Z</time></trkpt><trkpt lat="43.8340167" lon="6.2220033"><ele>550.0</ele><time>2026-05-02T13:13:38.273Z</time></trkpt><trkpt lat="43.8340767" lon="6.2218967"><ele>550.5</ele><time>2026-05-02T13:13:39.273Z</time></trkpt><trkpt lat="43.8341483" lon="6.2217833"><ele>551.0</ele><time>2026-05-02T13:13:40.274Z</time></trkpt><trkpt lat="43.8342367" lon="6.2216817"><ele>551.5</ele><time>2026-05-02T13:13:41.273Z</time></trkpt><trkpt lat="43.8343267" lon="6.2215633"><ele>552.0</ele><time>2026-05-02T13:13:42.273Z</time></trkpt><trkpt lat="43.8344233" lon="6.2214433"><ele>552.0</ele><time>2026-05-02T13:13:43.273Z</time></trkpt><trkpt lat="43.8345067" lon="6.221335"><ele>552.0</ele><time>2026-05-02T13:13:44.273Z</time></trkpt><trkpt lat="43.8345867" lon="6.22124"><ele>552.0</ele><time>2026-05-02T13:13:45.274Z</time></trkpt><trkpt lat="43.8346433" lon="6.2211433"><ele>552.0</ele><time>2026-05-02T13:13:46.273Z</time></trkpt><trkpt lat="43.834675" lon="6.221045"><ele>552.0</ele><time>2026-05-02T13:13:47.273Z</time></trkpt><trkpt lat="43.834685" lon="6.22093"><ele>552.0</ele><time>2026-05-02T13:13:48.273Z</time></trkpt><trkpt lat="43.8346633" lon="6.2208467"><ele>552.0</ele><time>2026-05-02T13:13:49.274Z</time></trkpt><trkpt lat="43.8346067" lon="6.2207733"><ele>552.0</ele><time>2026-05-02T13:13:50.273Z</time></trkpt><trkpt lat="43.8345233" lon="6.2207383"><ele>552.0</ele><time>2026-05-02T13:13:51.274Z</time></trkpt><trkpt lat="43.83443" lon="6.220745"><ele>552.0</ele><time>2026-05-02T13:13:52.273Z</time></trkpt><trkpt lat="43.8343333" lon="6.2207883"><ele>552.0</ele><time>2026-05-02T13:13:53.273Z</time></trkpt><trkpt lat="43.8342333" lon="6.2208717"><ele>548.25</ele><time>2026-05-02T13:13:54.273Z</time></trkpt><trkpt lat="43.8341283" lon="6.2209633"><ele>544.5</ele><time>2026-05-02T13:13:55.273Z</time></trkpt><trkpt lat="43.8340183" lon="6.2210433"><ele>540.75</ele><time>2026-05-02T13:13:56.273Z</time></trkpt><trkpt lat="43.8338983" lon="6.22113"><ele>537.0</ele><time>2026-05-02T13:13:57.273Z</time></trkpt><trkpt lat="43.8337633" lon="6.2212233"><ele>537.0</ele><time>2026-05-02T13:13:58.273Z</time></trkpt><trkpt lat="43.8336117" lon="6.221295"><ele>537.0</ele><time>2026-05-02T13:13:59.273Z</time></trkpt><trkpt lat="43.8334567" lon="6.2214017"><ele>537.0</ele><time>2026-05-02T13:14:00.273Z</time></trkpt><trkpt lat="43.8333117" lon="6.2215433"><ele>536.0</ele><time>2026-05-02T13:14:01.274Z</time></trkpt><trkpt lat="43.8331767" lon="6.221705"><ele>535.0</ele><time>2026-05-02T13:14:02.273Z</time></trkpt><trkpt lat="43.8330633" lon="6.2218717"><ele>534.0</ele><time>2026-05-02T13:14:03.273Z</time></trkpt><trkpt lat="43.8329567" lon="6.22204"><ele>534.0</ele><time>2026-05-02T13:14:04.273Z</time></trkpt><trkpt lat="43.8328483" lon="6.2222117"><ele>534.0</ele><time>2026-05-02T13:14:05.273Z</time></trkpt><trkpt lat="43.8327367" lon="6.2223883"><ele>534.0</ele><time>2026-05-02T13:14:06.273Z</time></trkpt><trkpt lat="43.8326233" lon="6.2225733"><ele>533.0</ele><time>2026-05-02T13:14:07.274Z</time></trkpt><trkpt lat="43.8325117" lon="6.222755"><ele>532.0</ele><time>2026-05-02T13:14:08.273Z</time></trkpt><trkpt lat="43.8324017" lon="6.22294"><ele>531.0</ele><time>2026-05-02T13:14:09.273Z</time></trkpt><trkpt lat="43.832295" lon="6.2231133"><ele>533.0</ele><time>2026-05-02T13:14:10.273Z</time></trkpt><trkpt lat="43.8321933" lon="6.2232817"><ele>535.0</ele><time>2026-05-02T13:14:11.273Z</time></trkpt><trkpt lat="43.8320917" lon="6.2234367"><ele>537.0</ele><time>2026-05-02T13:14:12.273Z</time></trkpt><trkpt lat="43.8319967" lon="6.2235883"><ele>537.0</ele><time>2026-05-02T13:14:13.273Z</time></trkpt><trkpt lat="43.8319083" lon="6.2237367"><ele>537.0</ele><time>2026-05-02T13:14:14.273Z</time></trkpt><trkpt lat="43.831815" lon="6.2238783"><ele>537.0</ele><time>2026-05-02T13:14:15.273Z</time></trkpt><trkpt lat="43.8317233" lon="6.22402"><ele>537.0</ele><time>2026-05-02T13:14:16.273Z</time></trkpt><trkpt lat="43.83163" lon="6.22416"><ele>535.5</ele><time>2026-05-02T13:14:17.273Z</time></trkpt><trkpt lat="43.831535" lon="6.2242967"><ele>534.0</ele><time>2026-05-02T13:14:18.273Z</time></trkpt><trkpt lat="43.8314333" lon="6.2244367"><ele>532.5</ele><time>2026-05-02T13:14:19.273Z</time></trkpt><trkpt lat="43.831335" lon="6.2245633"><ele>531.0</ele><time>2026-05-02T13:14:20.274Z</time></trkpt><trkpt lat="43.8312233" lon="6.2246767"><ele>531.0</ele><time>2026-05-02T13:14:21.273Z</time></trkpt><trkpt lat="43.8311067" lon="6.2247767"><ele>531.0</ele><time>2026-05-02T13:14:22.273Z</time></trkpt><trkpt lat="43.8309767" lon="6.22485"><ele>531.0</ele><time>2026-05-02T13:14:23.273Z</time></trkpt><trkpt lat="43.83084" lon="6.224905"><ele>531.0</ele><time>2026-05-02T13:14:24.273Z</time></trkpt><trkpt lat="43.8307017" lon="6.2249483"><ele>530.0</ele><time>2026-05-02T13:14:25.273Z</time></trkpt><trkpt lat="43.830565" lon="6.22497"><ele>529.0</ele><time>2026-05-02T13:14:26.273Z</time></trkpt><trkpt lat="43.8304267" lon="6.2249833"><ele>528.0</ele><time>2026-05-02T13:14:27.273Z</time></trkpt><trkpt lat="43.830295" lon="6.224985"><ele>527.0</ele><time>2026-05-02T13:14:28.273Z</time></trkpt><trkpt lat="43.83016" lon="6.2249733"><ele>525.5</ele><time>2026-05-02T13:14:29.273Z</time></trkpt><trkpt lat="43.8300283" lon="6.2249517"><ele>524.0</ele><time>2026-05-02T13:14:30.273Z</time></trkpt><trkpt lat="43.8299" lon="6.2249317"><ele>522.5</ele><time>2026-05-02T13:14:31.273Z</time></trkpt><trkpt lat="43.8297683" lon="6.224915"><ele>521.0</ele><time>2026-05-02T13:14:32.273Z</time></trkpt><trkpt lat="43.8296367" lon="6.224885"><ele>521.0</ele><time>2026-05-02T13:14:33.273Z</time></trkpt><trkpt lat="43.829505" lon="6.2248567"><ele>521.0</ele><time>2026-05-02T13:14:34.273Z</time></trkpt><trkpt lat="43.8293717" lon="6.2248267"><ele>521.0</ele><time>2026-05-02T13:14:35.273Z</time></trkpt><trkpt lat="43.8292283" lon="6.22481"><ele>521.0</ele><time>2026-05-02T13:14:36.273Z</time></trkpt><trkpt lat="43.8290767" lon="6.2247867"><ele>520.75</ele><time>2026-05-02T13:14:37.273Z</time></trkpt><trkpt lat="43.8289333" lon="6.2247633"><ele>520.5</ele><time>2026-05-02T13:14:38.273Z</time></trkpt><trkpt lat="43.82879" lon="6.2247333"><ele>520.25</ele><time>2026-05-02T13:14:39.273Z</time></trkpt><trkpt lat="43.8286517" lon="6.2246967"><ele>520.0</ele><time>2026-05-02T13:14:40.273Z</time></trkpt><trkpt lat="43.82853" lon="6.224665"><ele>520.8</ele><time>2026-05-02T13:14:41.273Z</time></trkpt><trkpt lat="43.8284267" lon="6.224645"><ele>521.6</ele><time>2026-05-02T13:14:42.273Z</time></trkpt><trkpt lat="43.828335" lon="6.2246317"><ele>522.4</ele><time>2026-05-02T13:14:43.273Z</time></trkpt><trkpt lat="43.828255" lon="6.22462"><ele>523.2</ele><time>2026-05-02T13:14:44.273Z</time></trkpt><trkpt lat="43.8281833" lon="6.22461"><ele>524.0</ele><time>2026-05-02T13:14:45.274Z</time></trkpt><trkpt lat="43.8280683" lon="6.2245867"><ele>524.0</ele><time>2026-05-02T13:14:47.273Z</time></trkpt><trkpt lat="43.827985" lon="6.2246267"><ele>524.0</ele><time>2026-05-02T13:14:49.273Z</time></trkpt><trkpt lat="43.8279683" lon="6.224735"><ele>524.0</ele><time>2026-05-02T13:14:51.273Z</time></trkpt><trkpt lat="43.8280267" lon="6.224905"><ele>524.0</ele><time>2026-05-02T13:14:53.273Z</time></trkpt><trkpt lat="43.82808" lon="6.2250167"><ele>524.0</ele><time>2026-05-02T13:14:54.273Z</time></trkpt><trkpt lat="43.8281367" lon="6.2251417"><ele>525.5</ele><time>2026-05-02T13:14:55.273Z</time></trkpt><trkpt lat="43.8281883" lon="6.2252883"><ele>527.0</ele><time>2026-05-02T13:14:56.273Z</time></trkpt><trkpt lat="43.8282467" lon="6.2254317"><ele>528.5</ele><time>2026-05-02T13:14:57.273Z</time></trkpt><trkpt lat="43.8283067" lon="6.2255833"><ele>530.0</ele><time>2026-05-02T13:14:58.273Z</time></trkpt><trkpt lat="43.8283883" lon="6.2257283"><ele>528.5</ele><time>2026-05-02T13:14:59.273Z</time></trkpt><trkpt lat="43.82847" lon="6.22588"><ele>527.0</ele><time>2026-05-02T13:15:00.273Z</time></trkpt><trkpt lat="43.82856" lon="6.22603"><ele>525.5</ele><time>2026-05-02T13:15:01.273Z</time></trkpt><trkpt lat="43.8286533" lon="6.22617"><ele>524.0</ele><time>2026-05-02T13:15:02.274Z</time></trkpt><trkpt lat="43.8287433" lon="6.2262967"><ele>524.0</ele><time>2026-05-02T13:15:03.273Z</time></trkpt><trkpt lat="43.8288217" lon="6.226435"><ele>524.0</ele><time>2026-05-02T13:15:04.273Z</time></trkpt><trkpt lat="43.82888" lon="6.2266033"><ele>524.0</ele><time>2026-05-02T13:15:05.274Z</time></trkpt><trkpt lat="43.8289217" lon="6.2267917"><ele>524.0</ele><time>2026-05-02T13:15:06.273Z</time></trkpt><trkpt lat="43.8289667" lon="6.2269867"><ele>526.5</ele><time>2026-05-02T13:15:07.273Z</time></trkpt><trkpt lat="43.8290183" lon="6.227165"><ele>529.0</ele><time>2026-05-02T13:15:08.273Z</time></trkpt><trkpt lat="43.8290733" lon="6.2273183"><ele>531.5</ele><time>2026-05-02T13:15:09.273Z</time></trkpt><trkpt lat="43.8291433" lon="6.2274583"><ele>534.0</ele><time>2026-05-02T13:15:10.273Z</time></trkpt><trkpt lat="43.8292083" lon="6.22758"><ele>536.0</ele><time>2026-05-02T13:15:11.273Z</time></trkpt><trkpt lat="43.8292567" lon="6.2276867"><ele>538.0</ele><time>2026-05-02T13:15:12.273Z</time></trkpt><trkpt lat="43.829295" lon="6.2277933"><ele>540.0</ele><time>2026-05-02T13:15:13.274Z</time></trkpt><trkpt lat="43.8293067" lon="6.2278967"><ele>542.0</ele><time>2026-05-02T13:15:14.273Z</time></trkpt><trkpt lat="43.8292633" lon="6.2280233"><ele>544.0</ele><time>2026-05-02T13:15:16.273Z</time></trkpt><trkpt lat="43.8291667" lon="6.22798"><ele>544.0</ele><time>2026-05-02T13:15:18.273Z</time></trkpt><trkpt lat="43.8291017" lon="6.2278617"><ele>544.0</ele><time>2026-05-02T13:15:19.273Z</time></trkpt><trkpt lat="43.8290417" lon="6.227705"><ele>544.0</ele><time>2026-05-02T13:15:20.274Z</time></trkpt><trkpt lat="43.8289983" lon="6.2275367"><ele>544.0</ele><time>2026-05-02T13:15:21.274Z</time></trkpt><trkpt lat="43.8289333" lon="6.2273617"><ele>541.5</ele><time>2026-05-02T13:15:22.273Z</time></trkpt><trkpt lat="43.8288617" lon="6.2272017"><ele>539.0</ele><time>2026-05-02T13:15:23.273Z</time></trkpt><trkpt lat="43.8287783" lon="6.22706"><ele>536.5</ele><time>2026-05-02T13:15:24.273Z</time></trkpt><trkpt lat="43.8287" lon="6.22692"><ele>534.0</ele><time>2026-05-02T13:15:25.273Z</time></trkpt><trkpt lat="43.8286267" lon="6.2268033"><ele>534.0</ele><time>2026-05-02T13:15:26.273Z</time></trkpt><trkpt lat="43.8285533" lon="6.2267033"><ele>534.0</ele><time>2026-05-02T13:15:27.273Z</time></trkpt><trkpt lat="43.8284817" lon="6.2266167"><ele>534.0</ele><time>2026-05-02T13:15:28.273Z</time></trkpt><trkpt lat="43.8283933" lon="6.22656"><ele>534.0</ele><time>2026-05-02T13:15:29.273Z</time></trkpt><trkpt lat="43.8282883" lon="6.2265383"><ele>534.0</ele><time>2026-05-02T13:15:30.274Z</time></trkpt><trkpt lat="43.8281683" lon="6.2265683"><ele>538.0</ele><time>2026-05-02T13:15:31.273Z</time></trkpt><trkpt lat="43.8280517" lon="6.2266367"><ele>542.0</ele><time>2026-05-02T13:15:32.274Z</time></trkpt><trkpt lat="43.8279433" lon="6.226745"><ele>546.0</ele><time>2026-05-02T13:15:33.273Z</time></trkpt><trkpt lat="43.8278367" lon="6.2268517"><ele>550.0</ele><time>2026-05-02T13:15:34.273Z</time></trkpt><trkpt lat="43.8277267" lon="6.2269467"><ele>550.4</ele><time>2026-05-02T13:15:35.273Z</time></trkpt><trkpt lat="43.8276183" lon="6.2270433"><ele>550.8</ele><time>2026-05-02T13:15:36.273Z</time></trkpt><trkpt lat="43.8275133" lon="6.2271283"><ele>551.2</ele><time>2026-05-02T13:15:37.273Z</time></trkpt><trkpt lat="43.8274233" lon="6.2271833"><ele>551.6</ele><time>2026-05-02T13:15:38.273Z</time></trkpt><trkpt lat="43.8273467" lon="6.227255"><ele>552.0</ele><time>2026-05-02T13:15:39.273Z</time></trkpt><trkpt lat="43.8273017" lon="6.2273367"><ele>553.2</ele><time>2026-05-02T13:15:40.273Z</time></trkpt><trkpt lat="43.827285" lon="6.2274283"><ele>554.4000000000001</ele><time>2026-05-02T13:15:41.273Z</time></trkpt><trkpt lat="43.8273467" lon="6.2275617"><ele>555.5999999999999</ele><time>2026-05-02T13:15:43.274Z</time></trkpt><trkpt lat="43.82744" lon="6.2275967"><ele>556.8</ele><time>2026-05-02T13:15:44.273Z</time></trkpt><trkpt lat="43.827585" lon="6.2276083"><ele>558.0</ele><time>2026-05-02T13:15:45.273Z</time></trkpt><trkpt lat="43.8277467" lon="6.2276167"><ele>558.0</ele><time>2026-05-02T13:15:46.273Z</time></trkpt><trkpt lat="43.8278917" lon="6.2276317"><ele>558.0</ele><time>2026-05-02T13:15:47.273Z</time></trkpt><trkpt lat="43.828" lon="6.227665"><ele>558.0</ele><time>2026-05-02T13:15:48.273Z</time></trkpt><trkpt lat="43.8280683" lon="6.2277183"><ele>558.0</ele><time>2026-05-02T13:15:49.273Z</time></trkpt><trkpt lat="43.828105" lon="6.2277983"><ele>558.0</ele><time>2026-05-02T13:15:50.273Z</time></trkpt><trkpt lat="43.8280667" lon="6.2279433"><ele>558.0</ele><time>2026-05-02T13:15:52.273Z</time></trkpt><trkpt lat="43.8279767" lon="6.2279767"><ele>558.0</ele><time>2026-05-02T13:15:53.273Z</time></trkpt><trkpt lat="43.827865" lon="6.2279983"><ele>558.0</ele><time>2026-05-02T13:15:54.273Z</time></trkpt><trkpt lat="43.8277483" lon="6.2280333"><ele>558.0</ele><time>2026-05-02T13:15:55.273Z</time></trkpt><trkpt lat="43.8276333" lon="6.228085"><ele>558.0</ele><time>2026-05-02T13:15:56.274Z</time></trkpt><trkpt lat="43.82752" lon="6.2281483"><ele>561.0</ele><time>2026-05-02T13:15:57.274Z</time></trkpt><trkpt lat="43.82741" lon="6.2282383"><ele>564.0</ele><time>2026-05-02T13:15:58.274Z</time></trkpt><trkpt lat="43.8272983" lon="6.22833"><ele>567.0</ele><time>2026-05-02T13:15:59.273Z</time></trkpt><trkpt lat="43.8271833" lon="6.2284317"><ele>570.0</ele><time>2026-05-02T13:16:00.274Z</time></trkpt><trkpt lat="43.82706" lon="6.228545"><ele>570.0</ele><time>2026-05-02T13:16:01.274Z</time></trkpt><trkpt lat="43.8269483" lon="6.2286467"><ele>570.0</ele><time>2026-05-02T13:16:02.273Z</time></trkpt><trkpt lat="43.826835" lon="6.2287483"><ele>570.0</ele><time>2026-05-02T13:16:03.273Z</time></trkpt><trkpt lat="43.8267117" lon="6.2288333"><ele>570.0</ele><time>2026-05-02T13:16:04.274Z</time></trkpt><trkpt lat="43.8265883" lon="6.2289233"><ele>572.5</ele><time>2026-05-02T13:16:05.273Z</time></trkpt><trkpt lat="43.8264583" lon="6.2289933"><ele>575.0</ele><time>2026-05-02T13:16:06.273Z</time></trkpt><trkpt lat="43.826315" lon="6.2290483"><ele>577.5</ele><time>2026-05-02T13:16:07.273Z</time></trkpt><trkpt lat="43.8261683" lon="6.2291033"><ele>580.0</ele><time>2026-05-02T13:16:08.273Z</time></trkpt><trkpt lat="43.8260267" lon="6.22916"><ele>580.0</ele><time>2026-05-02T13:16:09.273Z</time></trkpt><trkpt lat="43.8258983" lon="6.229215"><ele>580.0</ele><time>2026-05-02T13:16:10.273Z</time></trkpt><trkpt lat="43.825775" lon="6.2292717"><ele>580.0</ele><time>2026-05-02T13:16:11.273Z</time></trkpt><trkpt lat="43.8256683" lon="6.2293383"><ele>580.0</ele><time>2026-05-02T13:16:12.273Z</time></trkpt><trkpt lat="43.8255783" lon="6.2294283"><ele>580.0</ele><time>2026-05-02T13:16:13.273Z</time></trkpt><trkpt lat="43.825515" lon="6.2295567"><ele>580.0</ele><time>2026-05-02T13:16:14.273Z</time></trkpt><trkpt lat="43.82548" lon="6.22972"><ele>580.0</ele><time>2026-05-02T13:16:15.273Z</time></trkpt><trkpt lat="43.8254817" lon="6.2299083"><ele>580.0</ele><time>2026-05-02T13:16:16.273Z</time></trkpt><trkpt lat="43.82548" lon="6.2301117"><ele>583.0</ele><time>2026-05-02T13:16:17.273Z</time></trkpt><trkpt lat="43.825475" lon="6.2303017"><ele>586.0</ele><time>2026-05-02T13:16:18.273Z</time></trkpt><trkpt lat="43.8254533" lon="6.230485"><ele>589.0</ele><time>2026-05-02T13:16:19.274Z</time></trkpt><trkpt lat="43.8254117" lon="6.2306517"><ele>592.0</ele><time>2026-05-02T13:16:20.274Z</time></trkpt><trkpt lat="43.8253583" lon="6.230805"><ele>590.5</ele><time>2026-05-02T13:16:21.273Z</time></trkpt><trkpt lat="43.8252783" lon="6.2309483"><ele>589.0</ele><time>2026-05-02T13:16:22.273Z</time></trkpt><trkpt lat="43.8251767" lon="6.2310767"><ele>587.5</ele><time>2026-05-02T13:16:23.273Z</time></trkpt><trkpt lat="43.8250633" lon="6.23121"><ele>586.0</ele><time>2026-05-02T13:16:24.273Z</time></trkpt><trkpt lat="43.8249417" lon="6.23135"><ele>591.3333333333334</ele><time>2026-05-02T13:16:25.273Z</time></trkpt><trkpt lat="43.82482" lon="6.2315017"><ele>596.6666666666666</ele><time>2026-05-02T13:16:26.273Z</time></trkpt><trkpt lat="43.8247" lon="6.23165"><ele>602.0</ele><time>2026-05-02T13:16:27.273Z</time></trkpt><trkpt lat="43.824585" lon="6.2317967"><ele>602.0</ele><time>2026-05-02T13:16:28.273Z</time></trkpt><trkpt lat="43.8244717" lon="6.2319367"><ele>602.0</ele><time>2026-05-02T13:16:29.273Z</time></trkpt><trkpt lat="43.8243617" lon="6.2320667"><ele>602.0</ele><time>2026-05-02T13:16:30.273Z</time></trkpt><trkpt lat="43.8242483" lon="6.2321767"><ele>602.0</ele><time>2026-05-02T13:16:31.273Z</time></trkpt><trkpt lat="43.8241217" lon="6.2322783"><ele>604.0</ele><time>2026-05-02T13:16:32.273Z</time></trkpt><trkpt lat="43.8239933" lon="6.2323667"><ele>606.0</ele><time>2026-05-02T13:16:33.273Z</time></trkpt><trkpt lat="43.82386" lon="6.232445"><ele>608.0</ele><time>2026-05-02T13:16:34.274Z</time></trkpt><trkpt lat="43.82374" lon="6.232485"><ele>610.0</ele><time>2026-05-02T13:16:35.273Z</time></trkpt><trkpt lat="43.823615" lon="6.2325117"><ele>610.75</ele><time>2026-05-02T13:16:36.273Z</time></trkpt><trkpt lat="43.82348" lon="6.232525"><ele>611.5</ele><time>2026-05-02T13:16:37.273Z</time></trkpt><trkpt lat="43.8233467" lon="6.2324883"><ele>612.25</ele><time>2026-05-02T13:16:38.273Z</time></trkpt><trkpt lat="43.8232267" lon="6.2323967"><ele>613.0</ele><time>2026-05-02T13:16:39.273Z</time></trkpt><trkpt lat="43.8231067" lon="6.232295"><ele>611.25</ele><time>2026-05-02T13:16:40.273Z</time></trkpt><trkpt lat="43.822995" lon="6.2321883"><ele>609.5</ele><time>2026-05-02T13:16:41.273Z</time></trkpt><trkpt lat="43.8228683" lon="6.2321083"><ele>607.75</ele><time>2026-05-02T13:16:42.274Z</time></trkpt><trkpt lat="43.8227267" lon="6.2320633"><ele>606.0</ele><time>2026-05-02T13:16:43.274Z</time></trkpt><trkpt lat="43.8225817" lon="6.2320533"><ele>606.0</ele><time>2026-05-02T13:16:44.273Z</time></trkpt><trkpt lat="43.822435" lon="6.2320683"><ele>606.0</ele><time>2026-05-02T13:16:45.273Z</time></trkpt><trkpt lat="43.8222867" lon="6.2321017"><ele>606.0</ele><time>2026-05-02T13:16:46.273Z</time></trkpt><trkpt lat="43.8221383" lon="6.232145"><ele>606.0</ele><time>2026-05-02T13:16:47.273Z</time></trkpt><trkpt lat="43.8219917" lon="6.232205"><ele>606.0</ele><time>2026-05-02T13:16:48.273Z</time></trkpt><trkpt lat="43.8218467" lon="6.2322767"><ele>606.0</ele><time>2026-05-02T13:16:49.273Z</time></trkpt><trkpt lat="43.8216983" lon="6.232355"><ele>606.0</ele><time>2026-05-02T13:16:50.273Z</time></trkpt><trkpt lat="43.8215583" lon="6.2324417"><ele>609.75</ele><time>2026-05-02T13:16:51.273Z</time></trkpt><trkpt lat="43.8214333" lon="6.2325383"><ele>613.5</ele><time>2026-05-02T13:16:52.274Z</time></trkpt><trkpt lat="43.82131" lon="6.2326467"><ele>617.25</ele><time>2026-05-02T13:16:53.273Z</time></trkpt><trkpt lat="43.8212067" lon="6.2327683"><ele>621.0</ele><time>2026-05-02T13:16:54.273Z</time></trkpt><trkpt lat="43.8211133" lon="6.2329133"><ele>621.0</ele><time>2026-05-02T13:16:55.273Z</time></trkpt><trkpt lat="43.8210317" lon="6.2330617"><ele>621.0</ele><time>2026-05-02T13:16:56.273Z</time></trkpt><trkpt lat="43.82095" lon="6.2332117"><ele>621.0</ele><time>2026-05-02T13:16:57.273Z</time></trkpt><trkpt lat="43.8208683" lon="6.2333517"><ele>621.0</ele><time>2026-05-02T13:16:58.274Z</time></trkpt><trkpt lat="43.82076" lon="6.2334667"><ele>622.25</ele><time>2026-05-02T13:16:59.273Z</time></trkpt><trkpt lat="43.8206433" lon="6.2335333"><ele>623.5</ele><time>2026-05-02T13:17:00.273Z</time></trkpt><trkpt lat="43.820525" lon="6.233575"><ele>624.75</ele><time>2026-05-02T13:17:01.273Z</time></trkpt><trkpt lat="43.8204133" lon="6.2336117"><ele>626.0</ele><time>2026-05-02T13:17:02.273Z</time></trkpt><trkpt lat="43.820305" lon="6.23367"><ele>626.0</ele><time>2026-05-02T13:17:03.274Z</time></trkpt><trkpt lat="43.8202183" lon="6.2337433"><ele>626.0</ele><time>2026-05-02T13:17:04.273Z</time></trkpt><trkpt lat="43.8201467" lon="6.2338483"><ele>626.0</ele><time>2026-05-02T13:17:05.273Z</time></trkpt><trkpt lat="43.8201017" lon="6.2339733"><ele>626.0</ele><time>2026-05-02T13:17:06.273Z</time></trkpt><trkpt lat="43.8200717" lon="6.2341"><ele>626.0</ele><time>2026-05-02T13:17:07.273Z</time></trkpt><trkpt lat="43.82003" lon="6.2342067"><ele>627.6666666666666</ele><time>2026-05-02T13:17:08.274Z</time></trkpt><trkpt lat="43.8199817" lon="6.2342817"><ele>629.3333333333333</ele><time>2026-05-02T13:17:09.273Z</time></trkpt><trkpt lat="43.819925" lon="6.234345"><ele>631.0</ele><time>2026-05-02T13:17:10.273Z</time></trkpt><trkpt lat="43.8198567" lon="6.2343917"><ele>632.6666666666666</ele><time>2026-05-02T13:17:11.273Z</time></trkpt><trkpt lat="43.8197833" lon="6.2344183"><ele>634.3333333333334</ele><time>2026-05-02T13:17:12.273Z</time></trkpt><trkpt lat="43.8197083" lon="6.234415"><ele>636.0</ele><time>2026-05-02T13:17:13.274Z</time></trkpt><trkpt lat="43.819625" lon="6.23441"><ele>636.0</ele><time>2026-05-02T13:17:14.273Z</time></trkpt><trkpt lat="43.8195367" lon="6.234425"><ele>636.0</ele><time>2026-05-02T13:17:15.273Z</time></trkpt><trkpt lat="43.81945" lon="6.2344583"><ele>636.0</ele><time>2026-05-02T13:17:16.273Z</time></trkpt><trkpt lat="43.819365" lon="6.234505"><ele>636.0</ele><time>2026-05-02T13:17:17.273Z</time></trkpt><trkpt lat="43.8192883" lon="6.2345733"><ele>636.0</ele><time>2026-05-02T13:17:18.273Z</time></trkpt><trkpt lat="43.8192217" lon="6.23465"><ele>636.0</ele><time>2026-05-02T13:17:19.273Z</time></trkpt><trkpt lat="43.8191733" lon="6.2347533"><ele>638.0</ele><time>2026-05-02T13:17:20.273Z</time></trkpt><trkpt lat="43.8191333" lon="6.2348683"><ele>640.0</ele><time>2026-05-02T13:17:21.273Z</time></trkpt><trkpt lat="43.8190933" lon="6.2349983"><ele>642.0</ele><time>2026-05-02T13:17:22.273Z</time></trkpt><trkpt lat="43.8190733" lon="6.2351433"><ele>644.0</ele><time>2026-05-02T13:17:23.273Z</time></trkpt><trkpt lat="43.8190767" lon="6.2353367"><ele>646.0</ele><time>2026-05-02T13:17:24.273Z</time></trkpt><trkpt lat="43.8190883" lon="6.2355667"><ele>648.3333333333334</ele><time>2026-05-02T13:17:25.273Z</time></trkpt><trkpt lat="43.819095" lon="6.235815"><ele>650.6666666666666</ele><time>2026-05-02T13:17:26.273Z</time></trkpt><trkpt lat="43.819075" lon="6.236055"><ele>653.0</ele><time>2026-05-02T13:17:27.273Z</time></trkpt><trkpt lat="43.8190283" lon="6.2362667"><ele>655.0</ele><time>2026-05-02T13:17:28.273Z</time></trkpt><trkpt lat="43.81896" lon="6.2364783"><ele>657.0</ele><time>2026-05-02T13:17:29.273Z</time></trkpt><trkpt lat="43.8189117" lon="6.2366817"><ele>659.0</ele><time>2026-05-02T13:17:30.273Z</time></trkpt><trkpt lat="43.8188917" lon="6.23685"><ele>661.0</ele><time>2026-05-02T13:17:31.273Z</time></trkpt><trkpt lat="43.8188933" lon="6.2370367"><ele>661.0</ele><time>2026-05-02T13:17:32.273Z</time></trkpt><trkpt lat="43.81891" lon="6.2372233"><ele>661.0</ele><time>2026-05-02T13:17:33.273Z</time></trkpt><trkpt lat="43.8189217" lon="6.237405"><ele>661.0</ele><time>2026-05-02T13:17:34.273Z</time></trkpt><trkpt lat="43.81891" lon="6.2375867"><ele>661.0</ele><time>2026-05-02T13:17:35.273Z</time></trkpt><trkpt lat="43.818865" lon="6.2377583"><ele>661.0</ele><time>2026-05-02T13:17:36.273Z</time></trkpt><trkpt lat="43.8188183" lon="6.237925"><ele>661.0</ele><time>2026-05-02T13:17:37.273Z</time></trkpt><trkpt lat="43.8187567" lon="6.238085"><ele>661.0</ele><time>2026-05-02T13:17:38.273Z</time></trkpt><trkpt lat="43.8186667" lon="6.238245"><ele>661.0</ele><time>2026-05-02T13:17:39.273Z</time></trkpt><trkpt lat="43.8185933" lon="6.2384133"><ele>661.75</ele><time>2026-05-02T13:17:40.273Z</time></trkpt><trkpt lat="43.8185133" lon="6.2385767"><ele>662.5</ele><time>2026-05-02T13:17:41.273Z</time></trkpt><trkpt lat="43.8184367" lon="6.238765"><ele>663.25</ele><time>2026-05-02T13:17:42.273Z</time></trkpt><trkpt lat="43.8183767" lon="6.2389483"><ele>664.0</ele><time>2026-05-02T13:17:43.273Z</time></trkpt><trkpt lat="43.8183117" lon="6.2391333"><ele>662.5</ele><time>2026-05-02T13:17:44.273Z</time></trkpt><trkpt lat="43.8182483" lon="6.2393233"><ele>661.0</ele><time>2026-05-02T13:17:45.273Z</time></trkpt><trkpt lat="43.8182067" lon="6.2395267"><ele>659.5</ele><time>2026-05-02T13:17:46.273Z</time></trkpt><trkpt lat="43.818165" lon="6.2397167"><ele>658.0</ele><time>2026-05-02T13:17:47.273Z</time></trkpt><trkpt lat="43.8181367" lon="6.2398967"><ele>658.0</ele><time>2026-05-02T13:17:48.274Z</time></trkpt><trkpt lat="43.8181233" lon="6.240075"><ele>658.0</ele><time>2026-05-02T13:17:49.273Z</time></trkpt><trkpt lat="43.8181033" lon="6.2402717"><ele>658.0</ele><time>2026-05-02T13:17:50.273Z</time></trkpt><trkpt lat="43.81808" lon="6.2404633"><ele>658.0</ele><time>2026-05-02T13:17:51.273Z</time></trkpt><trkpt lat="43.8180417" lon="6.2406567"><ele>658.25</ele><time>2026-05-02T13:17:52.273Z</time></trkpt><trkpt lat="43.8180083" lon="6.2408417"><ele>658.5</ele><time>2026-05-02T13:17:53.273Z</time></trkpt><trkpt lat="43.8179867" lon="6.241"><ele>658.75</ele><time>2026-05-02T13:17:54.273Z</time></trkpt><trkpt lat="43.8179767" lon="6.2411833"><ele>659.0</ele><time>2026-05-02T13:17:55.273Z</time></trkpt><trkpt lat="43.8179817" lon="6.2413483"><ele>660.25</ele><time>2026-05-02T13:17:56.273Z</time></trkpt><trkpt lat="43.8179983" lon="6.2415133"><ele>661.5</ele><time>2026-05-02T13:17:57.273Z</time></trkpt><trkpt lat="43.8180167" lon="6.2416883"><ele>662.75</ele><time>2026-05-02T13:17:58.273Z</time></trkpt><trkpt lat="43.8180367" lon="6.2418833"><ele>664.0</ele><time>2026-05-02T13:17:59.273Z</time></trkpt><trkpt lat="43.8180383" lon="6.242065"><ele>664.0</ele><time>2026-05-02T13:18:00.274Z</time></trkpt><trkpt lat="43.8180217" lon="6.2422417"><ele>664.0</ele><time>2026-05-02T13:18:01.273Z</time></trkpt><trkpt lat="43.817995" lon="6.2424283"><ele>664.0</ele><time>2026-05-02T13:18:02.274Z</time></trkpt><trkpt lat="43.8179567" lon="6.2426133"><ele>664.0</ele><time>2026-05-02T13:18:03.273Z</time></trkpt><trkpt lat="43.8179033" lon="6.2427883"><ele>664.5</ele><time>2026-05-02T13:18:04.273Z</time></trkpt><trkpt lat="43.8178583" lon="6.24296"><ele>665.0</ele><time>2026-05-02T13:18:05.273Z</time></trkpt><trkpt lat="43.8178083" lon="6.24313"><ele>665.5</ele><time>2026-05-02T13:18:06.273Z</time></trkpt><trkpt lat="43.8177817" lon="6.2432633"><ele>666.0</ele><time>2026-05-02T13:18:07.273Z</time></trkpt><trkpt lat="43.81775" lon="6.2433867"><ele>666.0</ele><time>2026-05-02T13:18:08.273Z</time></trkpt><trkpt lat="43.8177017" lon="6.2434767"><ele>666.0</ele><time>2026-05-02T13:18:09.273Z</time></trkpt><trkpt lat="43.8176467" lon="6.2435483"><ele>666.0</ele><time>2026-05-02T13:18:10.273Z</time></trkpt><trkpt lat="43.81758" lon="6.2435933"><ele>666.0</ele><time>2026-05-02T13:18:11.273Z</time></trkpt><trkpt lat="43.817445" lon="6.2435417"><ele>666.0</ele><time>2026-05-02T13:18:13.273Z</time></trkpt><trkpt lat="43.8173733" lon="6.24346"><ele>666.0</ele><time>2026-05-02T13:18:14.273Z</time></trkpt><trkpt lat="43.817295" lon="6.24334"><ele>666.0</ele><time>2026-05-02T13:18:15.274Z</time></trkpt><trkpt lat="43.8171917" lon="6.2431833"><ele>666.0</ele><time>2026-05-02T13:18:16.274Z</time></trkpt><trkpt lat="43.81708" lon="6.243"><ele>666.0</ele><time>2026-05-02T13:18:17.273Z</time></trkpt><trkpt lat="43.8169717" lon="6.2428333"><ele>665.5</ele><time>2026-05-02T13:18:18.273Z</time></trkpt><trkpt lat="43.8168717" lon="6.242705"><ele>665.0</ele><time>2026-05-02T13:18:19.273Z</time></trkpt><trkpt lat="43.8167633" lon="6.2426"><ele>664.5</ele><time>2026-05-02T13:18:20.273Z</time></trkpt><trkpt lat="43.8166433" lon="6.242535"><ele>664.0</ele><time>2026-05-02T13:18:21.273Z</time></trkpt><trkpt lat="43.81651" lon="6.2425117"><ele>664.0</ele><time>2026-05-02T13:18:22.273Z</time></trkpt><trkpt lat="43.8163683" lon="6.2424983"><ele>664.0</ele><time>2026-05-02T13:18:23.273Z</time></trkpt><trkpt lat="43.8162333" lon="6.24252"><ele>664.0</ele><time>2026-05-02T13:18:24.273Z</time></trkpt><trkpt lat="43.8160983" lon="6.2425717"><ele>664.0</ele><time>2026-05-02T13:18:25.273Z</time></trkpt><trkpt lat="43.81596" lon="6.2426233"><ele>662.75</ele><time>2026-05-02T13:18:26.273Z</time></trkpt><trkpt lat="43.815825" lon="6.2426667"><ele>661.5</ele><time>2026-05-02T13:18:27.273Z</time></trkpt><trkpt lat="43.8156817" lon="6.2427117"><ele>660.25</ele><time>2026-05-02T13:18:28.274Z</time></trkpt><trkpt lat="43.8155517" lon="6.24277"><ele>659.0</ele><time>2026-05-02T13:18:29.273Z</time></trkpt><trkpt lat="43.8154233" lon="6.242855"><ele>659.0</ele><time>2026-05-02T13:18:30.274Z</time></trkpt><trkpt lat="43.815315" lon="6.24296"><ele>659.0</ele><time>2026-05-02T13:18:31.273Z</time></trkpt><trkpt lat="43.8152" lon="6.2430533"><ele>659.0</ele><time>2026-05-02T13:18:32.273Z</time></trkpt><trkpt lat="43.8150983" lon="6.24317"><ele>659.0</ele><time>2026-05-02T13:18:33.273Z</time></trkpt><trkpt lat="43.815015" lon="6.243315"><ele>659.75</ele><time>2026-05-02T13:18:34.273Z</time></trkpt><trkpt lat="43.8149583" lon="6.2434883"><ele>660.5</ele><time>2026-05-02T13:18:35.274Z</time></trkpt><trkpt lat="43.814915" lon="6.2436733"><ele>661.25</ele><time>2026-05-02T13:18:36.273Z</time></trkpt><trkpt lat="43.8148683" lon="6.2438717"><ele>662.0</ele><time>2026-05-02T13:18:37.273Z</time></trkpt><trkpt lat="43.81482" lon="6.2440683"><ele>665.0</ele><time>2026-05-02T13:18:38.273Z</time></trkpt><trkpt lat="43.8147783" lon="6.24426"><ele>668.0</ele><time>2026-05-02T13:18:39.273Z</time></trkpt><trkpt lat="43.8147433" lon="6.2444533"><ele>671.0</ele><time>2026-05-02T13:18:40.273Z</time></trkpt><trkpt lat="43.814715" lon="6.244645"><ele>674.0</ele><time>2026-05-02T13:18:41.274Z</time></trkpt><trkpt lat="43.81472" lon="6.2448433"><ele>675.0</ele><time>2026-05-02T13:18:42.273Z</time></trkpt><trkpt lat="43.81473" lon="6.24503"><ele>676.0</ele><time>2026-05-02T13:18:43.273Z</time></trkpt><trkpt lat="43.8147533" lon="6.2452217"><ele>677.0</ele><time>2026-05-02T13:18:44.273Z</time></trkpt><trkpt lat="43.8147717" lon="6.2454233"><ele>678.0</ele><time>2026-05-02T13:18:45.273Z</time></trkpt><trkpt lat="43.8148033" lon="6.2456083"><ele>677.25</ele><time>2026-05-02T13:18:46.273Z</time></trkpt><trkpt lat="43.8148533" lon="6.2457717"><ele>676.5</ele><time>2026-05-02T13:18:47.273Z</time></trkpt><trkpt lat="43.8149367" lon="6.2459333"><ele>675.75</ele><time>2026-05-02T13:18:48.274Z</time></trkpt><trkpt lat="43.8150317" lon="6.2460917"><ele>675.0</ele><time>2026-05-02T13:18:49.273Z</time></trkpt><trkpt lat="43.8151183" lon="6.2462383"><ele>678.5</ele><time>2026-05-02T13:18:50.273Z</time></trkpt><trkpt lat="43.8151833" lon="6.2463983"><ele>682.0</ele><time>2026-05-02T13:18:51.273Z</time></trkpt><trkpt lat="43.8152133" lon="6.246555"><ele>685.5</ele><time>2026-05-02T13:18:52.273Z</time></trkpt><trkpt lat="43.8152083" lon="6.24673"><ele>689.0</ele><time>2026-05-02T13:18:53.274Z</time></trkpt><trkpt lat="43.8151667" lon="6.2468783"><ele>684.75</ele><time>2026-05-02T13:18:54.273Z</time></trkpt><trkpt lat="43.8151083" lon="6.2470317"><ele>680.5</ele><time>2026-05-02T13:18:55.273Z</time></trkpt><trkpt lat="43.8150667" lon="6.2471967"><ele>676.25</ele><time>2026-05-02T13:18:56.273Z</time></trkpt><trkpt lat="43.8150517" lon="6.2473633"><ele>672.0</ele><time>2026-05-02T13:18:57.273Z</time></trkpt><trkpt lat="43.81507" lon="6.2475367"><ele>672.2</ele><time>2026-05-02T13:18:58.273Z</time></trkpt><trkpt lat="43.8151083" lon="6.2476933"><ele>672.4000000000001</ele><time>2026-05-02T13:18:59.274Z</time></trkpt><trkpt lat="43.815135" lon="6.2478367"><ele>672.5999999999999</ele><time>2026-05-02T13:19:00.273Z</time></trkpt><trkpt lat="43.8151283" lon="6.2479817"><ele>672.8</ele><time>2026-05-02T13:19:01.273Z</time></trkpt><trkpt lat="43.8150817" lon="6.24809"><ele>673.0</ele><time>2026-05-02T13:19:02.273Z</time></trkpt><trkpt lat="43.8150033" lon="6.2481717"><ele>673.0</ele><time>2026-05-02T13:19:03.273Z</time></trkpt><trkpt lat="43.8148983" lon="6.2482333"><ele>673.0</ele><time>2026-05-02T13:19:04.273Z</time></trkpt><trkpt lat="43.8147517" lon="6.248305"><ele>673.0</ele><time>2026-05-02T13:19:05.273Z</time></trkpt><trkpt lat="43.8146183" lon="6.2484067"><ele>673.0</ele><time>2026-05-02T13:19:06.273Z</time></trkpt><trkpt lat="43.8144983" lon="6.2485217"><ele>673.0</ele><time>2026-05-02T13:19:07.273Z</time></trkpt><trkpt lat="43.81439" lon="6.2486567"><ele>673.0</ele><time>2026-05-02T13:19:08.273Z</time></trkpt><trkpt lat="43.8142983" lon="6.2488117"><ele>673.0</ele><time>2026-05-02T13:19:09.273Z</time></trkpt><trkpt lat="43.814235" lon="6.2489517"><ele>673.0</ele><time>2026-05-02T13:19:10.273Z</time></trkpt><trkpt lat="43.8141933" lon="6.249135"><ele>669.5</ele><time>2026-05-02T13:19:11.273Z</time></trkpt><trkpt lat="43.8141767" lon="6.2493117"><ele>666.0</ele><time>2026-05-02T13:19:12.273Z</time></trkpt><trkpt lat="43.814195" lon="6.2494767"><ele>662.5</ele><time>2026-05-02T13:19:13.273Z</time></trkpt><trkpt lat="43.81424" lon="6.249625"><ele>659.0</ele><time>2026-05-02T13:19:14.273Z</time></trkpt><trkpt lat="43.81428" lon="6.2497667"><ele>660.0</ele><time>2026-05-02T13:19:15.274Z</time></trkpt><trkpt lat="43.8142967" lon="6.2498867"><ele>661.0</ele><time>2026-05-02T13:19:16.273Z</time></trkpt><trkpt lat="43.814275" lon="6.250005"><ele>662.0</ele><time>2026-05-02T13:19:17.273Z</time></trkpt><trkpt lat="43.8142133" lon="6.2500917"><ele>663.0</ele><time>2026-05-02T13:19:18.273Z</time></trkpt><trkpt lat="43.814115" lon="6.2501767"><ele>664.0</ele><time>2026-05-02T13:19:19.273Z</time></trkpt><trkpt lat="43.813975" lon="6.2502383"><ele>664.0</ele><time>2026-05-02T13:19:20.273Z</time></trkpt><trkpt lat="43.813825" lon="6.250305"><ele>664.0</ele><time>2026-05-02T13:19:21.273Z</time></trkpt><trkpt lat="43.8136783" lon="6.2503733"><ele>664.0</ele><time>2026-05-02T13:19:22.273Z</time></trkpt><trkpt lat="43.8135417" lon="6.2504267"><ele>659.25</ele><time>2026-05-02T13:19:23.273Z</time></trkpt><trkpt lat="43.81342" lon="6.2504633"><ele>654.5</ele><time>2026-05-02T13:19:24.273Z</time></trkpt><trkpt lat="43.8132867" lon="6.2504533"><ele>649.75</ele><time>2026-05-02T13:19:25.273Z</time></trkpt><trkpt lat="43.81317" lon="6.2503867"><ele>645.0</ele><time>2026-05-02T13:19:26.274Z</time></trkpt><trkpt lat="43.8130767" lon="6.2503117"><ele>645.0</ele><time>2026-05-02T13:19:27.274Z</time></trkpt><trkpt lat="43.812985" lon="6.2502667"><ele>645.0</ele><time>2026-05-02T13:19:28.273Z</time></trkpt><trkpt lat="43.8129033" lon="6.250265"><ele>645.0</ele><time>2026-05-02T13:19:29.273Z</time></trkpt><trkpt lat="43.8128317" lon="6.2503067"><ele>645.0</ele><time>2026-05-02T13:19:30.273Z</time></trkpt><trkpt lat="43.8127833" lon="6.250395"><ele>645.0</ele><time>2026-05-02T13:19:31.273Z</time></trkpt><trkpt lat="43.8127533" lon="6.2505467"><ele>649.6666666666666</ele><time>2026-05-02T13:19:32.273Z</time></trkpt><trkpt lat="43.8127267" lon="6.2507317"><ele>654.3333333333333</ele><time>2026-05-02T13:19:33.273Z</time></trkpt><trkpt lat="43.8127417" lon="6.25096"><ele>659.0</ele><time>2026-05-02T13:19:34.273Z</time></trkpt><trkpt lat="43.8127667" lon="6.2511883"><ele>659.0</ele><time>2026-05-02T13:19:35.273Z</time></trkpt><trkpt lat="43.8127883" lon="6.25141"><ele>659.0</ele><time>2026-05-02T13:19:36.273Z</time></trkpt><trkpt lat="43.8128083" lon="6.2516167"><ele>659.0</ele><time>2026-05-02T13:19:37.273Z</time></trkpt><trkpt lat="43.81283" lon="6.251805"><ele>660.5</ele><time>2026-05-02T13:19:38.273Z</time></trkpt><trkpt lat="43.8128567" lon="6.2519817"><ele>662.0</ele><time>2026-05-02T13:19:39.273Z</time></trkpt><trkpt lat="43.81288" lon="6.2521483"><ele>663.5</ele><time>2026-05-02T13:19:40.273Z</time></trkpt><trkpt lat="43.8128933" lon="6.2523233"><ele>665.0</ele><time>2026-05-02T13:19:41.274Z</time></trkpt><trkpt lat="43.8129033" lon="6.2524967"><ele>666.0</ele><time>2026-05-02T13:19:42.273Z</time></trkpt><trkpt lat="43.8129133" lon="6.2526767"><ele>667.0</ele><time>2026-05-02T13:19:43.273Z</time></trkpt><trkpt lat="43.812925" lon="6.2528417"><ele>668.0</ele><time>2026-05-02T13:19:44.273Z</time></trkpt><trkpt lat="43.812925" lon="6.2530017"><ele>669.0</ele><time>2026-05-02T13:19:45.273Z</time></trkpt><trkpt lat="43.81292" lon="6.2531633"><ele>669.75</ele><time>2026-05-02T13:19:46.273Z</time></trkpt><trkpt lat="43.812885" lon="6.253325"><ele>670.5</ele><time>2026-05-02T13:19:47.273Z</time></trkpt><trkpt lat="43.8128233" lon="6.2534783"><ele>671.25</ele><time>2026-05-02T13:19:48.273Z</time></trkpt><trkpt lat="43.81273" lon="6.2536117"><ele>672.0</ele><time>2026-05-02T13:19:49.273Z</time></trkpt><trkpt lat="43.8126183" lon="6.2537217"><ele>666.5</ele><time>2026-05-02T13:19:50.274Z</time></trkpt><trkpt lat="43.8125083" lon="6.2538"><ele>661.0</ele><time>2026-05-02T13:19:51.273Z</time></trkpt><trkpt lat="43.8124183" lon="6.2539217"><ele>655.5</ele><time>2026-05-02T13:19:52.273Z</time></trkpt><trkpt lat="43.8123433" lon="6.2540617"><ele>650.0</ele><time>2026-05-02T13:19:53.273Z</time></trkpt><trkpt lat="43.812285" lon="6.2542067"><ele>650.0</ele><time>2026-05-02T13:19:54.274Z</time></trkpt><trkpt lat="43.81223" lon="6.2543533"><ele>650.0</ele><time>2026-05-02T13:19:55.273Z</time></trkpt><trkpt lat="43.812205" lon="6.25449"><ele>650.0</ele><time>2026-05-02T13:19:56.273Z</time></trkpt><trkpt lat="43.8122083" lon="6.2546167"><ele>650.0</ele><time>2026-05-02T13:19:57.273Z</time></trkpt><trkpt lat="43.812225" lon="6.254735"><ele>650.0</ele><time>2026-05-02T13:19:58.273Z</time></trkpt><trkpt lat="43.812255" lon="6.2548533"><ele>652.3333333333333</ele><time>2026-05-02T13:19:59.273Z</time></trkpt><trkpt lat="43.8122767" lon="6.2549683"><ele>654.6666666666666</ele><time>2026-05-02T13:20:00.273Z</time></trkpt><trkpt lat="43.8122783" lon="6.2550883"><ele>657.0</ele><time>2026-05-02T13:20:01.273Z</time></trkpt><trkpt lat="43.8122367" lon="6.25519"><ele>659.3333333333334</ele><time>2026-05-02T13:20:02.273Z</time></trkpt><trkpt lat="43.8121633" lon="6.25526"><ele>661.6666666666667</ele><time>2026-05-02T13:20:03.273Z</time></trkpt><trkpt lat="43.812075" lon="6.255295"><ele>664.0</ele><time>2026-05-02T13:20:04.273Z</time></trkpt><trkpt lat="43.8119383" lon="6.25528"><ele>657.3333333333334</ele><time>2026-05-02T13:20:05.273Z</time></trkpt><trkpt lat="43.8117617" lon="6.2552517"><ele>650.6666666666666</ele><time>2026-05-02T13:20:06.273Z</time></trkpt><trkpt lat="43.81159" lon="6.25523"><ele>644.0</ele><time>2026-05-02T13:20:07.273Z</time></trkpt><trkpt lat="43.8114433" lon="6.2552183"><ele>644.0</ele><time>2026-05-02T13:20:08.273Z</time></trkpt><trkpt lat="43.81132" lon="6.2551883"><ele>644.0</ele><time>2026-05-02T13:20:09.273Z</time></trkpt><trkpt lat="43.8112" lon="6.255145"><ele>644.0</ele><time>2026-05-02T13:20:10.273Z</time></trkpt><trkpt lat="43.8110833" lon="6.2551233"><ele>644.0</ele><time>2026-05-02T13:20:11.273Z</time></trkpt><trkpt lat="43.8109883" lon="6.2550983"><ele>643.8000000000001</ele><time>2026-05-02T13:20:12.273Z</time></trkpt><trkpt lat="43.8108983" lon="6.2551167"><ele>643.6</ele><time>2026-05-02T13:20:13.273Z</time></trkpt><trkpt lat="43.810815" lon="6.25516"><ele>643.4</ele><time>2026-05-02T13:20:14.273Z</time></trkpt><trkpt lat="43.8107417" lon="6.2552283"><ele>643.2</ele><time>2026-05-02T13:20:15.273Z</time></trkpt><trkpt lat="43.8106883" lon="6.2553317"><ele>643.0</ele><time>2026-05-02T13:20:16.273Z</time></trkpt><trkpt lat="43.8106333" lon="6.2554583"><ele>643.0</ele><time>2026-05-02T13:20:17.274Z</time></trkpt><trkpt lat="43.810565" lon="6.2555483"><ele>643.0</ele><time>2026-05-02T13:20:18.273Z</time></trkpt><trkpt lat="43.810475" lon="6.2555867"><ele>643.0</ele><time>2026-05-02T13:20:19.273Z</time></trkpt><trkpt lat="43.8103833" lon="6.255585"><ele>643.0</ele><time>2026-05-02T13:20:20.273Z</time></trkpt><trkpt lat="43.81029" lon="6.2555533"><ele>643.0</ele><time>2026-05-02T13:20:21.273Z</time></trkpt><trkpt lat="43.810195" lon="6.25548"><ele>644.5999999999999</ele><time>2026-05-02T13:20:22.273Z</time></trkpt><trkpt lat="43.8101067" lon="6.2553883"><ele>646.1999999999999</ele><time>2026-05-02T13:20:23.274Z</time></trkpt><trkpt lat="43.8100317" lon="6.2552817"><ele>647.8</ele><time>2026-05-02T13:20:24.273Z</time></trkpt><trkpt lat="43.8099733" lon="6.255155"><ele>649.4</ele><time>2026-05-02T13:20:25.273Z</time></trkpt><trkpt lat="43.8099233" lon="6.25502"><ele>651.0</ele><time>2026-05-02T13:20:26.273Z</time></trkpt><trkpt lat="43.8098517" lon="6.2548967"><ele>651.0</ele><time>2026-05-02T13:20:27.273Z</time></trkpt><trkpt lat="43.8097817" lon="6.2548083"><ele>651.0</ele><time>2026-05-02T13:20:28.273Z</time></trkpt><trkpt lat="43.8097083" lon="6.2547367"><ele>651.0</ele><time>2026-05-02T13:20:29.273Z</time></trkpt><trkpt lat="43.809635" lon="6.2546817"><ele>651.0</ele><time>2026-05-02T13:20:30.273Z</time></trkpt><trkpt lat="43.8095567" lon="6.2546267"><ele>651.0</ele><time>2026-05-02T13:20:31.273Z</time></trkpt><trkpt lat="43.8094717" lon="6.2545717"><ele>651.0</ele><time>2026-05-02T13:20:32.273Z</time></trkpt><trkpt lat="43.8093767" lon="6.254515"><ele>649.0</ele><time>2026-05-02T13:20:33.273Z</time></trkpt><trkpt lat="43.8092733" lon="6.2544683"><ele>647.0</ele><time>2026-05-02T13:20:34.273Z</time></trkpt><trkpt lat="43.8091633" lon="6.25443"><ele>645.0</ele><time>2026-05-02T13:20:35.274Z</time></trkpt><trkpt lat="43.8090617" lon="6.2544017"><ele>643.0</ele><time>2026-05-02T13:20:36.273Z</time></trkpt><trkpt lat="43.80896" lon="6.2544"><ele>641.0</ele><time>2026-05-02T13:20:37.273Z</time></trkpt><trkpt lat="43.8088683" lon="6.2544267"><ele>641.0</ele><time>2026-05-02T13:20:38.273Z</time></trkpt><trkpt lat="43.8087867" lon="6.2544767"><ele>641.0</ele><time>2026-05-02T13:20:39.273Z</time></trkpt><trkpt lat="43.8087217" lon="6.2545583"><ele>641.0</ele><time>2026-05-02T13:20:40.273Z</time></trkpt><trkpt lat="43.8086633" lon="6.2546483"><ele>641.0</ele><time>2026-05-02T13:20:41.274Z</time></trkpt><trkpt lat="43.808585" lon="6.2547317"><ele>641.0</ele><time>2026-05-02T13:20:42.273Z</time></trkpt><trkpt lat="43.8084883" lon="6.25479"><ele>647.75</ele><time>2026-05-02T13:20:43.273Z</time></trkpt><trkpt lat="43.8083783" lon="6.2548133"><ele>654.5</ele><time>2026-05-02T13:20:44.273Z</time></trkpt><trkpt lat="43.808265" lon="6.2548183"><ele>661.25</ele><time>2026-05-02T13:20:45.273Z</time></trkpt><trkpt lat="43.8081467" lon="6.2548017"><ele>668.0</ele><time>2026-05-02T13:20:46.273Z</time></trkpt><trkpt lat="43.8080317" lon="6.2547933"><ele>659.5</ele><time>2026-05-02T13:20:47.274Z</time></trkpt><trkpt lat="43.8079133" lon="6.2547717"><ele>651.0</ele><time>2026-05-02T13:20:48.274Z</time></trkpt><trkpt lat="43.8078" lon="6.2547533"><ele>642.5</ele><time>2026-05-02T13:20:49.273Z</time></trkpt><trkpt lat="43.8076833" lon="6.2547283"><ele>634.0</ele><time>2026-05-02T13:20:50.273Z</time></trkpt><trkpt lat="43.8075633" lon="6.25469"><ele>633.75</ele><time>2026-05-02T13:20:51.273Z</time></trkpt><trkpt lat="43.8074483" lon="6.2546517"><ele>633.5</ele><time>2026-05-02T13:20:52.273Z</time></trkpt><trkpt lat="43.8073283" lon="6.2546117"><ele>633.25</ele><time>2026-05-02T13:20:53.273Z</time></trkpt><trkpt lat="43.8072133" lon="6.2545633"><ele>633.0</ele><time>2026-05-02T13:20:54.273Z</time></trkpt><trkpt lat="43.807105" lon="6.2545217"><ele>633.0</ele><time>2026-05-02T13:20:55.273Z</time></trkpt><trkpt lat="43.8070017" lon="6.25448"><ele>633.0</ele><time>2026-05-02T13:20:56.273Z</time></trkpt><trkpt lat="43.8069083" lon="6.25443"><ele>633.0</ele><time>2026-05-02T13:20:57.273Z</time></trkpt><trkpt lat="43.8068133" lon="6.2544017"><ele>633.0</ele><time>2026-05-02T13:20:58.273Z</time></trkpt><trkpt lat="43.80672" lon="6.2543817"><ele>633.0</ele><time>2026-05-02T13:20:59.273Z</time></trkpt><trkpt lat="43.8066217" lon="6.2543917"><ele>634.0</ele><time>2026-05-02T13:21:00.273Z</time></trkpt><trkpt lat="43.8065317" lon="6.2544367"><ele>635.0</ele><time>2026-05-02T13:21:01.273Z</time></trkpt><trkpt lat="43.806455" lon="6.2545"><ele>636.0</ele><time>2026-05-02T13:21:02.274Z</time></trkpt><trkpt lat="43.8063767" lon="6.2545417"><ele>637.0</ele><time>2026-05-02T13:21:03.274Z</time></trkpt><trkpt lat="43.8063033" lon="6.2545517"><ele>638.0</ele><time>2026-05-02T13:21:04.273Z</time></trkpt><trkpt lat="43.8062283" lon="6.2545233"><ele>639.0</ele><time>2026-05-02T13:21:05.273Z</time></trkpt><trkpt lat="43.8061533" lon="6.25446"><ele>639.0</ele><time>2026-05-02T13:21:06.273Z</time></trkpt><trkpt lat="43.80607" lon="6.2543717"><ele>639.0</ele><time>2026-05-02T13:21:07.273Z</time></trkpt><trkpt lat="43.8060033" lon="6.25428"><ele>639.0</ele><time>2026-05-02T13:21:08.273Z</time></trkpt><trkpt lat="43.8059433" lon="6.2541967"><ele>639.0</ele><time>2026-05-02T13:21:09.273Z</time></trkpt><trkpt lat="43.8058733" lon="6.2541217"><ele>639.0</ele><time>2026-05-02T13:21:10.274Z</time></trkpt><trkpt lat="43.8058217" lon="6.25406"><ele>639.0</ele><time>2026-05-02T13:21:11.273Z</time></trkpt><trkpt lat="43.8057567" lon="6.2540167"><ele>643.2</ele><time>2026-05-02T13:21:12.273Z</time></trkpt><trkpt lat="43.80568" lon="6.253985"><ele>647.4</ele><time>2026-05-02T13:21:13.273Z</time></trkpt><trkpt lat="43.8055917" lon="6.2539667"><ele>651.6</ele><time>2026-05-02T13:21:14.273Z</time></trkpt><trkpt lat="43.8054917" lon="6.25395"><ele>655.8</ele><time>2026-05-02T13:21:15.273Z</time></trkpt><trkpt lat="43.80539" lon="6.2539467"><ele>660.0</ele><time>2026-05-02T13:21:16.273Z</time></trkpt><trkpt lat="43.8052733" lon="6.25395"><ele>662.75</ele><time>2026-05-02T13:21:17.273Z</time></trkpt><trkpt lat="43.805155" lon="6.25396"><ele>665.5</ele><time>2026-05-02T13:21:18.273Z</time></trkpt><trkpt lat="43.80503" lon="6.2539617"><ele>668.25</ele><time>2026-05-02T13:21:19.273Z</time></trkpt><trkpt lat="43.8049083" lon="6.2539617"><ele>671.0</ele><time>2026-05-02T13:21:20.273Z</time></trkpt><trkpt lat="43.8047867" lon="6.2539517"><ele>671.0</ele><time>2026-05-02T13:21:21.273Z</time></trkpt><trkpt lat="43.8046667" lon="6.2539383"><ele>671.0</ele><time>2026-05-02T13:21:22.274Z</time></trkpt><trkpt lat="43.80455" lon="6.25396"><ele>671.0</ele><time>2026-05-02T13:21:23.273Z</time></trkpt><trkpt lat="43.8044433" lon="6.2540083"><ele>671.0</ele><time>2026-05-02T13:21:24.273Z</time></trkpt><trkpt lat="43.8043483" lon="6.2540583"><ele>669.6666666666666</ele><time>2026-05-02T13:21:25.273Z</time></trkpt><trkpt lat="43.8042533" lon="6.254075"><ele>668.3333333333333</ele><time>2026-05-02T13:21:26.273Z</time></trkpt><trkpt lat="43.804165" lon="6.2540533"><ele>667.0</ele><time>2026-05-02T13:21:27.273Z</time></trkpt><trkpt lat="43.8040867" lon="6.2540033"><ele>665.6666666666666</ele><time>2026-05-02T13:21:28.273Z</time></trkpt><trkpt lat="43.8040083" lon="6.253955"><ele>664.3333333333334</ele><time>2026-05-02T13:21:29.273Z</time></trkpt><trkpt lat="43.8039217" lon="6.253925"><ele>663.0</ele><time>2026-05-02T13:21:30.273Z</time></trkpt><trkpt lat="43.8038317" lon="6.2539417"><ele>663.0</ele><time>2026-05-02T13:21:31.273Z</time></trkpt><trkpt lat="43.8037517" lon="6.2540183"><ele>663.0</ele><time>2026-05-02T13:21:32.273Z</time></trkpt><trkpt lat="43.8036633" lon="6.254135"><ele>663.0</ele><time>2026-05-02T13:21:33.273Z</time></trkpt><trkpt lat="43.8035717" lon="6.2542567"><ele>663.0</ele><time>2026-05-02T13:21:34.274Z</time></trkpt><trkpt lat="43.80347" lon="6.2543533"><ele>659.5999999999999</ele><time>2026-05-02T13:21:35.273Z</time></trkpt><trkpt lat="43.8033667" lon="6.2544183"><ele>656.1999999999999</ele><time>2026-05-02T13:21:36.273Z</time></trkpt><trkpt lat="43.8032567" lon="6.25445"><ele>652.8</ele><time>2026-05-02T13:21:37.274Z</time></trkpt><trkpt lat="43.80315" lon="6.254435"><ele>649.4</ele><time>2026-05-02T13:21:38.273Z</time></trkpt><trkpt lat="43.80304" lon="6.2543933"><ele>646.0</ele><time>2026-05-02T13:21:39.273Z</time></trkpt><trkpt lat="43.802925" lon="6.2543433"><ele>646.0</ele><time>2026-05-02T13:21:40.273Z</time></trkpt><trkpt lat="43.80281" lon="6.2542933"><ele>646.0</ele><time>2026-05-02T13:21:41.273Z</time></trkpt><trkpt lat="43.8026967" lon="6.254295"><ele>646.0</ele><time>2026-05-02T13:21:42.273Z</time></trkpt><trkpt lat="43.802585" lon="6.254315"><ele>646.0</ele><time>2026-05-02T13:21:43.273Z</time></trkpt><trkpt lat="43.802495" lon="6.2543667"><ele>646.0</ele><time>2026-05-02T13:21:44.273Z</time></trkpt><trkpt lat="43.8024167" lon="6.254435"><ele>643.0</ele><time>2026-05-02T13:21:45.273Z</time></trkpt><trkpt lat="43.8023683" lon="6.2545367"><ele>640.0</ele><time>2026-05-02T13:21:46.274Z</time></trkpt><trkpt lat="43.8023367" lon="6.2546617"><ele>637.0</ele><time>2026-05-02T13:21:47.273Z</time></trkpt><trkpt lat="43.8023083" lon="6.25482"><ele>634.0</ele><time>2026-05-02T13:21:48.273Z</time></trkpt><trkpt lat="43.8022717" lon="6.2549783"><ele>631.0</ele><time>2026-05-02T13:21:49.273Z</time></trkpt><trkpt lat="43.8022233" lon="6.25513"><ele>641.75</ele><time>2026-05-02T13:21:50.273Z</time></trkpt><trkpt lat="43.802165" lon="6.2552767"><ele>652.5</ele><time>2026-05-02T13:21:51.273Z</time></trkpt><trkpt lat="43.8020867" lon="6.2553917"><ele>663.25</ele><time>2026-05-02T13:21:52.273Z</time></trkpt><trkpt lat="43.8019817" lon="6.2554783"><ele>674.0</ele><time>2026-05-02T13:21:53.273Z</time></trkpt><trkpt lat="43.8018683" lon="6.2555417"><ele>673.4000000000001</ele><time>2026-05-02T13:21:54.273Z</time></trkpt><trkpt lat="43.801755" lon="6.255585"><ele>672.8</ele><time>2026-05-02T13:21:55.273Z</time></trkpt><trkpt lat="43.8016533" lon="6.2556433"><ele>672.2</ele><time>2026-05-02T13:21:56.273Z</time></trkpt><trkpt lat="43.80156" lon="6.255725"><ele>671.5999999999999</ele><time>2026-05-02T13:21:57.273Z</time></trkpt><trkpt lat="43.8014783" lon="6.2558283"><ele>671.0</ele><time>2026-05-02T13:21:58.273Z</time></trkpt><trkpt lat="43.801405" lon="6.2559333"><ele>671.0</ele><time>2026-05-02T13:21:59.273Z</time></trkpt><trkpt lat="43.8013317" lon="6.2560383"><ele>671.0</ele><time>2026-05-02T13:22:00.273Z</time></trkpt><trkpt lat="43.8012633" lon="6.25614"><ele>671.0</ele><time>2026-05-02T13:22:01.273Z</time></trkpt><trkpt lat="43.8011933" lon="6.2562317"><ele>671.0</ele><time>2026-05-02T13:22:02.273Z</time></trkpt><trkpt lat="43.801115" lon="6.2563217"><ele>671.0</ele><time>2026-05-02T13:22:03.273Z</time></trkpt><trkpt lat="43.8010367" lon="6.2564083"><ele>667.0</ele><time>2026-05-02T13:22:04.273Z</time></trkpt><trkpt lat="43.80095" lon="6.256495"><ele>663.0</ele><time>2026-05-02T13:22:05.273Z</time></trkpt><trkpt lat="43.80086" lon="6.25658"><ele>659.0</ele><time>2026-05-02T13:22:06.274Z</time></trkpt><trkpt lat="43.8007717" lon="6.2566817"><ele>655.0</ele><time>2026-05-02T13:22:07.273Z</time></trkpt><trkpt lat="43.80069" lon="6.2567933"><ele>651.0</ele><time>2026-05-02T13:22:08.273Z</time></trkpt><trkpt lat="43.8006117" lon="6.256905"><ele>651.0</ele><time>2026-05-02T13:22:09.273Z</time></trkpt><trkpt lat="43.8005367" lon="6.2570083"><ele>651.0</ele><time>2026-05-02T13:22:10.274Z</time></trkpt><trkpt lat="43.8004583" lon="6.25709"><ele>651.0</ele><time>2026-05-02T13:22:11.273Z</time></trkpt><trkpt lat="43.8003867" lon="6.25715"><ele>651.0</ele><time>2026-05-02T13:22:12.273Z</time></trkpt><trkpt lat="43.8003267" lon="6.2572133"><ele>651.0</ele><time>2026-05-02T13:22:13.273Z</time></trkpt><trkpt lat="43.8002717" lon="6.2572667"><ele>651.0</ele><time>2026-05-02T13:22:14.273Z</time></trkpt><trkpt lat="43.8002317" lon="6.2573367"><ele>651.0</ele><time>2026-05-02T13:22:15.273Z</time></trkpt><trkpt lat="43.8002317" lon="6.2574317"><ele>651.0</ele><time>2026-05-02T13:22:16.273Z</time></trkpt><trkpt lat="43.8002483" lon="6.25753"><ele>651.0</ele><time>2026-05-02T13:22:17.274Z</time></trkpt><trkpt lat="43.8002867" lon="6.2576283"><ele>651.0</ele><time>2026-05-02T13:22:18.273Z</time></trkpt><trkpt lat="43.8003283" lon="6.257715"><ele>651.0</ele><time>2026-05-02T13:22:19.273Z</time></trkpt><trkpt lat="43.8003767" lon="6.2578217"><ele>651.0</ele><time>2026-05-02T13:22:20.273Z</time></trkpt><trkpt lat="43.80043" lon="6.2579117"><ele>651.0</ele><time>2026-05-02T13:22:21.273Z</time></trkpt><trkpt lat="43.8005067" lon="6.2579867"><ele>651.0</ele><time>2026-05-02T13:22:22.274Z</time></trkpt><trkpt lat="43.80058" lon="6.2580683"><ele>651.0</ele><time>2026-05-02T13:22:23.273Z</time></trkpt><trkpt lat="43.80064" lon="6.2581367"><ele>651.0</ele><time>2026-05-02T13:22:24.273Z</time></trkpt><trkpt lat="43.800705" lon="6.2582517"><ele>651.0</ele><time>2026-05-02T13:22:25.274Z</time></trkpt><trkpt lat="43.80075" lon="6.25838"><ele>651.0</ele><time>2026-05-02T13:22:26.273Z</time></trkpt><trkpt lat="43.80078" lon="6.2584883"><ele>651.0</ele><time>2026-05-02T13:22:27.273Z</time></trkpt><trkpt lat="43.8007883" lon="6.25861"><ele>651.0</ele><time>2026-05-02T13:22:28.273Z</time></trkpt><trkpt lat="43.80078" lon="6.2587433"><ele>651.0</ele><time>2026-05-02T13:22:29.273Z</time></trkpt><trkpt lat="43.8007617" lon="6.258875"><ele>651.0</ele><time>2026-05-02T13:22:30.273Z</time></trkpt><trkpt lat="43.800755" lon="6.2590233"><ele>651.0</ele><time>2026-05-02T13:22:31.273Z</time></trkpt><trkpt lat="43.8007417" lon="6.2591633"><ele>651.0</ele><time>2026-05-02T13:22:32.273Z</time></trkpt><trkpt lat="43.8007217" lon="6.2593"><ele>651.0</ele><time>2026-05-02T13:22:33.273Z</time></trkpt><trkpt lat="43.80069" lon="6.2594417"><ele>651.0</ele><time>2026-05-02T13:22:34.273Z</time></trkpt><trkpt lat="43.800645" lon="6.2595767"><ele>651.0</ele><time>2026-05-02T13:22:35.273Z</time></trkpt><trkpt lat="43.8005733" lon="6.2596717"><ele>644.0</ele><time>2026-05-02T13:22:36.274Z</time></trkpt><trkpt lat="43.8004783" lon="6.2597283"><ele>637.0</ele><time>2026-05-02T13:22:37.273Z</time></trkpt><trkpt lat="43.8003633" lon="6.2597333"><ele>630.0</ele><time>2026-05-02T13:22:38.274Z</time></trkpt><trkpt lat="43.800245" lon="6.25969"><ele>623.0</ele><time>2026-05-02T13:22:39.274Z</time></trkpt><trkpt lat="43.800115" lon="6.25968"><ele>623.0</ele><time>2026-05-02T13:22:40.273Z</time></trkpt><trkpt lat="43.7999967" lon="6.2596667"><ele>623.0</ele><time>2026-05-02T13:22:41.273Z</time></trkpt><trkpt lat="43.7998683" lon="6.2596783"><ele>623.0</ele><time>2026-05-02T13:22:42.273Z</time></trkpt><trkpt lat="43.799745" lon="6.25966"><ele>623.0</ele><time>2026-05-02T13:22:43.273Z</time></trkpt><trkpt lat="43.7996433" lon="6.2596117"><ele>623.0</ele><time>2026-05-02T13:22:44.274Z</time></trkpt><trkpt lat="43.799555" lon="6.259555"><ele>623.0</ele><time>2026-05-02T13:22:45.273Z</time></trkpt><trkpt lat="43.7994683" lon="6.25951"><ele>623.0</ele><time>2026-05-02T13:22:46.274Z</time></trkpt><trkpt lat="43.7993683" lon="6.2594683"><ele>623.0</ele><time>2026-05-02T13:22:47.273Z</time></trkpt><trkpt lat="43.7992583" lon="6.2594567"><ele>623.0</ele><time>2026-05-02T13:22:48.273Z</time></trkpt><trkpt lat="43.7991483" lon="6.2594717"><ele>627.0</ele><time>2026-05-02T13:22:49.273Z</time></trkpt><trkpt lat="43.7990383" lon="6.2595183"><ele>631.0</ele><time>2026-05-02T13:22:50.273Z</time></trkpt><trkpt lat="43.7989283" lon="6.259575"><ele>635.0</ele><time>2026-05-02T13:22:51.273Z</time></trkpt><trkpt lat="43.798825" lon="6.2596233"><ele>639.0</ele><time>2026-05-02T13:22:52.273Z</time></trkpt><trkpt lat="43.798715" lon="6.2596533"><ele>639.0</ele><time>2026-05-02T13:22:53.273Z</time></trkpt><trkpt lat="43.798615" lon="6.25967"><ele>639.0</ele><time>2026-05-02T13:22:54.273Z</time></trkpt><trkpt lat="43.7985183" lon="6.2596833"><ele>639.0</ele><time>2026-05-02T13:22:55.273Z</time></trkpt><trkpt lat="43.798425" lon="6.2597217"><ele>639.0</ele><time>2026-05-02T13:22:56.273Z</time></trkpt><trkpt lat="43.7983317" lon="6.2597883"><ele>639.0</ele><time>2026-05-02T13:22:57.273Z</time></trkpt><trkpt lat="43.798245" lon="6.25987"><ele>642.8</ele><time>2026-05-02T13:22:58.273Z</time></trkpt><trkpt lat="43.7981733" lon="6.2599683"><ele>646.5999999999999</ele><time>2026-05-02T13:22:59.273Z</time></trkpt><trkpt lat="43.7981183" lon="6.26008"><ele>650.4</ele><time>2026-05-02T13:23:00.273Z</time></trkpt><trkpt lat="43.7980667" lon="6.2602033"><ele>654.1999999999999</ele><time>2026-05-02T13:23:01.273Z</time></trkpt><trkpt lat="43.7980083" lon="6.260325"><ele>658.0</ele><time>2026-05-02T13:23:02.273Z</time></trkpt><trkpt lat="43.7979433" lon="6.260435"><ele>658.0</ele><time>2026-05-02T13:23:03.273Z</time></trkpt><trkpt lat="43.79788" lon="6.2605367"><ele>658.0</ele><time>2026-05-02T13:23:04.273Z</time></trkpt><trkpt lat="43.797825" lon="6.2606383"><ele>658.0</ele><time>2026-05-02T13:23:05.273Z</time></trkpt><trkpt lat="43.7977867" lon="6.26074"><ele>658.0</ele><time>2026-05-02T13:23:06.273Z</time></trkpt><trkpt lat="43.79777" lon="6.2608583"><ele>658.0</ele><time>2026-05-02T13:23:07.273Z</time></trkpt><trkpt lat="43.7977833" lon="6.2609783"><ele>658.0</ele><time>2026-05-02T13:23:08.273Z</time></trkpt><trkpt lat="43.79784" lon="6.2610983"><ele>662.4</ele><time>2026-05-02T13:23:09.273Z</time></trkpt><trkpt lat="43.79792" lon="6.26123"><ele>666.8</ele><time>2026-05-02T13:23:10.273Z</time></trkpt><trkpt lat="43.798015" lon="6.2613483"><ele>671.2</ele><time>2026-05-02T13:23:11.273Z</time></trkpt><trkpt lat="43.7980767" lon="6.2614617"><ele>675.6</ele><time>2026-05-02T13:23:12.274Z</time></trkpt><trkpt lat="43.7981033" lon="6.2615683"><ele>680.0</ele><time>2026-05-02T13:23:13.273Z</time></trkpt><trkpt lat="43.7980983" lon="6.2616817"><ele>683.8</ele><time>2026-05-02T13:23:14.273Z</time></trkpt><trkpt lat="43.7980783" lon="6.2617817"><ele>687.6</ele><time>2026-05-02T13:23:15.273Z</time></trkpt><trkpt lat="43.7980283" lon="6.261865"><ele>691.4000000000001</ele><time>2026-05-02T13:23:16.273Z</time></trkpt><trkpt lat="43.7979317" lon="6.2619283"><ele>695.2</ele><time>2026-05-02T13:23:17.273Z</time></trkpt><trkpt lat="43.7978133" lon="6.2619883"><ele>699.0</ele><time>2026-05-02T13:23:18.273Z</time></trkpt><trkpt lat="43.797685" lon="6.26206"><ele>691.0</ele><time>2026-05-02T13:23:19.273Z</time></trkpt><trkpt lat="43.797595" lon="6.262155"><ele>683.0</ele><time>2026-05-02T13:23:20.273Z</time></trkpt><trkpt lat="43.797515" lon="6.2622533"><ele>675.0</ele><time>2026-05-02T13:23:21.273Z</time></trkpt><trkpt lat="43.7974267" lon="6.26236"><ele>667.0</ele><time>2026-05-02T13:23:22.273Z</time></trkpt><trkpt lat="43.797335" lon="6.26245"><ele>667.0</ele><time>2026-05-02T13:23:23.273Z</time></trkpt><trkpt lat="43.79723" lon="6.262515"><ele>667.0</ele><time>2026-05-02T13:23:24.273Z</time></trkpt><trkpt lat="43.79712" lon="6.2625767"><ele>667.0</ele><time>2026-05-02T13:23:25.274Z</time></trkpt><trkpt lat="43.7970183" lon="6.262645"><ele>667.0</ele><time>2026-05-02T13:23:26.273Z</time></trkpt><trkpt lat="43.7969183" lon="6.2627233"><ele>660.0</ele><time>2026-05-02T13:23:27.273Z</time></trkpt><trkpt lat="43.7968283" lon="6.2628133"><ele>653.0</ele><time>2026-05-02T13:23:28.274Z</time></trkpt><trkpt lat="43.79674" lon="6.2628933"><ele>646.0</ele><time>2026-05-02T13:23:29.273Z</time></trkpt><trkpt lat="43.7966417" lon="6.2629583"><ele>639.0</ele><time>2026-05-02T13:23:30.273Z</time></trkpt><trkpt lat="43.79653" lon="6.2629883"><ele>632.0</ele><time>2026-05-02T13:23:31.274Z</time></trkpt><trkpt lat="43.796415" lon="6.2630267"><ele>632.0</ele><time>2026-05-02T13:23:32.273Z</time></trkpt><trkpt lat="43.7962967" lon="6.263075"><ele>632.0</ele><time>2026-05-02T13:23:33.273Z</time></trkpt><trkpt lat="43.7961767" lon="6.2631417"><ele>632.0</ele><time>2026-05-02T13:23:34.273Z</time></trkpt><trkpt lat="43.7960533" lon="6.2632117"><ele>632.0</ele><time>2026-05-02T13:23:35.273Z</time></trkpt><trkpt lat="43.7959233" lon="6.26326"><ele>638.0</ele><time>2026-05-02T13:23:36.273Z</time></trkpt><trkpt lat="43.7957917" lon="6.2632833"><ele>644.0</ele><time>2026-05-02T13:23:37.273Z</time></trkpt><trkpt lat="43.7956567" lon="6.2632583"><ele>650.0</ele><time>2026-05-02T13:23:38.273Z</time></trkpt><trkpt lat="43.795535" lon="6.263215"><ele>656.0</ele><time>2026-05-02T13:23:39.273Z</time></trkpt><trkpt lat="43.795425" lon="6.2631583"><ele>651.5</ele><time>2026-05-02T13:23:40.273Z</time></trkpt><trkpt lat="43.7953333" lon="6.26308"><ele>647.0</ele><time>2026-05-02T13:23:41.273Z</time></trkpt><trkpt lat="43.7952517" lon="6.26298"><ele>642.5</ele><time>2026-05-02T13:23:42.273Z</time></trkpt><trkpt lat="43.7951883" lon="6.2628483"><ele>638.0</ele><time>2026-05-02T13:23:43.273Z</time></trkpt><trkpt lat="43.7951133" lon="6.2627133"><ele>638.0</ele><time>2026-05-02T13:23:44.273Z</time></trkpt><trkpt lat="43.7950183" lon="6.2626033"><ele>638.0</ele><time>2026-05-02T13:23:45.273Z</time></trkpt><trkpt lat="43.7949183" lon="6.262515"><ele>638.0</ele><time>2026-05-02T13:23:46.273Z</time></trkpt><trkpt lat="43.7948167" lon="6.2624717"><ele>638.0</ele><time>2026-05-02T13:23:47.273Z</time></trkpt><trkpt lat="43.79472" lon="6.2624517"><ele>638.0</ele><time>2026-05-02T13:23:48.274Z</time></trkpt><trkpt lat="43.79464" lon="6.2624683"><ele>638.0</ele><time>2026-05-02T13:23:49.273Z</time></trkpt><trkpt lat="43.7945717" lon="6.2625217"><ele>638.0</ele><time>2026-05-02T13:23:50.273Z</time></trkpt><trkpt lat="43.7945167" lon="6.2626083"><ele>638.0</ele><time>2026-05-02T13:23:51.273Z</time></trkpt><trkpt lat="43.7944717" lon="6.2627317"><ele>638.0</ele><time>2026-05-02T13:23:52.273Z</time></trkpt><trkpt lat="43.7944317" lon="6.26288"><ele>638.0</ele><time>2026-05-02T13:23:53.273Z</time></trkpt><trkpt lat="43.7943867" lon="6.26305"><ele>640.5</ele><time>2026-05-02T13:23:54.274Z</time></trkpt><trkpt lat="43.7943167" lon="6.263195"><ele>643.0</ele><time>2026-05-02T13:23:55.273Z</time></trkpt><trkpt lat="43.79424" lon="6.2633317"><ele>645.5</ele><time>2026-05-02T13:23:56.273Z</time></trkpt><trkpt lat="43.7941633" lon="6.26347"><ele>648.0</ele><time>2026-05-02T13:23:57.273Z</time></trkpt><trkpt lat="43.7940833" lon="6.2636083"><ele>648.0</ele><time>2026-05-02T13:23:58.274Z</time></trkpt><trkpt lat="43.7940067" lon="6.263755"><ele>648.0</ele><time>2026-05-02T13:23:59.273Z</time></trkpt><trkpt lat="43.7939417" lon="6.2639083"><ele>648.0</ele><time>2026-05-02T13:24:00.274Z</time></trkpt><trkpt lat="43.793905" lon="6.264075"><ele>648.0</ele><time>2026-05-02T13:24:01.273Z</time></trkpt><trkpt lat="43.793875" lon="6.2642467"><ele>654.0</ele><time>2026-05-02T13:24:02.273Z</time></trkpt><trkpt lat="43.7938483" lon="6.2644033"><ele>660.0</ele><time>2026-05-02T13:24:03.273Z</time></trkpt><trkpt lat="43.7938067" lon="6.2645467"><ele>666.0</ele><time>2026-05-02T13:24:04.273Z</time></trkpt><trkpt lat="43.7937417" lon="6.2646767"><ele>672.0</ele><time>2026-05-02T13:24:05.273Z</time></trkpt><trkpt lat="43.79364" lon="6.2647683"><ele>670.5</ele><time>2026-05-02T13:24:06.273Z</time></trkpt><trkpt lat="43.7935417" lon="6.26485"><ele>669.0</ele><time>2026-05-02T13:24:07.273Z</time></trkpt><trkpt lat="43.7934183" lon="6.2649083"><ele>667.5</ele><time>2026-05-02T13:24:08.273Z</time></trkpt><trkpt lat="43.79331" lon="6.2649817"><ele>666.0</ele><time>2026-05-02T13:24:09.273Z</time></trkpt><trkpt lat="43.7932017" lon="6.2650417"><ele>666.0</ele><time>2026-05-02T13:24:10.273Z</time></trkpt><trkpt lat="43.7930867" lon="6.26508"><ele>666.0</ele><time>2026-05-02T13:24:11.273Z</time></trkpt><trkpt lat="43.7929733" lon="6.2651083"><ele>666.0</ele><time>2026-05-02T13:24:12.273Z</time></trkpt><trkpt lat="43.7928533" lon="6.2651117"><ele>666.0</ele><time>2026-05-02T13:24:13.273Z</time></trkpt><trkpt lat="43.79274" lon="6.2651417"><ele>661.5</ele><time>2026-05-02T13:24:14.273Z</time></trkpt><trkpt lat="43.79262" lon="6.2651733"><ele>657.0</ele><time>2026-05-02T13:24:15.273Z</time></trkpt><trkpt lat="43.79249" lon="6.2651717"><ele>652.5</ele><time>2026-05-02T13:24:16.273Z</time></trkpt><trkpt lat="43.7923567" lon="6.2651567"><ele>648.0</ele><time>2026-05-02T13:24:17.273Z</time></trkpt><trkpt lat="43.792225" lon="6.2651483"><ele>648.0</ele><time>2026-05-02T13:24:18.273Z</time></trkpt><trkpt lat="43.7921" lon="6.265145"><ele>648.0</ele><time>2026-05-02T13:24:19.273Z</time></trkpt><trkpt lat="43.791985" lon="6.2651383"><ele>648.0</ele><time>2026-05-02T13:24:20.273Z</time></trkpt><trkpt lat="43.791875" lon="6.265125"><ele>648.0</ele><time>2026-05-02T13:24:21.273Z</time></trkpt><trkpt lat="43.7917667" lon="6.26514"><ele>648.8</ele><time>2026-05-02T13:24:22.273Z</time></trkpt><trkpt lat="43.79166" lon="6.265175"><ele>649.5999999999999</ele><time>2026-05-02T13:24:23.273Z</time></trkpt><trkpt lat="43.7915533" lon="6.2652067"><ele>650.4000000000001</ele><time>2026-05-02T13:24:24.273Z</time></trkpt><trkpt lat="43.7914417" lon="6.2652"><ele>651.2</ele><time>2026-05-02T13:24:25.273Z</time></trkpt><trkpt lat="43.7913267" lon="6.26516"><ele>652.0</ele><time>2026-05-02T13:24:26.273Z</time></trkpt><trkpt lat="43.7912133" lon="6.2651183"><ele>652.0</ele><time>2026-05-02T13:24:27.273Z</time></trkpt><trkpt lat="43.7911133" lon="6.265075"><ele>652.0</ele><time>2026-05-02T13:24:28.273Z</time></trkpt><trkpt lat="43.7910117" lon="6.2650283"><ele>652.0</ele><time>2026-05-02T13:24:29.273Z</time></trkpt><trkpt lat="43.7909133" lon="6.2649833"><ele>652.0</ele><time>2026-05-02T13:24:30.274Z</time></trkpt><trkpt lat="43.7908117" lon="6.2649667"><ele>652.0</ele><time>2026-05-02T13:24:31.273Z</time></trkpt><trkpt lat="43.7906967" lon="6.2649783"><ele>653.75</ele><time>2026-05-02T13:24:32.273Z</time></trkpt><trkpt lat="43.7905867" lon="6.2650283"><ele>655.5</ele><time>2026-05-02T13:24:33.273Z</time></trkpt><trkpt lat="43.7904767" lon="6.2651"><ele>657.25</ele><time>2026-05-02T13:24:34.273Z</time></trkpt><trkpt lat="43.7903633" lon="6.2651667"><ele>659.0</ele><time>2026-05-02T13:24:35.273Z</time></trkpt><trkpt lat="43.7902483" lon="6.2652067"><ele>659.25</ele><time>2026-05-02T13:24:36.274Z</time></trkpt><trkpt lat="43.7901283" lon="6.2652383"><ele>659.5</ele><time>2026-05-02T13:24:37.273Z</time></trkpt><trkpt lat="43.7900067" lon="6.2652617"><ele>659.75</ele><time>2026-05-02T13:24:38.273Z</time></trkpt><trkpt lat="43.7898883" lon="6.2652667"><ele>660.0</ele><time>2026-05-02T13:24:39.273Z</time></trkpt><trkpt lat="43.7897833" lon="6.2652717"><ele>660.0</ele><time>2026-05-02T13:24:40.273Z</time></trkpt><trkpt lat="43.7896733" lon="6.2652667"><ele>660.0</ele><time>2026-05-02T13:24:41.273Z</time></trkpt><trkpt lat="43.7895567" lon="6.265285"><ele>660.0</ele><time>2026-05-02T13:24:42.273Z</time></trkpt><trkpt lat="43.789445" lon="6.265325"><ele>660.0</ele><time>2026-05-02T13:24:43.274Z</time></trkpt><trkpt lat="43.789345" lon="6.265405"><ele>663.0</ele><time>2026-05-02T13:24:44.273Z</time></trkpt><trkpt lat="43.7892583" lon="6.265525"><ele>666.0</ele><time>2026-05-02T13:24:45.273Z</time></trkpt><trkpt lat="43.7891967" lon="6.2656733"><ele>669.0</ele><time>2026-05-02T13:24:46.273Z</time></trkpt><trkpt lat="43.7891433" lon="6.2658317"><ele>672.0</ele><time>2026-05-02T13:24:47.273Z</time></trkpt><trkpt lat="43.7891183" lon="6.2659983"><ele>672.0</ele><time>2026-05-02T13:24:48.273Z</time></trkpt><trkpt lat="43.7891083" lon="6.2661533"><ele>672.0</ele><time>2026-05-02T13:24:49.273Z</time></trkpt><trkpt lat="43.7890967" lon="6.2662967"><ele>672.0</ele><time>2026-05-02T13:24:50.273Z</time></trkpt><trkpt lat="43.7890667" lon="6.266435"><ele>672.0</ele><time>2026-05-02T13:24:51.273Z</time></trkpt><trkpt lat="43.7890067" lon="6.2665367"><ele>672.0</ele><time>2026-05-02T13:24:52.273Z</time></trkpt><trkpt lat="43.78893" lon="6.2666167"><ele>680.0</ele><time>2026-05-02T13:24:53.273Z</time></trkpt><trkpt lat="43.7888333" lon="6.2666617"><ele>688.0</ele><time>2026-05-02T13:24:54.273Z</time></trkpt><trkpt lat="43.7887117" lon="6.2666483"><ele>696.0</ele><time>2026-05-02T13:24:55.273Z</time></trkpt><trkpt lat="43.7885867" lon="6.2665917"><ele>704.0</ele><time>2026-05-02T13:24:56.274Z</time></trkpt><trkpt lat="43.7884533" lon="6.2665333"><ele>704.0</ele><time>2026-05-02T13:24:57.274Z</time></trkpt><trkpt lat="43.788325" lon="6.2664817"><ele>704.0</ele><time>2026-05-02T13:24:58.273Z</time></trkpt><trkpt lat="43.7881983" lon="6.2664367"><ele>704.0</ele><time>2026-05-02T13:24:59.273Z</time></trkpt><trkpt lat="43.78807" lon="6.2664"><ele>704.0</ele><time>2026-05-02T13:25:00.273Z</time></trkpt><trkpt lat="43.7879483" lon="6.2663333"><ele>699.75</ele><time>2026-05-02T13:25:01.273Z</time></trkpt><trkpt lat="43.7878367" lon="6.2662717"><ele>695.5</ele><time>2026-05-02T13:25:02.273Z</time></trkpt><trkpt lat="43.78773" lon="6.2661883"><ele>691.25</ele><time>2026-05-02T13:25:03.273Z</time></trkpt><trkpt lat="43.7876467" lon="6.266085"><ele>687.0</ele><time>2026-05-02T13:25:04.273Z</time></trkpt><trkpt lat="43.7875733" lon="6.2659683"><ele>687.0</ele><time>2026-05-02T13:25:05.273Z</time></trkpt><trkpt lat="43.7875083" lon="6.26584"><ele>687.0</ele><time>2026-05-02T13:25:06.273Z</time></trkpt><trkpt lat="43.78744" lon="6.2657517"><ele>687.0</ele><time>2026-05-02T13:25:07.273Z</time></trkpt><trkpt lat="43.7873683" lon="6.2657067"><ele>687.0</ele><time>2026-05-02T13:25:08.273Z</time></trkpt><trkpt lat="43.7872717" lon="6.2657283"><ele>687.0</ele><time>2026-05-02T13:25:09.273Z</time></trkpt><trkpt lat="43.7871617" lon="6.2657867"><ele>687.0</ele><time>2026-05-02T13:25:10.273Z</time></trkpt><trkpt lat="43.7870483" lon="6.265835"><ele>687.0</ele><time>2026-05-02T13:25:11.273Z</time></trkpt><trkpt lat="43.7869383" lon="6.2658883"><ele>687.0</ele><time>2026-05-02T13:25:12.273Z</time></trkpt><trkpt lat="43.7868317" lon="6.2659367"><ele>687.0</ele><time>2026-05-02T13:25:13.273Z</time></trkpt><trkpt lat="43.7867233" lon="6.2659917"><ele>685.5</ele><time>2026-05-02T13:25:14.273Z</time></trkpt><trkpt lat="43.7866233" lon="6.26607"><ele>684.0</ele><time>2026-05-02T13:25:15.273Z</time></trkpt><trkpt lat="43.7865167" lon="6.26616"><ele>682.5</ele><time>2026-05-02T13:25:16.274Z</time></trkpt><trkpt lat="43.786405" lon="6.266245"><ele>681.0</ele><time>2026-05-02T13:25:17.273Z</time></trkpt><trkpt lat="43.7863033" lon="6.26634"><ele>681.0</ele><time>2026-05-02T13:25:18.273Z</time></trkpt><trkpt lat="43.7862017" lon="6.2664417"><ele>681.0</ele><time>2026-05-02T13:25:19.273Z</time></trkpt><trkpt lat="43.7861117" lon="6.2665517"><ele>681.0</ele><time>2026-05-02T13:25:20.273Z</time></trkpt><trkpt lat="43.786015" lon="6.266645"><ele>681.0</ele><time>2026-05-02T13:25:21.273Z</time></trkpt><trkpt lat="43.7859083" lon="6.2667167"><ele>684.4</ele><time>2026-05-02T13:25:22.273Z</time></trkpt><trkpt lat="43.7858" lon="6.2667483"><ele>687.8</ele><time>2026-05-02T13:25:23.274Z</time></trkpt><trkpt lat="43.7856867" lon="6.2667383"><ele>691.1999999999999</ele><time>2026-05-02T13:25:24.274Z</time></trkpt><trkpt lat="43.785575" lon="6.2667167"><ele>694.5999999999999</ele><time>2026-05-02T13:25:25.273Z</time></trkpt><trkpt lat="43.785465" lon="6.26671"><ele>698.0</ele><time>2026-05-02T13:25:26.273Z</time></trkpt><trkpt lat="43.78535" lon="6.26673"><ele>698.0</ele><time>2026-05-02T13:25:27.273Z</time></trkpt><trkpt lat="43.7852433" lon="6.2667783"><ele>698.0</ele><time>2026-05-02T13:25:28.273Z</time></trkpt><trkpt lat="43.7851417" lon="6.2668817"><ele>698.0</ele><time>2026-05-02T13:25:29.274Z</time></trkpt><trkpt lat="43.785045" lon="6.2669867"><ele>698.0</ele><time>2026-05-02T13:25:30.274Z</time></trkpt><trkpt lat="43.7849483" lon="6.2670833"><ele>697.8</ele><time>2026-05-02T13:25:31.273Z</time></trkpt><trkpt lat="43.7848567" lon="6.2671617"><ele>697.5999999999999</ele><time>2026-05-02T13:25:32.274Z</time></trkpt><trkpt lat="43.7847633" lon="6.2672333"><ele>697.4000000000001</ele><time>2026-05-02T13:25:33.273Z</time></trkpt><trkpt lat="43.7846783" lon="6.267305"><ele>697.2</ele><time>2026-05-02T13:25:34.273Z</time></trkpt><trkpt lat="43.7845967" lon="6.2673617"><ele>697.0</ele><time>2026-05-02T13:25:35.273Z</time></trkpt><trkpt lat="43.7845183" lon="6.267425"><ele>700.6666666666667</ele><time>2026-05-02T13:25:36.273Z</time></trkpt><trkpt lat="43.7844467" lon="6.2675"><ele>704.3333333333334</ele><time>2026-05-02T13:25:37.273Z</time></trkpt><trkpt lat="43.78439" lon="6.2675833"><ele>708.0</ele><time>2026-05-02T13:25:38.273Z</time></trkpt><trkpt lat="43.7843533" lon="6.2676817"><ele>711.6666666666666</ele><time>2026-05-02T13:25:39.273Z</time></trkpt><trkpt lat="43.7843317" lon="6.2677967"><ele>715.3333333333333</ele><time>2026-05-02T13:25:40.273Z</time></trkpt><trkpt lat="43.7843217" lon="6.2679267"><ele>719.0</ele><time>2026-05-02T13:25:41.274Z</time></trkpt><trkpt lat="43.784315" lon="6.26807"><ele>715.5</ele><time>2026-05-02T13:25:42.273Z</time></trkpt><trkpt lat="43.7843117" lon="6.2682267"><ele>712.0</ele><time>2026-05-02T13:25:43.273Z</time></trkpt><trkpt lat="43.7843167" lon="6.2683883"><ele>708.5</ele><time>2026-05-02T13:25:44.274Z</time></trkpt><trkpt lat="43.7843267" lon="6.26856"><ele>705.0</ele><time>2026-05-02T13:25:45.273Z</time></trkpt><trkpt lat="43.7843267" lon="6.2687317"><ele>705.0</ele><time>2026-05-02T13:25:46.273Z</time></trkpt><trkpt lat="43.78433" lon="6.268905"><ele>705.0</ele><time>2026-05-02T13:25:47.273Z</time></trkpt><trkpt lat="43.7843317" lon="6.2690833"><ele>705.0</ele><time>2026-05-02T13:25:48.273Z</time></trkpt><trkpt lat="43.7843317" lon="6.2692567"><ele>705.0</ele><time>2026-05-02T13:25:49.273Z</time></trkpt><trkpt lat="43.7843417" lon="6.269445"><ele>717.25</ele><time>2026-05-02T13:25:50.273Z</time></trkpt><trkpt lat="43.7843567" lon="6.269635"><ele>729.5</ele><time>2026-05-02T13:25:51.273Z</time></trkpt><trkpt lat="43.7843817" lon="6.2698217"><ele>741.75</ele><time>2026-05-02T13:25:52.274Z</time></trkpt><trkpt lat="43.7844183" lon="6.2700033"><ele>754.0</ele><time>2026-05-02T13:25:53.274Z</time></trkpt><trkpt lat="43.7844533" lon="6.2701783"><ele>758.75</ele><time>2026-05-02T13:25:54.273Z</time></trkpt><trkpt lat="43.78449" lon="6.2703433"><ele>763.5</ele><time>2026-05-02T13:25:55.273Z</time></trkpt><trkpt lat="43.78453" lon="6.27051"><ele>768.25</ele><time>2026-05-02T13:25:56.273Z</time></trkpt><trkpt lat="43.7845617" lon="6.2706767"><ele>773.0</ele><time>2026-05-02T13:25:57.273Z</time></trkpt><trkpt lat="43.78458" lon="6.270845"><ele>773.0</ele><time>2026-05-02T13:25:58.273Z</time></trkpt><trkpt lat="43.7845833" lon="6.271005"><ele>773.0</ele><time>2026-05-02T13:25:59.273Z</time></trkpt><trkpt lat="43.7845583" lon="6.2711617"><ele>773.0</ele><time>2026-05-02T13:26:00.273Z</time></trkpt><trkpt lat="43.7845233" lon="6.2713033"><ele>773.0</ele><time>2026-05-02T13:26:01.273Z</time></trkpt><trkpt lat="43.7844883" lon="6.27146"><ele>773.0</ele><time>2026-05-02T13:26:02.273Z</time></trkpt><trkpt lat="43.7844617" lon="6.2716217"><ele>773.0</ele><time>2026-05-02T13:26:03.273Z</time></trkpt><trkpt lat="43.7844533" lon="6.2717833"><ele>773.0</ele><time>2026-05-02T13:26:04.273Z</time></trkpt><trkpt lat="43.7844533" lon="6.27195"><ele>773.0</ele><time>2026-05-02T13:26:05.273Z</time></trkpt><trkpt lat="43.78447" lon="6.2721167"><ele>770.5999999999999</ele><time>2026-05-02T13:26:06.273Z</time></trkpt><trkpt lat="43.7844817" lon="6.2722633"><ele>768.1999999999999</ele><time>2026-05-02T13:26:07.273Z</time></trkpt><trkpt lat="43.7844783" lon="6.272415"><ele>765.8</ele><time>2026-05-02T13:26:08.274Z</time></trkpt><trkpt lat="43.7844517" lon="6.2725467"><ele>763.4</ele><time>2026-05-02T13:26:09.273Z</time></trkpt><trkpt lat="43.78439" lon="6.27264"><ele>761.0</ele><time>2026-05-02T13:26:10.273Z</time></trkpt><trkpt lat="43.7843067" lon="6.2727083"><ele>757.25</ele><time>2026-05-02T13:26:11.273Z</time></trkpt><trkpt lat="43.7841983" lon="6.2727867"><ele>753.5</ele><time>2026-05-02T13:26:12.273Z</time></trkpt><trkpt lat="43.7840717" lon="6.2728917"><ele>749.75</ele><time>2026-05-02T13:26:13.273Z</time></trkpt><trkpt lat="43.7839667" lon="6.2730317"><ele>746.0</ele><time>2026-05-02T13:26:14.273Z</time></trkpt><trkpt lat="43.78388" lon="6.273185"><ele>746.0</ele><time>2026-05-02T13:26:15.273Z</time></trkpt><trkpt lat="43.7837983" lon="6.2733217"><ele>746.0</ele><time>2026-05-02T13:26:16.273Z</time></trkpt><trkpt lat="43.783715" lon="6.2734433"><ele>746.0</ele><time>2026-05-02T13:26:17.273Z</time></trkpt><trkpt lat="43.7836417" lon="6.27357"><ele>746.0</ele><time>2026-05-02T13:26:18.273Z</time></trkpt><trkpt lat="43.7835717" lon="6.2737017"><ele>746.0</ele><time>2026-05-02T13:26:19.274Z</time></trkpt><trkpt lat="43.7835183" lon="6.27385"><ele>746.0</ele><time>2026-05-02T13:26:20.273Z</time></trkpt><trkpt lat="43.78348" lon="6.2740083"><ele>746.0</ele><time>2026-05-02T13:26:21.273Z</time></trkpt><trkpt lat="43.783455" lon="6.2741917"><ele>746.0</ele><time>2026-05-02T13:26:22.273Z</time></trkpt><trkpt lat="43.78344" lon="6.2743717"><ele>745.5</ele><time>2026-05-02T13:26:23.273Z</time></trkpt><trkpt lat="43.7834267" lon="6.2745483"><ele>745.0</ele><time>2026-05-02T13:26:24.273Z</time></trkpt><trkpt lat="43.78339" lon="6.274725"><ele>744.5</ele><time>2026-05-02T13:26:25.274Z</time></trkpt><trkpt lat="43.7833317" lon="6.274895"><ele>744.0</ele><time>2026-05-02T13:26:26.273Z</time></trkpt><trkpt lat="43.7832517" lon="6.2750417"><ele>744.0</ele><time>2026-05-02T13:26:27.272Z</time></trkpt><trkpt lat="43.7831583" lon="6.2751883"><ele>744.0</ele><time>2026-05-02T13:26:28.272Z</time></trkpt><trkpt lat="43.7830617" lon="6.2753317"><ele>744.0</ele><time>2026-05-02T13:26:29.272Z</time></trkpt><trkpt lat="43.7829733" lon="6.2754683"><ele>744.0</ele><time>2026-05-02T13:26:30.272Z</time></trkpt><trkpt lat="43.7829033" lon="6.27562"><ele>751.25</ele><time>2026-05-02T13:26:31.273Z</time></trkpt><trkpt lat="43.7828483" lon="6.2757917"><ele>758.5</ele><time>2026-05-02T13:26:32.273Z</time></trkpt><trkpt lat="43.7828033" lon="6.2759667"><ele>765.75</ele><time>2026-05-02T13:26:33.272Z</time></trkpt><trkpt lat="43.78277" lon="6.276145"><ele>773.0</ele><time>2026-05-02T13:26:34.273Z</time></trkpt><trkpt lat="43.7827483" lon="6.276325"><ele>767.5</ele><time>2026-05-02T13:26:35.272Z</time></trkpt><trkpt lat="43.7827167" lon="6.2764967"><ele>762.0</ele><time>2026-05-02T13:26:36.272Z</time></trkpt><trkpt lat="43.78268" lon="6.2766617"><ele>756.5</ele><time>2026-05-02T13:26:37.273Z</time></trkpt><trkpt lat="43.7826283" lon="6.2768083"><ele>751.0</ele><time>2026-05-02T13:26:38.272Z</time></trkpt><trkpt lat="43.7825633" lon="6.276905"><ele>751.0</ele><time>2026-05-02T13:26:39.272Z</time></trkpt><trkpt lat="43.7824767" lon="6.27696"><ele>751.0</ele><time>2026-05-02T13:26:40.273Z</time></trkpt><trkpt lat="43.7823767" lon="6.2769817"><ele>751.0</ele><time>2026-05-02T13:26:41.272Z</time></trkpt><trkpt lat="43.78226" lon="6.2770083"><ele>751.0</ele><time>2026-05-02T13:26:42.272Z</time></trkpt><trkpt lat="43.782145" lon="6.27708"><ele>751.0</ele><time>2026-05-02T13:26:43.272Z</time></trkpt><trkpt lat="43.7820567" lon="6.2772017"><ele>750.0</ele><time>2026-05-02T13:26:44.272Z</time></trkpt><trkpt lat="43.78197" lon="6.2773633"><ele>749.0</ele><time>2026-05-02T13:26:45.272Z</time></trkpt><trkpt lat="43.7818867" lon="6.277515"><ele>748.0</ele><time>2026-05-02T13:26:46.272Z</time></trkpt><trkpt lat="43.7817983" lon="6.2776567"><ele>747.0</ele><time>2026-05-02T13:26:47.272Z</time></trkpt><trkpt lat="43.7817067" lon="6.2777967"><ele>747.0</ele><time>2026-05-02T13:26:48.273Z</time></trkpt><trkpt lat="43.7816217" lon="6.2779517"><ele>747.0</ele><time>2026-05-02T13:26:49.272Z</time></trkpt><trkpt lat="43.7815383" lon="6.2781033"><ele>747.0</ele><time>2026-05-02T13:26:50.272Z</time></trkpt><trkpt lat="43.7814633" lon="6.278255"><ele>747.0</ele><time>2026-05-02T13:26:51.272Z</time></trkpt><trkpt lat="43.7813867" lon="6.2784133"><ele>752.75</ele><time>2026-05-02T13:26:52.272Z</time></trkpt><trkpt lat="43.7813083" lon="6.2785533"><ele>758.5</ele><time>2026-05-02T13:26:53.272Z</time></trkpt><trkpt lat="43.7812233" lon="6.27868"><ele>764.25</ele><time>2026-05-02T13:26:54.272Z</time></trkpt><trkpt lat="43.781125" lon="6.2787983"><ele>770.0</ele><time>2026-05-02T13:26:55.272Z</time></trkpt><trkpt lat="43.7810417" lon="6.2789333"><ele>766.75</ele><time>2026-05-02T13:26:56.272Z</time></trkpt><trkpt lat="43.7809767" lon="6.279085"><ele>763.5</ele><time>2026-05-02T13:26:57.272Z</time></trkpt><trkpt lat="43.78093" lon="6.2792517"><ele>760.25</ele><time>2026-05-02T13:26:58.272Z</time></trkpt><trkpt lat="43.7809083" lon="6.27942"><ele>757.0</ele><time>2026-05-02T13:26:59.272Z</time></trkpt><trkpt lat="43.7808983" lon="6.2796017"><ele>760.5</ele><time>2026-05-02T13:27:00.272Z</time></trkpt><trkpt lat="43.7808783" lon="6.279775"><ele>764.0</ele><time>2026-05-02T13:27:01.272Z</time></trkpt><trkpt lat="43.7808467" lon="6.279935"><ele>767.5</ele><time>2026-05-02T13:27:02.272Z</time></trkpt><trkpt lat="43.7807733" lon="6.2800617"><ele>771.0</ele><time>2026-05-02T13:27:03.272Z</time></trkpt><trkpt lat="43.7806917" lon="6.2801767"><ele>771.0</ele><time>2026-05-02T13:27:04.272Z</time></trkpt><trkpt lat="43.7806" lon="6.2802733"><ele>771.0</ele><time>2026-05-02T13:27:05.272Z</time></trkpt><trkpt lat="43.7804917" lon="6.2803667"><ele>771.0</ele><time>2026-05-02T13:27:06.272Z</time></trkpt><trkpt lat="43.780365" lon="6.2804433"><ele>771.0</ele><time>2026-05-02T13:27:07.272Z</time></trkpt><trkpt lat="43.7802417" lon="6.28052"><ele>773.0</ele><time>2026-05-02T13:27:08.272Z</time></trkpt><trkpt lat="43.780105" lon="6.280595"><ele>775.0</ele><time>2026-05-02T13:27:09.272Z</time></trkpt><trkpt lat="43.779975" lon="6.2806633"><ele>777.0</ele><time>2026-05-02T13:27:10.272Z</time></trkpt><trkpt lat="43.7798417" lon="6.280725"><ele>779.0</ele><time>2026-05-02T13:27:11.272Z</time></trkpt><trkpt lat="43.7797133" lon="6.2807733"><ele>779.0</ele><time>2026-05-02T13:27:12.272Z</time></trkpt><trkpt lat="43.779585" lon="6.280805"><ele>779.0</ele><time>2026-05-02T13:27:13.273Z</time></trkpt><trkpt lat="43.7794617" lon="6.28085"><ele>779.0</ele><time>2026-05-02T13:27:14.272Z</time></trkpt><trkpt lat="43.7793467" lon="6.280915"><ele>779.0</ele><time>2026-05-02T13:27:15.272Z</time></trkpt><trkpt lat="43.7792383" lon="6.28099"><ele>778.0</ele><time>2026-05-02T13:27:16.272Z</time></trkpt><trkpt lat="43.7791233" lon="6.281085"><ele>777.0</ele><time>2026-05-02T13:27:17.272Z</time></trkpt><trkpt lat="43.7790167" lon="6.2811933"><ele>776.0</ele><time>2026-05-02T13:27:18.272Z</time></trkpt><trkpt lat="43.7788983" lon="6.2813083"><ele>775.0</ele><time>2026-05-02T13:27:19.272Z</time></trkpt><trkpt lat="43.7787733" lon="6.2814083"><ele>779.0</ele><time>2026-05-02T13:27:20.272Z</time></trkpt><trkpt lat="43.778645" lon="6.2815"><ele>783.0</ele><time>2026-05-02T13:27:21.272Z</time></trkpt><trkpt lat="43.778515" lon="6.28159"><ele>787.0</ele><time>2026-05-02T13:27:22.272Z</time></trkpt><trkpt lat="43.778385" lon="6.28168"><ele>791.0</ele><time>2026-05-02T13:27:23.272Z</time></trkpt><trkpt lat="43.7782533" lon="6.2817633"><ele>791.0</ele><time>2026-05-02T13:27:24.272Z</time></trkpt><trkpt lat="43.77812" lon="6.2818317"><ele>791.0</ele><time>2026-05-02T13:27:25.272Z</time></trkpt><trkpt lat="43.7779867" lon="6.281885"><ele>791.0</ele><time>2026-05-02T13:27:26.272Z</time></trkpt><trkpt lat="43.7778467" lon="6.2819383"><ele>791.0</ele><time>2026-05-02T13:27:27.273Z</time></trkpt><trkpt lat="43.7777183" lon="6.2819883"><ele>790.0</ele><time>2026-05-02T13:27:28.273Z</time></trkpt><trkpt lat="43.7775933" lon="6.282035"><ele>789.0</ele><time>2026-05-02T13:27:29.272Z</time></trkpt><trkpt lat="43.777445" lon="6.2820583"><ele>788.0</ele><time>2026-05-02T13:27:30.272Z</time></trkpt><trkpt lat="43.7772883" lon="6.282065"><ele>787.0</ele><time>2026-05-02T13:27:31.272Z</time></trkpt><trkpt lat="43.7771417" lon="6.2820683"><ele>787.0</ele><time>2026-05-02T13:27:32.272Z</time></trkpt><trkpt lat="43.7769983" lon="6.2820833"><ele>787.0</ele><time>2026-05-02T13:27:33.272Z</time></trkpt><trkpt lat="43.7768667" lon="6.2820917"><ele>787.0</ele><time>2026-05-02T13:27:34.272Z</time></trkpt><trkpt lat="43.7767367" lon="6.28209"><ele>787.0</ele><time>2026-05-02T13:27:35.272Z</time></trkpt><trkpt lat="43.7766117" lon="6.282095"><ele>789.0</ele><time>2026-05-02T13:27:36.273Z</time></trkpt><trkpt lat="43.7765033" lon="6.282105"><ele>791.0</ele><time>2026-05-02T13:27:37.272Z</time></trkpt><trkpt lat="43.776405" lon="6.2821017"><ele>793.0</ele><time>2026-05-02T13:27:38.272Z</time></trkpt><trkpt lat="43.7763067" lon="6.282105"><ele>795.0</ele><time>2026-05-02T13:27:39.272Z</time></trkpt><trkpt lat="43.77621" lon="6.28211"><ele>797.0</ele><time>2026-05-02T13:27:40.272Z</time></trkpt><trkpt lat="43.776125" lon="6.2821283"><ele>797.0000000000001</ele><time>2026-05-02T13:27:41.272Z</time></trkpt><trkpt lat="43.7760517" lon="6.2821333"><ele>797.0</ele><time>2026-05-02T13:27:42.272Z</time></trkpt><trkpt lat="43.77596" lon="6.2821733"><ele>797.0</ele><time>2026-05-02T13:27:44.272Z</time></trkpt><trkpt lat="43.7759283" lon="6.2822567"><ele>797.0</ele><time>2026-05-02T13:27:46.273Z</time></trkpt><trkpt lat="43.7759333" lon="6.2823583"><ele>797.0000000000001</ele><time>2026-05-02T13:27:48.272Z</time></trkpt><trkpt lat="43.7759883" lon="6.2824417"><ele>797.0</ele><time>2026-05-02T13:27:50.272Z</time></trkpt><trkpt lat="43.77605" lon="6.2824683"><ele>801.75</ele><time>2026-05-02T13:27:51.272Z</time></trkpt><trkpt lat="43.776145" lon="6.2824617"><ele>806.5</ele><time>2026-05-02T13:27:52.272Z</time></trkpt><trkpt lat="43.7762683" lon="6.2824317"><ele>811.25</ele><time>2026-05-02T13:27:53.272Z</time></trkpt><trkpt lat="43.7763983" lon="6.2824033"><ele>816.0</ele><time>2026-05-02T13:27:54.272Z</time></trkpt><trkpt lat="43.7765383" lon="6.2823867"><ele>816.0</ele><time>2026-05-02T13:27:55.273Z</time></trkpt><trkpt lat="43.776675" lon="6.2823983"><ele>816.0</ele><time>2026-05-02T13:27:56.272Z</time></trkpt><trkpt lat="43.7768217" lon="6.2824283"><ele>816.0</ele><time>2026-05-02T13:27:57.272Z</time></trkpt><trkpt lat="43.7769633" lon="6.2824783"><ele>816.0</ele><time>2026-05-02T13:27:58.273Z</time></trkpt><trkpt lat="43.777105" lon="6.2825367"><ele>815.5</ele><time>2026-05-02T13:27:59.272Z</time></trkpt><trkpt lat="43.7772467" lon="6.2825733"><ele>815.0</ele><time>2026-05-02T13:28:00.272Z</time></trkpt><trkpt lat="43.77738" lon="6.2826033"><ele>814.5</ele><time>2026-05-02T13:28:01.272Z</time></trkpt><trkpt lat="43.7775133" lon="6.2826183"><ele>814.0</ele><time>2026-05-02T13:28:02.272Z</time></trkpt><trkpt lat="43.7776483" lon="6.2826433"><ele>814.25</ele><time>2026-05-02T13:28:03.272Z</time></trkpt><trkpt lat="43.77778" lon="6.2826533"><ele>814.5</ele><time>2026-05-02T13:28:04.272Z</time></trkpt><trkpt lat="43.777915" lon="6.282655"><ele>814.75</ele><time>2026-05-02T13:28:05.272Z</time></trkpt><trkpt lat="43.77806" lon="6.282635"><ele>815.0</ele><time>2026-05-02T13:28:06.272Z</time></trkpt><trkpt lat="43.778195" lon="6.2826233"><ele>815.0</ele><time>2026-05-02T13:28:07.272Z</time></trkpt><trkpt lat="43.77833" lon="6.2826367"><ele>815.0</ele><time>2026-05-02T13:28:08.272Z</time></trkpt><trkpt lat="43.77847" lon="6.282635"><ele>815.0</ele><time>2026-05-02T13:28:09.273Z</time></trkpt><trkpt lat="43.7786083" lon="6.2826167"><ele>815.0</ele><time>2026-05-02T13:28:10.272Z</time></trkpt><trkpt lat="43.77875" lon="6.2825567"><ele>818.25</ele><time>2026-05-02T13:28:11.273Z</time></trkpt><trkpt lat="43.77888" lon="6.282485"><ele>821.5</ele><time>2026-05-02T13:28:12.273Z</time></trkpt><trkpt lat="43.7790067" lon="6.2824083"><ele>824.75</ele><time>2026-05-02T13:28:13.272Z</time></trkpt><trkpt lat="43.7791367" lon="6.282355"><ele>828.0</ele><time>2026-05-02T13:28:14.272Z</time></trkpt><trkpt lat="43.7792683" lon="6.282315"><ele>830.25</ele><time>2026-05-02T13:28:15.272Z</time></trkpt><trkpt lat="43.7794217" lon="6.28231"><ele>832.5</ele><time>2026-05-02T13:28:16.272Z</time></trkpt><trkpt lat="43.77957" lon="6.2823167"><ele>834.75</ele><time>2026-05-02T13:28:17.272Z</time></trkpt><trkpt lat="43.7797083" lon="6.2823467"><ele>837.0</ele><time>2026-05-02T13:28:18.272Z</time></trkpt><trkpt lat="43.7798467" lon="6.282395"><ele>837.0</ele><time>2026-05-02T13:28:19.272Z</time></trkpt><trkpt lat="43.7799833" lon="6.28243"><ele>837.0</ele><time>2026-05-02T13:28:20.273Z</time></trkpt><trkpt lat="43.7801167" lon="6.2824483"><ele>837.0</ele><time>2026-05-02T13:28:21.273Z</time></trkpt><trkpt lat="43.7802467" lon="6.2824267"><ele>837.0</ele><time>2026-05-02T13:28:22.273Z</time></trkpt><trkpt lat="43.7803583" lon="6.282375"><ele>837.6666666666666</ele><time>2026-05-02T13:28:23.272Z</time></trkpt><trkpt lat="43.780465" lon="6.28234"><ele>838.3333333333333</ele><time>2026-05-02T13:28:24.272Z</time></trkpt><trkpt lat="43.7805583" lon="6.2823267"><ele>839.0</ele><time>2026-05-02T13:28:25.272Z</time></trkpt><trkpt lat="43.7806367" lon="6.2823517"><ele>839.6666666666666</ele><time>2026-05-02T13:28:26.272Z</time></trkpt><trkpt lat="43.7806917" lon="6.2824067"><ele>840.3333333333333</ele><time>2026-05-02T13:28:27.272Z</time></trkpt><trkpt lat="43.780725" lon="6.2824983"><ele>841.0</ele><time>2026-05-02T13:28:28.273Z</time></trkpt><trkpt lat="43.7806817" lon="6.2826267"><ele>841.0</ele><time>2026-05-02T13:28:30.272Z</time></trkpt><trkpt lat="43.780595" lon="6.2826467"><ele>841.0</ele><time>2026-05-02T13:28:31.272Z</time></trkpt><trkpt lat="43.7804533" lon="6.2826267"><ele>841.0</ele><time>2026-05-02T13:28:32.272Z</time></trkpt><trkpt lat="43.7802783" lon="6.2826133"><ele>841.0</ele><time>2026-05-02T13:28:33.272Z</time></trkpt><trkpt lat="43.7801117" lon="6.2826267"><ele>840.0</ele><time>2026-05-02T13:28:34.272Z</time></trkpt><trkpt lat="43.7799567" lon="6.282655"><ele>839.0</ele><time>2026-05-02T13:28:35.272Z</time></trkpt><trkpt lat="43.7798133" lon="6.2826917"><ele>838.0</ele><time>2026-05-02T13:28:36.272Z</time></trkpt><trkpt lat="43.7796717" lon="6.2827167"><ele>837.0</ele><time>2026-05-02T13:28:37.273Z</time></trkpt><trkpt lat="43.7795217" lon="6.2827483"><ele>837.0</ele><time>2026-05-02T13:28:38.272Z</time></trkpt><trkpt lat="43.7793733" lon="6.2827933"><ele>837.0</ele><time>2026-05-02T13:28:39.272Z</time></trkpt><trkpt lat="43.7792383" lon="6.2828517"><ele>837.0</ele><time>2026-05-02T13:28:40.272Z</time></trkpt><trkpt lat="43.7791033" lon="6.28294"><ele>837.0</ele><time>2026-05-02T13:28:41.272Z</time></trkpt><trkpt lat="43.7789783" lon="6.2830417"><ele>839.75</ele><time>2026-05-02T13:28:42.272Z</time></trkpt><trkpt lat="43.7788567" lon="6.283145"><ele>842.5</ele><time>2026-05-02T13:28:43.272Z</time></trkpt><trkpt lat="43.778735" lon="6.2832367"><ele>845.25</ele><time>2026-05-02T13:28:44.272Z</time></trkpt><trkpt lat="43.7786133" lon="6.2833067"><ele>848.0</ele><time>2026-05-02T13:28:45.272Z</time></trkpt><trkpt lat="43.778495" lon="6.283365"><ele>848.0</ele><time>2026-05-02T13:28:46.272Z</time></trkpt><trkpt lat="43.7783567" lon="6.2834067"><ele>848.0</ele><time>2026-05-02T13:28:47.272Z</time></trkpt><trkpt lat="43.7782217" lon="6.2834533"><ele>848.0</ele><time>2026-05-02T13:28:48.272Z</time></trkpt><trkpt lat="43.7780833" lon="6.28351"><ele>848.0</ele><time>2026-05-02T13:28:49.273Z</time></trkpt><trkpt lat="43.7779467" lon="6.28355"><ele>848.0</ele><time>2026-05-02T13:28:50.272Z</time></trkpt><trkpt lat="43.7777983" lon="6.2835817"><ele>848.0</ele><time>2026-05-02T13:28:51.272Z</time></trkpt><trkpt lat="43.7776433" lon="6.283605"><ele>848.0</ele><time>2026-05-02T13:28:52.272Z</time></trkpt><trkpt lat="43.7774883" lon="6.2836217"><ele>848.5</ele><time>2026-05-02T13:28:53.272Z</time></trkpt><trkpt lat="43.7773417" lon="6.2836283"><ele>849.0</ele><time>2026-05-02T13:28:54.273Z</time></trkpt><trkpt lat="43.7772067" lon="6.2836167"><ele>849.5</ele><time>2026-05-02T13:28:55.272Z</time></trkpt><trkpt lat="43.777065" lon="6.28362"><ele>850.0</ele><time>2026-05-02T13:28:56.272Z</time></trkpt><trkpt lat="43.7769383" lon="6.283615"><ele>847.75</ele><time>2026-05-02T13:28:57.272Z</time></trkpt><trkpt lat="43.7768133" lon="6.2836267"><ele>845.5</ele><time>2026-05-02T13:28:58.272Z</time></trkpt><trkpt lat="43.7766933" lon="6.2836633"><ele>843.25</ele><time>2026-05-02T13:28:59.272Z</time></trkpt><trkpt lat="43.7765867" lon="6.28374"><ele>841.0</ele><time>2026-05-02T13:29:00.272Z</time></trkpt><trkpt lat="43.77649" lon="6.2838567"><ele>849.5</ele><time>2026-05-02T13:29:01.273Z</time></trkpt><trkpt lat="43.7763917" lon="6.2839667"><ele>858.0</ele><time>2026-05-02T13:29:02.272Z</time></trkpt><trkpt lat="43.776305" lon="6.2840933"><ele>866.5</ele><time>2026-05-02T13:29:03.272Z</time></trkpt><trkpt lat="43.7762417" lon="6.2842483"><ele>875.0</ele><time>2026-05-02T13:29:04.272Z</time></trkpt><trkpt lat="43.77617" lon="6.2843917"><ele>875.0</ele><time>2026-05-02T13:29:05.272Z</time></trkpt><trkpt lat="43.7760933" lon="6.284535"><ele>875.0</ele><time>2026-05-02T13:29:06.272Z</time></trkpt><trkpt lat="43.7759933" lon="6.2846533"><ele>875.0</ele><time>2026-05-02T13:29:07.272Z</time></trkpt><trkpt lat="43.7759067" lon="6.2847783"><ele>875.0</ele><time>2026-05-02T13:29:08.272Z</time></trkpt><trkpt lat="43.7758433" lon="6.28494"><ele>874.0</ele><time>2026-05-02T13:29:09.272Z</time></trkpt><trkpt lat="43.7758067" lon="6.2851267"><ele>873.0</ele><time>2026-05-02T13:29:10.272Z</time></trkpt><trkpt lat="43.7757883" lon="6.2853267"><ele>872.0</ele><time>2026-05-02T13:29:11.272Z</time></trkpt><trkpt lat="43.775775" lon="6.2855283"><ele>871.0</ele><time>2026-05-02T13:29:12.272Z</time></trkpt><trkpt lat="43.7757567" lon="6.2857183"><ele>871.0</ele><time>2026-05-02T13:29:13.272Z</time></trkpt><trkpt lat="43.7757433" lon="6.2858867"><ele>871.0</ele><time>2026-05-02T13:29:14.272Z</time></trkpt><trkpt lat="43.7757567" lon="6.2860633"><ele>871.0</ele><time>2026-05-02T13:29:15.272Z</time></trkpt><trkpt lat="43.7757967" lon="6.2862333"><ele>871.0</ele><time>2026-05-02T13:29:16.272Z</time></trkpt><trkpt lat="43.7758533" lon="6.286415"><ele>869.5</ele><time>2026-05-02T13:29:17.272Z</time></trkpt><trkpt lat="43.7759233" lon="6.2865817"><ele>868.0</ele><time>2026-05-02T13:29:18.273Z</time></trkpt><trkpt lat="43.7759967" lon="6.286745"><ele>866.5</ele><time>2026-05-02T13:29:19.272Z</time></trkpt><trkpt lat="43.7760467" lon="6.286935"><ele>865.0</ele><time>2026-05-02T13:29:20.272Z</time></trkpt><trkpt lat="43.7760767" lon="6.2871333"><ele>883.6666666666666</ele><time>2026-05-02T13:29:21.272Z</time></trkpt><trkpt lat="43.776085" lon="6.287335"><ele>902.3333333333333</ele><time>2026-05-02T13:29:22.272Z</time></trkpt><trkpt lat="43.77608" lon="6.28754"><ele>921.0</ele><time>2026-05-02T13:29:23.272Z</time></trkpt><trkpt lat="43.7760733" lon="6.2877633"><ele>921.0</ele><time>2026-05-02T13:29:24.272Z</time></trkpt><trkpt lat="43.776065" lon="6.2879683"><ele>921.0</ele><time>2026-05-02T13:29:25.272Z</time></trkpt><trkpt lat="43.7760583" lon="6.2881817"><ele>921.0</ele><time>2026-05-02T13:29:26.273Z</time></trkpt><trkpt lat="43.7760567" lon="6.2883933"><ele>921.3333333333333</ele><time>2026-05-02T13:29:27.272Z</time></trkpt><trkpt lat="43.7760567" lon="6.288605"><ele>921.6666666666666</ele><time>2026-05-02T13:29:28.273Z</time></trkpt><trkpt lat="43.7760533" lon="6.2888233"><ele>922.0</ele><time>2026-05-02T13:29:29.272Z</time></trkpt><trkpt lat="43.776045" lon="6.2890317"><ele>923.75</ele><time>2026-05-02T13:29:30.272Z</time></trkpt><trkpt lat="43.7760233" lon="6.28923"><ele>925.5</ele><time>2026-05-02T13:29:31.273Z</time></trkpt><trkpt lat="43.7759917" lon="6.2894367"><ele>927.25</ele><time>2026-05-02T13:29:32.272Z</time></trkpt><trkpt lat="43.7759617" lon="6.2896367"><ele>929.0</ele><time>2026-05-02T13:29:33.272Z</time></trkpt><trkpt lat="43.7759467" lon="6.28984"><ele>918.75</ele><time>2026-05-02T13:29:34.272Z</time></trkpt><trkpt lat="43.77594" lon="6.2900333"><ele>908.5</ele><time>2026-05-02T13:29:35.272Z</time></trkpt><trkpt lat="43.775955" lon="6.29022"><ele>898.25</ele><time>2026-05-02T13:29:36.272Z</time></trkpt><trkpt lat="43.7759617" lon="6.2903933"><ele>888.0</ele><time>2026-05-02T13:29:37.272Z</time></trkpt><trkpt lat="43.775935" lon="6.29055"><ele>891.25</ele><time>2026-05-02T13:29:38.272Z</time></trkpt><trkpt lat="43.7758817" lon="6.2906983"><ele>894.5</ele><time>2026-05-02T13:29:39.272Z</time></trkpt><trkpt lat="43.775835" lon="6.2908583"><ele>897.75</ele><time>2026-05-02T13:29:40.272Z</time></trkpt><trkpt lat="43.7758" lon="6.2910217"><ele>901.0</ele><time>2026-05-02T13:29:41.272Z</time></trkpt><trkpt lat="43.7757683" lon="6.2911933"><ele>901.0</ele><time>2026-05-02T13:29:42.272Z</time></trkpt><trkpt lat="43.7757383" lon="6.291365"><ele>901.0</ele><time>2026-05-02T13:29:43.272Z</time></trkpt><trkpt lat="43.7756917" lon="6.291535"><ele>901.0</ele><time>2026-05-02T13:29:44.272Z</time></trkpt><trkpt lat="43.775615" lon="6.29169"><ele>901.0</ele><time>2026-05-02T13:29:45.272Z</time></trkpt><trkpt lat="43.7755083" lon="6.29181"><ele>898.6666666666666</ele><time>2026-05-02T13:29:46.272Z</time></trkpt><trkpt lat="43.77539" lon="6.291925"><ele>896.3333333333333</ele><time>2026-05-02T13:29:47.272Z</time></trkpt><trkpt lat="43.7752667" lon="6.2920517"><ele>894.0</ele><time>2026-05-02T13:29:48.272Z</time></trkpt><trkpt lat="43.7751417" lon="6.2921883"><ele>898.6666666666667</ele><time>2026-05-02T13:29:49.272Z</time></trkpt><trkpt lat="43.7750283" lon="6.29233"><ele>903.3333333333334</ele><time>2026-05-02T13:29:50.272Z</time></trkpt><trkpt lat="43.7749217" lon="6.2924917"><ele>908.0</ele><time>2026-05-02T13:29:51.272Z</time></trkpt><trkpt lat="43.7748183" lon="6.29263"><ele>908.0</ele><time>2026-05-02T13:29:52.272Z</time></trkpt><trkpt lat="43.7747233" lon="6.29279"><ele>908.0</ele><time>2026-05-02T13:29:53.272Z</time></trkpt><trkpt lat="43.774635" lon="6.2929317"><ele>908.0</ele><time>2026-05-02T13:29:54.272Z</time></trkpt><trkpt lat="43.77456" lon="6.2930617"><ele>908.0</ele><time>2026-05-02T13:29:55.272Z</time></trkpt><trkpt lat="43.7745167" lon="6.2931917"><ele>911.2</ele><time>2026-05-02T13:29:56.272Z</time></trkpt><trkpt lat="43.7744917" lon="6.29333"><ele>914.4</ele><time>2026-05-02T13:29:57.272Z</time></trkpt><trkpt lat="43.7744967" lon="6.293475"><ele>917.6000000000001</ele><time>2026-05-02T13:29:58.272Z</time></trkpt><trkpt lat="43.7745383" lon="6.2936283"><ele>920.8000000000001</ele><time>2026-05-02T13:29:59.272Z</time></trkpt><trkpt lat="43.7745983" lon="6.293775"><ele>924.0</ele><time>2026-05-02T13:30:00.272Z</time></trkpt><trkpt lat="43.7746583" lon="6.2939367"><ele>926.75</ele><time>2026-05-02T13:30:01.272Z</time></trkpt><trkpt lat="43.7746883" lon="6.2941233"><ele>929.5</ele><time>2026-05-02T13:30:02.272Z</time></trkpt><trkpt lat="43.77468" lon="6.2942983"><ele>932.25</ele><time>2026-05-02T13:30:03.272Z</time></trkpt><trkpt lat="43.7746333" lon="6.2944567"><ele>935.0</ele><time>2026-05-02T13:30:04.272Z</time></trkpt><trkpt lat="43.77455" lon="6.2946"><ele>935.0</ele><time>2026-05-02T13:30:05.272Z</time></trkpt><trkpt lat="43.7744417" lon="6.2947217"><ele>935.0</ele><time>2026-05-02T13:30:06.273Z</time></trkpt><trkpt lat="43.7743233" lon="6.2948383"><ele>935.0</ele><time>2026-05-02T13:30:07.272Z</time></trkpt><trkpt lat="43.7742267" lon="6.2949717"><ele>935.0</ele><time>2026-05-02T13:30:08.272Z</time></trkpt><trkpt lat="43.7741483" lon="6.2951083"><ele>936.0</ele><time>2026-05-02T13:30:09.272Z</time></trkpt><trkpt lat="43.7740833" lon="6.2952683"><ele>937.0</ele><time>2026-05-02T13:30:10.273Z</time></trkpt><trkpt lat="43.7740317" lon="6.2954383"><ele>938.0</ele><time>2026-05-02T13:30:11.272Z</time></trkpt><trkpt lat="43.7739733" lon="6.2956167"><ele>939.0</ele><time>2026-05-02T13:30:12.272Z</time></trkpt><trkpt lat="43.7739083" lon="6.295795"><ele>939.0</ele><time>2026-05-02T13:30:13.272Z</time></trkpt><trkpt lat="43.7738333" lon="6.295965"><ele>939.0</ele><time>2026-05-02T13:30:14.272Z</time></trkpt><trkpt lat="43.7737517" lon="6.2961333"><ele>939.0</ele><time>2026-05-02T13:30:15.272Z</time></trkpt><trkpt lat="43.7736583" lon="6.2963033"><ele>939.0</ele><time>2026-05-02T13:30:16.273Z</time></trkpt><trkpt lat="43.7735717" lon="6.2964817"><ele>936.0</ele><time>2026-05-02T13:30:17.272Z</time></trkpt><trkpt lat="43.7734917" lon="6.2966683"><ele>933.0</ele><time>2026-05-02T13:30:18.272Z</time></trkpt><trkpt lat="43.77343" lon="6.2968567"><ele>930.0</ele><time>2026-05-02T13:30:19.272Z</time></trkpt><trkpt lat="43.77338" lon="6.29705"><ele>930.0</ele><time>2026-05-02T13:30:20.272Z</time></trkpt><trkpt lat="43.7733333" lon="6.29724"><ele>930.0</ele><time>2026-05-02T13:30:21.272Z</time></trkpt><trkpt lat="43.7732767" lon="6.2974233"><ele>930.0</ele><time>2026-05-02T13:30:22.272Z</time></trkpt><trkpt lat="43.7732217" lon="6.2975967"><ele>930.0</ele><time>2026-05-02T13:30:23.272Z</time></trkpt><trkpt lat="43.7731667" lon="6.297755"><ele>935.0</ele><time>2026-05-02T13:30:24.272Z</time></trkpt><trkpt lat="43.773095" lon="6.2978783"><ele>940.0</ele><time>2026-05-02T13:30:25.272Z</time></trkpt><trkpt lat="43.77301" lon="6.2979733"><ele>945.0</ele><time>2026-05-02T13:30:26.272Z</time></trkpt><trkpt lat="43.7728933" lon="6.2980467"><ele>950.0</ele><time>2026-05-02T13:30:27.272Z</time></trkpt><trkpt lat="43.7727767" lon="6.2981017"><ele>949.0</ele><time>2026-05-02T13:30:28.273Z</time></trkpt><trkpt lat="43.7726583" lon="6.29816"><ele>948.0</ele><time>2026-05-02T13:30:29.272Z</time></trkpt><trkpt lat="43.7725483" lon="6.298235"><ele>947.0</ele><time>2026-05-02T13:30:30.273Z</time></trkpt><trkpt lat="43.7724633" lon="6.298335"><ele>946.0</ele><time>2026-05-02T13:30:31.272Z</time></trkpt><trkpt lat="43.7723933" lon="6.2984417"><ele>946.0</ele><time>2026-05-02T13:30:32.272Z</time></trkpt><trkpt lat="43.7723333" lon="6.298575"><ele>945.9999999999999</ele><time>2026-05-02T13:30:33.273Z</time></trkpt><trkpt lat="43.772265" lon="6.2987"><ele>945.9999999999999</ele><time>2026-05-02T13:30:34.272Z</time></trkpt><trkpt lat="43.7721933" lon="6.29881"><ele>946.0</ele><time>2026-05-02T13:30:35.272Z</time></trkpt><trkpt lat="43.7721117" lon="6.2988983"><ele>946.0</ele><time>2026-05-02T13:30:36.273Z</time></trkpt><trkpt lat="43.7720383" lon="6.2989567"><ele>948.4</ele><time>2026-05-02T13:30:37.273Z</time></trkpt><trkpt lat="43.77197" lon="6.299025"><ele>950.8</ele><time>2026-05-02T13:30:38.272Z</time></trkpt><trkpt lat="43.7719167" lon="6.2991217"><ele>953.1999999999999</ele><time>2026-05-02T13:30:39.272Z</time></trkpt><trkpt lat="43.7718817" lon="6.2992517"><ele>955.5999999999999</ele><time>2026-05-02T13:30:40.272Z</time></trkpt><trkpt lat="43.771865" lon="6.2994333"><ele>958.0</ele><time>2026-05-02T13:30:41.272Z</time></trkpt><trkpt lat="43.7718867" lon="6.2996383"><ele>960.0</ele><time>2026-05-02T13:30:42.272Z</time></trkpt><trkpt lat="43.7719133" lon="6.2998817"><ele>962.0</ele><time>2026-05-02T13:30:43.272Z</time></trkpt><trkpt lat="43.7719433" lon="6.3001417"><ele>964.0</ele><time>2026-05-02T13:30:44.272Z</time></trkpt><trkpt lat="43.7719667" lon="6.3004017"><ele>966.6666666666666</ele><time>2026-05-02T13:30:45.272Z</time></trkpt><trkpt lat="43.7719917" lon="6.3006517"><ele>969.3333333333333</ele><time>2026-05-02T13:30:46.272Z</time></trkpt><trkpt lat="43.771995" lon="6.3008767"><ele>972.0</ele><time>2026-05-02T13:30:47.272Z</time></trkpt><trkpt lat="43.7719733" lon="6.3010967"><ele>972.0</ele><time>2026-05-02T13:30:48.272Z</time></trkpt><trkpt lat="43.7719133" lon="6.3013067"><ele>972.0</ele><time>2026-05-02T13:30:49.272Z</time></trkpt><trkpt lat="43.7718217" lon="6.3015"><ele>972.0</ele><time>2026-05-02T13:30:50.272Z</time></trkpt><trkpt lat="43.7717083" lon="6.30167"><ele>969.0</ele><time>2026-05-02T13:30:51.272Z</time></trkpt><trkpt lat="43.77159" lon="6.3018183"><ele>966.0</ele><time>2026-05-02T13:30:52.272Z</time></trkpt><trkpt lat="43.7714667" lon="6.3019567"><ele>963.0</ele><time>2026-05-02T13:30:53.272Z</time></trkpt><trkpt lat="43.7713583" lon="6.3021"><ele>966.75</ele><time>2026-05-02T13:30:54.272Z</time></trkpt><trkpt lat="43.7712717" lon="6.3022483"><ele>970.5</ele><time>2026-05-02T13:30:55.272Z</time></trkpt><trkpt lat="43.7712067" lon="6.3024233"><ele>974.25</ele><time>2026-05-02T13:30:56.272Z</time></trkpt><trkpt lat="43.771165" lon="6.3026083"><ele>978.0</ele><time>2026-05-02T13:30:57.272Z</time></trkpt><trkpt lat="43.7711433" lon="6.302825"><ele>978.0</ele><time>2026-05-02T13:30:58.272Z</time></trkpt><trkpt lat="43.7711483" lon="6.3030317"><ele>978.0</ele><time>2026-05-02T13:30:59.272Z</time></trkpt><trkpt lat="43.7711583" lon="6.3032183"><ele>978.0</ele><time>2026-05-02T13:31:00.273Z</time></trkpt><trkpt lat="43.7711383" lon="6.3033767"><ele>978.0</ele><time>2026-05-02T13:31:01.272Z</time></trkpt><trkpt lat="43.7710933" lon="6.3035317"><ele>976.0</ele><time>2026-05-02T13:31:02.272Z</time></trkpt><trkpt lat="43.7710183" lon="6.3036633"><ele>974.0</ele><time>2026-05-02T13:31:03.272Z</time></trkpt><trkpt lat="43.7709083" lon="6.3037617"><ele>972.0</ele><time>2026-05-02T13:31:04.273Z</time></trkpt><trkpt lat="43.7707867" lon="6.303785"><ele>970.0</ele><time>2026-05-02T13:31:05.272Z</time></trkpt><trkpt lat="43.7706583" lon="6.30375"><ele>970.0</ele><time>2026-05-02T13:31:06.272Z</time></trkpt><trkpt lat="43.7705233" lon="6.3036967"><ele>970.0</ele><time>2026-05-02T13:31:07.272Z</time></trkpt><trkpt lat="43.7703867" lon="6.3036567"><ele>970.0</ele><time>2026-05-02T13:31:08.272Z</time></trkpt><trkpt lat="43.77025" lon="6.3036367"><ele>970.0</ele><time>2026-05-02T13:31:09.272Z</time></trkpt><trkpt lat="43.7701183" lon="6.3036417"><ele>970.0</ele><time>2026-05-02T13:31:10.272Z</time></trkpt><trkpt lat="43.770015" lon="6.3036733"><ele>970.0</ele><time>2026-05-02T13:31:11.272Z</time></trkpt><trkpt lat="43.7699233" lon="6.30376"><ele>970.0</ele><time>2026-05-02T13:31:12.272Z</time></trkpt><trkpt lat="43.769855" lon="6.3038883"><ele>970.0</ele><time>2026-05-02T13:31:13.272Z</time></trkpt><trkpt lat="43.7698133" lon="6.3040367"><ele>970.0</ele><time>2026-05-02T13:31:14.272Z</time></trkpt><trkpt lat="43.769805" lon="6.3042183"><ele>972.0</ele><time>2026-05-02T13:31:15.272Z</time></trkpt><trkpt lat="43.7698217" lon="6.3044133"><ele>974.0</ele><time>2026-05-02T13:31:16.272Z</time></trkpt><trkpt lat="43.7698317" lon="6.3046283"><ele>976.0</ele><time>2026-05-02T13:31:17.273Z</time></trkpt><trkpt lat="43.7698517" lon="6.304825"><ele>978.0</ele><time>2026-05-02T13:31:18.272Z</time></trkpt><trkpt lat="43.76988" lon="6.30501"><ele>978.25</ele><time>2026-05-02T13:31:19.272Z</time></trkpt><trkpt lat="43.7699233" lon="6.3051967"><ele>978.5</ele><time>2026-05-02T13:31:20.272Z</time></trkpt><trkpt lat="43.7699883" lon="6.3053417"><ele>978.75</ele><time>2026-05-02T13:31:21.272Z</time></trkpt><trkpt lat="43.7700617" lon="6.3054567"><ele>979.0</ele><time>2026-05-02T13:31:22.272Z</time></trkpt><trkpt lat="43.770165" lon="6.3055383"><ele>983.75</ele><time>2026-05-02T13:31:23.273Z</time></trkpt><trkpt lat="43.7702667" lon="6.3056033"><ele>988.5</ele><time>2026-05-02T13:31:24.272Z</time></trkpt><trkpt lat="43.7703683" lon="6.305665"><ele>993.25</ele><time>2026-05-02T13:31:25.272Z</time></trkpt><trkpt lat="43.7704683" lon="6.305755"><ele>998.0</ele><time>2026-05-02T13:31:26.272Z</time></trkpt><trkpt lat="43.7705517" lon="6.3058533"><ele>998.0</ele><time>2026-05-02T13:31:27.272Z</time></trkpt><trkpt lat="43.7706183" lon="6.3059483"><ele>998.0</ele><time>2026-05-02T13:31:28.273Z</time></trkpt><trkpt lat="43.7706783" lon="6.30603"><ele>998.0</ele><time>2026-05-02T13:31:29.272Z</time></trkpt><trkpt lat="43.7707233" lon="6.3061"><ele>998.0</ele><time>2026-05-02T13:31:30.272Z</time></trkpt><trkpt lat="43.7707683" lon="6.306255"><ele>998.0</ele><time>2026-05-02T13:31:32.272Z</time></trkpt><trkpt lat="43.77075" lon="6.3064417"><ele>997.8</ele><time>2026-05-02T13:31:34.272Z</time></trkpt><trkpt lat="43.7707033" lon="6.3065417"><ele>997.5999999999999</ele><time>2026-05-02T13:31:35.272Z</time></trkpt><trkpt lat="43.7706283" lon="6.3066517"><ele>997.4000000000001</ele><time>2026-05-02T13:31:36.273Z</time></trkpt><trkpt lat="43.7705533" lon="6.3067583"><ele>997.2</ele><time>2026-05-02T13:31:37.273Z</time></trkpt><trkpt lat="43.7704933" lon="6.306855"><ele>997.0</ele><time>2026-05-02T13:31:38.272Z</time></trkpt><trkpt lat="43.7704383" lon="6.3069533"><ele>997.0</ele><time>2026-05-02T13:31:39.273Z</time></trkpt><trkpt lat="43.7703833" lon="6.3070533"><ele>997.0</ele><time>2026-05-02T13:31:40.272Z</time></trkpt><trkpt lat="43.7703283" lon="6.30716"><ele>997.0</ele><time>2026-05-02T13:31:41.273Z</time></trkpt><trkpt lat="43.7702683" lon="6.3072767"><ele>997.0</ele><time>2026-05-02T13:31:42.272Z</time></trkpt><trkpt lat="43.7702183" lon="6.3074083"><ele>997.0</ele><time>2026-05-02T13:31:43.273Z</time></trkpt><trkpt lat="43.7701767" lon="6.30757"><ele>996.75</ele><time>2026-05-02T13:31:44.272Z</time></trkpt><trkpt lat="43.77014" lon="6.3077333"><ele>996.5</ele><time>2026-05-02T13:31:45.272Z</time></trkpt><trkpt lat="43.77011" lon="6.3078967"><ele>996.25</ele><time>2026-05-02T13:31:46.272Z</time></trkpt><trkpt lat="43.770085" lon="6.3080583"><ele>996.0</ele><time>2026-05-02T13:31:47.272Z</time></trkpt><trkpt lat="43.77007" lon="6.3082167"><ele>996.0</ele><time>2026-05-02T13:31:48.272Z</time></trkpt><trkpt lat="43.7700683" lon="6.3083683"><ele>996.0</ele><time>2026-05-02T13:31:49.272Z</time></trkpt><trkpt lat="43.7700817" lon="6.3084967"><ele>996.0</ele><time>2026-05-02T13:31:50.272Z</time></trkpt><trkpt lat="43.7701" lon="6.3086183"><ele>996.0</ele><time>2026-05-02T13:31:51.272Z</time></trkpt><trkpt lat="43.7701233" lon="6.3087283"><ele>996.0</ele><time>2026-05-02T13:31:52.272Z</time></trkpt><trkpt lat="43.7701417" lon="6.3088267"><ele>996.0</ele><time>2026-05-02T13:31:53.273Z</time></trkpt><trkpt lat="43.7701467" lon="6.3089367"><ele>997.5</ele><time>2026-05-02T13:31:54.273Z</time></trkpt><trkpt lat="43.77015" lon="6.3090367"><ele>999.0</ele><time>2026-05-02T13:31:55.272Z</time></trkpt><trkpt lat="43.7700917" lon="6.3091983"><ele>1000.5</ele><time>2026-05-02T13:31:57.272Z</time></trkpt><trkpt lat="43.7700333" lon="6.309255"><ele>1002.0</ele><time>2026-05-02T13:31:58.272Z</time></trkpt><trkpt lat="43.7699567" lon="6.3092967"><ele>1003.5</ele><time>2026-05-02T13:31:59.272Z</time></trkpt><trkpt lat="43.7698783" lon="6.309325"><ele>1005.0</ele><time>2026-05-02T13:32:00.272Z</time></trkpt><trkpt lat="43.7697933" lon="6.3093267"><ele>1005.0</ele><time>2026-05-02T13:32:01.272Z</time></trkpt><trkpt lat="43.7696883" lon="6.309325"><ele>1005.0</ele><time>2026-05-02T13:32:02.272Z</time></trkpt><trkpt lat="43.769575" lon="6.309285"><ele>1005.0</ele><time>2026-05-02T13:32:03.272Z</time></trkpt><trkpt lat="43.7694583" lon="6.3091983"><ele>1005.0</ele><time>2026-05-02T13:32:04.272Z</time></trkpt><trkpt lat="43.7693467" lon="6.3091083"><ele>1006.4</ele><time>2026-05-02T13:32:05.272Z</time></trkpt><trkpt lat="43.7692417" lon="6.3090233"><ele>1007.8</ele><time>2026-05-02T13:32:06.272Z</time></trkpt><trkpt lat="43.7691383" lon="6.308955"><ele>1009.2</ele><time>2026-05-02T13:32:07.273Z</time></trkpt><trkpt lat="43.7690483" lon="6.3088917"><ele>1010.6</ele><time>2026-05-02T13:32:08.272Z</time></trkpt><trkpt lat="43.7689567" lon="6.3088333"><ele>1012.0</ele><time>2026-05-02T13:32:09.273Z</time></trkpt><trkpt lat="43.7688633" lon="6.308775"><ele>1008.4000000000001</ele><time>2026-05-02T13:32:10.272Z</time></trkpt><trkpt lat="43.768775" lon="6.3087117"><ele>1004.8000000000001</ele><time>2026-05-02T13:32:11.273Z</time></trkpt><trkpt lat="43.7686817" lon="6.3086583"><ele>1001.2</ele><time>2026-05-02T13:32:12.272Z</time></trkpt><trkpt lat="43.7685933" lon="6.3086333"><ele>997.6</ele><time>2026-05-02T13:32:13.272Z</time></trkpt><trkpt lat="43.76851" lon="6.3086283"><ele>994.0</ele><time>2026-05-02T13:32:14.272Z</time></trkpt><trkpt lat="43.76842" lon="6.3086467"><ele>992.8000000000001</ele><time>2026-05-02T13:32:15.272Z</time></trkpt><trkpt lat="43.768335" lon="6.3087017"><ele>991.6000000000001</ele><time>2026-05-02T13:32:16.272Z</time></trkpt><trkpt lat="43.7682617" lon="6.3087817"><ele>990.4</ele><time>2026-05-02T13:32:17.272Z</time></trkpt><trkpt lat="43.7681867" lon="6.30887"><ele>989.2</ele><time>2026-05-02T13:32:18.273Z</time></trkpt><trkpt lat="43.7681033" lon="6.3089733"><ele>988.0</ele><time>2026-05-02T13:32:19.272Z</time></trkpt><trkpt lat="43.7680183" lon="6.3090933"><ele>994.75</ele><time>2026-05-02T13:32:20.272Z</time></trkpt><trkpt lat="43.767935" lon="6.30923"><ele>1001.5</ele><time>2026-05-02T13:32:21.272Z</time></trkpt><trkpt lat="43.7678667" lon="6.30942"><ele>1008.25</ele><time>2026-05-02T13:32:22.272Z</time></trkpt><trkpt lat="43.767815" lon="6.3096383"><ele>1015.0</ele><time>2026-05-02T13:32:23.272Z</time></trkpt><trkpt lat="43.767745" lon="6.3098367"><ele>1013.25</ele><time>2026-05-02T13:32:24.272Z</time></trkpt><trkpt lat="43.7676683" lon="6.3100117"><ele>1011.5</ele><time>2026-05-02T13:32:25.272Z</time></trkpt><trkpt lat="43.76758" lon="6.3101733"><ele>1009.75</ele><time>2026-05-02T13:32:26.272Z</time></trkpt><trkpt lat="43.7675067" lon="6.3103267"><ele>1008.0</ele><time>2026-05-02T13:32:27.272Z</time></trkpt><trkpt lat="43.7674567" lon="6.3104717"><ele>1010.2</ele><time>2026-05-02T13:32:28.272Z</time></trkpt><trkpt lat="43.76742" lon="6.31061"><ele>1012.4</ele><time>2026-05-02T13:32:29.272Z</time></trkpt><trkpt lat="43.7673733" lon="6.31076"><ele>1014.6000000000001</ele><time>2026-05-02T13:32:30.272Z</time></trkpt><trkpt lat="43.7673383" lon="6.3108983"><ele>1016.8000000000001</ele><time>2026-05-02T13:32:31.272Z</time></trkpt><trkpt lat="43.7673183" lon="6.3110367"><ele>1019.0</ele><time>2026-05-02T13:32:32.272Z</time></trkpt><trkpt lat="43.767315" lon="6.3111767"><ele>1019.0</ele><time>2026-05-02T13:32:33.272Z</time></trkpt><trkpt lat="43.7673267" lon="6.311315"><ele>1019.0</ele><time>2026-05-02T13:32:34.272Z</time></trkpt><trkpt lat="43.7673567" lon="6.311445"><ele>1019.0</ele><time>2026-05-02T13:32:35.272Z</time></trkpt><trkpt lat="43.7674083" lon="6.3115933"><ele>1019.0</ele><time>2026-05-02T13:32:36.273Z</time></trkpt><trkpt lat="43.76748" lon="6.31175"><ele>1018.3333333333334</ele><time>2026-05-02T13:32:37.273Z</time></trkpt><trkpt lat="43.7675733" lon="6.311925"><ele>1017.6666666666667</ele><time>2026-05-02T13:32:38.272Z</time></trkpt><trkpt lat="43.7676867" lon="6.3121"><ele>1017.0</ele><time>2026-05-02T13:32:39.273Z</time></trkpt><trkpt lat="43.7677983" lon="6.3122833"><ele>1020.0</ele><time>2026-05-02T13:32:40.272Z</time></trkpt><trkpt lat="43.7678983" lon="6.3124967"><ele>1023.0</ele><time>2026-05-02T13:32:41.272Z</time></trkpt><trkpt lat="43.768" lon="6.31273"><ele>1026.0</ele><time>2026-05-02T13:32:42.272Z</time></trkpt><trkpt lat="43.7680933" lon="6.3129683"><ele>1023.6666666666667</ele><time>2026-05-02T13:32:43.272Z</time></trkpt><trkpt lat="43.76818" lon="6.3132067"><ele>1021.3333333333334</ele><time>2026-05-02T13:32:44.272Z</time></trkpt><trkpt lat="43.768255" lon="6.313435"><ele>1019.0</ele><time>2026-05-02T13:32:45.272Z</time></trkpt><trkpt lat="43.76832" lon="6.3136533"><ele>1019.0</ele><time>2026-05-02T13:32:46.272Z</time></trkpt><trkpt lat="43.7683783" lon="6.3138733"><ele>1019.0</ele><time>2026-05-02T13:32:47.272Z</time></trkpt><trkpt lat="43.7684233" lon="6.314095"><ele>1019.0</ele><time>2026-05-02T13:32:48.272Z</time></trkpt><trkpt lat="43.7684517" lon="6.314305"><ele>1019.75</ele><time>2026-05-02T13:32:49.272Z</time></trkpt><trkpt lat="43.7684783" lon="6.3145067"><ele>1020.5</ele><time>2026-05-02T13:32:50.272Z</time></trkpt><trkpt lat="43.7685033" lon="6.3146833"><ele>1021.25</ele><time>2026-05-02T13:32:51.272Z</time></trkpt><trkpt lat="43.7685283" lon="6.3148467"><ele>1022.0</ele><time>2026-05-02T13:32:52.272Z</time></trkpt><trkpt lat="43.7685533" lon="6.3150033"><ele>1025.4</ele><time>2026-05-02T13:32:53.272Z</time></trkpt><trkpt lat="43.7685933" lon="6.3151283"><ele>1028.8000000000002</ele><time>2026-05-02T13:32:54.272Z</time></trkpt><trkpt lat="43.768645" lon="6.3152383"><ele>1032.2</ele><time>2026-05-02T13:32:55.272Z</time></trkpt><trkpt lat="43.768725" lon="6.3153283"><ele>1035.6000000000001</ele><time>2026-05-02T13:32:56.272Z</time></trkpt><trkpt lat="43.768815" lon="6.3153983"><ele>1039.0</ele><time>2026-05-02T13:32:57.272Z</time></trkpt><trkpt lat="43.768915" lon="6.3154733"><ele>1039.0</ele><time>2026-05-02T13:32:58.273Z</time></trkpt><trkpt lat="43.7690233" lon="6.315555"><ele>1039.0</ele><time>2026-05-02T13:32:59.272Z</time></trkpt><trkpt lat="43.7691333" lon="6.3156367"><ele>1039.0</ele><time>2026-05-02T13:33:00.272Z</time></trkpt><trkpt lat="43.769245" lon="6.3157167"><ele>1039.0</ele><time>2026-05-02T13:33:01.273Z</time></trkpt><trkpt lat="43.7693567" lon="6.3158067"><ele>1040.0</ele><time>2026-05-02T13:33:02.272Z</time></trkpt><trkpt lat="43.769445" lon="6.3159133"><ele>1041.0</ele><time>2026-05-02T13:33:03.273Z</time></trkpt><trkpt lat="43.7695133" lon="6.31605"><ele>1042.0</ele><time>2026-05-02T13:33:04.272Z</time></trkpt><trkpt lat="43.7695617" lon="6.31622"><ele>1043.0</ele><time>2026-05-02T13:33:05.272Z</time></trkpt><trkpt lat="43.7696033" lon="6.3163817"><ele>1041.0</ele><time>2026-05-02T13:33:06.273Z</time></trkpt><trkpt lat="43.7696683" lon="6.3165383"><ele>1039.0</ele><time>2026-05-02T13:33:07.272Z</time></trkpt><trkpt lat="43.769765" lon="6.3166683"><ele>1037.0</ele><time>2026-05-02T13:33:08.272Z</time></trkpt><trkpt lat="43.7698767" lon="6.3167917"><ele>1035.0</ele><time>2026-05-02T13:33:09.272Z</time></trkpt><trkpt lat="43.7699767" lon="6.316925"><ele>1035.0</ele><time>2026-05-02T13:33:10.272Z</time></trkpt><trkpt lat="43.7700733" lon="6.3171"><ele>1035.0</ele><time>2026-05-02T13:33:11.272Z</time></trkpt><trkpt lat="43.770155" lon="6.3172733"><ele>1035.0</ele><time>2026-05-02T13:33:12.272Z</time></trkpt><trkpt lat="43.7702217" lon="6.3174583"><ele>1038.0</ele><time>2026-05-02T13:33:13.272Z</time></trkpt><trkpt lat="43.7702467" lon="6.3176367"><ele>1041.0</ele><time>2026-05-02T13:33:14.273Z</time></trkpt><trkpt lat="43.7702267" lon="6.3178083"><ele>1044.0</ele><time>2026-05-02T13:33:15.273Z</time></trkpt><trkpt lat="43.7701717" lon="6.3179817"><ele>1047.0</ele><time>2026-05-02T13:33:16.272Z</time></trkpt><trkpt lat="43.7701133" lon="6.31815"><ele>1040.25</ele><time>2026-05-02T13:33:17.272Z</time></trkpt><trkpt lat="43.7700567" lon="6.3183367"><ele>1033.5</ele><time>2026-05-02T13:33:18.272Z</time></trkpt><trkpt lat="43.77001" lon="6.31853"><ele>1026.75</ele><time>2026-05-02T13:33:19.272Z</time></trkpt><trkpt lat="43.76996" lon="6.3187083"><ele>1020.0</ele><time>2026-05-02T13:33:20.272Z</time></trkpt><trkpt lat="43.769915" lon="6.3188983"><ele>1020.5</ele><time>2026-05-02T13:33:21.272Z</time></trkpt><trkpt lat="43.7698917" lon="6.31908"><ele>1021.0</ele><time>2026-05-02T13:33:22.272Z</time></trkpt><trkpt lat="43.7698883" lon="6.31927"><ele>1021.5</ele><time>2026-05-02T13:33:23.272Z</time></trkpt><trkpt lat="43.7699083" lon="6.319455"><ele>1022.0</ele><time>2026-05-02T13:33:24.272Z</time></trkpt><trkpt lat="43.7699533" lon="6.31965"><ele>1021.75</ele><time>2026-05-02T13:33:25.272Z</time></trkpt><trkpt lat="43.770025" lon="6.319825"><ele>1021.5</ele><time>2026-05-02T13:33:26.272Z</time></trkpt><trkpt lat="43.7700833" lon="6.3199933"><ele>1021.25</ele><time>2026-05-02T13:33:27.272Z</time></trkpt><trkpt lat="43.7701033" lon="6.3201767"><ele>1021.0</ele><time>2026-05-02T13:33:28.272Z</time></trkpt><trkpt lat="43.7701" lon="6.320365"><ele>1021.0</ele><time>2026-05-02T13:33:29.273Z</time></trkpt><trkpt lat="43.7700967" lon="6.3205567"><ele>1021.0</ele><time>2026-05-02T13:33:30.272Z</time></trkpt><trkpt lat="43.7700967" lon="6.3207533"><ele>1021.0</ele><time>2026-05-02T13:33:31.272Z</time></trkpt><trkpt lat="43.7701083" lon="6.3209467"><ele>1021.0</ele><time>2026-05-02T13:33:32.272Z</time></trkpt><trkpt lat="43.7701167" lon="6.32115"><ele>1020.5</ele><time>2026-05-02T13:33:33.272Z</time></trkpt><trkpt lat="43.7701367" lon="6.321345"><ele>1020.0</ele><time>2026-05-02T13:33:34.272Z</time></trkpt><trkpt lat="43.7701683" lon="6.3215433"><ele>1019.5</ele><time>2026-05-02T13:33:35.272Z</time></trkpt><trkpt lat="43.77021" lon="6.321745"><ele>1019.0</ele><time>2026-05-02T13:33:36.272Z</time></trkpt><trkpt lat="43.7702583" lon="6.32194"><ele>1020.6666666666667</ele><time>2026-05-02T13:33:37.272Z</time></trkpt><trkpt lat="43.770315" lon="6.3221383"><ele>1022.3333333333333</ele><time>2026-05-02T13:33:38.272Z</time></trkpt><trkpt lat="43.7703833" lon="6.3223283"><ele>1024.0</ele><time>2026-05-02T13:33:39.272Z</time></trkpt><trkpt lat="43.7704617" lon="6.3225067"><ele>1024.0</ele><time>2026-05-02T13:33:40.272Z</time></trkpt><trkpt lat="43.7705467" lon="6.3226783"><ele>1024.0</ele><time>2026-05-02T13:33:41.272Z</time></trkpt><trkpt lat="43.7706333" lon="6.3228367"><ele>1024.0</ele><time>2026-05-02T13:33:42.272Z</time></trkpt><trkpt lat="43.7707233" lon="6.322985"><ele>1024.0</ele><time>2026-05-02T13:33:43.272Z</time></trkpt><trkpt lat="43.7708267" lon="6.32313"><ele>1025.25</ele><time>2026-05-02T13:33:44.272Z</time></trkpt><trkpt lat="43.7709433" lon="6.323265"><ele>1026.5</ele><time>2026-05-02T13:33:45.272Z</time></trkpt><trkpt lat="43.7710617" lon="6.3233933"><ele>1027.75</ele><time>2026-05-02T13:33:46.272Z</time></trkpt><trkpt lat="43.7711783" lon="6.32351"><ele>1029.0</ele><time>2026-05-02T13:33:47.272Z</time></trkpt><trkpt lat="43.7712883" lon="6.3236317"><ele>1029.0</ele><time>2026-05-02T13:33:48.272Z</time></trkpt><trkpt lat="43.7713867" lon="6.3237533"><ele>1029.0</ele><time>2026-05-02T13:33:49.272Z</time></trkpt><trkpt lat="43.7714833" lon="6.3238833"><ele>1029.0</ele><time>2026-05-02T13:33:50.272Z</time></trkpt><trkpt lat="43.7715817" lon="6.3239983"><ele>1029.0</ele><time>2026-05-02T13:33:51.272Z</time></trkpt><trkpt lat="43.771685" lon="6.324115"><ele>1028.25</ele><time>2026-05-02T13:33:52.272Z</time></trkpt><trkpt lat="43.771805" lon="6.3242183"><ele>1027.5</ele><time>2026-05-02T13:33:53.272Z</time></trkpt><trkpt lat="43.7719267" lon="6.324305"><ele>1026.75</ele><time>2026-05-02T13:33:54.272Z</time></trkpt><trkpt lat="43.7720467" lon="6.3243917"><ele>1026.0</ele><time>2026-05-02T13:33:55.272Z</time></trkpt><trkpt lat="43.772165" lon="6.3245033"><ele>1026.0</ele><time>2026-05-02T13:33:56.272Z</time></trkpt><trkpt lat="43.772275" lon="6.324645"><ele>1026.0</ele><time>2026-05-02T13:33:57.272Z</time></trkpt><trkpt lat="43.772385" lon="6.3247883"><ele>1026.0</ele><time>2026-05-02T13:33:58.272Z</time></trkpt><trkpt lat="43.7724883" lon="6.3249217"><ele>1026.0</ele><time>2026-05-02T13:33:59.272Z</time></trkpt><trkpt lat="43.77259" lon="6.32506"><ele>1026.5</ele><time>2026-05-02T13:34:00.272Z</time></trkpt><trkpt lat="43.7726817" lon="6.3251967"><ele>1027.0</ele><time>2026-05-02T13:34:01.272Z</time></trkpt><trkpt lat="43.772745" lon="6.3253333"><ele>1027.5</ele><time>2026-05-02T13:34:02.272Z</time></trkpt><trkpt lat="43.7727883" lon="6.32548"><ele>1028.0</ele><time>2026-05-02T13:34:03.272Z</time></trkpt><trkpt lat="43.7727817" lon="6.3256333"><ele>1028.0</ele><time>2026-05-02T13:34:04.272Z</time></trkpt><trkpt lat="43.772745" lon="6.3257917"><ele>1028.0</ele><time>2026-05-02T13:34:05.272Z</time></trkpt><trkpt lat="43.7727067" lon="6.3259683"><ele>1028.0</ele><time>2026-05-02T13:34:06.272Z</time></trkpt><trkpt lat="43.77268" lon="6.3261467"><ele>1028.0</ele><time>2026-05-02T13:34:07.272Z</time></trkpt><trkpt lat="43.7726733" lon="6.3263133"><ele>1026.0</ele><time>2026-05-02T13:34:08.273Z</time></trkpt><trkpt lat="43.77269" lon="6.3264883"><ele>1024.0</ele><time>2026-05-02T13:34:09.273Z</time></trkpt><trkpt lat="43.7727317" lon="6.3266567"><ele>1022.0</ele><time>2026-05-02T13:34:10.272Z</time></trkpt><trkpt lat="43.7728033" lon="6.3268183"><ele>1020.0</ele><time>2026-05-02T13:34:11.272Z</time></trkpt><trkpt lat="43.772885" lon="6.3269717"><ele>1020.0</ele><time>2026-05-02T13:34:12.272Z</time></trkpt><trkpt lat="43.7729533" lon="6.3271383"><ele>1020.0</ele><time>2026-05-02T13:34:13.272Z</time></trkpt><trkpt lat="43.7730083" lon="6.3273133"><ele>1020.0</ele><time>2026-05-02T13:34:14.272Z</time></trkpt><trkpt lat="43.7730333" lon="6.327505"><ele>1020.0</ele><time>2026-05-02T13:34:15.272Z</time></trkpt><trkpt lat="43.77304" lon="6.32771"><ele>1017.5</ele><time>2026-05-02T13:34:16.272Z</time></trkpt><trkpt lat="43.7730317" lon="6.327925"><ele>1015.0</ele><time>2026-05-02T13:34:17.272Z</time></trkpt><trkpt lat="43.7730167" lon="6.3281317"><ele>1012.5</ele><time>2026-05-02T13:34:18.272Z</time></trkpt><trkpt lat="43.7729883" lon="6.32832"><ele>1010.0</ele><time>2026-05-02T13:34:19.273Z</time></trkpt><trkpt lat="43.77295" lon="6.3285117"><ele>1009.5</ele><time>2026-05-02T13:34:20.272Z</time></trkpt><trkpt lat="43.7729167" lon="6.3287"><ele>1009.0</ele><time>2026-05-02T13:34:21.272Z</time></trkpt><trkpt lat="43.7728867" lon="6.328895"><ele>1008.5</ele><time>2026-05-02T13:34:22.272Z</time></trkpt><trkpt lat="43.7728633" lon="6.32909"><ele>1008.0</ele><time>2026-05-02T13:34:23.272Z</time></trkpt><trkpt lat="43.7728567" lon="6.3292933"><ele>1007.0</ele><time>2026-05-02T13:34:24.272Z</time></trkpt><trkpt lat="43.7728617" lon="6.329505"><ele>1006.0</ele><time>2026-05-02T13:34:25.272Z</time></trkpt><trkpt lat="43.77288" lon="6.329725"><ele>1005.0</ele><time>2026-05-02T13:34:26.272Z</time></trkpt><trkpt lat="43.7729117" lon="6.3299367"><ele>1002.6666666666667</ele><time>2026-05-02T13:34:27.272Z</time></trkpt><trkpt lat="43.7729533" lon="6.3301483"><ele>1000.3333333333334</ele><time>2026-05-02T13:34:28.272Z</time></trkpt><trkpt lat="43.7730183" lon="6.3303567"><ele>998.0</ele><time>2026-05-02T13:34:29.272Z</time></trkpt><trkpt lat="43.7730867" lon="6.3305633"><ele>994.3333333333334</ele><time>2026-05-02T13:34:30.272Z</time></trkpt><trkpt lat="43.773155" lon="6.3307633"><ele>990.6666666666667</ele><time>2026-05-02T13:34:31.273Z</time></trkpt><trkpt lat="43.773225" lon="6.330965"><ele>987.0</ele><time>2026-05-02T13:34:32.272Z</time></trkpt><trkpt lat="43.7732967" lon="6.3311567"><ele>987.0</ele><time>2026-05-02T13:34:33.272Z</time></trkpt><trkpt lat="43.7733617" lon="6.3313417"><ele>987.0</ele><time>2026-05-02T13:34:34.272Z</time></trkpt><trkpt lat="43.77344" lon="6.3315"><ele>987.0</ele><time>2026-05-02T13:34:35.272Z</time></trkpt><trkpt lat="43.7735317" lon="6.33164"><ele>987.0</ele><time>2026-05-02T13:34:36.272Z</time></trkpt><trkpt lat="43.7736383" lon="6.3317467"><ele>986.75</ele><time>2026-05-02T13:34:37.272Z</time></trkpt><trkpt lat="43.7737483" lon="6.331835"><ele>986.5</ele><time>2026-05-02T13:34:38.272Z</time></trkpt><trkpt lat="43.77387" lon="6.33188"><ele>986.25</ele><time>2026-05-02T13:34:39.272Z</time></trkpt><trkpt lat="43.773995" lon="6.331915"><ele>986.0</ele><time>2026-05-02T13:34:40.272Z</time></trkpt><trkpt lat="43.77413" lon="6.331945"><ele>986.0</ele><time>2026-05-02T13:34:41.272Z</time></trkpt><trkpt lat="43.7742617" lon="6.33196"><ele>986.0</ele><time>2026-05-02T13:34:42.272Z</time></trkpt><trkpt lat="43.77439" lon="6.3320033"><ele>986.0</ele><time>2026-05-02T13:34:43.272Z</time></trkpt><trkpt lat="43.7745167" lon="6.3320633"><ele>986.0</ele><time>2026-05-02T13:34:44.272Z</time></trkpt><trkpt lat="43.774635" lon="6.33216"><ele>984.75</ele><time>2026-05-02T13:34:45.272Z</time></trkpt><trkpt lat="43.7747417" lon="6.3322883"><ele>983.5</ele><time>2026-05-02T13:34:46.272Z</time></trkpt><trkpt lat="43.7748433" lon="6.3324183"><ele>982.25</ele><time>2026-05-02T13:34:47.272Z</time></trkpt><trkpt lat="43.77495" lon="6.33255"><ele>981.0</ele><time>2026-05-02T13:34:48.272Z</time></trkpt><trkpt lat="43.775055" lon="6.3326783"><ele>981.0</ele><time>2026-05-02T13:34:49.272Z</time></trkpt><trkpt lat="43.7751567" lon="6.3328083"><ele>981.0</ele><time>2026-05-02T13:34:50.272Z</time></trkpt><trkpt lat="43.7752567" lon="6.3329467"><ele>981.0</ele><time>2026-05-02T13:34:51.272Z</time></trkpt><trkpt lat="43.77536" lon="6.33307"><ele>981.0</ele><time>2026-05-02T13:34:52.272Z</time></trkpt><trkpt lat="43.7754667" lon="6.3332067"><ele>979.0</ele><time>2026-05-02T13:34:53.273Z</time></trkpt><trkpt lat="43.7755867" lon="6.3333033"><ele>977.0</ele><time>2026-05-02T13:34:54.273Z</time></trkpt><trkpt lat="43.7757133" lon="6.3333983"><ele>975.0</ele><time>2026-05-02T13:34:55.272Z</time></trkpt><trkpt lat="43.7758483" lon="6.3334833"><ele>973.0</ele><time>2026-05-02T13:34:56.272Z</time></trkpt><trkpt lat="43.7759867" lon="6.3335533"><ele>973.0</ele><time>2026-05-02T13:34:57.272Z</time></trkpt><trkpt lat="43.7761233" lon="6.3336283"><ele>973.0</ele><time>2026-05-02T13:34:58.272Z</time></trkpt><trkpt lat="43.776255" lon="6.3337167"><ele>973.0</ele><time>2026-05-02T13:34:59.272Z</time></trkpt><trkpt lat="43.7763717" lon="6.33384"><ele>973.0</ele><time>2026-05-02T13:35:00.272Z</time></trkpt><trkpt lat="43.77648" lon="6.3339733"><ele>973.0</ele><time>2026-05-02T13:35:01.272Z</time></trkpt><trkpt lat="43.776575" lon="6.3341467"><ele>973.0</ele><time>2026-05-02T13:35:02.272Z</time></trkpt><trkpt lat="43.7766633" lon="6.3343133"><ele>973.0</ele><time>2026-05-02T13:35:03.272Z</time></trkpt><trkpt lat="43.7767433" lon="6.33449"><ele>973.0</ele><time>2026-05-02T13:35:04.272Z</time></trkpt><trkpt lat="43.7768267" lon="6.33467"><ele>973.0</ele><time>2026-05-02T13:35:05.272Z</time></trkpt><trkpt lat="43.7769067" lon="6.33486"><ele>973.0</ele><time>2026-05-02T13:35:06.272Z</time></trkpt><trkpt lat="43.77699" lon="6.3350367"><ele>974.0</ele><time>2026-05-02T13:35:07.272Z</time></trkpt><trkpt lat="43.7770833" lon="6.3352067"><ele>975.0</ele><time>2026-05-02T13:35:08.272Z</time></trkpt><trkpt lat="43.7771767" lon="6.3353567"><ele>976.0</ele><time>2026-05-02T13:35:09.272Z</time></trkpt><trkpt lat="43.7772783" lon="6.3354983"><ele>977.0</ele><time>2026-05-02T13:35:10.272Z</time></trkpt><trkpt lat="43.777375" lon="6.3356483"><ele>972.3333333333334</ele><time>2026-05-02T13:35:11.272Z</time></trkpt><trkpt lat="43.7774683" lon="6.3358083"><ele>967.6666666666667</ele><time>2026-05-02T13:35:12.272Z</time></trkpt><trkpt lat="43.7775433" lon="6.33599"><ele>963.0</ele><time>2026-05-02T13:35:13.272Z</time></trkpt><trkpt lat="43.7775967" lon="6.3361867"><ele>963.0</ele><time>2026-05-02T13:35:14.272Z</time></trkpt><trkpt lat="43.7776633" lon="6.3363583"><ele>963.0</ele><time>2026-05-02T13:35:15.272Z</time></trkpt><trkpt lat="43.77773" lon="6.3365333"><ele>963.0</ele><time>2026-05-02T13:35:16.272Z</time></trkpt><trkpt lat="43.7778083" lon="6.3367017"><ele>963.0</ele><time>2026-05-02T13:35:17.272Z</time></trkpt><trkpt lat="43.7778833" lon="6.3368617"><ele>961.5</ele><time>2026-05-02T13:35:18.272Z</time></trkpt><trkpt lat="43.7779733" lon="6.337015"><ele>960.0</ele><time>2026-05-02T13:35:19.273Z</time></trkpt><trkpt lat="43.77806" lon="6.3371683"><ele>958.5</ele><time>2026-05-02T13:35:20.272Z</time></trkpt><trkpt lat="43.7781433" lon="6.3373233"><ele>957.0</ele><time>2026-05-02T13:35:21.273Z</time></trkpt><trkpt lat="43.7782283" lon="6.3374783"><ele>954.75</ele><time>2026-05-02T13:35:22.272Z</time></trkpt><trkpt lat="43.7783117" lon="6.3376217"><ele>952.5</ele><time>2026-05-02T13:35:23.272Z</time></trkpt><trkpt lat="43.7783917" lon="6.3377683"><ele>950.25</ele><time>2026-05-02T13:35:24.272Z</time></trkpt><trkpt lat="43.7784717" lon="6.3379183"><ele>948.0</ele><time>2026-05-02T13:35:25.272Z</time></trkpt><trkpt lat="43.7785483" lon="6.338075"><ele>947.5</ele><time>2026-05-02T13:35:26.272Z</time></trkpt><trkpt lat="43.77862" lon="6.338225"><ele>947.0</ele><time>2026-05-02T13:35:27.272Z</time></trkpt><trkpt lat="43.7786967" lon="6.3383667"><ele>946.5</ele><time>2026-05-02T13:35:28.272Z</time></trkpt><trkpt lat="43.7787717" lon="6.3385067"><ele>946.0</ele><time>2026-05-02T13:35:29.272Z</time></trkpt><trkpt lat="43.77884" lon="6.338635"><ele>945.9999999999999</ele><time>2026-05-02T13:35:30.272Z</time></trkpt><trkpt lat="43.7789" lon="6.33875"><ele>946.0</ele><time>2026-05-02T13:35:31.272Z</time></trkpt><trkpt lat="43.778955" lon="6.3388517"><ele>946.0</ele><time>2026-05-02T13:35:32.272Z</time></trkpt><trkpt lat="43.7789983" lon="6.3389417"><ele>946.0</ele><time>2026-05-02T13:35:33.272Z</time></trkpt><trkpt lat="43.7790367" lon="6.33902"><ele>945.9999999999999</ele><time>2026-05-02T13:35:34.272Z</time></trkpt><trkpt lat="43.7790833" lon="6.3391183"><ele>946.0</ele><time>2026-05-02T13:35:36.272Z</time></trkpt><trkpt lat="43.77913" lon="6.33922"><ele>944.5999999999999</ele><time>2026-05-02T13:35:39.272Z</time></trkpt><trkpt lat="43.7791717" lon="6.3393083"><ele>943.1999999999999</ele><time>2026-05-02T13:37:36.273Z</time></trkpt><trkpt lat="43.77926" lon="6.3394233"><ele>941.8000000000001</ele><time>2026-05-02T13:37:38.272Z</time></trkpt><trkpt lat="43.7793233" lon="6.3394933"><ele>940.4000000000001</ele><time>2026-05-02T13:37:39.272Z</time></trkpt><trkpt lat="43.7793933" lon="6.339565"><ele>939.0</ele><time>2026-05-02T13:37:40.272Z</time></trkpt><trkpt lat="43.7794667" lon="6.3396283"><ele>939.0</ele><time>2026-05-02T13:37:41.273Z</time></trkpt><trkpt lat="43.77954" lon="6.3396683"><ele>939.0</ele><time>2026-05-02T13:37:42.272Z</time></trkpt><trkpt lat="43.7796017" lon="6.3397267"><ele>939.0</ele><time>2026-05-02T13:37:43.273Z</time></trkpt><trkpt lat="43.779655" lon="6.3397983"><ele>939.0</ele><time>2026-05-02T13:37:44.272Z</time></trkpt><trkpt lat="43.7797033" lon="6.3398883"><ele>939.0</ele><time>2026-05-02T13:37:45.272Z</time></trkpt><trkpt lat="43.7797283" lon="6.339985"><ele>939.0</ele><time>2026-05-02T13:37:46.273Z</time></trkpt><trkpt lat="43.77974" lon="6.3400833"><ele>938.5714285714287</ele><time>2026-05-02T13:37:47.272Z</time></trkpt><trkpt lat="43.77977" lon="6.3401717"><ele>938.1428571428571</ele><time>2026-05-02T13:37:48.272Z</time></trkpt><trkpt lat="43.779795" lon="6.3402667"><ele>937.7142857142858</ele><time>2026-05-02T13:37:49.272Z</time></trkpt><trkpt lat="43.7798117" lon="6.340355"><ele>937.2857142857143</ele><time>2026-05-02T13:37:50.272Z</time></trkpt><trkpt lat="43.7798217" lon="6.3404567"><ele>936.8571428571429</ele><time>2026-05-02T13:37:51.272Z</time></trkpt><trkpt lat="43.779835" lon="6.34056"><ele>936.4285714285714</ele><time>2026-05-02T13:37:52.272Z</time></trkpt><trkpt lat="43.7798517" lon="6.34066"><ele>936.0</ele><time>2026-05-02T13:37:53.272Z</time></trkpt><trkpt lat="43.7798617" lon="6.3407633"><ele>936.0</ele><time>2026-05-02T13:37:54.272Z</time></trkpt><trkpt lat="43.77987" lon="6.3408617"><ele>936.0</ele><time>2026-05-02T13:37:55.272Z</time></trkpt><trkpt lat="43.77989" lon="6.3409483"><ele>936.0</ele><time>2026-05-02T13:37:56.272Z</time></trkpt><trkpt lat="43.7799233" lon="6.3410733"><ele>936.0</ele><time>2026-05-02T13:37:57.272Z</time></trkpt><trkpt lat="43.7799783" lon="6.341195"><ele>936.0</ele><time>2026-05-02T13:37:58.272Z</time></trkpt><trkpt lat="43.7800283" lon="6.3413117"><ele>936.0</ele><time>2026-05-02T13:37:59.272Z</time></trkpt><trkpt lat="43.7800767" lon="6.3414317"><ele>935.5999999999999</ele><time>2026-05-02T13:38:00.272Z</time></trkpt><trkpt lat="43.78012" lon="6.3415733"><ele>935.1999999999999</ele><time>2026-05-02T13:38:01.272Z</time></trkpt><trkpt lat="43.7801483" lon="6.34171"><ele>934.8000000000001</ele><time>2026-05-02T13:38:02.272Z</time></trkpt><trkpt lat="43.7801783" lon="6.34184"><ele>934.4000000000001</ele><time>2026-05-02T13:38:03.272Z</time></trkpt><trkpt lat="43.78021" lon="6.34198"><ele>934.0</ele><time>2026-05-02T13:38:04.271Z</time></trkpt><trkpt lat="43.7802417" lon="6.342115"><ele>931.8000000000001</ele><time>2026-05-02T13:38:05.271Z</time></trkpt><trkpt lat="43.7802683" lon="6.3422417"><ele>929.6000000000001</ele><time>2026-05-02T13:38:06.271Z</time></trkpt><trkpt lat="43.78029" lon="6.3423633"><ele>927.4</ele><time>2026-05-02T13:38:07.271Z</time></trkpt><trkpt lat="43.78032" lon="6.3424833"><ele>925.2</ele><time>2026-05-02T13:38:08.271Z</time></trkpt><trkpt lat="43.780345" lon="6.342615"><ele>923.0</ele><time>2026-05-02T13:38:09.271Z</time></trkpt><trkpt lat="43.7803567" lon="6.3427517"><ele>923.0</ele><time>2026-05-02T13:38:10.272Z</time></trkpt><trkpt lat="43.78038" lon="6.3428767"><ele>923.0</ele><time>2026-05-02T13:38:11.271Z</time></trkpt><trkpt lat="43.7804217" lon="6.3429833"><ele>923.0</ele><time>2026-05-02T13:38:12.271Z</time></trkpt><trkpt lat="43.780475" lon="6.343085"><ele>923.0</ele><time>2026-05-02T13:38:13.271Z</time></trkpt><trkpt lat="43.780555" lon="6.3431933"><ele>923.0</ele><time>2026-05-02T13:38:14.271Z</time></trkpt><trkpt lat="43.7806467" lon="6.3432883"><ele>922.0</ele><time>2026-05-02T13:38:15.271Z</time></trkpt><trkpt lat="43.780725" lon="6.3433933"><ele>921.0</ele><time>2026-05-02T13:38:16.271Z</time></trkpt><trkpt lat="43.7808033" lon="6.3434967"><ele>920.0</ele><time>2026-05-02T13:38:17.271Z</time></trkpt><trkpt lat="43.78088" lon="6.3436"><ele>919.0</ele><time>2026-05-02T13:38:18.271Z</time></trkpt><trkpt lat="43.780955" lon="6.3437033"><ele>918.0</ele><time>2026-05-02T13:38:19.272Z</time></trkpt><trkpt lat="43.7810317" lon="6.3438133"><ele>916.0</ele><time>2026-05-02T13:38:20.271Z</time></trkpt><trkpt lat="43.7811083" lon="6.34392"><ele>914.0</ele><time>2026-05-02T13:38:21.271Z</time></trkpt><trkpt lat="43.7811883" lon="6.344035"><ele>912.0</ele><time>2026-05-02T13:38:22.271Z</time></trkpt><trkpt lat="43.7812867" lon="6.3441583"><ele>910.0</ele><time>2026-05-02T13:38:23.272Z</time></trkpt><trkpt lat="43.7813933" lon="6.3442983"><ele>910.0</ele><time>2026-05-02T13:38:24.271Z</time></trkpt><trkpt lat="43.781525" lon="6.344465"><ele>910.0</ele><time>2026-05-02T13:38:25.271Z</time></trkpt><trkpt lat="43.7816433" lon="6.344645"><ele>910.0</ele><time>2026-05-02T13:38:26.271Z</time></trkpt><trkpt lat="43.78177" lon="6.3448167"><ele>911.6666666666666</ele><time>2026-05-02T13:38:27.271Z</time></trkpt><trkpt lat="43.78187" lon="6.344995"><ele>913.3333333333333</ele><time>2026-05-02T13:38:28.271Z</time></trkpt><trkpt lat="43.7819467" lon="6.3451717"><ele>915.0</ele><time>2026-05-02T13:38:29.271Z</time></trkpt><trkpt lat="43.7819783" lon="6.3453683"><ele>914.5</ele><time>2026-05-02T13:38:30.271Z</time></trkpt><trkpt lat="43.7819767" lon="6.3455633"><ele>914.0</ele><time>2026-05-02T13:38:31.271Z</time></trkpt><trkpt lat="43.7819617" lon="6.34576"><ele>913.5</ele><time>2026-05-02T13:38:32.271Z</time></trkpt><trkpt lat="43.7819283" lon="6.3459433"><ele>913.0</ele><time>2026-05-02T13:38:33.272Z</time></trkpt><trkpt lat="43.7818633" lon="6.346145"><ele>911.3333333333333</ele><time>2026-05-02T13:38:34.271Z</time></trkpt><trkpt lat="43.7817867" lon="6.34633"><ele>909.6666666666667</ele><time>2026-05-02T13:38:35.271Z</time></trkpt><trkpt lat="43.7817017" lon="6.3465217"><ele>908.0</ele><time>2026-05-02T13:38:36.271Z</time></trkpt><trkpt lat="43.7816017" lon="6.3467017"><ele>908.0</ele><time>2026-05-02T13:38:37.271Z</time></trkpt><trkpt lat="43.7814917" lon="6.34688"><ele>908.0</ele><time>2026-05-02T13:38:38.271Z</time></trkpt><trkpt lat="43.7813933" lon="6.347055"><ele>908.0</ele><time>2026-05-02T13:38:39.271Z</time></trkpt><trkpt lat="43.7812967" lon="6.34723"><ele>908.0</ele><time>2026-05-02T13:38:40.272Z</time></trkpt><trkpt lat="43.7812167" lon="6.3474033"><ele>908.0</ele><time>2026-05-02T13:38:41.272Z</time></trkpt><trkpt lat="43.7811367" lon="6.347575"><ele>908.0</ele><time>2026-05-02T13:38:42.271Z</time></trkpt><trkpt lat="43.7810633" lon="6.3477417"><ele>908.0</ele><time>2026-05-02T13:38:43.271Z</time></trkpt><trkpt lat="43.7809933" lon="6.3479017"><ele>907.5</ele><time>2026-05-02T13:38:44.271Z</time></trkpt><trkpt lat="43.780915" lon="6.3480567"><ele>907.0</ele><time>2026-05-02T13:38:45.271Z</time></trkpt><trkpt lat="43.78085" lon="6.34821"><ele>906.5</ele><time>2026-05-02T13:38:46.272Z</time></trkpt><trkpt lat="43.780775" lon="6.34838"><ele>906.0</ele><time>2026-05-02T13:38:47.271Z</time></trkpt><trkpt lat="43.780695" lon="6.3485517"><ele>906.0</ele><time>2026-05-02T13:38:48.272Z</time></trkpt><trkpt lat="43.78062" lon="6.3487267"><ele>906.0</ele><time>2026-05-02T13:38:49.271Z</time></trkpt><trkpt lat="43.7805417" lon="6.3489083"><ele>906.0</ele><time>2026-05-02T13:38:50.271Z</time></trkpt><trkpt lat="43.7804767" lon="6.3490867"><ele>906.0</ele><time>2026-05-02T13:38:51.271Z</time></trkpt><trkpt lat="43.780415" lon="6.3492683"><ele>905.5</ele><time>2026-05-02T13:38:52.271Z</time></trkpt><trkpt lat="43.7803683" lon="6.34946"><ele>905.0</ele><time>2026-05-02T13:38:53.271Z</time></trkpt><trkpt lat="43.78034" lon="6.3496667"><ele>904.5</ele><time>2026-05-02T13:38:54.271Z</time></trkpt><trkpt lat="43.7803217" lon="6.349875"><ele>904.0</ele><time>2026-05-02T13:38:55.271Z</time></trkpt><trkpt lat="43.7803083" lon="6.35009"><ele>904.0</ele><time>2026-05-02T13:38:56.272Z</time></trkpt><trkpt lat="43.7803" lon="6.35031"><ele>904.0</ele><time>2026-05-02T13:38:57.271Z</time></trkpt><trkpt lat="43.78029" lon="6.3505433"><ele>904.0</ele><time>2026-05-02T13:38:58.271Z</time></trkpt><trkpt lat="43.78028" lon="6.350765"><ele>903.0</ele><time>2026-05-02T13:38:59.271Z</time></trkpt><trkpt lat="43.7802717" lon="6.3509883"><ele>902.0</ele><time>2026-05-02T13:39:00.271Z</time></trkpt><trkpt lat="43.7802633" lon="6.3512067"><ele>901.0</ele><time>2026-05-02T13:39:01.271Z</time></trkpt><trkpt lat="43.7802567" lon="6.3514367"><ele>901.0</ele><time>2026-05-02T13:39:02.271Z</time></trkpt><trkpt lat="43.7802483" lon="6.3516683"><ele>901.0</ele><time>2026-05-02T13:39:03.271Z</time></trkpt><trkpt lat="43.78024" lon="6.3518917"><ele>901.0</ele><time>2026-05-02T13:39:04.271Z</time></trkpt><trkpt lat="43.780225" lon="6.352105"><ele>899.6666666666666</ele><time>2026-05-02T13:39:05.271Z</time></trkpt><trkpt lat="43.7802133" lon="6.3523233"><ele>898.3333333333333</ele><time>2026-05-02T13:39:06.271Z</time></trkpt><trkpt lat="43.7802017" lon="6.3525383"><ele>897.0</ele><time>2026-05-02T13:39:07.271Z</time></trkpt><trkpt lat="43.7801917" lon="6.3527467"><ele>895.0</ele><time>2026-05-02T13:39:08.272Z</time></trkpt><trkpt lat="43.78018" lon="6.3529567"><ele>893.0</ele><time>2026-05-02T13:39:09.271Z</time></trkpt><trkpt lat="43.7801633" lon="6.35317"><ele>891.0</ele><time>2026-05-02T13:39:10.272Z</time></trkpt><trkpt lat="43.78014" lon="6.3533883"><ele>890.0</ele><time>2026-05-02T13:39:11.272Z</time></trkpt><trkpt lat="43.7801167" lon="6.3536017"><ele>889.0</ele><time>2026-05-02T13:39:12.271Z</time></trkpt><trkpt lat="43.78009" lon="6.3538117"><ele>888.0</ele><time>2026-05-02T13:39:13.271Z</time></trkpt><trkpt lat="43.7800567" lon="6.354025"><ele>887.0</ele><time>2026-05-02T13:39:14.271Z</time></trkpt><trkpt lat="43.7800217" lon="6.3542333"><ele>886.0</ele><time>2026-05-02T13:39:15.271Z</time></trkpt><trkpt lat="43.7799883" lon="6.354445"><ele>885.0</ele><time>2026-05-02T13:39:16.271Z</time></trkpt><trkpt lat="43.7799583" lon="6.35467"><ele>885.0</ele><time>2026-05-02T13:39:17.271Z</time></trkpt><trkpt lat="43.7799267" lon="6.3548833"><ele>885.0</ele><time>2026-05-02T13:39:18.271Z</time></trkpt><trkpt lat="43.77989" lon="6.3550883"><ele>885.0</ele><time>2026-05-02T13:39:19.271Z</time></trkpt><trkpt lat="43.779855" lon="6.355305"><ele>885.0</ele><time>2026-05-02T13:39:20.271Z</time></trkpt><trkpt lat="43.779825" lon="6.3555183"><ele>885.0</ele><time>2026-05-02T13:39:21.271Z</time></trkpt><trkpt lat="43.7797933" lon="6.3557317"><ele>885.0</ele><time>2026-05-02T13:39:22.271Z</time></trkpt><trkpt lat="43.77976" lon="6.3559467"><ele>884.3333333333333</ele><time>2026-05-02T13:39:23.271Z</time></trkpt><trkpt lat="43.7797217" lon="6.3561617"><ele>883.6666666666666</ele><time>2026-05-02T13:39:24.271Z</time></trkpt><trkpt lat="43.7796883" lon="6.3563617"><ele>883.0</ele><time>2026-05-02T13:39:25.271Z</time></trkpt><trkpt lat="43.7796567" lon="6.35657"><ele>882.3333333333333</ele><time>2026-05-02T13:39:26.271Z</time></trkpt><trkpt lat="43.7796233" lon="6.3567867"><ele>881.6666666666667</ele><time>2026-05-02T13:39:27.271Z</time></trkpt><trkpt lat="43.7795883" lon="6.3570067"><ele>881.0</ele><time>2026-05-02T13:39:28.271Z</time></trkpt><trkpt lat="43.7795567" lon="6.35722"><ele>880.6666666666667</ele><time>2026-05-02T13:39:29.271Z</time></trkpt><trkpt lat="43.7795283" lon="6.357435"><ele>880.3333333333333</ele><time>2026-05-02T13:39:30.271Z</time></trkpt><trkpt lat="43.7795033" lon="6.3576767"><ele>880.0</ele><time>2026-05-02T13:39:31.271Z</time></trkpt><trkpt lat="43.7795" lon="6.3579083"><ele>883.0</ele><time>2026-05-02T13:39:32.271Z</time></trkpt><trkpt lat="43.7795" lon="6.3581333"><ele>886.0</ele><time>2026-05-02T13:39:33.271Z</time></trkpt><trkpt lat="43.7795033" lon="6.358365"><ele>889.0</ele><time>2026-05-02T13:39:34.272Z</time></trkpt><trkpt lat="43.7795033" lon="6.3585967"><ele>889.0</ele><time>2026-05-02T13:39:35.271Z</time></trkpt><trkpt lat="43.7794833" lon="6.35883"><ele>889.0</ele><time>2026-05-02T13:39:36.271Z</time></trkpt><trkpt lat="43.7794583" lon="6.3590417"><ele>889.0</ele><time>2026-05-02T13:39:37.271Z</time></trkpt><trkpt lat="43.7794283" lon="6.3592733"><ele>890.3333333333333</ele><time>2026-05-02T13:39:38.271Z</time></trkpt><trkpt lat="43.7794017" lon="6.3595067"><ele>891.6666666666667</ele><time>2026-05-02T13:39:39.271Z</time></trkpt><trkpt lat="43.77939" lon="6.359735"><ele>893.0</ele><time>2026-05-02T13:39:40.271Z</time></trkpt><trkpt lat="43.7793833" lon="6.3599633"><ele>894.3333333333334</ele><time>2026-05-02T13:39:41.271Z</time></trkpt><trkpt lat="43.779385" lon="6.3601967"><ele>895.6666666666667</ele><time>2026-05-02T13:39:42.271Z</time></trkpt><trkpt lat="43.779385" lon="6.36043"><ele>897.0</ele><time>2026-05-02T13:39:43.271Z</time></trkpt><trkpt lat="43.77939" lon="6.36067"><ele>897.0</ele><time>2026-05-02T13:39:44.271Z</time></trkpt><trkpt lat="43.7793933" lon="6.3609"><ele>897.0</ele><time>2026-05-02T13:39:45.271Z</time></trkpt><trkpt lat="43.7793933" lon="6.36114"><ele>897.0</ele><time>2026-05-02T13:39:46.271Z</time></trkpt><trkpt lat="43.779395" lon="6.361375"><ele>897.3333333333333</ele><time>2026-05-02T13:39:47.271Z</time></trkpt><trkpt lat="43.7793983" lon="6.3616133"><ele>897.6666666666666</ele><time>2026-05-02T13:39:48.272Z</time></trkpt><trkpt lat="43.7794017" lon="6.3618583"><ele>898.0</ele><time>2026-05-02T13:39:49.271Z</time></trkpt><trkpt lat="43.77941" lon="6.362105"><ele>895.3333333333333</ele><time>2026-05-02T13:39:50.272Z</time></trkpt><trkpt lat="43.7794117" lon="6.3623417"><ele>892.6666666666667</ele><time>2026-05-02T13:39:51.272Z</time></trkpt><trkpt lat="43.7794167" lon="6.3625683"><ele>890.0</ele><time>2026-05-02T13:39:52.271Z</time></trkpt><trkpt lat="43.7794183" lon="6.362785"><ele>890.0</ele><time>2026-05-02T13:39:53.271Z</time></trkpt><trkpt lat="43.7794183" lon="6.3629983"><ele>890.0</ele><time>2026-05-02T13:39:54.271Z</time></trkpt><trkpt lat="43.7794217" lon="6.363215"><ele>890.0</ele><time>2026-05-02T13:39:55.271Z</time></trkpt><trkpt lat="43.77942" lon="6.36342"><ele>888.5</ele><time>2026-05-02T13:39:56.272Z</time></trkpt><trkpt lat="43.779405" lon="6.3636167"><ele>887.0</ele><time>2026-05-02T13:39:57.271Z</time></trkpt><trkpt lat="43.7793617" lon="6.3638017"><ele>885.5</ele><time>2026-05-02T13:39:58.271Z</time></trkpt><trkpt lat="43.7793033" lon="6.3639817"><ele>884.0</ele><time>2026-05-02T13:39:59.271Z</time></trkpt><trkpt lat="43.779225" lon="6.3641633"><ele>881.0</ele><time>2026-05-02T13:40:00.272Z</time></trkpt><trkpt lat="43.7791417" lon="6.3643433"><ele>878.0</ele><time>2026-05-02T13:40:01.271Z</time></trkpt><trkpt lat="43.77905" lon="6.3645483"><ele>875.0</ele><time>2026-05-02T13:40:02.271Z</time></trkpt><trkpt lat="43.7789533" lon="6.3647583"><ele>875.0</ele><time>2026-05-02T13:40:03.271Z</time></trkpt><trkpt lat="43.77885" lon="6.3649583"><ele>875.0</ele><time>2026-05-02T13:40:04.271Z</time></trkpt><trkpt lat="43.7787383" lon="6.365165"><ele>875.0</ele><time>2026-05-02T13:40:05.271Z</time></trkpt><trkpt lat="43.7786367" lon="6.3653683"><ele>874.3333333333334</ele><time>2026-05-02T13:40:06.271Z</time></trkpt><trkpt lat="43.7785383" lon="6.3655683"><ele>873.6666666666667</ele><time>2026-05-02T13:40:07.272Z</time></trkpt><trkpt lat="43.7784417" lon="6.3657583"><ele>873.0</ele><time>2026-05-02T13:40:08.271Z</time></trkpt><trkpt lat="43.7783517" lon="6.365935"><ele>872.0</ele><time>2026-05-02T13:40:09.272Z</time></trkpt><trkpt lat="43.778265" lon="6.366105"><ele>871.0</ele><time>2026-05-02T13:40:10.271Z</time></trkpt><trkpt lat="43.7781717" lon="6.36627"><ele>870.0</ele><time>2026-05-02T13:40:11.271Z</time></trkpt><trkpt lat="43.7780717" lon="6.3664517"><ele>869.0</ele><time>2026-05-02T13:40:12.271Z</time></trkpt><trkpt lat="43.77798" lon="6.3666367"><ele>868.0</ele><time>2026-05-02T13:40:13.272Z</time></trkpt><trkpt lat="43.77789" lon="6.36683"><ele>867.0</ele><time>2026-05-02T13:40:14.271Z</time></trkpt><trkpt lat="43.7778083" lon="6.3670267"><ele>866.6666666666667</ele><time>2026-05-02T13:40:15.271Z</time></trkpt><trkpt lat="43.77774" lon="6.3672183"><ele>866.3333333333334</ele><time>2026-05-02T13:40:16.272Z</time></trkpt><trkpt lat="43.77769" lon="6.3674433"><ele>866.0</ele><time>2026-05-02T13:40:17.271Z</time></trkpt><trkpt lat="43.7776817" lon="6.3676567"><ele>866.0</ele><time>2026-05-02T13:40:18.272Z</time></trkpt><trkpt lat="43.77771" lon="6.367875"><ele>866.0</ele><time>2026-05-02T13:40:19.271Z</time></trkpt><trkpt lat="43.777755" lon="6.3681167"><ele>866.0</ele><time>2026-05-02T13:40:20.271Z</time></trkpt><trkpt lat="43.7778267" lon="6.3683633"><ele>866.6666666666667</ele><time>2026-05-02T13:40:21.271Z</time></trkpt><trkpt lat="43.7779267" lon="6.368615"><ele>867.3333333333333</ele><time>2026-05-02T13:40:22.271Z</time></trkpt><trkpt lat="43.778035" lon="6.36888"><ele>868.0</ele><time>2026-05-02T13:40:23.271Z</time></trkpt><trkpt lat="43.7781367" lon="6.3691583"><ele>869.0</ele><time>2026-05-02T13:40:24.271Z</time></trkpt><trkpt lat="43.7782383" lon="6.3694567"><ele>870.0</ele><time>2026-05-02T13:40:25.271Z</time></trkpt><trkpt lat="43.7783367" lon="6.3697683"><ele>872.5</ele><time>2026-05-02T13:40:26.272Z</time></trkpt><trkpt lat="43.7784217" lon="6.3700767"><ele>875.0</ele><time>2026-05-02T13:40:27.271Z</time></trkpt><trkpt lat="43.778505" lon="6.37038"><ele>871.6666666666667</ele><time>2026-05-02T13:40:28.271Z</time></trkpt><trkpt lat="43.7785817" lon="6.3706683"><ele>868.3333333333333</ele><time>2026-05-02T13:40:29.271Z</time></trkpt><trkpt lat="43.7786483" lon="6.37095"><ele>865.0</ele><time>2026-05-02T13:40:30.271Z</time></trkpt><trkpt lat="43.7787117" lon="6.3712133"><ele>864.6666666666666</ele><time>2026-05-02T13:40:31.272Z</time></trkpt><trkpt lat="43.7787567" lon="6.3714633"><ele>864.3333333333333</ele><time>2026-05-02T13:40:32.272Z</time></trkpt><trkpt lat="43.7787817" lon="6.3717067"><ele>864.0</ele><time>2026-05-02T13:40:33.271Z</time></trkpt><trkpt lat="43.77879" lon="6.3719467"><ele>864.6666666666667</ele><time>2026-05-02T13:40:34.271Z</time></trkpt><trkpt lat="43.7787833" lon="6.3721983"><ele>865.3333333333334</ele><time>2026-05-02T13:40:35.271Z</time></trkpt><trkpt lat="43.7787733" lon="6.3724333"><ele>866.0</ele><time>2026-05-02T13:40:36.271Z</time></trkpt><trkpt lat="43.7787567" lon="6.37268"><ele>866.0</ele><time>2026-05-02T13:40:37.271Z</time></trkpt><trkpt lat="43.77874" lon="6.372925"><ele>866.0</ele><time>2026-05-02T13:40:38.271Z</time></trkpt><trkpt lat="43.7787367" lon="6.3731683"><ele>866.0</ele><time>2026-05-02T13:40:39.271Z</time></trkpt><trkpt lat="43.77875" lon="6.3734183"><ele>867.3333333333334</ele><time>2026-05-02T13:40:40.271Z</time></trkpt><trkpt lat="43.778785" lon="6.3736617"><ele>868.6666666666667</ele><time>2026-05-02T13:40:41.271Z</time></trkpt><trkpt lat="43.7788383" lon="6.373905"><ele>870.0</ele><time>2026-05-02T13:40:42.271Z</time></trkpt><trkpt lat="43.7789017" lon="6.374135"><ele>871.0</ele><time>2026-05-02T13:40:43.271Z</time></trkpt><trkpt lat="43.7789933" lon="6.3743617"><ele>872.0</ele><time>2026-05-02T13:40:44.272Z</time></trkpt><trkpt lat="43.7790783" lon="6.3745783"><ele>873.0</ele><time>2026-05-02T13:40:45.271Z</time></trkpt><trkpt lat="43.7791783" lon="6.3747833"><ele>874.6666666666667</ele><time>2026-05-02T13:40:46.271Z</time></trkpt><trkpt lat="43.7792733" lon="6.375005"><ele>876.3333333333334</ele><time>2026-05-02T13:40:47.271Z</time></trkpt><trkpt lat="43.77937" lon="6.3752283"><ele>878.0</ele><time>2026-05-02T13:40:48.271Z</time></trkpt><trkpt lat="43.779465" lon="6.37545"><ele>873.6666666666667</ele><time>2026-05-02T13:40:49.271Z</time></trkpt><trkpt lat="43.7795483" lon="6.3756667"><ele>869.3333333333333</ele><time>2026-05-02T13:40:50.271Z</time></trkpt><trkpt lat="43.779635" lon="6.3758933"><ele>865.0</ele><time>2026-05-02T13:40:51.272Z</time></trkpt><trkpt lat="43.77973" lon="6.3761083"><ele>865.0</ele><time>2026-05-02T13:40:52.271Z</time></trkpt><trkpt lat="43.77982" lon="6.3763217"><ele>865.0</ele><time>2026-05-02T13:40:53.271Z</time></trkpt><trkpt lat="43.77991" lon="6.3765317"><ele>865.0</ele><time>2026-05-02T13:40:54.271Z</time></trkpt><trkpt lat="43.7799917" lon="6.3767483"><ele>866.3333333333333</ele><time>2026-05-02T13:40:55.271Z</time></trkpt><trkpt lat="43.78008" lon="6.3769633"><ele>867.6666666666667</ele><time>2026-05-02T13:40:56.271Z</time></trkpt><trkpt lat="43.7801633" lon="6.3771867"><ele>869.0</ele><time>2026-05-02T13:40:57.271Z</time></trkpt><trkpt lat="43.7802467" lon="6.3774117"><ele>866.0</ele><time>2026-05-02T13:40:58.271Z</time></trkpt><trkpt lat="43.7803217" lon="6.3776283"><ele>863.0</ele><time>2026-05-02T13:40:59.272Z</time></trkpt><trkpt lat="43.7803817" lon="6.3778667"><ele>860.0</ele><time>2026-05-02T13:41:00.271Z</time></trkpt><trkpt lat="43.7804333" lon="6.3781017"><ele>860.0</ele><time>2026-05-02T13:41:01.271Z</time></trkpt><trkpt lat="43.7804783" lon="6.3783317"><ele>860.0</ele><time>2026-05-02T13:41:02.271Z</time></trkpt><trkpt lat="43.7805133" lon="6.37857"><ele>860.0</ele><time>2026-05-02T13:41:03.271Z</time></trkpt><trkpt lat="43.780535" lon="6.378805"><ele>860.3333333333334</ele><time>2026-05-02T13:41:04.271Z</time></trkpt><trkpt lat="43.780545" lon="6.3790417"><ele>860.6666666666667</ele><time>2026-05-02T13:41:05.271Z</time></trkpt><trkpt lat="43.7805533" lon="6.3792733"><ele>861.0</ele><time>2026-05-02T13:41:06.271Z</time></trkpt><trkpt lat="43.7805583" lon="6.3795083"><ele>861.3333333333333</ele><time>2026-05-02T13:41:07.271Z</time></trkpt><trkpt lat="43.780565" lon="6.37975"><ele>861.6666666666666</ele><time>2026-05-02T13:41:08.271Z</time></trkpt><trkpt lat="43.7805683" lon="6.37999"><ele>862.0</ele><time>2026-05-02T13:41:09.271Z</time></trkpt><trkpt lat="43.78057" lon="6.38022"><ele>862.0</ele><time>2026-05-02T13:41:10.271Z</time></trkpt><trkpt lat="43.78057" lon="6.3804417"><ele>862.0</ele><time>2026-05-02T13:41:11.271Z</time></trkpt><trkpt lat="43.7805733" lon="6.380675"><ele>862.0</ele><time>2026-05-02T13:41:12.271Z</time></trkpt><trkpt lat="43.7805783" lon="6.3808983"><ele>862.3333333333333</ele><time>2026-05-02T13:41:13.271Z</time></trkpt><trkpt lat="43.780575" lon="6.3811267"><ele>862.6666666666667</ele><time>2026-05-02T13:41:14.271Z</time></trkpt><trkpt lat="43.78057" lon="6.3813617"><ele>863.0</ele><time>2026-05-02T13:41:15.271Z</time></trkpt><trkpt lat="43.78056" lon="6.381585"><ele>863.6666666666667</ele><time>2026-05-02T13:41:16.271Z</time></trkpt><trkpt lat="43.780545" lon="6.3818117"><ele>864.3333333333333</ele><time>2026-05-02T13:41:17.272Z</time></trkpt><trkpt lat="43.7805367" lon="6.3820317"><ele>865.0</ele><time>2026-05-02T13:41:18.271Z</time></trkpt><trkpt lat="43.78054" lon="6.3822533"><ele>866.0</ele><time>2026-05-02T13:41:19.271Z</time></trkpt><trkpt lat="43.780555" lon="6.3824783"><ele>867.0</ele><time>2026-05-02T13:41:20.271Z</time></trkpt><trkpt lat="43.780565" lon="6.382705"><ele>868.0</ele><time>2026-05-02T13:41:21.271Z</time></trkpt><trkpt lat="43.7805667" lon="6.3829417"><ele>869.0</ele><time>2026-05-02T13:41:22.271Z</time></trkpt><trkpt lat="43.7805633" lon="6.3831817"><ele>870.0</ele><time>2026-05-02T13:41:23.271Z</time></trkpt><trkpt lat="43.7805533" lon="6.3834133"><ele>871.0</ele><time>2026-05-02T13:41:24.271Z</time></trkpt><trkpt lat="43.7805417" lon="6.3836533"><ele>872.6666666666666</ele><time>2026-05-02T13:41:25.271Z</time></trkpt><trkpt lat="43.7805267" lon="6.3838917"><ele>874.3333333333333</ele><time>2026-05-02T13:41:26.271Z</time></trkpt><trkpt lat="43.780525" lon="6.384115"><ele>876.0</ele><time>2026-05-02T13:41:27.271Z</time></trkpt><trkpt lat="43.7805367" lon="6.38434"><ele>876.0</ele><time>2026-05-02T13:41:28.271Z</time></trkpt><trkpt lat="43.7805567" lon="6.3845717"><ele>876.0</ele><time>2026-05-02T13:41:29.271Z</time></trkpt><trkpt lat="43.7805817" lon="6.3847883"><ele>876.0</ele><time>2026-05-02T13:41:30.271Z</time></trkpt><trkpt lat="43.7805933" lon="6.3849867"><ele>877.5</ele><time>2026-05-02T13:41:31.272Z</time></trkpt><trkpt lat="43.7805883" lon="6.38519"><ele>879.0</ele><time>2026-05-02T13:41:32.271Z</time></trkpt><trkpt lat="43.7805667" lon="6.38537"><ele>880.5</ele><time>2026-05-02T13:41:33.271Z</time></trkpt><trkpt lat="43.78052" lon="6.3855617"><ele>882.0</ele><time>2026-05-02T13:41:34.271Z</time></trkpt><trkpt lat="43.78046" lon="6.38575"><ele>883.25</ele><time>2026-05-02T13:41:35.271Z</time></trkpt><trkpt lat="43.7803983" lon="6.385935"><ele>884.5</ele><time>2026-05-02T13:41:36.271Z</time></trkpt><trkpt lat="43.7803483" lon="6.38613"><ele>885.75</ele><time>2026-05-02T13:41:37.271Z</time></trkpt><trkpt lat="43.7803217" lon="6.38633"><ele>887.0</ele><time>2026-05-02T13:41:38.272Z</time></trkpt><trkpt lat="43.7803233" lon="6.3865417"><ele>888.0</ele><time>2026-05-02T13:41:39.271Z</time></trkpt><trkpt lat="43.78033" lon="6.3867483"><ele>889.0</ele><time>2026-05-02T13:41:40.271Z</time></trkpt><trkpt lat="43.7803367" lon="6.3869633"><ele>890.0</ele><time>2026-05-02T13:41:41.272Z</time></trkpt><trkpt lat="43.7803467" lon="6.3871817"><ele>892.0</ele><time>2026-05-02T13:41:42.271Z</time></trkpt><trkpt lat="43.7803583" lon="6.387395"><ele>894.0</ele><time>2026-05-02T13:41:43.271Z</time></trkpt><trkpt lat="43.7803767" lon="6.38759"><ele>896.0</ele><time>2026-05-02T13:41:44.271Z</time></trkpt><trkpt lat="43.7804" lon="6.3878033"><ele>898.0</ele><time>2026-05-02T13:41:45.271Z</time></trkpt><trkpt lat="43.7804317" lon="6.3880133"><ele>900.0</ele><time>2026-05-02T13:41:46.271Z</time></trkpt><trkpt lat="43.780475" lon="6.3882217"><ele>902.0</ele><time>2026-05-02T13:41:47.271Z</time></trkpt><trkpt lat="43.780525" lon="6.38843"><ele>902.0</ele><time>2026-05-02T13:41:48.271Z</time></trkpt><trkpt lat="43.780575" lon="6.388655"><ele>902.0</ele><time>2026-05-02T13:41:49.272Z</time></trkpt><trkpt lat="43.7806283" lon="6.38888"><ele>902.0</ele><time>2026-05-02T13:41:50.271Z</time></trkpt><trkpt lat="43.78068" lon="6.3891083"><ele>905.3333333333334</ele><time>2026-05-02T13:41:51.271Z</time></trkpt><trkpt lat="43.7807317" lon="6.38932"><ele>908.6666666666667</ele><time>2026-05-02T13:41:52.271Z</time></trkpt><trkpt lat="43.7807833" lon="6.3895283"><ele>912.0</ele><time>2026-05-02T13:41:53.271Z</time></trkpt><trkpt lat="43.7808383" lon="6.3897133"><ele>909.75</ele><time>2026-05-02T13:41:54.271Z</time></trkpt><trkpt lat="43.7808983" lon="6.3898767"><ele>907.5</ele><time>2026-05-02T13:41:55.272Z</time></trkpt><trkpt lat="43.7809567" lon="6.39002"><ele>905.25</ele><time>2026-05-02T13:41:56.272Z</time></trkpt><trkpt lat="43.781005" lon="6.3901567"><ele>903.0</ele><time>2026-05-02T13:41:57.272Z</time></trkpt><trkpt lat="43.7810333" lon="6.390275"><ele>903.0</ele><time>2026-05-02T13:41:58.272Z</time></trkpt><trkpt lat="43.78105" lon="6.3903633"><ele>903.0</ele><time>2026-05-02T13:41:59.271Z</time></trkpt><trkpt lat="43.7810117" lon="6.3904633"><ele>903.0</ele><time>2026-05-02T13:42:01.271Z</time></trkpt><trkpt lat="43.7809233" lon="6.3904867"><ele>903.0</ele><time>2026-05-02T13:42:03.272Z</time></trkpt><trkpt lat="43.780865" lon="6.390425"><ele>903.0</ele><time>2026-05-02T13:42:05.272Z</time></trkpt><trkpt lat="43.7808967" lon="6.390335"><ele>903.0</ele><time>2026-05-02T13:42:36.272Z</time></trkpt><trkpt lat="43.7808967" lon="6.390335"><ele>903.0</ele><time>2026-05-02T13:42:36.272Z</time></trkpt><trkpt lat="43.7808667" lon="6.3904133"><ele>903.0</ele><time>2026-05-02T13:45:54.273Z</time></trkpt><trkpt lat="43.78083" lon="6.3903317"><ele>906.1666666666666</ele><time>2026-05-02T13:45:57.273Z</time></trkpt><trkpt lat="43.7808083" lon="6.3902317"><ele>909.3333333333333</ele><time>2026-05-02T13:45:59.273Z</time></trkpt><trkpt lat="43.78078" lon="6.3901433"><ele>912.5</ele><time>2026-05-02T13:46:00.274Z</time></trkpt><trkpt lat="43.7807433" lon="6.3900417"><ele>915.6666666666666</ele><time>2026-05-02T13:46:01.273Z</time></trkpt><trkpt lat="43.7807" lon="6.38994"><ele>918.8333333333333</ele><time>2026-05-02T13:46:02.273Z</time></trkpt><trkpt lat="43.7806417" lon="6.3898383"><ele>922.0</ele><time>2026-05-02T13:46:03.273Z</time></trkpt><trkpt lat="43.7805733" lon="6.3897417"><ele>920.0</ele><time>2026-05-02T13:46:04.273Z</time></trkpt><trkpt lat="43.780505" lon="6.3896483"><ele>918.0</ele><time>2026-05-02T13:46:05.274Z</time></trkpt><trkpt lat="43.780435" lon="6.3895583"><ele>916.0</ele><time>2026-05-02T13:46:06.274Z</time></trkpt><trkpt lat="43.78037" lon="6.3894633"><ele>914.0</ele><time>2026-05-02T13:46:07.273Z</time></trkpt><trkpt lat="43.7803117" lon="6.389365"><ele>912.0</ele><time>2026-05-02T13:46:08.273Z</time></trkpt><trkpt lat="43.7802633" lon="6.3892567"><ele>912.0</ele><time>2026-05-02T13:46:09.273Z</time></trkpt><trkpt lat="43.78022" lon="6.389155"><ele>912.0</ele><time>2026-05-02T13:46:10.273Z</time></trkpt><trkpt lat="43.78018" lon="6.3890583"><ele>912.0</ele><time>2026-05-02T13:46:11.274Z</time></trkpt><trkpt lat="43.780135" lon="6.38898"><ele>912.0</ele><time>2026-05-02T13:46:12.273Z</time></trkpt><trkpt lat="43.7800783" lon="6.3889333"><ele>912.0</ele><time>2026-05-02T13:46:13.273Z</time></trkpt><trkpt lat="43.780015" lon="6.3889217"><ele>912.0</ele><time>2026-05-02T13:46:14.273Z</time></trkpt><trkpt lat="43.7799183" lon="6.38901"><ele>912.0</ele><time>2026-05-02T13:46:16.273Z</time></trkpt><trkpt lat="43.7799017" lon="6.3891217"><ele>912.0</ele><time>2026-05-02T13:46:17.274Z</time></trkpt><trkpt lat="43.779925" lon="6.3892433"><ele>912.0</ele><time>2026-05-02T13:46:18.273Z</time></trkpt><trkpt lat="43.7799933" lon="6.38936"><ele>912.0</ele><time>2026-05-02T13:46:19.273Z</time></trkpt><trkpt lat="43.78008" lon="6.3894733"><ele>912.0</ele><time>2026-05-02T13:46:20.273Z</time></trkpt><trkpt lat="43.7801833" lon="6.3895917"><ele>914.0</ele><time>2026-05-02T13:46:21.273Z</time></trkpt><trkpt lat="43.7802583" lon="6.389715"><ele>916.0</ele><time>2026-05-02T13:46:22.273Z</time></trkpt><trkpt lat="43.7803233" lon="6.38983"><ele>918.0</ele><time>2026-05-02T13:46:23.273Z</time></trkpt><trkpt lat="43.7803733" lon="6.38993"><ele>920.0</ele><time>2026-05-02T13:46:24.273Z</time></trkpt><trkpt lat="43.7804217" lon="6.39002"><ele>922.0</ele><time>2026-05-02T13:46:25.273Z</time></trkpt><trkpt lat="43.7804517" lon="6.39012"><ele>921.9999999999999</ele><time>2026-05-02T13:46:26.273Z</time></trkpt><trkpt lat="43.7804683" lon="6.39021"><ele>922.0</ele><time>2026-05-02T13:46:27.273Z</time></trkpt><trkpt lat="43.7804567" lon="6.3903133"><ele>922.0</ele><time>2026-05-02T13:46:29.273Z</time></trkpt><trkpt lat="43.78042" lon="6.3904233"><ele>922.0</ele><time>2026-05-02T13:46:32.273Z</time></trkpt><trkpt lat="43.7803583" lon="6.3905083"><ele>921.9999999999999</ele><time>2026-05-02T13:46:35.273Z</time></trkpt><trkpt lat="43.7803067" lon="6.3903967"><ele>922.0</ele><time>2026-05-02T13:51:12.272Z</time></trkpt><trkpt lat="43.780235" lon="6.3902317"><ele>922.0</ele><time>2026-05-02T13:51:14.272Z</time></trkpt><trkpt lat="43.7801867" lon="6.3901167"><ele>922.0</ele><time>2026-05-02T13:51:15.272Z</time></trkpt><trkpt lat="43.7801333" lon="6.38999"><ele>922.0</ele><time>2026-05-02T13:51:16.272Z</time></trkpt><trkpt lat="43.7800733" lon="6.3898633"><ele>922.0</ele><time>2026-05-02T13:51:17.272Z</time></trkpt><trkpt lat="43.7800067" lon="6.3897367"><ele>922.0</ele><time>2026-05-02T13:51:18.272Z</time></trkpt><trkpt lat="43.7799267" lon="6.3896217"><ele>924.4000000000001</ele><time>2026-05-02T13:51:19.272Z</time></trkpt><trkpt lat="43.7798433" lon="6.3895133"><ele>926.8000000000001</ele><time>2026-05-02T13:51:20.272Z</time></trkpt><trkpt lat="43.7797583" lon="6.3894133"><ele>929.2</ele><time>2026-05-02T13:51:21.272Z</time></trkpt><trkpt lat="43.77968" lon="6.38931"><ele>931.6</ele><time>2026-05-02T13:51:22.272Z</time></trkpt><trkpt lat="43.7796" lon="6.3892083"><ele>934.0</ele><time>2026-05-02T13:51:23.272Z</time></trkpt><trkpt lat="43.7795233" lon="6.3891067"><ele>934.0</ele><time>2026-05-02T13:51:24.272Z</time></trkpt><trkpt lat="43.77945" lon="6.3890067"><ele>934.0000000000001</ele><time>2026-05-02T13:51:25.272Z</time></trkpt><trkpt lat="43.7793783" lon="6.388895"><ele>934.0000000000001</ele><time>2026-05-02T13:51:26.272Z</time></trkpt><trkpt lat="43.77931" lon="6.3887717"><ele>934.0</ele><time>2026-05-02T13:51:27.272Z</time></trkpt><trkpt lat="43.779245" lon="6.3886383"><ele>934.0</ele><time>2026-05-02T13:51:28.272Z</time></trkpt><trkpt lat="43.779175" lon="6.3885083"><ele>935.25</ele><time>2026-05-02T13:51:29.273Z</time></trkpt><trkpt lat="43.779105" lon="6.3883683"><ele>936.5</ele><time>2026-05-02T13:51:30.272Z</time></trkpt><trkpt lat="43.779025" lon="6.38824"><ele>937.75</ele><time>2026-05-02T13:51:31.272Z</time></trkpt><trkpt lat="43.7789517" lon="6.3881033"><ele>939.0</ele><time>2026-05-02T13:51:32.272Z</time></trkpt><trkpt lat="43.7788817" lon="6.3879617"><ele>939.0</ele><time>2026-05-02T13:51:33.272Z</time></trkpt><trkpt lat="43.7788167" lon="6.38783"><ele>939.0</ele><time>2026-05-02T13:51:34.272Z</time></trkpt><trkpt lat="43.7787467" lon="6.3876933"><ele>939.0</ele><time>2026-05-02T13:51:35.272Z</time></trkpt><trkpt lat="43.7786833" lon="6.387545"><ele>939.0</ele><time>2026-05-02T13:51:36.272Z</time></trkpt><trkpt lat="43.7786167" lon="6.3873917"><ele>939.0</ele><time>2026-05-02T13:51:37.273Z</time></trkpt><trkpt lat="43.7785517" lon="6.3872467"><ele>939.0</ele><time>2026-05-02T13:51:38.272Z</time></trkpt><trkpt lat="43.7784883" lon="6.3871017"><ele>939.0</ele><time>2026-05-02T13:51:39.272Z</time></trkpt><trkpt lat="43.7784233" lon="6.3869483"><ele>939.0</ele><time>2026-05-02T13:51:40.272Z</time></trkpt><trkpt lat="43.7783667" lon="6.3868033"><ele>944.75</ele><time>2026-05-02T13:51:41.272Z</time></trkpt><trkpt lat="43.77831" lon="6.38664"><ele>950.5</ele><time>2026-05-02T13:51:42.272Z</time></trkpt><trkpt lat="43.7782533" lon="6.3864767"><ele>956.25</ele><time>2026-05-02T13:51:43.272Z</time></trkpt><trkpt lat="43.7782" lon="6.3863067"><ele>962.0</ele><time>2026-05-02T13:51:44.272Z</time></trkpt><trkpt lat="43.77814" lon="6.3861367"><ele>962.0</ele><time>2026-05-02T13:51:45.272Z</time></trkpt><trkpt lat="43.7780833" lon="6.385965"><ele>962.0</ele><time>2026-05-02T13:51:46.272Z</time></trkpt><trkpt lat="43.7780283" lon="6.3857983"><ele>962.0</ele><time>2026-05-02T13:51:47.272Z</time></trkpt><trkpt lat="43.7779733" lon="6.38563"><ele>962.0</ele><time>2026-05-02T13:51:48.272Z</time></trkpt><trkpt lat="43.77792" lon="6.385455"><ele>961.25</ele><time>2026-05-02T13:51:49.272Z</time></trkpt><trkpt lat="43.77786" lon="6.3852867"><ele>960.5</ele><time>2026-05-02T13:51:50.272Z</time></trkpt><trkpt lat="43.7777933" lon="6.38511"><ele>959.75</ele><time>2026-05-02T13:51:51.272Z</time></trkpt><trkpt lat="43.7777233" lon="6.3849283"><ele>959.0</ele><time>2026-05-02T13:51:52.272Z</time></trkpt><trkpt lat="43.7776583" lon="6.384745"><ele>966.0</ele><time>2026-05-02T13:51:53.272Z</time></trkpt><trkpt lat="43.777585" lon="6.38456"><ele>973.0</ele><time>2026-05-02T13:51:54.272Z</time></trkpt><trkpt lat="43.7775133" lon="6.384375"><ele>980.0</ele><time>2026-05-02T13:51:55.272Z</time></trkpt><trkpt lat="43.7774383" lon="6.3841917"><ele>980.0</ele><time>2026-05-02T13:51:56.272Z</time></trkpt><trkpt lat="43.7773733" lon="6.3840117"><ele>980.0</ele><time>2026-05-02T13:51:57.273Z</time></trkpt><trkpt lat="43.7773067" lon="6.3838333"><ele>980.0</ele><time>2026-05-02T13:51:58.272Z</time></trkpt><trkpt lat="43.7772367" lon="6.3836517"><ele>980.0</ele><time>2026-05-02T13:51:59.272Z</time></trkpt><trkpt lat="43.77716" lon="6.3834667"><ele>979.0</ele><time>2026-05-02T13:52:00.272Z</time></trkpt><trkpt lat="43.7770933" lon="6.3832833"><ele>978.0</ele><time>2026-05-02T13:52:01.273Z</time></trkpt><trkpt lat="43.777025" lon="6.3830917"><ele>977.0</ele><time>2026-05-02T13:52:02.272Z</time></trkpt><trkpt lat="43.7769483" lon="6.38292"><ele>976.0</ele><time>2026-05-02T13:52:03.272Z</time></trkpt><trkpt lat="43.7768667" lon="6.3827467"><ele>984.0</ele><time>2026-05-02T13:52:04.272Z</time></trkpt><trkpt lat="43.776765" lon="6.3825867"><ele>992.0</ele><time>2026-05-02T13:52:05.272Z</time></trkpt><trkpt lat="43.776655" lon="6.382445"><ele>1000.0</ele><time>2026-05-02T13:52:06.272Z</time></trkpt><trkpt lat="43.7765367" lon="6.3823133"><ele>998.0</ele><time>2026-05-02T13:52:07.272Z</time></trkpt><trkpt lat="43.7764117" lon="6.3821767"><ele>996.0</ele><time>2026-05-02T13:52:08.273Z</time></trkpt><trkpt lat="43.7762917" lon="6.3820483"><ele>994.0</ele><time>2026-05-02T13:52:09.272Z</time></trkpt><trkpt lat="43.7761667" lon="6.381935"><ele>994.0</ele><time>2026-05-02T13:52:10.272Z</time></trkpt><trkpt lat="43.7760417" lon="6.3818233"><ele>994.0</ele><time>2026-05-02T13:52:11.272Z</time></trkpt><trkpt lat="43.7759167" lon="6.3816983"><ele>994.0</ele><time>2026-05-02T13:52:12.272Z</time></trkpt><trkpt lat="43.775805" lon="6.381555"><ele>1000.6666666666666</ele><time>2026-05-02T13:52:13.272Z</time></trkpt><trkpt lat="43.7757067" lon="6.38139"><ele>1007.3333333333333</ele><time>2026-05-02T13:52:14.272Z</time></trkpt><trkpt lat="43.775625" lon="6.3812183"><ele>1014.0</ele><time>2026-05-02T13:52:15.272Z</time></trkpt><trkpt lat="43.7755617" lon="6.381035"><ele>1014.0</ele><time>2026-05-02T13:52:16.272Z</time></trkpt><trkpt lat="43.7755233" lon="6.380845"><ele>1014.0</ele><time>2026-05-02T13:52:17.272Z</time></trkpt><trkpt lat="43.7755033" lon="6.380665"><ele>1014.0</ele><time>2026-05-02T13:52:18.272Z</time></trkpt><trkpt lat="43.7755017" lon="6.3805067"><ele>1014.0</ele><time>2026-05-02T13:52:19.272Z</time></trkpt><trkpt lat="43.7755067" lon="6.3803667"><ele>1013.8333333333334</ele><time>2026-05-02T13:52:20.272Z</time></trkpt><trkpt lat="43.77549" lon="6.3802583"><ele>1013.6666666666667</ele><time>2026-05-02T13:52:21.272Z</time></trkpt><trkpt lat="43.7754567" lon="6.380165"><ele>1013.5</ele><time>2026-05-02T13:52:22.272Z</time></trkpt><trkpt lat="43.7754033" lon="6.3801067"><ele>1013.3333333333334</ele><time>2026-05-02T13:52:23.273Z</time></trkpt><trkpt lat="43.775325" lon="6.3800967"><ele>1013.1666666666667</ele><time>2026-05-02T13:52:24.272Z</time></trkpt><trkpt lat="43.775255" lon="6.380135"><ele>1013.0</ele><time>2026-05-02T13:52:25.272Z</time></trkpt><trkpt lat="43.7752133" lon="6.3802283"><ele>1013.0</ele><time>2026-05-02T13:52:26.272Z</time></trkpt><trkpt lat="43.7751917" lon="6.380365"><ele>1013.0</ele><time>2026-05-02T13:52:27.272Z</time></trkpt><trkpt lat="43.7751983" lon="6.3805433"><ele>1013.0</ele><time>2026-05-02T13:52:28.272Z</time></trkpt><trkpt lat="43.7752133" lon="6.38074"><ele>1013.0</ele><time>2026-05-02T13:52:29.272Z</time></trkpt><trkpt lat="43.7752117" lon="6.3809467"><ele>1013.25</ele><time>2026-05-02T13:52:30.272Z</time></trkpt><trkpt lat="43.7752017" lon="6.3811483"><ele>1013.5</ele><time>2026-05-02T13:52:31.273Z</time></trkpt><trkpt lat="43.7751817" lon="6.3813367"><ele>1013.75</ele><time>2026-05-02T13:52:32.272Z</time></trkpt><trkpt lat="43.775165" lon="6.3815217"><ele>1014.0</ele><time>2026-05-02T13:52:33.273Z</time></trkpt><trkpt lat="43.775145" lon="6.3816967"><ele>1020.75</ele><time>2026-05-02T13:52:34.272Z</time></trkpt><trkpt lat="43.77512" lon="6.3818817"><ele>1027.5</ele><time>2026-05-02T13:52:35.272Z</time></trkpt><trkpt lat="43.7751017" lon="6.3820533"><ele>1034.25</ele><time>2026-05-02T13:52:36.272Z</time></trkpt><trkpt lat="43.7750917" lon="6.38223"><ele>1041.0</ele><time>2026-05-02T13:52:37.272Z</time></trkpt><trkpt lat="43.7750867" lon="6.3824083"><ele>1041.5</ele><time>2026-05-02T13:52:38.272Z</time></trkpt><trkpt lat="43.77509" lon="6.3825867"><ele>1042.0</ele><time>2026-05-02T13:52:39.272Z</time></trkpt><trkpt lat="43.7751183" lon="6.3827633"><ele>1042.5</ele><time>2026-05-02T13:52:40.272Z</time></trkpt><trkpt lat="43.7751567" lon="6.3829383"><ele>1043.0</ele><time>2026-05-02T13:52:41.272Z</time></trkpt><trkpt lat="43.775195" lon="6.3830967"><ele>1041.6</ele><time>2026-05-02T13:52:42.272Z</time></trkpt><trkpt lat="43.7752467" lon="6.3832483"><ele>1040.1999999999998</ele><time>2026-05-02T13:52:43.272Z</time></trkpt><trkpt lat="43.7752933" lon="6.3833867"><ele>1038.8</ele><time>2026-05-02T13:52:44.273Z</time></trkpt><trkpt lat="43.77534" lon="6.3834967"><ele>1037.3999999999999</ele><time>2026-05-02T13:52:45.272Z</time></trkpt><trkpt lat="43.7753867" lon="6.3835917"><ele>1036.0</ele><time>2026-05-02T13:52:46.272Z</time></trkpt><trkpt lat="43.7754217" lon="6.383685"><ele>1036.0</ele><time>2026-05-02T13:52:47.272Z</time></trkpt><trkpt lat="43.7754467" lon="6.3837767"><ele>1036.0</ele><time>2026-05-02T13:52:48.272Z</time></trkpt><trkpt lat="43.7754467" lon="6.3839283"><ele>1036.0</ele><time>2026-05-02T13:52:50.272Z</time></trkpt><trkpt lat="43.7753833" lon="6.3839933"><ele>1036.0</ele><time>2026-05-02T13:52:52.272Z</time></trkpt><trkpt lat="43.7753133" lon="6.3839633"><ele>1036.0</ele><time>2026-05-02T13:52:54.273Z</time></trkpt><trkpt lat="43.7752733" lon="6.3838433"><ele>1036.0</ele><time>2026-05-02T13:52:56.272Z</time></trkpt><trkpt lat="43.7752683" lon="6.383755"><ele>1036.0</ele><time>2026-05-02T13:52:58.272Z</time></trkpt><trkpt lat="43.7752217" lon="6.3836583"><ele>1036.0</ele><time>2026-05-02T14:07:37.271Z</time></trkpt><trkpt lat="43.7751567" lon="6.3835983"><ele>1036.0</ele><time>2026-05-02T14:07:39.27Z</time></trkpt><trkpt lat="43.7751017" lon="6.3835233"><ele>1036.0</ele><time>2026-05-02T14:07:41.27Z</time></trkpt><trkpt lat="43.7750417" lon="6.3834567"><ele>1036.0</ele><time>2026-05-02T14:07:44.27Z</time></trkpt><trkpt lat="43.774975" lon="6.3833933"><ele>1036.0</ele><time>2026-05-02T14:07:48.27Z</time></trkpt><trkpt lat="43.7749" lon="6.3833333"><ele>1037.1666666666665</ele><time>2026-05-02T14:07:51.27Z</time></trkpt><trkpt lat="43.7748267" lon="6.3832667"><ele>1038.3333333333333</ele><time>2026-05-02T14:07:54.27Z</time></trkpt><trkpt lat="43.77477" lon="6.383185"><ele>1039.5</ele><time>2026-05-02T14:07:58.27Z</time></trkpt><trkpt lat="43.7747067" lon="6.3831117"><ele>1040.6666666666667</ele><time>2026-05-02T14:08:01.27Z</time></trkpt><trkpt lat="43.7746483" lon="6.38301"><ele>1041.8333333333335</ele><time>2026-05-02T14:08:04.27Z</time></trkpt><trkpt lat="43.7746017" lon="6.38289"><ele>1043.0</ele><time>2026-05-02T14:08:07.27Z</time></trkpt><trkpt lat="43.7745567" lon="6.3827967"><ele>1043.0</ele><time>2026-05-02T14:08:09.27Z</time></trkpt><trkpt lat="43.7745083" lon="6.38266"><ele>1043.0</ele><time>2026-05-02T14:08:11.27Z</time></trkpt><trkpt lat="43.774475" lon="6.38256"><ele>1043.0</ele><time>2026-05-02T14:08:12.27Z</time></trkpt><trkpt lat="43.7744467" lon="6.38244"><ele>1043.0</ele><time>2026-05-02T14:08:13.27Z</time></trkpt><trkpt lat="43.7744217" lon="6.3823033"><ele>1043.0</ele><time>2026-05-02T14:08:14.27Z</time></trkpt><trkpt lat="43.7743967" lon="6.3821567"><ele>1042.6</ele><time>2026-05-02T14:08:15.27Z</time></trkpt><trkpt lat="43.7743667" lon="6.3820133"><ele>1042.1999999999998</ele><time>2026-05-02T14:08:16.27Z</time></trkpt><trkpt lat="43.7743367" lon="6.3818633"><ele>1041.8</ele><time>2026-05-02T14:08:17.27Z</time></trkpt><trkpt lat="43.7742983" lon="6.38172"><ele>1041.3999999999999</ele><time>2026-05-02T14:08:18.27Z</time></trkpt><trkpt lat="43.7742683" lon="6.3815617"><ele>1041.0</ele><time>2026-05-02T14:08:19.27Z</time></trkpt><trkpt lat="43.77424" lon="6.381405"><ele>1047.25</ele><time>2026-05-02T14:08:20.27Z</time></trkpt><trkpt lat="43.7742083" lon="6.3812517"><ele>1053.5</ele><time>2026-05-02T14:08:21.27Z</time></trkpt><trkpt lat="43.774175" lon="6.3810833"><ele>1059.75</ele><time>2026-05-02T14:08:22.27Z</time></trkpt><trkpt lat="43.7741417" lon="6.380925"><ele>1066.0</ele><time>2026-05-02T14:08:23.27Z</time></trkpt><trkpt lat="43.7741" lon="6.3807717"><ele>1066.0</ele><time>2026-05-02T14:08:24.27Z</time></trkpt><trkpt lat="43.7740533" lon="6.380625"><ele>1066.0</ele><time>2026-05-02T14:08:25.27Z</time></trkpt><trkpt lat="43.77401" lon="6.3804817"><ele>1066.0</ele><time>2026-05-02T14:08:26.27Z</time></trkpt><trkpt lat="43.77396" lon="6.3803517"><ele>1066.0</ele><time>2026-05-02T14:08:27.27Z</time></trkpt><trkpt lat="43.7739067" lon="6.3802283"><ele>1066.0</ele><time>2026-05-02T14:08:28.27Z</time></trkpt><trkpt lat="43.7738517" lon="6.3801133"><ele>1065.25</ele><time>2026-05-02T14:08:29.27Z</time></trkpt><trkpt lat="43.77378" lon="6.3799967"><ele>1064.5</ele><time>2026-05-02T14:08:30.271Z</time></trkpt><trkpt lat="43.77371" lon="6.3798617"><ele>1063.75</ele><time>2026-05-02T14:08:31.27Z</time></trkpt><trkpt lat="43.7736217" lon="6.3797167"><ele>1063.0</ele><time>2026-05-02T14:08:32.27Z</time></trkpt><trkpt lat="43.7735367" lon="6.3795533"><ele>1068.5</ele><time>2026-05-02T14:08:33.27Z</time></trkpt><trkpt lat="43.7734583" lon="6.3793983"><ele>1074.0</ele><time>2026-05-02T14:08:34.27Z</time></trkpt><trkpt lat="43.7733733" lon="6.379245"><ele>1079.5</ele><time>2026-05-02T14:08:35.27Z</time></trkpt><trkpt lat="43.77329" lon="6.3790933"><ele>1085.0</ele><time>2026-05-02T14:08:36.27Z</time></trkpt><trkpt lat="43.77321" lon="6.3789417"><ele>1082.25</ele><time>2026-05-02T14:08:37.27Z</time></trkpt><trkpt lat="43.7731317" lon="6.3787883"><ele>1079.5</ele><time>2026-05-02T14:08:38.27Z</time></trkpt><trkpt lat="43.7730567" lon="6.3786517"><ele>1076.75</ele><time>2026-05-02T14:08:39.27Z</time></trkpt><trkpt lat="43.7729833" lon="6.3785167"><ele>1074.0</ele><time>2026-05-02T14:08:40.27Z</time></trkpt><trkpt lat="43.7729167" lon="6.378385"><ele>1074.0</ele><time>2026-05-02T14:08:41.271Z</time></trkpt><trkpt lat="43.77285" lon="6.3782433"><ele>1074.0</ele><time>2026-05-02T14:08:42.27Z</time></trkpt><trkpt lat="43.7727817" lon="6.3781067"><ele>1074.0</ele><time>2026-05-02T14:08:43.271Z</time></trkpt><trkpt lat="43.7727117" lon="6.3779783"><ele>1074.0</ele><time>2026-05-02T14:08:44.27Z</time></trkpt><trkpt lat="43.772645" lon="6.3778617"><ele>1077.1666666666667</ele><time>2026-05-02T14:08:45.27Z</time></trkpt><trkpt lat="43.7725817" lon="6.3777583"><ele>1080.3333333333333</ele><time>2026-05-02T14:08:46.27Z</time></trkpt><trkpt lat="43.7725267" lon="6.3776683"><ele>1083.5</ele><time>2026-05-02T14:08:47.27Z</time></trkpt><trkpt lat="43.7724717" lon="6.3775817"><ele>1086.6666666666665</ele><time>2026-05-02T14:08:48.27Z</time></trkpt><trkpt lat="43.77242" lon="6.3774983"><ele>1089.8333333333333</ele><time>2026-05-02T14:08:49.27Z</time></trkpt><trkpt lat="43.772375" lon="6.3774267"><ele>1093.0</ele><time>2026-05-02T14:08:50.27Z</time></trkpt><trkpt lat="43.7722933" lon="6.3773217"><ele>1093.0</ele><time>2026-05-02T14:08:52.271Z</time></trkpt><trkpt lat="43.7722517" lon="6.3772467"><ele>1093.0</ele><time>2026-05-02T14:09:19.271Z</time></trkpt><trkpt lat="43.77216" lon="6.3771517"><ele>1093.0</ele><time>2026-05-02T14:09:21.27Z</time></trkpt><trkpt lat="43.7721083" lon="6.3770933"><ele>1093.0</ele><time>2026-05-02T14:09:22.27Z</time></trkpt><trkpt lat="43.7720567" lon="6.377025"><ele>1093.0</ele><time>2026-05-02T14:09:23.27Z</time></trkpt><trkpt lat="43.772" lon="6.3769433"><ele>1093.0</ele><time>2026-05-02T14:09:24.27Z</time></trkpt><trkpt lat="43.7719383" lon="6.3768633"><ele>1091.4</ele><time>2026-05-02T14:09:25.27Z</time></trkpt><trkpt lat="43.771875" lon="6.37678"><ele>1089.8</ele><time>2026-05-02T14:09:26.27Z</time></trkpt><trkpt lat="43.771805" lon="6.3766917"><ele>1088.2</ele><time>2026-05-02T14:09:27.27Z</time></trkpt><trkpt lat="43.771735" lon="6.3766"><ele>1086.6</ele><time>2026-05-02T14:09:28.271Z</time></trkpt><trkpt lat="43.7716567" lon="6.3765"><ele>1085.0</ele><time>2026-05-02T14:09:29.27Z</time></trkpt><trkpt lat="43.77157" lon="6.376405"><ele>1088.5</ele><time>2026-05-02T14:09:30.27Z</time></trkpt><trkpt lat="43.77149" lon="6.3763"><ele>1092.0</ele><time>2026-05-02T14:09:31.27Z</time></trkpt><trkpt lat="43.77141" lon="6.3761867"><ele>1095.5</ele><time>2026-05-02T14:09:32.27Z</time></trkpt><trkpt lat="43.7713333" lon="6.3760633"><ele>1099.0</ele><time>2026-05-02T14:09:33.271Z</time></trkpt><trkpt lat="43.7712533" lon="6.3759333"><ele>1099.0</ele><time>2026-05-02T14:09:34.27Z</time></trkpt><trkpt lat="43.77117" lon="6.3758033"><ele>1099.0</ele><time>2026-05-02T14:09:35.27Z</time></trkpt><trkpt lat="43.7710883" lon="6.375665"><ele>1099.0</ele><time>2026-05-02T14:09:36.27Z</time></trkpt><trkpt lat="43.771015" lon="6.375515"><ele>1099.0</ele><time>2026-05-02T14:09:37.27Z</time></trkpt><trkpt lat="43.7709383" lon="6.3753717"><ele>1101.5</ele><time>2026-05-02T14:09:38.27Z</time></trkpt><trkpt lat="43.7708583" lon="6.375225"><ele>1104.0</ele><time>2026-05-02T14:09:39.27Z</time></trkpt><trkpt lat="43.770775" lon="6.375075"><ele>1106.5</ele><time>2026-05-02T14:09:40.27Z</time></trkpt><trkpt lat="43.7706967" lon="6.3749183"><ele>1109.0</ele><time>2026-05-02T14:09:41.27Z</time></trkpt><trkpt lat="43.7706083" lon="6.374775"><ele>1108.25</ele><time>2026-05-02T14:09:42.27Z</time></trkpt><trkpt lat="43.7705267" lon="6.374625"><ele>1107.5</ele><time>2026-05-02T14:09:43.27Z</time></trkpt><trkpt lat="43.7704383" lon="6.3744783"><ele>1106.75</ele><time>2026-05-02T14:09:44.27Z</time></trkpt><trkpt lat="43.770345" lon="6.3743433"><ele>1106.0</ele><time>2026-05-02T14:09:45.27Z</time></trkpt><trkpt lat="43.7702567" lon="6.3742133"><ele>1109.5</ele><time>2026-05-02T14:09:46.27Z</time></trkpt><trkpt lat="43.7701667" lon="6.3740783"><ele>1113.0</ele><time>2026-05-02T14:09:47.27Z</time></trkpt><trkpt lat="43.7700783" lon="6.3739383"><ele>1116.5</ele><time>2026-05-02T14:09:48.27Z</time></trkpt><trkpt lat="43.7699917" lon="6.373795"><ele>1120.0</ele><time>2026-05-02T14:09:49.27Z</time></trkpt><trkpt lat="43.7699017" lon="6.3736517"><ele>1120.25</ele><time>2026-05-02T14:09:50.27Z</time></trkpt><trkpt lat="43.7698083" lon="6.3735017"><ele>1120.5</ele><time>2026-05-02T14:09:51.27Z</time></trkpt><trkpt lat="43.7697233" lon="6.373345"><ele>1120.75</ele><time>2026-05-02T14:09:52.27Z</time></trkpt><trkpt lat="43.7696317" lon="6.373195"><ele>1121.0</ele><time>2026-05-02T14:09:53.27Z</time></trkpt><trkpt lat="43.769535" lon="6.373065"><ele>1119.5</ele><time>2026-05-02T14:09:54.27Z</time></trkpt><trkpt lat="43.7694433" lon="6.3729333"><ele>1118.0</ele><time>2026-05-02T14:09:55.27Z</time></trkpt><trkpt lat="43.7693483" lon="6.3728033"><ele>1116.5</ele><time>2026-05-02T14:09:56.27Z</time></trkpt><trkpt lat="43.76926" lon="6.3726667"><ele>1115.0</ele><time>2026-05-02T14:09:57.27Z</time></trkpt><trkpt lat="43.76916" lon="6.37255"><ele>1119.0</ele><time>2026-05-02T14:09:58.27Z</time></trkpt><trkpt lat="43.7690567" lon="6.372435"><ele>1123.0</ele><time>2026-05-02T14:09:59.271Z</time></trkpt><trkpt lat="43.76893" lon="6.3723217"><ele>1127.0</ele><time>2026-05-02T14:10:00.27Z</time></trkpt><trkpt lat="43.7688033" lon="6.3722133"><ele>1131.0</ele><time>2026-05-02T14:10:01.271Z</time></trkpt><trkpt lat="43.7686817" lon="6.3720967"><ele>1131.0</ele><time>2026-05-02T14:10:02.27Z</time></trkpt><trkpt lat="43.7685517" lon="6.3719767"><ele>1131.0</ele><time>2026-05-02T14:10:03.27Z</time></trkpt><trkpt lat="43.7684233" lon="6.3718633"><ele>1131.0</ele><time>2026-05-02T14:10:04.27Z</time></trkpt><trkpt lat="43.768295" lon="6.37174"><ele>1137.0</ele><time>2026-05-02T14:10:05.27Z</time></trkpt><trkpt lat="43.7681567" lon="6.371615"><ele>1143.0</ele><time>2026-05-02T14:10:06.27Z</time></trkpt><trkpt lat="43.7680267" lon="6.3714967"><ele>1149.0</ele><time>2026-05-02T14:10:07.27Z</time></trkpt><trkpt lat="43.7679017" lon="6.37139"><ele>1146.6666666666667</ele><time>2026-05-02T14:10:08.27Z</time></trkpt><trkpt lat="43.7677733" lon="6.3712717"><ele>1144.3333333333335</ele><time>2026-05-02T14:10:09.27Z</time></trkpt><trkpt lat="43.7676533" lon="6.3711533"><ele>1142.0</ele><time>2026-05-02T14:10:10.27Z</time></trkpt><trkpt lat="43.76753" lon="6.371035"><ele>1149.3333333333335</ele><time>2026-05-02T14:10:11.27Z</time></trkpt><trkpt lat="43.767405" lon="6.3709"><ele>1156.6666666666667</ele><time>2026-05-02T14:10:12.27Z</time></trkpt><trkpt lat="43.7673017" lon="6.37074"><ele>1164.0</ele><time>2026-05-02T14:10:13.27Z</time></trkpt><trkpt lat="43.767205" lon="6.370585"><ele>1162.0</ele><time>2026-05-02T14:10:14.27Z</time></trkpt><trkpt lat="43.7671067" lon="6.3704267"><ele>1160.0</ele><time>2026-05-02T14:10:15.27Z</time></trkpt><trkpt lat="43.7670033" lon="6.3702717"><ele>1158.0</ele><time>2026-05-02T14:10:16.27Z</time></trkpt><trkpt lat="43.766895" lon="6.3701083"><ele>1163.6666666666667</ele><time>2026-05-02T14:10:17.27Z</time></trkpt><trkpt lat="43.7667833" lon="6.3699567"><ele>1169.3333333333335</ele><time>2026-05-02T14:10:18.271Z</time></trkpt><trkpt lat="43.76668" lon="6.3698117"><ele>1175.0</ele><time>2026-05-02T14:10:19.271Z</time></trkpt><trkpt lat="43.7665667" lon="6.3696717"><ele>1175.0</ele><time>2026-05-02T14:10:20.271Z</time></trkpt><trkpt lat="43.7664417" lon="6.3695233"><ele>1175.0</ele><time>2026-05-02T14:10:21.27Z</time></trkpt><trkpt lat="43.7663133" lon="6.36938"><ele>1175.0</ele><time>2026-05-02T14:10:22.27Z</time></trkpt><trkpt lat="43.7661967" lon="6.3692383"><ele>1175.0</ele><time>2026-05-02T14:10:23.27Z</time></trkpt><trkpt lat="43.766075" lon="6.3691033"><ele>1175.0</ele><time>2026-05-02T14:10:24.27Z</time></trkpt><trkpt lat="43.7659583" lon="6.3689717"><ele>1175.0</ele><time>2026-05-02T14:10:25.27Z</time></trkpt><trkpt lat="43.7658433" lon="6.3688417"><ele>1178.25</ele><time>2026-05-02T14:10:26.27Z</time></trkpt><trkpt lat="43.76572" lon="6.368725"><ele>1181.5</ele><time>2026-05-02T14:10:27.271Z</time></trkpt><trkpt lat="43.7656217" lon="6.3686117"><ele>1184.75</ele><time>2026-05-02T14:10:28.27Z</time></trkpt><trkpt lat="43.7655383" lon="6.3685083"><ele>1188.0</ele><time>2026-05-02T14:10:29.27Z</time></trkpt><trkpt lat="43.7654717" lon="6.3684183"><ele>1188.0</ele><time>2026-05-02T14:10:30.27Z</time></trkpt><trkpt lat="43.765405" lon="6.368335"><ele>1188.0</ele><time>2026-05-02T14:10:31.27Z</time></trkpt><trkpt lat="43.76534" lon="6.3682783"><ele>1188.0</ele><time>2026-05-02T14:10:32.27Z</time></trkpt><trkpt lat="43.7652733" lon="6.368265"><ele>1188.0</ele><time>2026-05-02T14:10:33.27Z</time></trkpt><trkpt lat="43.7652117" lon="6.3682933"><ele>1188.0</ele><time>2026-05-02T14:10:34.27Z</time></trkpt><trkpt lat="43.7651617" lon="6.3683683"><ele>1188.0</ele><time>2026-05-02T14:10:35.27Z</time></trkpt><trkpt lat="43.7651467" lon="6.3684817"><ele>1188.0</ele><time>2026-05-02T14:10:36.27Z</time></trkpt><trkpt lat="43.765175" lon="6.3686017"><ele>1188.0</ele><time>2026-05-02T14:10:37.27Z</time></trkpt><trkpt lat="43.765255" lon="6.368725"><ele>1188.0</ele><time>2026-05-02T14:10:38.271Z</time></trkpt><trkpt lat="43.76533" lon="6.36887"><ele>1188.0</ele><time>2026-05-02T14:10:39.27Z</time></trkpt><trkpt lat="43.76538" lon="6.3690383"><ele>1189.75</ele><time>2026-05-02T14:10:40.27Z</time></trkpt><trkpt lat="43.7653967" lon="6.3691983"><ele>1191.5</ele><time>2026-05-02T14:10:41.27Z</time></trkpt><trkpt lat="43.7654" lon="6.3693833"><ele>1193.25</ele><time>2026-05-02T14:10:42.27Z</time></trkpt><trkpt lat="43.7654" lon="6.36957"><ele>1195.0</ele><time>2026-05-02T14:10:43.27Z</time></trkpt><trkpt lat="43.7653983" lon="6.3697533"><ele>1196.75</ele><time>2026-05-02T14:10:44.27Z</time></trkpt><trkpt lat="43.7653967" lon="6.3699283"><ele>1198.5</ele><time>2026-05-02T14:10:45.271Z</time></trkpt><trkpt lat="43.76539" lon="6.3701067"><ele>1200.25</ele><time>2026-05-02T14:10:46.27Z</time></trkpt><trkpt lat="43.7653867" lon="6.3702917"><ele>1202.0</ele><time>2026-05-02T14:10:47.27Z</time></trkpt><trkpt lat="43.7653883" lon="6.3704767"><ele>1203.75</ele><time>2026-05-02T14:10:48.27Z</time></trkpt><trkpt lat="43.765385" lon="6.37067"><ele>1205.5</ele><time>2026-05-02T14:10:49.27Z</time></trkpt><trkpt lat="43.7653817" lon="6.3708567"><ele>1207.25</ele><time>2026-05-02T14:10:50.27Z</time></trkpt><trkpt lat="43.765385" lon="6.37103"><ele>1209.0</ele><time>2026-05-02T14:10:51.27Z</time></trkpt><trkpt lat="43.76539" lon="6.3712067"><ele>1210.5</ele><time>2026-05-02T14:10:52.27Z</time></trkpt><trkpt lat="43.7653933" lon="6.3713817"><ele>1212.0</ele><time>2026-05-02T14:10:53.27Z</time></trkpt><trkpt lat="43.7653983" lon="6.3715583"><ele>1213.5</ele><time>2026-05-02T14:10:54.27Z</time></trkpt><trkpt lat="43.7653983" lon="6.371735"><ele>1215.0</ele><time>2026-05-02T14:10:55.27Z</time></trkpt><trkpt lat="43.7654017" lon="6.3719083"><ele>1215.0</ele><time>2026-05-02T14:10:56.27Z</time></trkpt><trkpt lat="43.7654033" lon="6.372075"><ele>1215.0</ele><time>2026-05-02T14:10:57.27Z</time></trkpt><trkpt lat="43.76541" lon="6.3722283"><ele>1215.0</ele><time>2026-05-02T14:10:58.27Z</time></trkpt><trkpt lat="43.7654117" lon="6.3723817"><ele>1215.0</ele><time>2026-05-02T14:10:59.27Z</time></trkpt><trkpt lat="43.7654233" lon="6.3725183"><ele>1215.0</ele><time>2026-05-02T14:11:00.27Z</time></trkpt><trkpt lat="43.7654333" lon="6.3726483"><ele>1215.2</ele><time>2026-05-02T14:11:01.27Z</time></trkpt><trkpt lat="43.76545" lon="6.372765"><ele>1215.4</ele><time>2026-05-02T14:11:02.27Z</time></trkpt><trkpt lat="43.7654617" lon="6.3728633"><ele>1215.6</ele><time>2026-05-02T14:11:03.27Z</time></trkpt><trkpt lat="43.76547" lon="6.3729583"><ele>1215.8</ele><time>2026-05-02T14:11:04.271Z</time></trkpt><trkpt lat="43.7654833" lon="6.3731267"><ele>1216.0</ele><time>2026-05-02T14:11:06.271Z</time></trkpt><trkpt lat="43.7654483" lon="6.3732667"><ele>1216.0</ele><time>2026-05-02T14:11:08.27Z</time></trkpt><trkpt lat="43.76537" lon="6.3733017"><ele>1216.0</ele><time>2026-05-02T14:11:10.27Z</time></trkpt><trkpt lat="43.765315" lon="6.3732467"><ele>1216.0</ele><time>2026-05-02T14:11:12.27Z</time></trkpt><trkpt lat="43.7652833" lon="6.3731433"><ele>1216.0</ele><time>2026-05-02T14:11:14.271Z</time></trkpt><trkpt lat="43.7652683" lon="6.3730217"><ele>1216.0</ele><time>2026-05-02T14:11:16.27Z</time></trkpt><trkpt lat="43.7652667" lon="6.3729067"><ele>1216.0</ele><time>2026-05-02T14:11:18.27Z</time></trkpt><trkpt lat="43.76526" lon="6.372805"><ele>1216.0</ele><time>2026-05-02T14:11:20.27Z</time></trkpt><trkpt lat="43.7652567" lon="6.372695"><ele>1216.0</ele><time>2026-05-02T14:11:23.27Z</time></trkpt><trkpt lat="43.7652867" lon="6.3725817"><ele>1216.0</ele><time>2026-05-02T14:20:25.269Z</time></trkpt><trkpt lat="43.7652433" lon="6.3724833"><ele>1216.0</ele><time>2026-05-02T14:21:15.269Z</time></trkpt><trkpt lat="43.7651967" lon="6.37233"><ele>1216.0</ele><time>2026-05-02T14:21:17.269Z</time></trkpt><trkpt lat="43.765165" lon="6.3722383"><ele>1216.0</ele><time>2026-05-02T14:21:18.269Z</time></trkpt><trkpt lat="43.7651317" lon="6.3721367"><ele>1218.8333333333333</ele><time>2026-05-02T14:21:19.269Z</time></trkpt><trkpt lat="43.76509" lon="6.3720283"><ele>1221.6666666666665</ele><time>2026-05-02T14:21:20.269Z</time></trkpt><trkpt lat="43.765055" lon="6.3719233"><ele>1224.5</ele><time>2026-05-02T14:21:21.269Z</time></trkpt><trkpt lat="43.76502" lon="6.37183"><ele>1227.3333333333333</ele><time>2026-05-02T14:21:22.269Z</time></trkpt><trkpt lat="43.764985" lon="6.37174"><ele>1230.1666666666667</ele><time>2026-05-02T14:21:23.269Z</time></trkpt><trkpt lat="43.7649383" lon="6.371655"><ele>1233.0</ele><time>2026-05-02T14:21:24.27Z</time></trkpt><trkpt lat="43.7648917" lon="6.37157"><ele>1233.0</ele><time>2026-05-02T14:21:25.269Z</time></trkpt><trkpt lat="43.7648433" lon="6.371485"><ele>1233.0</ele><time>2026-05-02T14:21:26.269Z</time></trkpt><trkpt lat="43.76479" lon="6.3713933"><ele>1233.0</ele><time>2026-05-02T14:21:27.269Z</time></trkpt><trkpt lat="43.764735" lon="6.3713083"><ele>1233.0</ele><time>2026-05-02T14:21:28.269Z</time></trkpt><trkpt lat="43.7646783" lon="6.3712233"><ele>1233.0</ele><time>2026-05-02T14:21:29.27Z</time></trkpt><trkpt lat="43.7646217" lon="6.37114"><ele>1233.0</ele><time>2026-05-02T14:21:30.269Z</time></trkpt><trkpt lat="43.76456" lon="6.3710517"><ele>1231.6</ele><time>2026-05-02T14:21:31.269Z</time></trkpt><trkpt lat="43.7645017" lon="6.3709533"><ele>1230.1999999999998</ele><time>2026-05-02T14:21:32.269Z</time></trkpt><trkpt lat="43.76444" lon="6.3708583"><ele>1228.8</ele><time>2026-05-02T14:21:33.269Z</time></trkpt><trkpt lat="43.7643783" lon="6.370765"><ele>1227.3999999999999</ele><time>2026-05-02T14:21:34.269Z</time></trkpt><trkpt lat="43.764315" lon="6.37067"><ele>1226.0</ele><time>2026-05-02T14:21:35.269Z</time></trkpt><trkpt lat="43.7642517" lon="6.3705767"><ele>1227.8333333333335</ele><time>2026-05-02T14:21:36.269Z</time></trkpt><trkpt lat="43.7642017" lon="6.3705033"><ele>1229.6666666666667</ele><time>2026-05-02T14:21:37.269Z</time></trkpt><trkpt lat="43.7641517" lon="6.3704433"><ele>1231.5</ele><time>2026-05-02T14:21:38.269Z</time></trkpt><trkpt lat="43.7640867" lon="6.3703867"><ele>1233.3333333333333</ele><time>2026-05-02T14:21:39.269Z</time></trkpt><trkpt lat="43.76401" lon="6.370325"><ele>1235.1666666666665</ele><time>2026-05-02T14:21:40.269Z</time></trkpt><trkpt lat="43.7639183" lon="6.3702567"><ele>1237.0</ele><time>2026-05-02T14:21:41.27Z</time></trkpt><trkpt lat="43.7638117" lon="6.370185"><ele>1237.0</ele><time>2026-05-02T14:21:42.269Z</time></trkpt><trkpt lat="43.7637017" lon="6.3701083"><ele>1237.0</ele><time>2026-05-02T14:21:43.269Z</time></trkpt><trkpt lat="43.76358" lon="6.3700267"><ele>1237.0</ele><time>2026-05-02T14:21:44.269Z</time></trkpt><trkpt lat="43.7634567" lon="6.3699417"><ele>1237.0</ele><time>2026-05-02T14:21:45.269Z</time></trkpt><trkpt lat="43.76333" lon="6.3698567"><ele>1239.75</ele><time>2026-05-02T14:21:46.269Z</time></trkpt><trkpt lat="43.7631933" lon="6.3697733"><ele>1242.5</ele><time>2026-05-02T14:21:47.269Z</time></trkpt><trkpt lat="43.76306" lon="6.3696833"><ele>1245.25</ele><time>2026-05-02T14:21:48.269Z</time></trkpt><trkpt lat="43.7629267" lon="6.3695933"><ele>1248.0</ele><time>2026-05-02T14:21:49.269Z</time></trkpt><trkpt lat="43.7627983" lon="6.369505"><ele>1251.25</ele><time>2026-05-02T14:21:50.269Z</time></trkpt><trkpt lat="43.7626817" lon="6.36943"><ele>1254.5</ele><time>2026-05-02T14:21:51.27Z</time></trkpt><trkpt lat="43.7625767" lon="6.3693467"><ele>1257.75</ele><time>2026-05-02T14:21:52.269Z</time></trkpt><trkpt lat="43.7624767" lon="6.3692417"><ele>1261.0</ele><time>2026-05-02T14:21:53.269Z</time></trkpt><trkpt lat="43.762385" lon="6.36912"><ele>1261.0</ele><time>2026-05-02T14:21:54.269Z</time></trkpt><trkpt lat="43.7622983" lon="6.3689733"><ele>1261.0</ele><time>2026-05-02T14:21:55.269Z</time></trkpt><trkpt lat="43.7622033" lon="6.36882"><ele>1261.0</ele><time>2026-05-02T14:21:56.269Z</time></trkpt><trkpt lat="43.7621067" lon="6.3686683"><ele>1261.0</ele><time>2026-05-02T14:21:57.269Z</time></trkpt><trkpt lat="43.7620083" lon="6.368525"><ele>1260.25</ele><time>2026-05-02T14:21:58.269Z</time></trkpt><trkpt lat="43.7619117" lon="6.3683683"><ele>1259.5</ele><time>2026-05-02T14:21:59.269Z</time></trkpt><trkpt lat="43.7618183" lon="6.36822"><ele>1258.75</ele><time>2026-05-02T14:22:00.269Z</time></trkpt><trkpt lat="43.7617267" lon="6.3680583"><ele>1258.0</ele><time>2026-05-02T14:22:01.269Z</time></trkpt><trkpt lat="43.7616283" lon="6.3678967"><ele>1260.75</ele><time>2026-05-02T14:22:02.269Z</time></trkpt><trkpt lat="43.7615417" lon="6.36774"><ele>1263.5</ele><time>2026-05-02T14:22:03.269Z</time></trkpt><trkpt lat="43.7614633" lon="6.3675917"><ele>1266.25</ele><time>2026-05-02T14:22:04.269Z</time></trkpt><trkpt lat="43.7613883" lon="6.3674667"><ele>1269.0</ele><time>2026-05-02T14:22:05.269Z</time></trkpt><trkpt lat="43.7612967" lon="6.3673617"><ele>1269.0</ele><time>2026-05-02T14:22:06.27Z</time></trkpt><trkpt lat="43.7612" lon="6.3672983"><ele>1269.0</ele><time>2026-05-02T14:22:07.269Z</time></trkpt><trkpt lat="43.7611017" lon="6.3672783"><ele>1269.0</ele><time>2026-05-02T14:22:08.269Z</time></trkpt><trkpt lat="43.7609967" lon="6.3672967"><ele>1269.0</ele><time>2026-05-02T14:22:09.269Z</time></trkpt><trkpt lat="43.760905" lon="6.367365"><ele>1269.0</ele><time>2026-05-02T14:22:10.269Z</time></trkpt><trkpt lat="43.76082" lon="6.3674833"><ele>1269.5</ele><time>2026-05-02T14:22:11.269Z</time></trkpt><trkpt lat="43.760765" lon="6.3676567"><ele>1270.0</ele><time>2026-05-02T14:22:12.269Z</time></trkpt><trkpt lat="43.7607433" lon="6.3678483"><ele>1270.5</ele><time>2026-05-02T14:22:13.269Z</time></trkpt><trkpt lat="43.7607283" lon="6.3680433"><ele>1271.0</ele><time>2026-05-02T14:22:14.269Z</time></trkpt><trkpt lat="43.7607133" lon="6.3682483"><ele>1271.0</ele><time>2026-05-02T14:22:15.269Z</time></trkpt><trkpt lat="43.760695" lon="6.3684567"><ele>1271.0</ele><time>2026-05-02T14:22:16.269Z</time></trkpt><trkpt lat="43.7606817" lon="6.3686467"><ele>1271.0</ele><time>2026-05-02T14:22:17.269Z</time></trkpt><trkpt lat="43.7606583" lon="6.3688383"><ele>1271.0</ele><time>2026-05-02T14:22:18.269Z</time></trkpt><trkpt lat="43.7606483" lon="6.369015"><ele>1271.75</ele><time>2026-05-02T14:22:19.27Z</time></trkpt><trkpt lat="43.7606267" lon="6.3691667"><ele>1272.5</ele><time>2026-05-02T14:22:20.269Z</time></trkpt><trkpt lat="43.7606017" lon="6.3693167"><ele>1273.25</ele><time>2026-05-02T14:22:21.269Z</time></trkpt><trkpt lat="43.7605683" lon="6.369465"><ele>1274.0</ele><time>2026-05-02T14:22:22.269Z</time></trkpt><trkpt lat="43.7605217" lon="6.3696133"><ele>1274.4</ele><time>2026-05-02T14:22:23.27Z</time></trkpt><trkpt lat="43.760455" lon="6.3697417"><ele>1274.8000000000002</ele><time>2026-05-02T14:22:24.269Z</time></trkpt><trkpt lat="43.760385" lon="6.3698233"><ele>1275.1999999999998</ele><time>2026-05-02T14:22:25.269Z</time></trkpt><trkpt lat="43.760295" lon="6.36987"><ele>1275.6</ele><time>2026-05-02T14:22:26.269Z</time></trkpt><trkpt lat="43.7601983" lon="6.3698883"><ele>1276.0</ele><time>2026-05-02T14:22:27.269Z</time></trkpt><trkpt lat="43.760105" lon="6.36989"><ele>1277.1999999999998</ele><time>2026-05-02T14:22:28.27Z</time></trkpt><trkpt lat="43.7600183" lon="6.3698817"><ele>1278.3999999999999</ele><time>2026-05-02T14:22:29.269Z</time></trkpt><trkpt lat="43.75995" lon="6.36984"><ele>1279.6</ele><time>2026-05-02T14:22:30.269Z</time></trkpt><trkpt lat="43.7598767" lon="6.3697583"><ele>1280.8</ele><time>2026-05-02T14:22:31.269Z</time></trkpt><trkpt lat="43.7598033" lon="6.3696417"><ele>1282.0</ele><time>2026-05-02T14:22:32.269Z</time></trkpt><trkpt lat="43.7597233" lon="6.36952"><ele>1282.75</ele><time>2026-05-02T14:22:33.269Z</time></trkpt><trkpt lat="43.7596367" lon="6.3694033"><ele>1283.5</ele><time>2026-05-02T14:22:34.269Z</time></trkpt><trkpt lat="43.759555" lon="6.369285"><ele>1284.25</ele><time>2026-05-02T14:22:35.269Z</time></trkpt><trkpt lat="43.7594733" lon="6.369165"><ele>1285.0</ele><time>2026-05-02T14:22:36.269Z</time></trkpt><trkpt lat="43.7594" lon="6.3690367"><ele>1283.75</ele><time>2026-05-02T14:22:37.269Z</time></trkpt><trkpt lat="43.7593117" lon="6.3689133"><ele>1282.5</ele><time>2026-05-02T14:22:38.269Z</time></trkpt><trkpt lat="43.7592183" lon="6.3687733"><ele>1281.25</ele><time>2026-05-02T14:22:39.269Z</time></trkpt><trkpt lat="43.75912" lon="6.3686183"><ele>1280.0</ele><time>2026-05-02T14:22:40.269Z</time></trkpt><trkpt lat="43.7590267" lon="6.3684567"><ele>1283.75</ele><time>2026-05-02T14:22:41.269Z</time></trkpt><trkpt lat="43.7589333" lon="6.3682933"><ele>1287.5</ele><time>2026-05-02T14:22:42.269Z</time></trkpt><trkpt lat="43.7588567" lon="6.3681317"><ele>1291.25</ele><time>2026-05-02T14:22:43.269Z</time></trkpt><trkpt lat="43.7587767" lon="6.367965"><ele>1295.0</ele><time>2026-05-02T14:22:44.269Z</time></trkpt><trkpt lat="43.7587" lon="6.3678117"><ele>1295.0</ele><time>2026-05-02T14:22:45.27Z</time></trkpt><trkpt lat="43.75861" lon="6.367655"><ele>1295.0</ele><time>2026-05-02T14:22:46.269Z</time></trkpt><trkpt lat="43.758535" lon="6.367505"><ele>1295.0</ele><time>2026-05-02T14:22:47.269Z</time></trkpt><trkpt lat="43.758465" lon="6.3673617"><ele>1295.0</ele><time>2026-05-02T14:22:48.269Z</time></trkpt><trkpt lat="43.7583867" lon="6.36722"><ele>1298.25</ele><time>2026-05-02T14:22:49.269Z</time></trkpt><trkpt lat="43.7583167" lon="6.3670867"><ele>1301.5</ele><time>2026-05-02T14:22:50.27Z</time></trkpt><trkpt lat="43.7582533" lon="6.3669467"><ele>1304.75</ele><time>2026-05-02T14:22:51.269Z</time></trkpt><trkpt lat="43.7581967" lon="6.3668"><ele>1308.0</ele><time>2026-05-02T14:22:52.269Z</time></trkpt><trkpt lat="43.758135" lon="6.3666667"><ele>1308.0</ele><time>2026-05-02T14:22:53.269Z</time></trkpt><trkpt lat="43.7580567" lon="6.366545"><ele>1308.0</ele><time>2026-05-02T14:22:54.269Z</time></trkpt><trkpt lat="43.7579717" lon="6.3664383"><ele>1308.0</ele><time>2026-05-02T14:22:55.269Z</time></trkpt><trkpt lat="43.7578733" lon="6.3663617"><ele>1308.0</ele><time>2026-05-02T14:22:56.269Z</time></trkpt><trkpt lat="43.75776" lon="6.3663183"><ele>1309.25</ele><time>2026-05-02T14:22:57.269Z</time></trkpt><trkpt lat="43.7576433" lon="6.3663233"><ele>1310.5</ele><time>2026-05-02T14:22:58.269Z</time></trkpt><trkpt lat="43.7575267" lon="6.3663533"><ele>1311.75</ele><time>2026-05-02T14:22:59.269Z</time></trkpt><trkpt lat="43.7574083" lon="6.36638"><ele>1313.0</ele><time>2026-05-02T14:23:00.269Z</time></trkpt><trkpt lat="43.7572867" lon="6.3663817"><ele>1316.75</ele><time>2026-05-02T14:23:01.269Z</time></trkpt><trkpt lat="43.7571767" lon="6.3663433"><ele>1320.5</ele><time>2026-05-02T14:23:02.269Z</time></trkpt><trkpt lat="43.7570633" lon="6.3662983"><ele>1324.25</ele><time>2026-05-02T14:23:03.269Z</time></trkpt><trkpt lat="43.7569483" lon="6.3662267"><ele>1328.0</ele><time>2026-05-02T14:23:04.269Z</time></trkpt><trkpt lat="43.7568333" lon="6.3661533"><ele>1328.75</ele><time>2026-05-02T14:23:05.269Z</time></trkpt><trkpt lat="43.7567183" lon="6.36608"><ele>1329.5</ele><time>2026-05-02T14:23:06.269Z</time></trkpt><trkpt lat="43.75661" lon="6.3660017"><ele>1330.25</ele><time>2026-05-02T14:23:07.27Z</time></trkpt><trkpt lat="43.7565033" lon="6.3659683"><ele>1331.0</ele><time>2026-05-02T14:23:08.269Z</time></trkpt><trkpt lat="43.7563933" lon="6.3659633"><ele>1331.0</ele><time>2026-05-02T14:23:09.269Z</time></trkpt><trkpt lat="43.7562817" lon="6.3660183"><ele>1331.0</ele><time>2026-05-02T14:23:10.269Z</time></trkpt><trkpt lat="43.7561867" lon="6.36612"><ele>1331.0</ele><time>2026-05-02T14:23:11.269Z</time></trkpt><trkpt lat="43.7561183" lon="6.3662633"><ele>1331.0</ele><time>2026-05-02T14:23:12.27Z</time></trkpt><trkpt lat="43.75608" lon="6.3664183"><ele>1326.75</ele><time>2026-05-02T14:23:13.269Z</time></trkpt><trkpt lat="43.7560783" lon="6.366595"><ele>1322.5</ele><time>2026-05-02T14:23:14.269Z</time></trkpt><trkpt lat="43.756105" lon="6.3667817"><ele>1318.25</ele><time>2026-05-02T14:23:15.269Z</time></trkpt><trkpt lat="43.75613" lon="6.36697"><ele>1314.0</ele><time>2026-05-02T14:23:16.269Z</time></trkpt><trkpt lat="43.7561583" lon="6.36713"><ele>1310.8000000000002</ele><time>2026-05-02T14:23:17.269Z</time></trkpt><trkpt lat="43.7561617" lon="6.3672867"><ele>1307.6000000000001</ele><time>2026-05-02T14:23:18.269Z</time></trkpt><trkpt lat="43.7561617" lon="6.3674417"><ele>1304.4</ele><time>2026-05-02T14:23:19.269Z</time></trkpt><trkpt lat="43.756155" lon="6.36758"><ele>1301.2</ele><time>2026-05-02T14:23:20.27Z</time></trkpt><trkpt lat="43.7561317" lon="6.367725"><ele>1298.0</ele><time>2026-05-02T14:23:21.269Z</time></trkpt><trkpt lat="43.7560833" lon="6.3678483"><ele>1299.5</ele><time>2026-05-02T14:23:22.269Z</time></trkpt><trkpt lat="43.7560117" lon="6.3679767"><ele>1301.0</ele><time>2026-05-02T14:23:23.269Z</time></trkpt><trkpt lat="43.7559267" lon="6.36809"><ele>1302.5</ele><time>2026-05-02T14:23:24.27Z</time></trkpt><trkpt lat="43.75585" lon="6.3681917"><ele>1304.0</ele><time>2026-05-02T14:23:25.27Z</time></trkpt><trkpt lat="43.7557533" lon="6.3682683"><ele>1304.0</ele><time>2026-05-02T14:23:26.269Z</time></trkpt><trkpt lat="43.7556517" lon="6.36832"><ele>1304.0</ele><time>2026-05-02T14:23:27.27Z</time></trkpt><trkpt lat="43.7555467" lon="6.368345"><ele>1304.0</ele><time>2026-05-02T14:23:28.269Z</time></trkpt><trkpt lat="43.7554517" lon="6.3683467"><ele>1304.0</ele><time>2026-05-02T14:23:29.269Z</time></trkpt><trkpt lat="43.7553617" lon="6.3683367"><ele>1304.0</ele><time>2026-05-02T14:23:30.269Z</time></trkpt><trkpt lat="43.755275" lon="6.3683"><ele>1303.6</ele><time>2026-05-02T14:23:31.269Z</time></trkpt><trkpt lat="43.7551933" lon="6.3682317"><ele>1303.2</ele><time>2026-05-02T14:23:32.269Z</time></trkpt><trkpt lat="43.75512" lon="6.3681417"><ele>1302.8</ele><time>2026-05-02T14:23:33.269Z</time></trkpt><trkpt lat="43.7550483" lon="6.3680467"><ele>1302.3999999999999</ele><time>2026-05-02T14:23:34.27Z</time></trkpt><trkpt lat="43.7549783" lon="6.367955"><ele>1302.0</ele><time>2026-05-02T14:23:35.27Z</time></trkpt><trkpt lat="43.754895" lon="6.3678617"><ele>1302.0</ele><time>2026-05-02T14:23:36.269Z</time></trkpt><trkpt lat="43.7548083" lon="6.3677733"><ele>1302.0</ele><time>2026-05-02T14:23:37.269Z</time></trkpt><trkpt lat="43.7547333" lon="6.3676683"><ele>1302.0</ele><time>2026-05-02T14:23:38.269Z</time></trkpt><trkpt lat="43.7546567" lon="6.3675617"><ele>1302.0</ele><time>2026-05-02T14:23:39.269Z</time></trkpt><trkpt lat="43.7545867" lon="6.3674467"><ele>1302.0</ele><time>2026-05-02T14:23:40.269Z</time></trkpt><trkpt lat="43.75451" lon="6.3673283"><ele>1302.0</ele><time>2026-05-02T14:23:41.269Z</time></trkpt><trkpt lat="43.75444" lon="6.3672133"><ele>1302.0</ele><time>2026-05-02T14:23:42.27Z</time></trkpt><trkpt lat="43.75438" lon="6.367085"><ele>1302.0</ele><time>2026-05-02T14:23:43.27Z</time></trkpt><trkpt lat="43.7543367" lon="6.3669483"><ele>1302.0</ele><time>2026-05-02T14:23:44.269Z</time></trkpt><trkpt lat="43.7542883" lon="6.366815"><ele>1302.0</ele><time>2026-05-02T14:23:45.269Z</time></trkpt><trkpt lat="43.7542483" lon="6.3666867"><ele>1302.3999999999999</ele><time>2026-05-02T14:23:46.269Z</time></trkpt><trkpt lat="43.754185" lon="6.36657"><ele>1302.8</ele><time>2026-05-02T14:23:47.269Z</time></trkpt><trkpt lat="43.7541283" lon="6.3664617"><ele>1303.2</ele><time>2026-05-02T14:23:48.269Z</time></trkpt><trkpt lat="43.75407" lon="6.3663633"><ele>1303.6</ele><time>2026-05-02T14:23:49.269Z</time></trkpt><trkpt lat="43.7540133" lon="6.3662917"><ele>1304.0</ele><time>2026-05-02T14:23:50.269Z</time></trkpt><trkpt lat="43.753945" lon="6.366235"><ele>1304.0</ele><time>2026-05-02T14:23:51.269Z</time></trkpt><trkpt lat="43.7538433" lon="6.3662467"><ele>1304.0</ele><time>2026-05-02T14:23:53.269Z</time></trkpt><trkpt lat="43.7538317" lon="6.366425"><ele>1304.0</ele><time>2026-05-02T14:23:55.269Z</time></trkpt><trkpt lat="43.7538833" lon="6.3665617"><ele>1304.0</ele><time>2026-05-02T14:23:56.27Z</time></trkpt><trkpt lat="43.75395" lon="6.3666833"><ele>1299.75</ele><time>2026-05-02T14:23:57.269Z</time></trkpt><trkpt lat="43.7540183" lon="6.3668283"><ele>1295.5</ele><time>2026-05-02T14:23:58.269Z</time></trkpt><trkpt lat="43.754075" lon="6.3669783"><ele>1291.25</ele><time>2026-05-02T14:23:59.269Z</time></trkpt><trkpt lat="43.7541133" lon="6.36713"><ele>1287.0</ele><time>2026-05-02T14:24:00.269Z</time></trkpt><trkpt lat="43.75414" lon="6.3672783"><ele>1283.3999999999999</ele><time>2026-05-02T14:24:01.269Z</time></trkpt><trkpt lat="43.75416" lon="6.36742"><ele>1279.8</ele><time>2026-05-02T14:24:02.269Z</time></trkpt><trkpt lat="43.7541867" lon="6.3675733"><ele>1276.2</ele><time>2026-05-02T14:24:03.269Z</time></trkpt><trkpt lat="43.7542167" lon="6.3677233"><ele>1272.6</ele><time>2026-05-02T14:24:04.269Z</time></trkpt><trkpt lat="43.75424" lon="6.367875"><ele>1269.0</ele><time>2026-05-02T14:24:05.269Z</time></trkpt><trkpt lat="43.7542733" lon="6.3680333"><ele>1265.0</ele><time>2026-05-02T14:24:06.269Z</time></trkpt><trkpt lat="43.7543083" lon="6.3681983"><ele>1261.0</ele><time>2026-05-02T14:24:07.269Z</time></trkpt><trkpt lat="43.7543517" lon="6.3683583"><ele>1257.0</ele><time>2026-05-02T14:24:08.269Z</time></trkpt><trkpt lat="43.7543967" lon="6.3685167"><ele>1253.0</ele><time>2026-05-02T14:24:09.27Z</time></trkpt><trkpt lat="43.75446" lon="6.3686667"><ele>1256.75</ele><time>2026-05-02T14:24:10.27Z</time></trkpt><trkpt lat="43.75453" lon="6.3688083"><ele>1260.5</ele><time>2026-05-02T14:24:11.269Z</time></trkpt><trkpt lat="43.7546017" lon="6.3689533"><ele>1264.25</ele><time>2026-05-02T14:24:12.269Z</time></trkpt><trkpt lat="43.754675" lon="6.3690817"><ele>1268.0</ele><time>2026-05-02T14:24:13.269Z</time></trkpt><trkpt lat="43.7547483" lon="6.3692033"><ele>1268.0</ele><time>2026-05-02T14:24:14.269Z</time></trkpt><trkpt lat="43.7548283" lon="6.36933"><ele>1268.0</ele><time>2026-05-02T14:24:15.269Z</time></trkpt><trkpt lat="43.7549083" lon="6.369445"><ele>1268.0</ele><time>2026-05-02T14:24:16.269Z</time></trkpt><trkpt lat="43.754995" lon="6.36955"><ele>1268.0</ele><time>2026-05-02T14:24:17.269Z</time></trkpt><trkpt lat="43.7550883" lon="6.3696317"><ele>1268.0</ele><time>2026-05-02T14:24:18.269Z</time></trkpt><trkpt lat="43.755175" lon="6.369685"><ele>1268.0</ele><time>2026-05-02T14:24:19.269Z</time></trkpt><trkpt lat="43.75526" lon="6.3697167"><ele>1268.0</ele><time>2026-05-02T14:24:20.269Z</time></trkpt><trkpt lat="43.7553367" lon="6.369735"><ele>1268.0</ele><time>2026-05-02T14:24:21.27Z</time></trkpt><trkpt lat="43.75541" lon="6.3697467"><ele>1268.0</ele><time>2026-05-02T14:24:22.27Z</time></trkpt><trkpt lat="43.7555117" lon="6.3698017"><ele>1268.0</ele><time>2026-05-02T14:24:24.269Z</time></trkpt><trkpt lat="43.7555533" lon="6.36991"><ele>1264.8333333333335</ele><time>2026-05-02T14:24:27.269Z</time></trkpt><trkpt lat="43.755555" lon="6.3700133"><ele>1261.6666666666667</ele><time>2026-05-02T14:24:30.269Z</time></trkpt><trkpt lat="43.7555133" lon="6.37008"><ele>1258.5</ele><time>2026-05-02T14:24:33.269Z</time></trkpt><trkpt lat="43.7554483" lon="6.370035"><ele>1255.3333333333333</ele><time>2026-05-02T14:35:41.268Z</time></trkpt><trkpt lat="43.7553833" lon="6.3700133"><ele>1252.1666666666665</ele><time>2026-05-02T14:35:42.268Z</time></trkpt><trkpt lat="43.7552917" lon="6.3699733"><ele>1249.0</ele><time>2026-05-02T14:35:43.268Z</time></trkpt><trkpt lat="43.7551867" lon="6.36992"><ele>1248.0</ele><time>2026-05-02T14:35:44.268Z</time></trkpt><trkpt lat="43.7550767" lon="6.3698617"><ele>1247.0</ele><time>2026-05-02T14:35:45.268Z</time></trkpt><trkpt lat="43.754965" lon="6.3697967"><ele>1246.0</ele><time>2026-05-02T14:35:46.268Z</time></trkpt><trkpt lat="43.75488" lon="6.3697367"><ele>1245.0</ele><time>2026-05-02T14:35:47.268Z</time></trkpt><trkpt lat="43.7547933" lon="6.3696667"><ele>1244.0</ele><time>2026-05-02T14:35:48.268Z</time></trkpt><trkpt lat="43.754705" lon="6.3695833"><ele>1242.5</ele><time>2026-05-02T14:35:49.269Z</time></trkpt><trkpt lat="43.7546183" lon="6.369485"><ele>1241.0</ele><time>2026-05-02T14:35:50.269Z</time></trkpt><trkpt lat="43.7545267" lon="6.3693617"><ele>1239.5</ele><time>2026-05-02T14:35:51.268Z</time></trkpt><trkpt lat="43.75443" lon="6.3692367"><ele>1238.0</ele><time>2026-05-02T14:35:52.269Z</time></trkpt><trkpt lat="43.7543433" lon="6.3691067"><ele>1238.0</ele><time>2026-05-02T14:35:53.268Z</time></trkpt><trkpt lat="43.7542533" lon="6.3689833"><ele>1238.0</ele><time>2026-05-02T14:35:54.268Z</time></trkpt><trkpt lat="43.75416" lon="6.3688617"><ele>1238.0</ele><time>2026-05-02T14:35:55.269Z</time></trkpt><trkpt lat="43.754075" lon="6.3687433"><ele>1238.0</ele><time>2026-05-02T14:35:56.268Z</time></trkpt><trkpt lat="43.754" lon="6.3686267"><ele>1241.0</ele><time>2026-05-02T14:35:57.269Z</time></trkpt><trkpt lat="43.753935" lon="6.3685"><ele>1244.0</ele><time>2026-05-02T14:35:58.268Z</time></trkpt><trkpt lat="43.7538783" lon="6.3683767"><ele>1247.0</ele><time>2026-05-02T14:35:59.268Z</time></trkpt><trkpt lat="43.7538283" lon="6.3682417"><ele>1250.0</ele><time>2026-05-02T14:36:00.268Z</time></trkpt><trkpt lat="43.7537817" lon="6.3681033"><ele>1253.0</ele><time>2026-05-02T14:36:01.268Z</time></trkpt><trkpt lat="43.753745" lon="6.3679533"><ele>1256.2</ele><time>2026-05-02T14:36:02.268Z</time></trkpt><trkpt lat="43.7537133" lon="6.3678117"><ele>1259.4</ele><time>2026-05-02T14:36:03.268Z</time></trkpt><trkpt lat="43.7536883" lon="6.367675"><ele>1262.6000000000001</ele><time>2026-05-02T14:36:04.268Z</time></trkpt><trkpt lat="43.7536333" lon="6.3675667"><ele>1265.8</ele><time>2026-05-02T14:36:05.268Z</time></trkpt><trkpt lat="43.753565" lon="6.3674817"><ele>1269.0</ele><time>2026-05-02T14:36:06.268Z</time></trkpt><trkpt lat="43.7534717" lon="6.3674333"><ele>1265.8</ele><time>2026-05-02T14:36:07.268Z</time></trkpt><trkpt lat="43.7533717" lon="6.3674017"><ele>1262.6000000000001</ele><time>2026-05-02T14:36:08.268Z</time></trkpt><trkpt lat="43.7532767" lon="6.367365"><ele>1259.4</ele><time>2026-05-02T14:36:09.268Z</time></trkpt><trkpt lat="43.7531817" lon="6.3672983"><ele>1256.2</ele><time>2026-05-02T14:36:10.268Z</time></trkpt><trkpt lat="43.7530967" lon="6.367225"><ele>1253.0</ele><time>2026-05-02T14:36:11.268Z</time></trkpt><trkpt lat="43.753035" lon="6.3671233"><ele>1253.0</ele><time>2026-05-02T14:36:12.268Z</time></trkpt><trkpt lat="43.7529833" lon="6.3670033"><ele>1253.0</ele><time>2026-05-02T14:36:13.268Z</time></trkpt><trkpt lat="43.7529417" lon="6.3668767"><ele>1253.0</ele><time>2026-05-02T14:36:14.268Z</time></trkpt><trkpt lat="43.7528933" lon="6.3667383"><ele>1253.0</ele><time>2026-05-02T14:36:15.268Z</time></trkpt><trkpt lat="43.7528433" lon="6.3665967"><ele>1253.0</ele><time>2026-05-02T14:36:16.269Z</time></trkpt><trkpt lat="43.75278" lon="6.36647"><ele>1248.0</ele><time>2026-05-02T14:36:17.269Z</time></trkpt><trkpt lat="43.752715" lon="6.3663267"><ele>1243.0</ele><time>2026-05-02T14:36:18.268Z</time></trkpt><trkpt lat="43.75265" lon="6.3661917"><ele>1238.0</ele><time>2026-05-02T14:36:19.267Z</time></trkpt><trkpt lat="43.7525717" lon="6.3660483"><ele>1233.0</ele><time>2026-05-02T14:36:20.267Z</time></trkpt><trkpt lat="43.75248" lon="6.36592"><ele>1233.0</ele><time>2026-05-02T14:36:21.267Z</time></trkpt><trkpt lat="43.7523817" lon="6.3657983"><ele>1233.0</ele><time>2026-05-02T14:36:22.267Z</time></trkpt><trkpt lat="43.75229" lon="6.36568"><ele>1233.0</ele><time>2026-05-02T14:36:23.267Z</time></trkpt><trkpt lat="43.75219" lon="6.3655633"><ele>1233.0</ele><time>2026-05-02T14:36:24.267Z</time></trkpt><trkpt lat="43.7520933" lon="6.36546"><ele>1230.25</ele><time>2026-05-02T14:36:25.267Z</time></trkpt><trkpt lat="43.7519967" lon="6.3653517"><ele>1227.5</ele><time>2026-05-02T14:36:26.267Z</time></trkpt><trkpt lat="43.7519017" lon="6.36523"><ele>1224.75</ele><time>2026-05-02T14:36:27.267Z</time></trkpt><trkpt lat="43.75181" lon="6.365105"><ele>1222.0</ele><time>2026-05-02T14:36:28.267Z</time></trkpt><trkpt lat="43.751715" lon="6.3649817"><ele>1222.0</ele><time>2026-05-02T14:36:29.267Z</time></trkpt><trkpt lat="43.7516217" lon="6.3648733"><ele>1222.0</ele><time>2026-05-02T14:36:30.267Z</time></trkpt><trkpt lat="43.75153" lon="6.3647733"><ele>1222.0</ele><time>2026-05-02T14:36:31.267Z</time></trkpt><trkpt lat="43.751445" lon="6.36468"><ele>1222.0</ele><time>2026-05-02T14:36:32.267Z</time></trkpt><trkpt lat="43.7513617" lon="6.3645783"><ele>1219.25</ele><time>2026-05-02T14:36:33.267Z</time></trkpt><trkpt lat="43.7512767" lon="6.3644783"><ele>1216.5</ele><time>2026-05-02T14:36:34.267Z</time></trkpt><trkpt lat="43.7511867" lon="6.36438"><ele>1213.75</ele><time>2026-05-02T14:36:35.267Z</time></trkpt><trkpt lat="43.751075" lon="6.3642883"><ele>1211.0</ele><time>2026-05-02T14:36:36.267Z</time></trkpt><trkpt lat="43.750925" lon="6.3641067"><ele>1211.0</ele><time>2026-05-02T14:36:38.274Z</time></trkpt><trkpt lat="43.75088" lon="6.3639817"><ele>1211.0</ele><time>2026-05-02T14:36:39.274Z</time></trkpt><trkpt lat="43.750895" lon="6.3636667"><ele>1211.0</ele><time>2026-05-02T14:36:40.274Z</time></trkpt><trkpt lat="43.7508133" lon="6.3636367"><ele>1211.0</ele><time>2026-05-02T14:36:41.275Z</time></trkpt><trkpt lat="43.7507283" lon="6.3636283"><ele>1214.8333333333335</ele><time>2026-05-02T14:36:42.275Z</time></trkpt><trkpt lat="43.750635" lon="6.3636467"><ele>1218.6666666666667</ele><time>2026-05-02T14:36:43.274Z</time></trkpt><trkpt lat="43.7505217" lon="6.36367"><ele>1222.5</ele><time>2026-05-02T14:36:45.274Z</time></trkpt><trkpt lat="43.7504483" lon="6.363655"><ele>1226.3333333333333</ele><time>2026-05-02T14:36:47.274Z</time></trkpt><trkpt lat="43.7503833" lon="6.3636667"><ele>1230.1666666666665</ele><time>2026-05-02T14:36:50.274Z</time></trkpt><trkpt lat="43.7503367" lon="6.3635817"><ele>1234.0</ele><time>2026-05-02T14:40:19.274Z</time></trkpt><trkpt lat="43.7503083" lon="6.3634767"><ele>1234.0</ele><time>2026-05-02T14:40:21.274Z</time></trkpt><trkpt lat="43.7502733" lon="6.3634"><ele>1234.0</ele><time>2026-05-02T14:40:22.274Z</time></trkpt><trkpt lat="43.75023" lon="6.3633267"><ele>1234.0</ele><time>2026-05-02T14:40:23.274Z</time></trkpt><trkpt lat="43.7501883" lon="6.3632417"><ele>1234.0</ele><time>2026-05-02T14:40:24.274Z</time></trkpt><trkpt lat="43.750145" lon="6.3631533"><ele>1234.0</ele><time>2026-05-02T14:40:25.274Z</time></trkpt><trkpt lat="43.7501083" lon="6.3630633"><ele>1234.0</ele><time>2026-05-02T14:40:26.274Z</time></trkpt><trkpt lat="43.7500867" lon="6.3629583"><ele>1234.0</ele><time>2026-05-02T14:40:27.274Z</time></trkpt><trkpt lat="43.7500667" lon="6.3628533"><ele>1233.0</ele><time>2026-05-02T14:40:28.274Z</time></trkpt><trkpt lat="43.7500467" lon="6.362735"><ele>1232.0</ele><time>2026-05-02T14:40:29.274Z</time></trkpt><trkpt lat="43.7500417" lon="6.362615"><ele>1231.0</ele><time>2026-05-02T14:40:30.274Z</time></trkpt><trkpt lat="43.7500333" lon="6.362505"><ele>1230.0</ele><time>2026-05-02T14:40:31.275Z</time></trkpt><trkpt lat="43.7500267" lon="6.3624"><ele>1229.0</ele><time>2026-05-02T14:40:32.274Z</time></trkpt><trkpt lat="43.7500167" lon="6.3622967"><ele>1228.0</ele><time>2026-05-02T14:40:33.274Z</time></trkpt><trkpt lat="43.7499917" lon="6.3621917"><ele>1230.8333333333333</ele><time>2026-05-02T14:40:34.274Z</time></trkpt><trkpt lat="43.7499517" lon="6.3620883"><ele>1233.6666666666665</ele><time>2026-05-02T14:40:35.274Z</time></trkpt><trkpt lat="43.749905" lon="6.361985"><ele>1236.5</ele><time>2026-05-02T14:40:36.275Z</time></trkpt><trkpt lat="43.749865" lon="6.36188"><ele>1239.3333333333333</ele><time>2026-05-02T14:40:37.275Z</time></trkpt><trkpt lat="43.74982" lon="6.3617717"><ele>1242.1666666666667</ele><time>2026-05-02T14:40:38.274Z</time></trkpt><trkpt lat="43.74978" lon="6.3616667"><ele>1245.0</ele><time>2026-05-02T14:40:39.274Z</time></trkpt><trkpt lat="43.7497433" lon="6.36155"><ele>1245.0</ele><time>2026-05-02T14:40:40.274Z</time></trkpt><trkpt lat="43.7497033" lon="6.36144"><ele>1245.0</ele><time>2026-05-02T14:40:41.275Z</time></trkpt><trkpt lat="43.7495967" lon="6.3611967"><ele>1245.0</ele><time>2026-05-02T14:40:43.276Z</time></trkpt><trkpt lat="43.7495783" lon="6.3610783"><ele>1245.0</ele><time>2026-05-02T14:40:44.277Z</time></trkpt><trkpt lat="43.7495333" lon="6.3609433"><ele>1245.0</ele><time>2026-05-02T14:40:45.276Z</time></trkpt><trkpt lat="43.74948" lon="6.3607383"><ele>1245.0</ele><time>2026-05-02T14:40:46.276Z</time></trkpt><trkpt lat="43.74944" lon="6.3605867"><ele>1245.0</ele><time>2026-05-02T14:40:47.277Z</time></trkpt><trkpt lat="43.7494183" lon="6.360455"><ele>1245.0</ele><time>2026-05-02T14:40:48.276Z</time></trkpt><trkpt lat="43.7494017" lon="6.360335"><ele>1245.0</ele><time>2026-05-02T14:40:49.276Z</time></trkpt><trkpt lat="43.74939" lon="6.3602033"><ele>1245.0</ele><time>2026-05-02T14:40:50.276Z</time></trkpt><trkpt lat="43.7494017" lon="6.3600783"><ele>1245.0</ele><time>2026-05-02T14:40:51.276Z</time></trkpt><trkpt lat="43.7494183" lon="6.3599517"><ele>1245.0</ele><time>2026-05-02T14:40:52.276Z</time></trkpt><trkpt lat="43.7494133" lon="6.3598233"><ele>1245.0</ele><time>2026-05-02T14:40:53.276Z</time></trkpt><trkpt lat="43.749385" lon="6.3596983"><ele>1232.6</ele><time>2026-05-02T14:40:54.276Z</time></trkpt><trkpt lat="43.7493367" lon="6.35958"><ele>1220.2</ele><time>2026-05-02T14:40:55.276Z</time></trkpt><trkpt lat="43.7492783" lon="6.359475"><ele>1207.8</ele><time>2026-05-02T14:40:56.276Z</time></trkpt><trkpt lat="43.7491983" lon="6.359395"><ele>1195.4</ele><time>2026-05-02T14:40:57.276Z</time></trkpt><trkpt lat="43.7491033" lon="6.3593433"><ele>1183.0</ele><time>2026-05-02T14:40:58.277Z</time></trkpt><trkpt lat="43.7489967" lon="6.3593083"><ele>1183.0</ele><time>2026-05-02T14:40:59.277Z</time></trkpt><trkpt lat="43.7488867" lon="6.3592817"><ele>1183.0</ele><time>2026-05-02T14:41:00.276Z</time></trkpt><trkpt lat="43.74878" lon="6.3592517"><ele>1183.0</ele><time>2026-05-02T14:41:01.276Z</time></trkpt><trkpt lat="43.7486817" lon="6.3592067"><ele>1183.0</ele><time>2026-05-02T14:41:02.276Z</time></trkpt><trkpt lat="43.748595" lon="6.35914"><ele>1183.0</ele><time>2026-05-02T14:41:03.276Z</time></trkpt><trkpt lat="43.7485217" lon="6.3590467"><ele>1179.4</ele><time>2026-05-02T14:41:04.276Z</time></trkpt><trkpt lat="43.7484583" lon="6.35893"><ele>1175.8</ele><time>2026-05-02T14:41:05.276Z</time></trkpt><trkpt lat="43.7483817" lon="6.3588167"><ele>1172.2</ele><time>2026-05-02T14:41:06.277Z</time></trkpt><trkpt lat="43.7483017" lon="6.3587167"><ele>1168.6</ele><time>2026-05-02T14:41:07.276Z</time></trkpt><trkpt lat="43.7482183" lon="6.358615"><ele>1165.0</ele><time>2026-05-02T14:41:08.276Z</time></trkpt><trkpt lat="43.74814" lon="6.3585117"><ele>1165.0</ele><time>2026-05-02T14:41:09.276Z</time></trkpt><trkpt lat="43.7480583" lon="6.35841"><ele>1165.0</ele><time>2026-05-02T14:41:10.276Z</time></trkpt><trkpt lat="43.7479883" lon="6.3583033"><ele>1165.0</ele><time>2026-05-02T14:41:11.276Z</time></trkpt><trkpt lat="43.7479367" lon="6.35819"><ele>1165.0</ele><time>2026-05-02T14:41:12.277Z</time></trkpt><trkpt lat="43.7478917" lon="6.3580717"><ele>1165.0</ele><time>2026-05-02T14:41:13.276Z</time></trkpt><trkpt lat="43.7478567" lon="6.357935"><ele>1158.6</ele><time>2026-05-02T14:41:14.277Z</time></trkpt><trkpt lat="43.7478417" lon="6.3577833"><ele>1152.2</ele><time>2026-05-02T14:41:15.276Z</time></trkpt><trkpt lat="43.7478267" lon="6.357645"><ele>1145.8</ele><time>2026-05-02T14:41:16.276Z</time></trkpt><trkpt lat="43.7477983" lon="6.3574967"><ele>1139.4</ele><time>2026-05-02T14:41:17.276Z</time></trkpt><trkpt lat="43.7477533" lon="6.3573467"><ele>1133.0</ele><time>2026-05-02T14:41:18.276Z</time></trkpt><trkpt lat="43.7477" lon="6.3571883"><ele>1133.0</ele><time>2026-05-02T14:41:19.276Z</time></trkpt><trkpt lat="43.74765" lon="6.3570433"><ele>1133.0</ele><time>2026-05-02T14:41:20.276Z</time></trkpt><trkpt lat="43.747605" lon="6.3568867"><ele>1133.0</ele><time>2026-05-02T14:41:21.276Z</time></trkpt><trkpt lat="43.7475783" lon="6.356745"><ele>1133.0</ele><time>2026-05-02T14:41:22.276Z</time></trkpt><trkpt lat="43.74755" lon="6.3565933"><ele>1133.0</ele><time>2026-05-02T14:41:23.276Z</time></trkpt><trkpt lat="43.7475233" lon="6.35645"><ele>1133.0</ele><time>2026-05-02T14:41:24.277Z</time></trkpt><trkpt lat="43.7475167" lon="6.356305"><ele>1133.0</ele><time>2026-05-02T14:41:25.276Z</time></trkpt><trkpt lat="43.7475367" lon="6.3561417"><ele>1133.0</ele><time>2026-05-02T14:41:26.276Z</time></trkpt><trkpt lat="43.7475717" lon="6.3559767"><ele>1131.2</ele><time>2026-05-02T14:41:27.277Z</time></trkpt><trkpt lat="43.7476067" lon="6.3558167"><ele>1129.4</ele><time>2026-05-02T14:41:28.276Z</time></trkpt><trkpt lat="43.7476433" lon="6.3556867"><ele>1127.6000000000001</ele><time>2026-05-02T14:41:29.276Z</time></trkpt><trkpt lat="43.7476933" lon="6.3555683"><ele>1125.8</ele><time>2026-05-02T14:41:30.276Z</time></trkpt><trkpt lat="43.7477517" lon="6.3554533"><ele>1124.0</ele><time>2026-05-02T14:41:31.276Z</time></trkpt><trkpt lat="43.7478183" lon="6.3553367"><ele>1123.8</ele><time>2026-05-02T14:41:32.276Z</time></trkpt><trkpt lat="43.7478983" lon="6.3552283"><ele>1123.6000000000001</ele><time>2026-05-02T14:41:33.276Z</time></trkpt><trkpt lat="43.7479683" lon="6.3551217"><ele>1123.4</ele><time>2026-05-02T14:41:34.276Z</time></trkpt><trkpt lat="43.7480283" lon="6.3550367"><ele>1123.2</ele><time>2026-05-02T14:41:35.276Z</time></trkpt><trkpt lat="43.7480933" lon="6.3549617"><ele>1123.0</ele><time>2026-05-02T14:41:36.276Z</time></trkpt><trkpt lat="43.7481717" lon="6.3549183"><ele>1123.0</ele><time>2026-05-02T14:41:37.276Z</time></trkpt><trkpt lat="43.7482433" lon="6.3548733"><ele>1123.0</ele><time>2026-05-02T14:41:38.277Z</time></trkpt><trkpt lat="43.7483283" lon="6.354845"><ele>1123.0</ele><time>2026-05-02T14:41:39.277Z</time></trkpt><trkpt lat="43.74842" lon="6.3548233"><ele>1123.0</ele><time>2026-05-02T14:41:40.276Z</time></trkpt><trkpt lat="43.7485117" lon="6.3547967"><ele>1123.0</ele><time>2026-05-02T14:41:41.276Z</time></trkpt><trkpt lat="43.7486033" lon="6.354765"><ele>1123.0</ele><time>2026-05-02T14:41:42.276Z</time></trkpt><trkpt lat="43.7486917" lon="6.3547433"><ele>1121.8333333333333</ele><time>2026-05-02T14:41:43.276Z</time></trkpt><trkpt lat="43.7487683" lon="6.3547383"><ele>1120.6666666666665</ele><time>2026-05-02T14:41:44.276Z</time></trkpt><trkpt lat="43.7488333" lon="6.3547217"><ele>1119.5</ele><time>2026-05-02T14:41:45.276Z</time></trkpt><trkpt lat="43.7489267" lon="6.35465"><ele>1118.3333333333333</ele><time>2026-05-02T14:41:47.276Z</time></trkpt><trkpt lat="43.74898" lon="6.3545683"><ele>1117.1666666666667</ele><time>2026-05-02T14:41:49.276Z</time></trkpt><trkpt lat="43.7490267" lon="6.3544867"><ele>1116.0</ele><time>2026-05-02T14:41:51.276Z</time></trkpt><trkpt lat="43.7490617" lon="6.3544067"><ele>1116.0</ele><time>2026-05-02T14:41:53.276Z</time></trkpt><trkpt lat="43.7490417" lon="6.3543017"><ele>1116.0</ele><time>2026-05-02T14:41:57.276Z</time></trkpt><trkpt lat="43.748975" lon="6.354255"><ele>1116.0</ele><time>2026-05-02T14:45:27.275Z</time></trkpt><trkpt lat="43.74889" lon="6.3543533"><ele>1116.0</ele><time>2026-05-02T14:45:30.275Z</time></trkpt><trkpt lat="43.7488383" lon="6.3544083"><ele>1116.0</ele><time>2026-05-02T14:45:31.276Z</time></trkpt><trkpt lat="43.7487683" lon="6.3544617"><ele>1116.0</ele><time>2026-05-02T14:45:32.275Z</time></trkpt><trkpt lat="43.74869" lon="6.3545083"><ele>1116.0</ele><time>2026-05-02T14:45:33.275Z</time></trkpt><trkpt lat="43.7486083" lon="6.3545267"><ele>1116.0</ele><time>2026-05-02T14:45:34.275Z</time></trkpt><trkpt lat="43.7485283" lon="6.3545267"><ele>1116.0</ele><time>2026-05-02T14:45:35.275Z</time></trkpt><trkpt lat="43.7484467" lon="6.3545283"><ele>1116.0</ele><time>2026-05-02T14:45:36.275Z</time></trkpt><trkpt lat="43.748365" lon="6.3545317"><ele>1116.0</ele><time>2026-05-02T14:45:37.275Z</time></trkpt><trkpt lat="43.74828" lon="6.3545383"><ele>1116.0</ele><time>2026-05-02T14:45:38.275Z</time></trkpt><trkpt lat="43.7481883" lon="6.3545367"><ele>1110.2</ele><time>2026-05-02T14:45:39.276Z</time></trkpt><trkpt lat="43.748095" lon="6.3545417"><ele>1104.3999999999999</ele><time>2026-05-02T14:45:40.275Z</time></trkpt><trkpt lat="43.7480067" lon="6.3545583"><ele>1098.6</ele><time>2026-05-02T14:45:41.275Z</time></trkpt><trkpt lat="43.7479183" lon="6.3545867"><ele>1092.8</ele><time>2026-05-02T14:45:42.276Z</time></trkpt><trkpt lat="43.747835" lon="6.354635"><ele>1087.0</ele><time>2026-05-02T14:45:43.275Z</time></trkpt><trkpt lat="43.7477517" lon="6.354695"><ele>1089.6</ele><time>2026-05-02T14:45:44.275Z</time></trkpt><trkpt lat="43.7476617" lon="6.3547617"><ele>1092.2</ele><time>2026-05-02T14:45:45.275Z</time></trkpt><trkpt lat="43.7475767" lon="6.3548317"><ele>1094.8</ele><time>2026-05-02T14:45:46.275Z</time></trkpt><trkpt lat="43.747495" lon="6.35491"><ele>1097.4</ele><time>2026-05-02T14:45:47.275Z</time></trkpt><trkpt lat="43.7474117" lon="6.35499"><ele>1100.0</ele><time>2026-05-02T14:45:48.275Z</time></trkpt><trkpt lat="43.7473367" lon="6.3550733"><ele>1100.0</ele><time>2026-05-02T14:45:49.275Z</time></trkpt><trkpt lat="43.7472617" lon="6.355155"><ele>1100.0</ele><time>2026-05-02T14:45:50.275Z</time></trkpt><trkpt lat="43.7471883" lon="6.355245"><ele>1100.0</ele><time>2026-05-02T14:45:51.276Z</time></trkpt><trkpt lat="43.7471233" lon="6.3553517"><ele>1100.0</ele><time>2026-05-02T14:45:52.275Z</time></trkpt><trkpt lat="43.7470683" lon="6.3554583"><ele>1100.0</ele><time>2026-05-02T14:45:53.275Z</time></trkpt><trkpt lat="43.7470317" lon="6.3555833"><ele>1104.0</ele><time>2026-05-02T14:45:54.275Z</time></trkpt><trkpt lat="43.7470217" lon="6.3557117"><ele>1108.0</ele><time>2026-05-02T14:45:55.275Z</time></trkpt><trkpt lat="43.7470233" lon="6.35584"><ele>1112.0</ele><time>2026-05-02T14:45:56.275Z</time></trkpt><trkpt lat="43.7470317" lon="6.3559483"><ele>1116.0</ele><time>2026-05-02T14:45:57.275Z</time></trkpt><trkpt lat="43.74705" lon="6.3560383"><ele>1120.0</ele><time>2026-05-02T14:45:58.275Z</time></trkpt><trkpt lat="43.7470467" lon="6.35613"><ele>1124.0</ele><time>2026-05-02T14:45:59.275Z</time></trkpt><trkpt lat="43.7470117" lon="6.356215"><ele>1124.0</ele><time>2026-05-02T14:46:00.275Z</time></trkpt><trkpt lat="43.74693" lon="6.3562733"><ele>1124.0</ele><time>2026-05-02T14:46:02.275Z</time></trkpt><trkpt lat="43.7468767" lon="6.3561317"><ele>1124.0</ele><time>2026-05-02T14:46:04.276Z</time></trkpt><trkpt lat="43.746865" lon="6.3559783"><ele>1124.0</ele><time>2026-05-02T14:46:05.275Z</time></trkpt><trkpt lat="43.746865" lon="6.355795"><ele>1115.0</ele><time>2026-05-02T14:46:06.275Z</time></trkpt><trkpt lat="43.7468567" lon="6.3556333"><ele>1106.0</ele><time>2026-05-02T14:46:07.276Z</time></trkpt><trkpt lat="43.746825" lon="6.3554867"><ele>1097.0</ele><time>2026-05-02T14:46:08.276Z</time></trkpt><trkpt lat="43.7467767" lon="6.355345"><ele>1088.0</ele><time>2026-05-02T14:46:09.275Z</time></trkpt><trkpt lat="43.74671" lon="6.3552167"><ele>1086.75</ele><time>2026-05-02T14:46:10.275Z</time></trkpt><trkpt lat="43.7466367" lon="6.3550883"><ele>1085.5</ele><time>2026-05-02T14:46:11.275Z</time></trkpt><trkpt lat="43.7465567" lon="6.3549667"><ele>1084.25</ele><time>2026-05-02T14:46:12.275Z</time></trkpt><trkpt lat="43.7464817" lon="6.3548567"><ele>1083.0</ele><time>2026-05-02T14:46:13.275Z</time></trkpt><trkpt lat="43.74641" lon="6.3547533"><ele>1079.6</ele><time>2026-05-02T14:46:14.276Z</time></trkpt><trkpt lat="43.74634" lon="6.354655"><ele>1076.1999999999998</ele><time>2026-05-02T14:46:15.276Z</time></trkpt><trkpt lat="43.74628" lon="6.3545717"><ele>1072.8</ele><time>2026-05-02T14:46:16.275Z</time></trkpt><trkpt lat="43.7462067" lon="6.3545067"><ele>1069.3999999999999</ele><time>2026-05-02T14:46:17.275Z</time></trkpt><trkpt lat="43.7461167" lon="6.3544583"><ele>1066.0</ele><time>2026-05-02T14:46:18.276Z</time></trkpt><trkpt lat="43.7460167" lon="6.3544183"><ele>1064.0</ele><time>2026-05-02T14:46:19.276Z</time></trkpt><trkpt lat="43.7459083" lon="6.3544167"><ele>1062.0</ele><time>2026-05-02T14:46:20.275Z</time></trkpt><trkpt lat="43.7457933" lon="6.3544483"><ele>1060.0</ele><time>2026-05-02T14:46:21.275Z</time></trkpt><trkpt lat="43.745675" lon="6.3545067"><ele>1058.0</ele><time>2026-05-02T14:46:22.275Z</time></trkpt><trkpt lat="43.74557" lon="6.3545833"><ele>1058.0</ele><time>2026-05-02T14:46:23.276Z</time></trkpt><trkpt lat="43.7454667" lon="6.3546717"><ele>1058.0</ele><time>2026-05-02T14:46:24.275Z</time></trkpt><trkpt lat="43.7453717" lon="6.354775"><ele>1058.0</ele><time>2026-05-02T14:46:25.275Z</time></trkpt><trkpt lat="43.7452783" lon="6.3548867"><ele>1058.0</ele><time>2026-05-02T14:46:26.276Z</time></trkpt><trkpt lat="43.745185" lon="6.3549867"><ele>1057.5</ele><time>2026-05-02T14:46:27.275Z</time></trkpt><trkpt lat="43.7450883" lon="6.3551033"><ele>1057.0</ele><time>2026-05-02T14:46:28.275Z</time></trkpt><trkpt lat="43.744995" lon="6.3552267"><ele>1056.5</ele><time>2026-05-02T14:46:29.275Z</time></trkpt><trkpt lat="43.7448933" lon="6.35535"><ele>1056.0</ele><time>2026-05-02T14:46:30.275Z</time></trkpt><trkpt lat="43.744795" lon="6.35548"><ele>1059.5</ele><time>2026-05-02T14:46:31.275Z</time></trkpt><trkpt lat="43.744705" lon="6.35559"><ele>1063.0</ele><time>2026-05-02T14:46:32.275Z</time></trkpt><trkpt lat="43.7446233" lon="6.35571"><ele>1066.5</ele><time>2026-05-02T14:46:33.275Z</time></trkpt><trkpt lat="43.74455" lon="6.35584"><ele>1070.0</ele><time>2026-05-02T14:46:34.275Z</time></trkpt><trkpt lat="43.74448" lon="6.3559783"><ele>1070.0</ele><time>2026-05-02T14:46:35.275Z</time></trkpt><trkpt lat="43.7444117" lon="6.356115"><ele>1070.0</ele><time>2026-05-02T14:46:36.275Z</time></trkpt><trkpt lat="43.74435" lon="6.3562683"><ele>1070.0</ele><time>2026-05-02T14:46:37.275Z</time></trkpt><trkpt lat="43.744285" lon="6.35643"><ele>1070.0</ele><time>2026-05-02T14:46:38.275Z</time></trkpt><trkpt lat="43.7442217" lon="6.3565883"><ele>1065.25</ele><time>2026-05-02T14:46:39.275Z</time></trkpt><trkpt lat="43.7441633" lon="6.3567383"><ele>1060.5</ele><time>2026-05-02T14:46:40.276Z</time></trkpt><trkpt lat="43.7441083" lon="6.3568767"><ele>1055.75</ele><time>2026-05-02T14:46:41.275Z</time></trkpt><trkpt lat="43.744055" lon="6.3570217"><ele>1051.0</ele><time>2026-05-02T14:46:42.275Z</time></trkpt><trkpt lat="43.74401" lon="6.3571567"><ele>1051.0</ele><time>2026-05-02T14:46:43.275Z</time></trkpt><trkpt lat="43.7439783" lon="6.3572917"><ele>1051.0</ele><time>2026-05-02T14:46:44.275Z</time></trkpt><trkpt lat="43.7439567" lon="6.3574067"><ele>1051.0</ele><time>2026-05-02T14:46:45.275Z</time></trkpt><trkpt lat="43.7439533" lon="6.35751"><ele>1051.0</ele><time>2026-05-02T14:46:46.275Z</time></trkpt><trkpt lat="43.743945" lon="6.3575983"><ele>1051.0</ele><time>2026-05-02T14:46:47.276Z</time></trkpt><trkpt lat="43.74388" lon="6.35772"><ele>1051.0</ele><time>2026-05-02T14:46:49.275Z</time></trkpt><trkpt lat="43.7437883" lon="6.357735"><ele>1051.0</ele><time>2026-05-02T14:46:51.275Z</time></trkpt><trkpt lat="43.7437383" lon="6.35758"><ele>1051.0</ele><time>2026-05-02T14:46:53.275Z</time></trkpt><trkpt lat="43.7437517" lon="6.3574717"><ele>1051.0</ele><time>2026-05-02T14:46:54.275Z</time></trkpt><trkpt lat="43.7437717" lon="6.3573533"><ele>1051.0</ele><time>2026-05-02T14:46:55.275Z</time></trkpt><trkpt lat="43.7437933" lon="6.3572033"><ele>1051.0</ele><time>2026-05-02T14:46:56.275Z</time></trkpt><trkpt lat="43.743805" lon="6.357045"><ele>1051.0</ele><time>2026-05-02T14:46:57.275Z</time></trkpt><trkpt lat="43.7438133" lon="6.356885"><ele>1051.0</ele><time>2026-05-02T14:46:58.276Z</time></trkpt><trkpt lat="43.7438217" lon="6.35673"><ele>1051.0</ele><time>2026-05-02T14:46:59.275Z</time></trkpt><trkpt lat="43.7438233" lon="6.3565667"><ele>1051.0</ele><time>2026-05-02T14:47:00.275Z</time></trkpt><trkpt lat="43.743835" lon="6.35641"><ele>1047.0</ele><time>2026-05-02T14:47:01.275Z</time></trkpt><trkpt lat="43.7438533" lon="6.356255"><ele>1043.0</ele><time>2026-05-02T14:47:02.275Z</time></trkpt><trkpt lat="43.74387" lon="6.356095"><ele>1039.0</ele><time>2026-05-02T14:47:03.275Z</time></trkpt><trkpt lat="43.7438767" lon="6.355945"><ele>1035.0</ele><time>2026-05-02T14:47:04.275Z</time></trkpt><trkpt lat="43.7438917" lon="6.3557817"><ele>1035.0</ele><time>2026-05-02T14:47:05.275Z</time></trkpt><trkpt lat="43.7439217" lon="6.35562"><ele>1035.0</ele><time>2026-05-02T14:47:06.275Z</time></trkpt><trkpt lat="43.743965" lon="6.3554683"><ele>1035.0</ele><time>2026-05-02T14:47:07.276Z</time></trkpt><trkpt lat="43.744005" lon="6.3553233"><ele>1035.0</ele><time>2026-05-02T14:47:08.276Z</time></trkpt><trkpt lat="43.7440467" lon="6.3551683"><ele>1031.8</ele><time>2026-05-02T14:47:09.275Z</time></trkpt><trkpt lat="43.74409" lon="6.3550267"><ele>1028.6</ele><time>2026-05-02T14:47:10.275Z</time></trkpt><trkpt lat="43.7441317" lon="6.3548867"><ele>1025.4</ele><time>2026-05-02T14:47:11.276Z</time></trkpt><trkpt lat="43.74417" lon="6.354755"><ele>1022.2</ele><time>2026-05-02T14:47:12.275Z</time></trkpt><trkpt lat="43.7442217" lon="6.354645"><ele>1019.0</ele><time>2026-05-02T14:47:13.275Z</time></trkpt><trkpt lat="43.7442867" lon="6.35454"><ele>1021.1666666666667</ele><time>2026-05-02T14:47:14.275Z</time></trkpt><trkpt lat="43.7443533" lon="6.35445"><ele>1023.3333333333334</ele><time>2026-05-02T14:47:15.275Z</time></trkpt><trkpt lat="43.7444233" lon="6.35438"><ele>1025.5</ele><time>2026-05-02T14:47:16.275Z</time></trkpt><trkpt lat="43.7444767" lon="6.354315"><ele>1027.6666666666667</ele><time>2026-05-02T14:47:17.275Z</time></trkpt><trkpt lat="43.7445067" lon="6.3542367"><ele>1029.8333333333333</ele><time>2026-05-02T14:47:18.275Z</time></trkpt><trkpt lat="43.7444767" lon="6.354125"><ele>1032.0</ele><time>2026-05-02T14:47:20.275Z</time></trkpt><trkpt lat="43.74435" lon="6.3541183"><ele>1023.5</ele><time>2026-05-02T14:47:22.275Z</time></trkpt><trkpt lat="43.744265" lon="6.3542033"><ele>1015.0</ele><time>2026-05-02T14:47:23.275Z</time></trkpt><trkpt lat="43.74419" lon="6.35433"><ele>1006.5</ele><time>2026-05-02T14:47:24.275Z</time></trkpt><trkpt lat="43.7441133" lon="6.3544883"><ele>998.0</ele><time>2026-05-02T14:47:25.275Z</time></trkpt><trkpt lat="43.7440333" lon="6.3546483"><ele>1003.25</ele><time>2026-05-02T14:47:26.276Z</time></trkpt><trkpt lat="43.743945" lon="6.3547933"><ele>1008.5</ele><time>2026-05-02T14:47:27.275Z</time></trkpt><trkpt lat="43.743855" lon="6.3549233"><ele>1013.75</ele><time>2026-05-02T14:47:28.275Z</time></trkpt><trkpt lat="43.743765" lon="6.355045"><ele>1019.0</ele><time>2026-05-02T14:47:29.275Z</time></trkpt><trkpt lat="43.743675" lon="6.355165"><ele>1019.0</ele><time>2026-05-02T14:47:30.275Z</time></trkpt><trkpt lat="43.743585" lon="6.3552833"><ele>1019.0</ele><time>2026-05-02T14:47:31.275Z</time></trkpt><trkpt lat="43.7435" lon="6.3553983"><ele>1019.0</ele><time>2026-05-02T14:47:32.275Z</time></trkpt><trkpt lat="43.7434183" lon="6.3555117"><ele>1019.0</ele><time>2026-05-02T14:47:33.275Z</time></trkpt><trkpt lat="43.7433367" lon="6.355625"><ele>1016.0</ele><time>2026-05-02T14:47:34.275Z</time></trkpt><trkpt lat="43.7432667" lon="6.3557483"><ele>1013.0000000000001</ele><time>2026-05-02T14:47:35.275Z</time></trkpt><trkpt lat="43.7432" lon="6.3558683"><ele>1010.0000000000001</ele><time>2026-05-02T14:47:36.275Z</time></trkpt><trkpt lat="43.7431433" lon="6.3559833"><ele>1007.0</ele><time>2026-05-02T14:47:37.275Z</time></trkpt><trkpt lat="43.7430967" lon="6.356095"><ele>1004.0</ele><time>2026-05-02T14:47:38.275Z</time></trkpt><trkpt lat="43.7430683" lon="6.3561917"><ele>1004.0</ele><time>2026-05-02T14:47:39.275Z</time></trkpt><trkpt lat="43.7430283" lon="6.356275"><ele>1004.0000000000001</ele><time>2026-05-02T14:47:40.275Z</time></trkpt><trkpt lat="43.7429333" lon="6.3563567"><ele>1004.0000000000001</ele><time>2026-05-02T14:47:42.275Z</time></trkpt><trkpt lat="43.7428617" lon="6.3562733"><ele>1004.0</ele><time>2026-05-02T14:47:44.275Z</time></trkpt><trkpt lat="43.7428833" lon="6.3560917"><ele>1004.0</ele><time>2026-05-02T14:47:46.275Z</time></trkpt><trkpt lat="43.742945" lon="6.355995"><ele>1004.0</ele><time>2026-05-02T14:47:47.275Z</time></trkpt><trkpt lat="43.743015" lon="6.3558867"><ele>1004.0</ele><time>2026-05-02T14:47:48.275Z</time></trkpt><trkpt lat="43.7430817" lon="6.35575"><ele>1004.0</ele><time>2026-05-02T14:47:49.275Z</time></trkpt><trkpt lat="43.7431467" lon="6.3555917"><ele>1004.0</ele><time>2026-05-02T14:47:50.276Z</time></trkpt><trkpt lat="43.743205" lon="6.3554317"><ele>999.0</ele><time>2026-05-02T14:47:51.275Z</time></trkpt><trkpt lat="43.7432567" lon="6.35526"><ele>994.0</ele><time>2026-05-02T14:47:52.275Z</time></trkpt><trkpt lat="43.7433" lon="6.355085"><ele>989.0</ele><time>2026-05-02T14:47:53.275Z</time></trkpt><trkpt lat="43.74335" lon="6.3549117"><ele>984.0</ele><time>2026-05-02T14:47:54.275Z</time></trkpt><trkpt lat="43.7434067" lon="6.3547433"><ele>980.75</ele><time>2026-05-02T14:47:55.275Z</time></trkpt><trkpt lat="43.7434483" lon="6.3545683"><ele>977.5</ele><time>2026-05-02T14:47:56.275Z</time></trkpt><trkpt lat="43.743495" lon="6.354395"><ele>974.25</ele><time>2026-05-02T14:47:57.275Z</time></trkpt><trkpt lat="43.74355" lon="6.3542317"><ele>971.0</ele><time>2026-05-02T14:47:58.275Z</time></trkpt><trkpt lat="43.743615" lon="6.3540683"><ele>974.5</ele><time>2026-05-02T14:47:59.275Z</time></trkpt><trkpt lat="43.7436683" lon="6.3539067"><ele>978.0</ele><time>2026-05-02T14:48:00.275Z</time></trkpt><trkpt lat="43.7437233" lon="6.3537367"><ele>981.5</ele><time>2026-05-02T14:48:01.275Z</time></trkpt><trkpt lat="43.7437783" lon="6.35356"><ele>985.0</ele><time>2026-05-02T14:48:02.275Z</time></trkpt><trkpt lat="43.7438317" lon="6.353385"><ele>985.0</ele><time>2026-05-02T14:48:03.275Z</time></trkpt><trkpt lat="43.7438867" lon="6.3532117"><ele>985.0</ele><time>2026-05-02T14:48:04.275Z</time></trkpt><trkpt lat="43.7439383" lon="6.3530383"><ele>985.0</ele><time>2026-05-02T14:48:05.275Z</time></trkpt><trkpt lat="43.7439967" lon="6.3528717"><ele>985.0</ele><time>2026-05-02T14:48:06.275Z</time></trkpt><trkpt lat="43.744055" lon="6.352695"><ele>979.75</ele><time>2026-05-02T14:48:07.276Z</time></trkpt><trkpt lat="43.744105" lon="6.3525183"><ele>974.5</ele><time>2026-05-02T14:48:08.275Z</time></trkpt><trkpt lat="43.7441567" lon="6.352345"><ele>969.25</ele><time>2026-05-02T14:48:09.276Z</time></trkpt><trkpt lat="43.7442067" lon="6.35217"><ele>964.0</ele><time>2026-05-02T14:48:10.275Z</time></trkpt><trkpt lat="43.7442533" lon="6.3520033"><ele>965.75</ele><time>2026-05-02T14:48:11.275Z</time></trkpt><trkpt lat="43.7443033" lon="6.3518383"><ele>967.5</ele><time>2026-05-02T14:48:12.275Z</time></trkpt><trkpt lat="43.7443517" lon="6.351685"><ele>969.25</ele><time>2026-05-02T14:48:13.275Z</time></trkpt><trkpt lat="43.7444" lon="6.3515117"><ele>971.0</ele><time>2026-05-02T14:48:14.276Z</time></trkpt><trkpt lat="43.7444483" lon="6.3513483"><ele>964.5</ele><time>2026-05-02T14:48:15.276Z</time></trkpt><trkpt lat="43.744505" lon="6.3512"><ele>958.0</ele><time>2026-05-02T14:48:16.276Z</time></trkpt><trkpt lat="43.7445767" lon="6.3510517"><ele>951.5</ele><time>2026-05-02T14:48:17.275Z</time></trkpt><trkpt lat="43.7446617" lon="6.35093"><ele>945.0</ele><time>2026-05-02T14:48:18.275Z</time></trkpt><trkpt lat="43.74475" lon="6.350825"><ele>945.0</ele><time>2026-05-02T14:48:19.275Z</time></trkpt><trkpt lat="43.74485" lon="6.3507383"><ele>945.0</ele><time>2026-05-02T14:48:20.275Z</time></trkpt><trkpt lat="43.74495" lon="6.3506667"><ele>945.0</ele><time>2026-05-02T14:48:21.275Z</time></trkpt><trkpt lat="43.745055" lon="6.3506"><ele>945.0</ele><time>2026-05-02T14:48:22.275Z</time></trkpt><trkpt lat="43.7451583" lon="6.3505633"><ele>944.4</ele><time>2026-05-02T14:48:23.275Z</time></trkpt><trkpt lat="43.74527" lon="6.3505533"><ele>943.8</ele><time>2026-05-02T14:48:24.275Z</time></trkpt><trkpt lat="43.74538" lon="6.3505633"><ele>943.2</ele><time>2026-05-02T14:48:25.275Z</time></trkpt><trkpt lat="43.7454867" lon="6.3505867"><ele>942.6</ele><time>2026-05-02T14:48:26.275Z</time></trkpt><trkpt lat="43.7455933" lon="6.3506017"><ele>942.0</ele><time>2026-05-02T14:48:27.275Z</time></trkpt><trkpt lat="43.7457" lon="6.3506217"><ele>942.0</ele><time>2026-05-02T14:48:28.275Z</time></trkpt><trkpt lat="43.7458117" lon="6.3506383"><ele>942.0</ele><time>2026-05-02T14:48:29.275Z</time></trkpt><trkpt lat="43.7459183" lon="6.3506583"><ele>942.0</ele><time>2026-05-02T14:48:30.276Z</time></trkpt><trkpt lat="43.7460317" lon="6.3506883"><ele>942.0</ele><time>2026-05-02T14:48:31.275Z</time></trkpt><trkpt lat="43.7461517" lon="6.350715"><ele>938.8</ele><time>2026-05-02T14:48:32.276Z</time></trkpt><trkpt lat="43.7462633" lon="6.3507433"><ele>935.6</ele><time>2026-05-02T14:48:33.275Z</time></trkpt><trkpt lat="43.7463783" lon="6.35077"><ele>932.3999999999999</ele><time>2026-05-02T14:48:34.275Z</time></trkpt><trkpt lat="43.7464883" lon="6.3507833"><ele>929.1999999999999</ele><time>2026-05-02T14:48:35.276Z</time></trkpt><trkpt lat="43.7465867" lon="6.3507983"><ele>926.0</ele><time>2026-05-02T14:48:36.275Z</time></trkpt><trkpt lat="43.74669" lon="6.35079"><ele>926.0</ele><time>2026-05-02T14:48:37.275Z</time></trkpt><trkpt lat="43.746805" lon="6.3507817"><ele>925.9999999999999</ele><time>2026-05-02T14:48:38.275Z</time></trkpt><trkpt lat="43.7469" lon="6.3507583"><ele>925.9999999999999</ele><time>2026-05-02T14:48:39.275Z</time></trkpt><trkpt lat="43.7470033" lon="6.3507333"><ele>926.0</ele><time>2026-05-02T14:48:40.275Z</time></trkpt><trkpt lat="43.74712" lon="6.3507167"><ele>926.0</ele><time>2026-05-02T14:48:41.275Z</time></trkpt><trkpt lat="43.7472333" lon="6.3507033"><ele>925.8</ele><time>2026-05-02T14:48:42.275Z</time></trkpt><trkpt lat="43.7473417" lon="6.350705"><ele>925.5999999999999</ele><time>2026-05-02T14:48:43.275Z</time></trkpt><trkpt lat="43.7474467" lon="6.3507033"><ele>925.4</ele><time>2026-05-02T14:48:44.275Z</time></trkpt><trkpt lat="43.7475383" lon="6.3506733"><ele>925.2</ele><time>2026-05-02T14:48:45.275Z</time></trkpt><trkpt lat="43.747635" lon="6.3506167"><ele>925.0</ele><time>2026-05-02T14:48:46.275Z</time></trkpt><trkpt lat="43.7477317" lon="6.350545"><ele>925.6</ele><time>2026-05-02T14:48:47.275Z</time></trkpt><trkpt lat="43.74781" lon="6.35046"><ele>926.2</ele><time>2026-05-02T14:48:48.275Z</time></trkpt><trkpt lat="43.747885" lon="6.35036"><ele>926.8</ele><time>2026-05-02T14:48:49.276Z</time></trkpt><trkpt lat="43.7479333" lon="6.3502567"><ele>927.4</ele><time>2026-05-02T14:48:50.275Z</time></trkpt><trkpt lat="43.7479533" lon="6.3501417"><ele>928.0</ele><time>2026-05-02T14:48:51.276Z</time></trkpt><trkpt lat="43.747955" lon="6.3500333"><ele>928.0</ele><time>2026-05-02T14:48:52.276Z</time></trkpt><trkpt lat="43.747925" lon="6.34991"><ele>928.0</ele><time>2026-05-02T14:48:53.275Z</time></trkpt><trkpt lat="43.74788" lon="6.34978"><ele>928.0</ele><time>2026-05-02T14:48:54.275Z</time></trkpt><trkpt lat="43.7478367" lon="6.3496517"><ele>928.0</ele><time>2026-05-02T14:48:55.275Z</time></trkpt><trkpt lat="43.747795" lon="6.3495267"><ele>928.0</ele><time>2026-05-02T14:48:56.275Z</time></trkpt><trkpt lat="43.7477583" lon="6.349415"><ele>927.4999999999999</ele><time>2026-05-02T14:48:57.275Z</time></trkpt><trkpt lat="43.747735" lon="6.3493267"><ele>927.0</ele><time>2026-05-02T14:48:58.275Z</time></trkpt><trkpt lat="43.7477167" lon="6.3492233"><ele>926.5</ele><time>2026-05-02T14:48:59.275Z</time></trkpt><trkpt lat="43.74773" lon="6.3491133"><ele>926.0</ele><time>2026-05-02T14:49:00.275Z</time></trkpt><trkpt lat="43.7477417" lon="6.349"><ele>925.4999999999999</ele><time>2026-05-02T14:49:01.275Z</time></trkpt><trkpt lat="43.7477617" lon="6.348905"><ele>925.0</ele><time>2026-05-02T14:49:02.275Z</time></trkpt><trkpt lat="43.7477867" lon="6.3488067"><ele>922.4999999999999</ele><time>2026-05-02T14:49:03.275Z</time></trkpt><trkpt lat="43.747815" lon="6.348715"><ele>920.0</ele><time>2026-05-02T14:49:04.275Z</time></trkpt><trkpt lat="43.7478633" lon="6.3486267"><ele>917.5</ele><time>2026-05-02T14:49:05.275Z</time></trkpt><trkpt lat="43.7479167" lon="6.3485333"><ele>915.0</ele><time>2026-05-02T14:49:06.275Z</time></trkpt><trkpt lat="43.7479767" lon="6.3484533"><ele>912.4999999999999</ele><time>2026-05-02T14:49:07.275Z</time></trkpt><trkpt lat="43.74804" lon="6.3483767"><ele>910.0</ele><time>2026-05-02T14:49:08.275Z</time></trkpt><trkpt lat="43.7481083" lon="6.3482867"><ele>909.9999999999999</ele><time>2026-05-02T14:49:09.275Z</time></trkpt><trkpt lat="43.7481767" lon="6.3481867"><ele>910.0</ele><time>2026-05-02T14:49:10.275Z</time></trkpt><trkpt lat="43.7482383" lon="6.3480917"><ele>910.0</ele><time>2026-05-02T14:49:11.275Z</time></trkpt><trkpt lat="43.7483017" lon="6.348005"><ele>910.0</ele><time>2026-05-02T14:49:12.275Z</time></trkpt><trkpt lat="43.7483633" lon="6.34792"><ele>909.9999999999999</ele><time>2026-05-02T14:49:13.275Z</time></trkpt><trkpt lat="43.74841" lon="6.34783"><ele>910.0</ele><time>2026-05-02T14:49:14.275Z</time></trkpt><trkpt lat="43.7484367" lon="6.34774"><ele>910.3333333333333</ele><time>2026-05-02T14:49:15.275Z</time></trkpt><trkpt lat="43.7484433" lon="6.34758"><ele>910.6666666666666</ele><time>2026-05-02T14:49:17.275Z</time></trkpt><trkpt lat="43.74843" lon="6.347485"><ele>911.0</ele><time>2026-05-02T14:49:18.275Z</time></trkpt><trkpt lat="43.748415" lon="6.347385"><ele>911.3333333333333</ele><time>2026-05-02T14:49:19.275Z</time></trkpt><trkpt lat="43.7484033" lon="6.3472817"><ele>911.6666666666666</ele><time>2026-05-02T14:49:20.275Z</time></trkpt><trkpt lat="43.7484" lon="6.3471817"><ele>912.0</ele><time>2026-05-02T14:49:21.275Z</time></trkpt><trkpt lat="43.7484017" lon="6.3470233"><ele>912.0</ele><time>2026-05-02T14:49:23.275Z</time></trkpt><trkpt lat="43.7484167" lon="6.3469"><ele>912.0</ele><time>2026-05-02T14:49:25.275Z</time></trkpt><trkpt lat="43.7484267" lon="6.3467533"><ele>912.0</ele><time>2026-05-02T14:49:27.275Z</time></trkpt><trkpt lat="43.7484017" lon="6.3466033"><ele>912.0</ele><time>2026-05-02T14:49:29.275Z</time></trkpt><trkpt lat="43.748325" lon="6.346455"><ele>912.0</ele><time>2026-05-02T14:49:31.275Z</time></trkpt><trkpt lat="43.7482583" lon="6.346375"><ele>916.6</ele><time>2026-05-02T14:49:32.275Z</time></trkpt><trkpt lat="43.7481717" lon="6.34631"><ele>921.2</ele><time>2026-05-02T14:49:33.275Z</time></trkpt><trkpt lat="43.748075" lon="6.34625"><ele>925.8</ele><time>2026-05-02T14:49:34.275Z</time></trkpt><trkpt lat="43.747975" lon="6.346205"><ele>930.4</ele><time>2026-05-02T14:49:35.275Z</time></trkpt><trkpt lat="43.74788" lon="6.3461717"><ele>935.0</ele><time>2026-05-02T14:49:36.275Z</time></trkpt><trkpt lat="43.7477933" lon="6.34614"><ele>931.6666666666667</ele><time>2026-05-02T14:49:37.275Z</time></trkpt><trkpt lat="43.747705" lon="6.346105"><ele>928.3333333333334</ele><time>2026-05-02T14:49:38.275Z</time></trkpt><trkpt lat="43.747625" lon="6.3460767"><ele>925.0</ele><time>2026-05-02T14:49:39.276Z</time></trkpt><trkpt lat="43.7475417" lon="6.3460483"><ele>921.6666666666667</ele><time>2026-05-02T14:49:40.276Z</time></trkpt><trkpt lat="43.7474617" lon="6.3460317"><ele>918.3333333333334</ele><time>2026-05-02T14:49:41.275Z</time></trkpt><trkpt lat="43.74739" lon="6.3460083"><ele>915.0</ele><time>2026-05-02T14:49:42.275Z</time></trkpt><trkpt lat="43.7473217" lon="6.3459867"><ele>915.0</ele><time>2026-05-02T14:49:43.275Z</time></trkpt><trkpt lat="43.747245" lon="6.34597"><ele>915.0</ele><time>2026-05-02T14:49:44.275Z</time></trkpt><trkpt lat="43.7471733" lon="6.34594"><ele>915.0</ele><time>2026-05-02T14:49:45.275Z</time></trkpt><trkpt lat="43.7470583" lon="6.3458783"><ele>915.0</ele><time>2026-05-02T14:49:47.276Z</time></trkpt><trkpt lat="43.7469633" lon="6.3458133"><ele>915.0</ele><time>2026-05-02T14:49:49.275Z</time></trkpt><trkpt lat="43.7468917" lon="6.3457417"><ele>913.2</ele><time>2026-05-02T14:49:51.276Z</time></trkpt><trkpt lat="43.7468183" lon="6.34566"><ele>911.4</ele><time>2026-05-02T14:49:53.275Z</time></trkpt><trkpt lat="43.7467567" lon="6.345585"><ele>909.5999999999999</ele><time>2026-05-02T14:49:55.275Z</time></trkpt><trkpt lat="43.74671" lon="6.3455167"><ele>907.8</ele><time>2026-05-02T14:49:57.275Z</time></trkpt><trkpt lat="43.7466617" lon="6.34546"><ele>906.0</ele><time>2026-05-02T14:50:00.275Z</time></trkpt><trkpt lat="43.7465583" lon="6.3453217"><ele>906.0</ele><time>2026-05-02T14:50:19.276Z</time></trkpt><trkpt lat="43.7465033" lon="6.3452467"><ele>906.0</ele><time>2026-05-02T14:50:21.275Z</time></trkpt><trkpt lat="43.7464667" lon="6.3451683"><ele>906.0</ele><time>2026-05-02T14:50:23.275Z</time></trkpt><trkpt lat="43.74643" lon="6.3450733"><ele>906.0</ele><time>2026-05-02T14:50:27.275Z</time></trkpt><trkpt lat="43.7464117" lon="6.3449767"><ele>906.0</ele><time>2026-05-02T14:50:31.275Z</time></trkpt><trkpt lat="43.7464183" lon="6.3448483"><ele>906.0</ele><time>2026-05-02T14:56:46.274Z</time></trkpt><trkpt lat="43.7464167" lon="6.344715"><ele>906.1666666666666</ele><time>2026-05-02T14:56:48.274Z</time></trkpt><trkpt lat="43.7464317" lon="6.3445583"><ele>906.3333333333333</ele><time>2026-05-02T14:56:50.274Z</time></trkpt><trkpt lat="43.7464533" lon="6.3444133"><ele>906.5</ele><time>2026-05-02T14:56:52.274Z</time></trkpt><trkpt lat="43.7464683" lon="6.3443267"><ele>906.6666666666666</ele><time>2026-05-02T14:56:53.274Z</time></trkpt><trkpt lat="43.74648" lon="6.3442333"><ele>906.8333333333333</ele><time>2026-05-02T14:56:54.274Z</time></trkpt><trkpt lat="43.7464767" lon="6.3441417"><ele>907.0</ele><time>2026-05-02T14:56:55.274Z</time></trkpt><trkpt lat="43.7464733" lon="6.3440383"><ele>906.9999999999999</ele><time>2026-05-02T14:56:56.274Z</time></trkpt><trkpt lat="43.7464717" lon="6.34394"><ele>907.0</ele><time>2026-05-02T14:56:57.274Z</time></trkpt><trkpt lat="43.746475" lon="6.3438417"><ele>907.0</ele><time>2026-05-02T14:56:58.274Z</time></trkpt><trkpt lat="43.7464767" lon="6.3437367"><ele>907.0</ele><time>2026-05-02T14:56:59.275Z</time></trkpt><trkpt lat="43.7464833" lon="6.3436267"><ele>906.9999999999999</ele><time>2026-05-02T14:57:00.274Z</time></trkpt><trkpt lat="43.7464983" lon="6.343515"><ele>907.0</ele><time>2026-05-02T14:57:01.274Z</time></trkpt><trkpt lat="43.7465083" lon="6.3434067"><ele>906.6666666666666</ele><time>2026-05-02T14:57:02.274Z</time></trkpt><trkpt lat="43.74651" lon="6.3432933"><ele>906.3333333333333</ele><time>2026-05-02T14:57:03.274Z</time></trkpt><trkpt lat="43.7464883" lon="6.3431717"><ele>906.0</ele><time>2026-05-02T14:57:04.274Z</time></trkpt><trkpt lat="43.746465" lon="6.3430517"><ele>905.6666666666667</ele><time>2026-05-02T14:57:05.274Z</time></trkpt><trkpt lat="43.746435" lon="6.3429367"><ele>905.3333333333334</ele><time>2026-05-02T14:57:06.274Z</time></trkpt><trkpt lat="43.7464067" lon="6.3428283"><ele>905.0</ele><time>2026-05-02T14:57:07.274Z</time></trkpt><trkpt lat="43.7463833" lon="6.3427133"><ele>905.6666666666667</ele><time>2026-05-02T14:57:08.274Z</time></trkpt><trkpt lat="43.7463733" lon="6.3425917"><ele>906.3333333333334</ele><time>2026-05-02T14:57:09.274Z</time></trkpt><trkpt lat="43.7463567" lon="6.34247"><ele>907.0</ele><time>2026-05-02T14:57:10.274Z</time></trkpt><trkpt lat="43.7463283" lon="6.3423567"><ele>907.6666666666667</ele><time>2026-05-02T14:57:11.274Z</time></trkpt><trkpt lat="43.7462967" lon="6.3422383"><ele>908.3333333333334</ele><time>2026-05-02T14:57:12.274Z</time></trkpt><trkpt lat="43.746265" lon="6.3421167"><ele>909.0</ele><time>2026-05-02T14:57:13.274Z</time></trkpt><trkpt lat="43.746225" lon="6.3419967"><ele>911.0</ele><time>2026-05-02T14:57:14.274Z</time></trkpt><trkpt lat="43.74618" lon="6.3418833"><ele>913.0000000000001</ele><time>2026-05-02T14:57:15.274Z</time></trkpt><trkpt lat="43.7461167" lon="6.3417817"><ele>915.0000000000001</ele><time>2026-05-02T14:57:16.275Z</time></trkpt><trkpt lat="43.7460517" lon="6.3416717"><ele>917.0</ele><time>2026-05-02T14:57:17.274Z</time></trkpt><trkpt lat="43.7459783" lon="6.3415683"><ele>919.0</ele><time>2026-05-02T14:57:18.275Z</time></trkpt><trkpt lat="43.74591" lon="6.34147"><ele>913.1666666666666</ele><time>2026-05-02T14:57:19.274Z</time></trkpt><trkpt lat="43.7458417" lon="6.3413783"><ele>907.3333333333333</ele><time>2026-05-02T14:57:20.275Z</time></trkpt><trkpt lat="43.7457767" lon="6.3412867"><ele>901.5</ele><time>2026-05-02T14:57:21.274Z</time></trkpt><trkpt lat="43.74572" lon="6.3412033"><ele>895.6666666666667</ele><time>2026-05-02T14:57:22.275Z</time></trkpt><trkpt lat="43.7456767" lon="6.341115"><ele>889.8333333333334</ele><time>2026-05-02T14:57:23.274Z</time></trkpt><trkpt lat="43.7456517" lon="6.341015"><ele>884.0</ele><time>2026-05-02T14:57:24.274Z</time></trkpt><trkpt lat="43.7456517" lon="6.34092"><ele>884.0000000000001</ele><time>2026-05-02T14:57:25.275Z</time></trkpt><trkpt lat="43.7456717" lon="6.3408217"><ele>884.0</ele><time>2026-05-02T14:57:26.274Z</time></trkpt><trkpt lat="43.7457117" lon="6.3407167"><ele>884.0</ele><time>2026-05-02T14:57:27.274Z</time></trkpt><trkpt lat="43.7457583" lon="6.3406083"><ele>884.0</ele><time>2026-05-02T14:57:28.274Z</time></trkpt><trkpt lat="43.7458083" lon="6.3405033"><ele>884.0000000000001</ele><time>2026-05-02T14:57:29.274Z</time></trkpt><trkpt lat="43.74584" lon="6.340385"><ele>884.0</ele><time>2026-05-02T14:57:30.274Z</time></trkpt><trkpt lat="43.7458583" lon="6.3402717"><ele>883.6666666666667</ele><time>2026-05-02T14:57:31.274Z</time></trkpt><trkpt lat="43.7458533" lon="6.34017"><ele>883.3333333333334</ele><time>2026-05-02T14:57:32.274Z</time></trkpt><trkpt lat="43.7458217" lon="6.34006"><ele>883.0</ele><time>2026-05-02T14:57:33.274Z</time></trkpt><trkpt lat="43.74576" lon="6.3399567"><ele>882.6666666666667</ele><time>2026-05-02T14:57:34.274Z</time></trkpt><trkpt lat="43.7457083" lon="6.3398417"><ele>882.3333333333334</ele><time>2026-05-02T14:57:35.275Z</time></trkpt><trkpt lat="43.745665" lon="6.339725"><ele>882.0</ele><time>2026-05-02T14:57:36.274Z</time></trkpt><trkpt lat="43.7456317" lon="6.3396133"><ele>882.0</ele><time>2026-05-02T14:57:37.274Z</time></trkpt><trkpt lat="43.7456033" lon="6.3395067"><ele>882.0</ele><time>2026-05-02T14:57:38.274Z</time></trkpt><trkpt lat="43.74558" lon="6.3394133"><ele>882.0</ele><time>2026-05-02T14:57:39.274Z</time></trkpt><trkpt lat="43.7455683" lon="6.339325"><ele>882.0</ele><time>2026-05-02T14:57:40.274Z</time></trkpt><trkpt lat="43.7455683" lon="6.3392283"><ele>882.0</ele><time>2026-05-02T14:57:41.274Z</time></trkpt><trkpt lat="43.7455817" lon="6.339125"><ele>882.0</ele><time>2026-05-02T14:57:42.274Z</time></trkpt><trkpt lat="43.74563" lon="6.3390383"><ele>882.0</ele><time>2026-05-02T14:57:43.274Z</time></trkpt><trkpt lat="43.74566" lon="6.338945"><ele>882.0</ele><time>2026-05-02T14:57:44.274Z</time></trkpt><trkpt lat="43.7456617" lon="6.338845"><ele>882.0</ele><time>2026-05-02T14:57:45.275Z</time></trkpt><trkpt lat="43.7456367" lon="6.33873"><ele>882.0</ele><time>2026-05-02T14:57:46.274Z</time></trkpt><trkpt lat="43.745595" lon="6.3386217"><ele>882.0</ele><time>2026-05-02T14:57:47.274Z</time></trkpt><trkpt lat="43.74555" lon="6.33853"><ele>882.0</ele><time>2026-05-02T14:57:48.274Z</time></trkpt><trkpt lat="43.745495" lon="6.33843"><ele>882.0</ele><time>2026-05-02T14:57:49.275Z</time></trkpt><trkpt lat="43.7454483" lon="6.3383467"><ele>881.2</ele><time>2026-05-02T14:57:50.274Z</time></trkpt><trkpt lat="43.74541" lon="6.3382617"><ele>880.4000000000001</ele><time>2026-05-02T14:57:51.274Z</time></trkpt><trkpt lat="43.745355" lon="6.3381317"><ele>879.5999999999999</ele><time>2026-05-02T14:57:53.274Z</time></trkpt><trkpt lat="43.745325" lon="6.3380017"><ele>878.8</ele><time>2026-05-02T14:57:55.274Z</time></trkpt><trkpt lat="43.7453817" lon="6.33785"><ele>878.0</ele><time>2026-05-02T14:57:57.274Z</time></trkpt><trkpt lat="43.745415" lon="6.3377533"><ele>878.0</ele><time>2026-05-02T14:57:58.274Z</time></trkpt><trkpt lat="43.745445" lon="6.3376583"><ele>878.0</ele><time>2026-05-02T14:57:59.274Z</time></trkpt><trkpt lat="43.74547" lon="6.3375633"><ele>878.0</ele><time>2026-05-02T14:58:00.274Z</time></trkpt><trkpt lat="43.745495" lon="6.3374783"><ele>878.0</ele><time>2026-05-02T14:58:01.274Z</time></trkpt><trkpt lat="43.7455217" lon="6.3373967"><ele>878.0</ele><time>2026-05-02T14:58:02.274Z</time></trkpt><trkpt lat="43.7455617" lon="6.3373133"><ele>878.0</ele><time>2026-05-02T14:58:03.274Z</time></trkpt><trkpt lat="43.7456133" lon="6.3372467"><ele>878.0</ele><time>2026-05-02T14:58:04.274Z</time></trkpt><trkpt lat="43.7456633" lon="6.33718"><ele>873.5999999999999</ele><time>2026-05-02T14:58:05.275Z</time></trkpt><trkpt lat="43.74572" lon="6.3371067"><ele>869.1999999999999</ele><time>2026-05-02T14:58:06.274Z</time></trkpt><trkpt lat="43.74576" lon="6.33703"><ele>864.8</ele><time>2026-05-02T14:58:07.274Z</time></trkpt><trkpt lat="43.745795" lon="6.3368433"><ele>860.4</ele><time>2026-05-02T14:58:09.274Z</time></trkpt><trkpt lat="43.7458133" lon="6.33673"><ele>856.0</ele><time>2026-05-02T14:58:10.274Z</time></trkpt><trkpt lat="43.745835" lon="6.3366133"><ele>855.9999999999999</ele><time>2026-05-02T14:58:11.274Z</time></trkpt><trkpt lat="43.7458717" lon="6.3365167"><ele>856.0</ele><time>2026-05-02T14:58:12.274Z</time></trkpt><trkpt lat="43.7459083" lon="6.3364183"><ele>856.0</ele><time>2026-05-02T14:58:13.274Z</time></trkpt><trkpt lat="43.7459783" lon="6.33635"><ele>856.0</ele><time>2026-05-02T14:58:14.274Z</time></trkpt><trkpt lat="43.746055" lon="6.336275"><ele>855.9999999999999</ele><time>2026-05-02T14:58:15.274Z</time></trkpt><trkpt lat="43.7461317" lon="6.3362"><ele>856.0</ele><time>2026-05-02T14:58:16.274Z</time></trkpt><trkpt lat="43.7462067" lon="6.3361367"><ele>857.4</ele><time>2026-05-02T14:58:17.274Z</time></trkpt><trkpt lat="43.7463" lon="6.3360933"><ele>858.8</ele><time>2026-05-02T14:58:18.274Z</time></trkpt><trkpt lat="43.7463867" lon="6.33604"><ele>860.1999999999999</ele><time>2026-05-02T14:58:19.274Z</time></trkpt><trkpt lat="43.7464717" lon="6.3359817"><ele>861.5999999999999</ele><time>2026-05-02T14:58:20.274Z</time></trkpt><trkpt lat="43.7465433" lon="6.3359033"><ele>863.0</ele><time>2026-05-02T14:58:21.274Z</time></trkpt><trkpt lat="43.7466083" lon="6.3358633"><ele>863.0000000000001</ele><time>2026-05-02T14:58:22.274Z</time></trkpt><trkpt lat="43.7466633" lon="6.3357733"><ele>863.0</ele><time>2026-05-02T14:58:23.275Z</time></trkpt><trkpt lat="43.7467083" lon="6.3356883"><ele>863.0</ele><time>2026-05-02T14:58:24.274Z</time></trkpt><trkpt lat="43.7467417" lon="6.33561"><ele>863.0</ele><time>2026-05-02T14:58:25.274Z</time></trkpt><trkpt lat="43.7467583" lon="6.3355217"><ele>863.0</ele><time>2026-05-02T14:58:26.274Z</time></trkpt><trkpt lat="43.7467617" lon="6.33543"><ele>863.0000000000001</ele><time>2026-05-02T14:58:27.274Z</time></trkpt><trkpt lat="43.746735" lon="6.3353267"><ele>863.0</ele><time>2026-05-02T14:58:28.274Z</time></trkpt><trkpt lat="43.7467" lon="6.3352267"><ele>862.3333333333334</ele><time>2026-05-02T14:58:29.274Z</time></trkpt><trkpt lat="43.746665" lon="6.3351517"><ele>861.6666666666667</ele><time>2026-05-02T14:58:30.275Z</time></trkpt><trkpt lat="43.7466333" lon="6.3350733"><ele>861.0</ele><time>2026-05-02T14:58:31.274Z</time></trkpt><trkpt lat="43.7465783" lon="6.3349333"><ele>860.3333333333333</ele><time>2026-05-02T14:58:33.274Z</time></trkpt><trkpt lat="43.7465617" lon="6.33484"><ele>859.6666666666666</ele><time>2026-05-02T14:58:35.274Z</time></trkpt><trkpt lat="43.7465633" lon="6.3347433"><ele>859.0</ele><time>2026-05-02T14:58:38.274Z</time></trkpt><trkpt lat="43.74649" lon="6.33466"><ele>858.9999999999999</ele><time>2026-05-02T15:03:15.273Z</time></trkpt><trkpt lat="43.7465433" lon="6.3346067"><ele>859.0</ele><time>2026-05-02T15:03:18.273Z</time></trkpt><trkpt lat="43.7466133" lon="6.3345583"><ele>859.0</ele><time>2026-05-02T15:03:20.273Z</time></trkpt><trkpt lat="43.7466483" lon="6.3344817"><ele>859.0</ele><time>2026-05-02T15:03:21.273Z</time></trkpt><trkpt lat="43.7466933" lon="6.3343733"><ele>858.9999999999999</ele><time>2026-05-02T15:03:22.273Z</time></trkpt><trkpt lat="43.7467433" lon="6.3342567"><ele>859.0</ele><time>2026-05-02T15:03:23.273Z</time></trkpt><trkpt lat="43.7467867" lon="6.3341433"><ele>858.9999999999999</ele><time>2026-05-02T15:03:24.273Z</time></trkpt><trkpt lat="43.7468233" lon="6.33403"><ele>859.0</ele><time>2026-05-02T15:03:25.273Z</time></trkpt><trkpt lat="43.7468467" lon="6.3339267"><ele>859.0</ele><time>2026-05-02T15:03:26.273Z</time></trkpt><trkpt lat="43.7468533" lon="6.3338167"><ele>859.0</ele><time>2026-05-02T15:03:27.273Z</time></trkpt><trkpt lat="43.74684" lon="6.3336917"><ele>858.9999999999999</ele><time>2026-05-02T15:03:28.273Z</time></trkpt><trkpt lat="43.746815" lon="6.3335833"><ele>859.0</ele><time>2026-05-02T15:03:29.273Z</time></trkpt><trkpt lat="43.7467883" lon="6.3334783"><ele>858.9999999999999</ele><time>2026-05-02T15:03:30.273Z</time></trkpt><trkpt lat="43.74676" lon="6.33337"><ele>859.0</ele><time>2026-05-02T15:03:31.273Z</time></trkpt><trkpt lat="43.7467417" lon="6.3332567"><ele>859.0</ele><time>2026-05-02T15:03:32.273Z</time></trkpt><trkpt lat="43.7467317" lon="6.3331333"><ele>859.0</ele><time>2026-05-02T15:03:33.273Z</time></trkpt><trkpt lat="43.7467367" lon="6.3330133"><ele>858.9999999999999</ele><time>2026-05-02T15:03:34.273Z</time></trkpt><trkpt lat="43.7467667" lon="6.3329"><ele>859.0</ele><time>2026-05-02T15:03:35.273Z</time></trkpt><trkpt lat="43.7468167" lon="6.3327917"><ele>862.0</ele><time>2026-05-02T15:03:36.273Z</time></trkpt><trkpt lat="43.74688" lon="6.332685"><ele>865.0000000000001</ele><time>2026-05-02T15:03:37.273Z</time></trkpt><trkpt lat="43.7469417" lon="6.33255"><ele>868.0000000000001</ele><time>2026-05-02T15:03:38.273Z</time></trkpt><trkpt lat="43.7469883" lon="6.3324183"><ele>871.0</ele><time>2026-05-02T15:03:39.274Z</time></trkpt><trkpt lat="43.7470067" lon="6.3322717"><ele>874.0</ele><time>2026-05-02T15:03:40.273Z</time></trkpt><trkpt lat="43.7470017" lon="6.3321283"><ele>874.0</ele><time>2026-05-02T15:03:41.273Z</time></trkpt><trkpt lat="43.7469983" lon="6.3319983"><ele>874.0000000000001</ele><time>2026-05-02T15:03:42.273Z</time></trkpt><trkpt lat="43.7469917" lon="6.3318817"><ele>874.0000000000001</ele><time>2026-05-02T15:03:43.273Z</time></trkpt><trkpt lat="43.746985" lon="6.3317583"><ele>874.0</ele><time>2026-05-02T15:03:44.273Z</time></trkpt><trkpt lat="43.7469867" lon="6.331635"><ele>874.0</ele><time>2026-05-02T15:03:45.273Z</time></trkpt><trkpt lat="43.7469967" lon="6.3314983"><ele>874.0</ele><time>2026-05-02T15:03:46.273Z</time></trkpt><trkpt lat="43.7470033" lon="6.3313583"><ele>874.0000000000001</ele><time>2026-05-02T15:03:47.273Z</time></trkpt><trkpt lat="43.747015" lon="6.331215"><ele>874.0000000000001</ele><time>2026-05-02T15:03:48.273Z</time></trkpt><trkpt lat="43.7470317" lon="6.33108"><ele>874.0</ele><time>2026-05-02T15:03:49.273Z</time></trkpt><trkpt lat="43.74706" lon="6.33095"><ele>874.0</ele><time>2026-05-02T15:03:50.273Z</time></trkpt><trkpt lat="43.7471167" lon="6.33084"><ele>874.0</ele><time>2026-05-02T15:03:51.273Z</time></trkpt><trkpt lat="43.747185" lon="6.3307333"><ele>874.0000000000001</ele><time>2026-05-02T15:03:52.273Z</time></trkpt><trkpt lat="43.74726" lon="6.3306317"><ele>874.0000000000001</ele><time>2026-05-02T15:03:53.273Z</time></trkpt><trkpt lat="43.7473467" lon="6.3305383"><ele>874.0</ele><time>2026-05-02T15:03:54.273Z</time></trkpt><trkpt lat="43.74743" lon="6.33045"><ele>874.0</ele><time>2026-05-02T15:03:55.273Z</time></trkpt><trkpt lat="43.7474967" lon="6.3303333"><ele>874.0</ele><time>2026-05-02T15:03:56.273Z</time></trkpt><trkpt lat="43.7475417" lon="6.3301983"><ele>874.0000000000001</ele><time>2026-05-02T15:03:57.273Z</time></trkpt><trkpt lat="43.7475617" lon="6.3300567"><ele>874.0000000000001</ele><time>2026-05-02T15:03:58.273Z</time></trkpt><trkpt lat="43.7475733" lon="6.329925"><ele>874.0</ele><time>2026-05-02T15:03:59.273Z</time></trkpt><trkpt lat="43.7475767" lon="6.32979"><ele>874.0</ele><time>2026-05-02T15:04:00.273Z</time></trkpt><trkpt lat="43.7475717" lon="6.32965"><ele>866.0</ele><time>2026-05-02T15:04:01.273Z</time></trkpt><trkpt lat="43.747575" lon="6.3295117"><ele>858.0000000000001</ele><time>2026-05-02T15:04:02.273Z</time></trkpt><trkpt lat="43.7475817" lon="6.3293867"><ele>850.0</ele><time>2026-05-02T15:04:03.273Z</time></trkpt><trkpt lat="43.7476117" lon="6.32928"><ele>842.0</ele><time>2026-05-02T15:04:04.273Z</time></trkpt><trkpt lat="43.74767" lon="6.32917"><ele>834.0</ele><time>2026-05-02T15:04:05.273Z</time></trkpt><trkpt lat="43.747745" lon="6.3290667"><ele>834.0</ele><time>2026-05-02T15:04:06.273Z</time></trkpt><trkpt lat="43.7478283" lon="6.32896"><ele>834.0</ele><time>2026-05-02T15:04:07.274Z</time></trkpt><trkpt lat="43.74792" lon="6.3288583"><ele>834.0</ele><time>2026-05-02T15:04:08.273Z</time></trkpt><trkpt lat="43.74799" lon="6.32874"><ele>834.0</ele><time>2026-05-02T15:04:09.273Z</time></trkpt><trkpt lat="43.74806" lon="6.3286217"><ele>830.8333333333334</ele><time>2026-05-02T15:04:10.273Z</time></trkpt><trkpt lat="43.74813" lon="6.3285183"><ele>827.6666666666667</ele><time>2026-05-02T15:04:11.273Z</time></trkpt><trkpt lat="43.7482017" lon="6.3284367"><ele>824.5</ele><time>2026-05-02T15:04:12.273Z</time></trkpt><trkpt lat="43.7482833" lon="6.3283933"><ele>821.3333333333334</ele><time>2026-05-02T15:04:13.273Z</time></trkpt><trkpt lat="43.7483467" lon="6.3283683"><ele>818.1666666666667</ele><time>2026-05-02T15:04:14.273Z</time></trkpt><trkpt lat="43.7484267" lon="6.328365"><ele>815.0</ele><time>2026-05-02T15:04:15.274Z</time></trkpt><trkpt lat="43.74852" lon="6.32839"><ele>809.5</ele><time>2026-05-02T15:04:16.273Z</time></trkpt><trkpt lat="43.748625" lon="6.3284517"><ele>804.0</ele><time>2026-05-02T15:04:17.273Z</time></trkpt><trkpt lat="43.748735" lon="6.328525"><ele>798.5</ele><time>2026-05-02T15:04:18.273Z</time></trkpt><trkpt lat="43.7488333" lon="6.328605"><ele>793.0</ele><time>2026-05-02T15:04:19.273Z</time></trkpt><trkpt lat="43.7489217" lon="6.328685"><ele>793.0</ele><time>2026-05-02T15:04:20.273Z</time></trkpt><trkpt lat="43.7490017" lon="6.3287767"><ele>793.0</ele><time>2026-05-02T15:04:21.273Z</time></trkpt><trkpt lat="43.749095" lon="6.32886"><ele>793.0</ele><time>2026-05-02T15:04:22.273Z</time></trkpt><trkpt lat="43.749185" lon="6.3289417"><ele>793.0</ele><time>2026-05-02T15:04:23.274Z</time></trkpt><trkpt lat="43.74928" lon="6.32903"><ele>793.0</ele><time>2026-05-02T15:04:24.273Z</time></trkpt><trkpt lat="43.7493933" lon="6.32911"><ele>800.75</ele><time>2026-05-02T15:04:25.273Z</time></trkpt><trkpt lat="43.749505" lon="6.3291817"><ele>808.5</ele><time>2026-05-02T15:04:26.273Z</time></trkpt><trkpt lat="43.7496183" lon="6.3292417"><ele>816.25</ele><time>2026-05-02T15:04:27.274Z</time></trkpt><trkpt lat="43.7497383" lon="6.3293067"><ele>824.0</ele><time>2026-05-02T15:04:28.273Z</time></trkpt><trkpt lat="43.74986" lon="6.3293733"><ele>824.0</ele><time>2026-05-02T15:04:29.273Z</time></trkpt><trkpt lat="43.7499683" lon="6.3294417"><ele>824.0</ele><time>2026-05-02T15:04:30.274Z</time></trkpt><trkpt lat="43.75008" lon="6.3294967"><ele>824.0</ele><time>2026-05-02T15:04:31.274Z</time></trkpt><trkpt lat="43.7501767" lon="6.3295633"><ele>824.0</ele><time>2026-05-02T15:04:32.273Z</time></trkpt><trkpt lat="43.75027" lon="6.3296667"><ele>827.5</ele><time>2026-05-02T15:04:33.274Z</time></trkpt><trkpt lat="43.7503483" lon="6.3297883"><ele>831.0</ele><time>2026-05-02T15:04:34.273Z</time></trkpt><trkpt lat="43.750425" lon="6.3299183"><ele>834.5</ele><time>2026-05-02T15:04:35.273Z</time></trkpt><trkpt lat="43.7505" lon="6.3300483"><ele>838.0</ele><time>2026-05-02T15:04:36.273Z</time></trkpt><trkpt lat="43.7505683" lon="6.3301783"><ele>838.0</ele><time>2026-05-02T15:04:37.273Z</time></trkpt><trkpt lat="43.750645" lon="6.3302983"><ele>838.0</ele><time>2026-05-02T15:04:38.274Z</time></trkpt><trkpt lat="43.75074" lon="6.3304"><ele>838.0</ele><time>2026-05-02T15:04:39.273Z</time></trkpt><trkpt lat="43.7508517" lon="6.33048"><ele>838.0</ele><time>2026-05-02T15:04:40.273Z</time></trkpt><trkpt lat="43.7509633" lon="6.3305333"><ele>841.3333333333333</ele><time>2026-05-02T15:04:41.273Z</time></trkpt><trkpt lat="43.7510583" lon="6.3305667"><ele>844.6666666666666</ele><time>2026-05-02T15:04:42.273Z</time></trkpt><trkpt lat="43.7511483" lon="6.3305967"><ele>848.0</ele><time>2026-05-02T15:04:43.273Z</time></trkpt><trkpt lat="43.75124" lon="6.330625"><ele>851.3333333333333</ele><time>2026-05-02T15:04:44.273Z</time></trkpt><trkpt lat="43.75132" lon="6.3306583"><ele>854.6666666666666</ele><time>2026-05-02T15:04:45.273Z</time></trkpt><trkpt lat="43.751395" lon="6.3306583"><ele>858.0</ele><time>2026-05-02T15:04:46.273Z</time></trkpt><trkpt lat="43.7514767" lon="6.33063"><ele>858.0</ele><time>2026-05-02T15:04:47.273Z</time></trkpt><trkpt lat="43.7515467" lon="6.33058"><ele>858.0</ele><time>2026-05-02T15:04:48.273Z</time></trkpt><trkpt lat="43.751605" lon="6.3304767"><ele>858.0</ele><time>2026-05-02T15:04:49.273Z</time></trkpt><trkpt lat="43.7516333" lon="6.3303583"><ele>858.0</ele><time>2026-05-02T15:04:50.274Z</time></trkpt><trkpt lat="43.751635" lon="6.3302433"><ele>858.0</ele><time>2026-05-02T15:04:51.273Z</time></trkpt><trkpt lat="43.7515967" lon="6.330125"><ele>858.0</ele><time>2026-05-02T15:04:52.273Z</time></trkpt><trkpt lat="43.7515383" lon="6.329995"><ele>857.0</ele><time>2026-05-02T15:04:53.273Z</time></trkpt><trkpt lat="43.7514867" lon="6.32985"><ele>856.0</ele><time>2026-05-02T15:04:54.273Z</time></trkpt><trkpt lat="43.75146" lon="6.3297033"><ele>855.0</ele><time>2026-05-02T15:04:55.273Z</time></trkpt><trkpt lat="43.7514567" lon="6.32957"><ele>854.0</ele><time>2026-05-02T15:04:56.273Z</time></trkpt><trkpt lat="43.75147" lon="6.32942"><ele>853.0</ele><time>2026-05-02T15:04:57.273Z</time></trkpt><trkpt lat="43.7514917" lon="6.3292717"><ele>852.5999999999999</ele><time>2026-05-02T15:04:58.273Z</time></trkpt><trkpt lat="43.75152" lon="6.32913"><ele>852.1999999999999</ele><time>2026-05-02T15:04:59.273Z</time></trkpt><trkpt lat="43.7515517" lon="6.3289883"><ele>851.8</ele><time>2026-05-02T15:05:00.273Z</time></trkpt><trkpt lat="43.7515967" lon="6.3288633"><ele>851.4</ele><time>2026-05-02T15:05:01.273Z</time></trkpt><trkpt lat="43.7516567" lon="6.3287467"><ele>851.0</ele><time>2026-05-02T15:05:02.273Z</time></trkpt><trkpt lat="43.7517183" lon="6.32863"><ele>852.8</ele><time>2026-05-02T15:05:03.273Z</time></trkpt><trkpt lat="43.75179" lon="6.3285167"><ele>854.5999999999999</ele><time>2026-05-02T15:05:04.273Z</time></trkpt><trkpt lat="43.7518583" lon="6.3284267"><ele>856.4</ele><time>2026-05-02T15:05:05.273Z</time></trkpt><trkpt lat="43.751925" lon="6.3283617"><ele>858.2</ele><time>2026-05-02T15:05:06.273Z</time></trkpt><trkpt lat="43.7519983" lon="6.3283283"><ele>860.0</ele><time>2026-05-02T15:05:07.273Z</time></trkpt><trkpt lat="43.7520883" lon="6.32833"><ele>860.0</ele><time>2026-05-02T15:05:08.273Z</time></trkpt><trkpt lat="43.7521967" lon="6.3283533"><ele>860.0</ele><time>2026-05-02T15:05:09.273Z</time></trkpt><trkpt lat="43.7523133" lon="6.3283733"><ele>860.0</ele><time>2026-05-02T15:05:10.273Z</time></trkpt><trkpt lat="43.7524317" lon="6.328395"><ele>860.0</ele><time>2026-05-02T15:05:11.273Z</time></trkpt><trkpt lat="43.7525517" lon="6.3284117"><ele>860.0</ele><time>2026-05-02T15:05:12.273Z</time></trkpt><trkpt lat="43.7526733" lon="6.32842"><ele>860.0</ele><time>2026-05-02T15:05:13.273Z</time></trkpt><trkpt lat="43.7527883" lon="6.3284133"><ele>860.0</ele><time>2026-05-02T15:05:14.273Z</time></trkpt><trkpt lat="43.7529067" lon="6.3284167"><ele>860.0</ele><time>2026-05-02T15:05:15.273Z</time></trkpt><trkpt lat="43.7530183" lon="6.3284233"><ele>858.4</ele><time>2026-05-02T15:05:16.273Z</time></trkpt><trkpt lat="43.7531233" lon="6.328415"><ele>856.8</ele><time>2026-05-02T15:05:17.274Z</time></trkpt><trkpt lat="43.7532117" lon="6.3283567"><ele>855.2</ele><time>2026-05-02T15:05:18.273Z</time></trkpt><trkpt lat="43.7532917" lon="6.32826"><ele>853.6</ele><time>2026-05-02T15:05:19.273Z</time></trkpt><trkpt lat="43.7533433" lon="6.32814"><ele>852.0</ele><time>2026-05-02T15:05:20.273Z</time></trkpt><trkpt lat="43.7533567" lon="6.3279717"><ele>852.0</ele><time>2026-05-02T15:05:21.273Z</time></trkpt><trkpt lat="43.753365" lon="6.327795"><ele>852.0</ele><time>2026-05-02T15:05:22.274Z</time></trkpt><trkpt lat="43.7533667" lon="6.3276133"><ele>852.0</ele><time>2026-05-02T15:05:23.273Z</time></trkpt><trkpt lat="43.7533733" lon="6.3274517"><ele>852.0</ele><time>2026-05-02T15:05:24.273Z</time></trkpt><trkpt lat="43.7533883" lon="6.327305"><ele>856.0</ele><time>2026-05-02T15:05:25.273Z</time></trkpt><trkpt lat="43.753405" lon="6.3271667"><ele>860.0</ele><time>2026-05-02T15:05:26.273Z</time></trkpt><trkpt lat="43.7534333" lon="6.3270467"><ele>864.0</ele><time>2026-05-02T15:05:27.273Z</time></trkpt><trkpt lat="43.7534767" lon="6.3269383"><ele>868.0</ele><time>2026-05-02T15:05:28.273Z</time></trkpt><trkpt lat="43.7535433" lon="6.3268633"><ele>872.0</ele><time>2026-05-02T15:05:29.273Z</time></trkpt><trkpt lat="43.7536183" lon="6.3268033"><ele>872.0</ele><time>2026-05-02T15:05:30.273Z</time></trkpt><trkpt lat="43.7537083" lon="6.32677"><ele>872.0</ele><time>2026-05-02T15:05:31.273Z</time></trkpt><trkpt lat="43.7538067" lon="6.326755"><ele>872.0</ele><time>2026-05-02T15:05:32.274Z</time></trkpt><trkpt lat="43.7539067" lon="6.3267583"><ele>872.0</ele><time>2026-05-02T15:05:33.273Z</time></trkpt><trkpt lat="43.7540017" lon="6.32676"><ele>872.0</ele><time>2026-05-02T15:05:34.273Z</time></trkpt><trkpt lat="43.7540917" lon="6.32671"><ele>872.0000000000001</ele><time>2026-05-02T15:05:35.273Z</time></trkpt><trkpt lat="43.754165" lon="6.32664"><ele>872.0</ele><time>2026-05-02T15:05:36.273Z</time></trkpt><trkpt lat="43.754225" lon="6.3265583"><ele>872.0</ele><time>2026-05-02T15:05:37.273Z</time></trkpt><trkpt lat="43.75427" lon="6.3264583"><ele>872.0</ele><time>2026-05-02T15:05:38.273Z</time></trkpt><trkpt lat="43.7542867" lon="6.326345"><ele>872.0000000000001</ele><time>2026-05-02T15:05:39.273Z</time></trkpt><trkpt lat="43.7542767" lon="6.32622"><ele>872.0</ele><time>2026-05-02T15:05:40.273Z</time></trkpt><trkpt lat="43.7542517" lon="6.3260883"><ele>871.5000000000001</ele><time>2026-05-02T15:05:41.273Z</time></trkpt><trkpt lat="43.75426" lon="6.3259567"><ele>871.0</ele><time>2026-05-02T15:05:42.273Z</time></trkpt><trkpt lat="43.7542833" lon="6.3258417"><ele>870.5</ele><time>2026-05-02T15:05:43.273Z</time></trkpt><trkpt lat="43.75433" lon="6.32574"><ele>870.0</ele><time>2026-05-02T15:05:44.273Z</time></trkpt><trkpt lat="43.7543917" lon="6.325675"><ele>869.5000000000001</ele><time>2026-05-02T15:05:45.273Z</time></trkpt><trkpt lat="43.7544717" lon="6.3256467"><ele>869.0</ele><time>2026-05-02T15:05:46.274Z</time></trkpt><trkpt lat="43.75456" lon="6.3256133"><ele>869.0</ele><time>2026-05-02T15:05:47.273Z</time></trkpt><trkpt lat="43.7546567" lon="6.3255783"><ele>869.0000000000001</ele><time>2026-05-02T15:05:48.274Z</time></trkpt><trkpt lat="43.754755" lon="6.3255483"><ele>869.0000000000001</ele><time>2026-05-02T15:05:49.273Z</time></trkpt><trkpt lat="43.754855" lon="6.3255233"><ele>869.0</ele><time>2026-05-02T15:05:50.273Z</time></trkpt><trkpt lat="43.7549583" lon="6.325485"><ele>869.0</ele><time>2026-05-02T15:05:51.273Z</time></trkpt><trkpt lat="43.7550583" lon="6.3254333"><ele>867.4000000000001</ele><time>2026-05-02T15:05:52.273Z</time></trkpt><trkpt lat="43.755145" lon="6.32536"><ele>865.8000000000001</ele><time>2026-05-02T15:05:53.273Z</time></trkpt><trkpt lat="43.7552267" lon="6.325265"><ele>864.1999999999999</ele><time>2026-05-02T15:05:54.274Z</time></trkpt><trkpt lat="43.7553133" lon="6.3251683"><ele>862.5999999999999</ele><time>2026-05-02T15:05:55.273Z</time></trkpt><trkpt lat="43.7553967" lon="6.32507"><ele>861.0</ele><time>2026-05-02T15:05:56.273Z</time></trkpt><trkpt lat="43.7554733" lon="6.32497"><ele>861.0</ele><time>2026-05-02T15:05:57.273Z</time></trkpt><trkpt lat="43.7555517" lon="6.3248733"><ele>860.9999999999999</ele><time>2026-05-02T15:05:58.273Z</time></trkpt><trkpt lat="43.7556417" lon="6.324775"><ele>860.9999999999999</ele><time>2026-05-02T15:05:59.273Z</time></trkpt><trkpt lat="43.7557267" lon="6.3246783"><ele>861.0</ele><time>2026-05-02T15:06:00.273Z</time></trkpt><trkpt lat="43.7558033" lon="6.3245917"><ele>861.0</ele><time>2026-05-02T15:06:01.273Z</time></trkpt><trkpt lat="43.755875" lon="6.32451"><ele>863.3333333333334</ele><time>2026-05-02T15:06:02.273Z</time></trkpt><trkpt lat="43.7559567" lon="6.3244333"><ele>865.6666666666667</ele><time>2026-05-02T15:06:03.273Z</time></trkpt><trkpt lat="43.7560283" lon="6.3243567"><ele>868.0</ele><time>2026-05-02T15:06:04.273Z</time></trkpt><trkpt lat="43.7560817" lon="6.32426"><ele>870.3333333333334</ele><time>2026-05-02T15:06:05.273Z</time></trkpt><trkpt lat="43.7560983" lon="6.324155"><ele>872.6666666666667</ele><time>2026-05-02T15:06:06.273Z</time></trkpt><trkpt lat="43.7560817" lon="6.3240517"><ele>875.0</ele><time>2026-05-02T15:06:07.273Z</time></trkpt><trkpt lat="43.7560617" lon="6.3239183"><ele>874.6</ele><time>2026-05-02T15:06:08.273Z</time></trkpt><trkpt lat="43.7560533" lon="6.3237883"><ele>874.2</ele><time>2026-05-02T15:06:09.273Z</time></trkpt><trkpt lat="43.756045" lon="6.32365"><ele>873.8</ele><time>2026-05-02T15:06:10.273Z</time></trkpt><trkpt lat="43.7560383" lon="6.3235117"><ele>873.4</ele><time>2026-05-02T15:06:11.273Z</time></trkpt><trkpt lat="43.7560417" lon="6.3233717"><ele>873.0</ele><time>2026-05-02T15:06:12.273Z</time></trkpt><trkpt lat="43.7560633" lon="6.323245"><ele>873.0</ele><time>2026-05-02T15:06:13.273Z</time></trkpt><trkpt lat="43.7560933" lon="6.3231033"><ele>873.0</ele><time>2026-05-02T15:06:14.273Z</time></trkpt><trkpt lat="43.75611" lon="6.32295"><ele>873.0</ele><time>2026-05-02T15:06:15.273Z</time></trkpt><trkpt lat="43.75611" lon="6.3228117"><ele>873.0</ele><time>2026-05-02T15:06:16.273Z</time></trkpt><trkpt lat="43.7561017" lon="6.3226733"><ele>873.0</ele><time>2026-05-02T15:06:17.273Z</time></trkpt><trkpt lat="43.7560833" lon="6.322535"><ele>871.5999999999999</ele><time>2026-05-02T15:06:18.273Z</time></trkpt><trkpt lat="43.7560583" lon="6.3224017"><ele>870.1999999999999</ele><time>2026-05-02T15:06:19.274Z</time></trkpt><trkpt lat="43.7560367" lon="6.3222583"><ele>868.8</ele><time>2026-05-02T15:06:20.273Z</time></trkpt><trkpt lat="43.7560317" lon="6.3221033"><ele>867.4</ele><time>2026-05-02T15:06:21.273Z</time></trkpt><trkpt lat="43.7560483" lon="6.3219467"><ele>866.0</ele><time>2026-05-02T15:06:22.273Z</time></trkpt><trkpt lat="43.7560717" lon="6.3217833"><ele>863.1999999999999</ele><time>2026-05-02T15:06:23.273Z</time></trkpt><trkpt lat="43.7560967" lon="6.3216267"><ele>860.3999999999999</ele><time>2026-05-02T15:06:24.274Z</time></trkpt><trkpt lat="43.7561033" lon="6.3214733"><ele>857.6</ele><time>2026-05-02T15:06:25.273Z</time></trkpt><trkpt lat="43.7561017" lon="6.32132"><ele>854.8</ele><time>2026-05-02T15:06:26.273Z</time></trkpt><trkpt lat="43.7560933" lon="6.3211717"><ele>852.0</ele><time>2026-05-02T15:06:27.273Z</time></trkpt><trkpt lat="43.7560767" lon="6.32104"><ele>848.0</ele><time>2026-05-02T15:06:28.273Z</time></trkpt><trkpt lat="43.7560583" lon="6.32093"><ele>844.0</ele><time>2026-05-02T15:06:29.273Z</time></trkpt><trkpt lat="43.7560333" lon="6.3208433"><ele>840.0</ele><time>2026-05-02T15:06:30.274Z</time></trkpt><trkpt lat="43.755985" lon="6.320735"><ele>836.0</ele><time>2026-05-02T15:06:32.274Z</time></trkpt><trkpt lat="43.755945" lon="6.3206583"><ele>832.0</ele><time>2026-05-02T15:06:34.273Z</time></trkpt><trkpt lat="43.7558983" lon="6.3205633"><ele>828.0</ele><time>2026-05-02T15:06:37.273Z</time></trkpt><trkpt lat="43.7558717" lon="6.3204767"><ele>828.0</ele><time>2026-05-02T15:06:40.273Z</time></trkpt><trkpt lat="43.7559083" lon="6.3203533"><ele>828.0</ele><time>2026-05-02T15:09:44.272Z</time></trkpt><trkpt lat="43.756025" lon="6.3203"><ele>828.0</ele><time>2026-05-02T15:09:46.272Z</time></trkpt><trkpt lat="43.7560883" lon="6.3203017"><ele>828.0</ele><time>2026-05-02T15:09:47.273Z</time></trkpt><trkpt lat="43.7561967" lon="6.3203767"><ele>828.0</ele><time>2026-05-02T15:09:49.272Z</time></trkpt><trkpt lat="43.7563" lon="6.320475"><ele>828.0</ele><time>2026-05-02T15:09:51.272Z</time></trkpt><trkpt lat="43.756365" lon="6.320515"><ele>828.0</ele><time>2026-05-02T15:09:52.272Z</time></trkpt><trkpt lat="43.75646" lon="6.3205533"><ele>828.0</ele><time>2026-05-02T15:09:53.272Z</time></trkpt><trkpt lat="43.756565" lon="6.32058"><ele>828.0</ele><time>2026-05-02T15:09:54.272Z</time></trkpt><trkpt lat="43.7566633" lon="6.3205883"><ele>828.0</ele><time>2026-05-02T15:09:55.272Z</time></trkpt><trkpt lat="43.75677" lon="6.3206017"><ele>827.4</ele><time>2026-05-02T15:09:56.272Z</time></trkpt><trkpt lat="43.756875" lon="6.320635"><ele>826.8</ele><time>2026-05-02T15:09:57.272Z</time></trkpt><trkpt lat="43.75698" lon="6.320685"><ele>826.2</ele><time>2026-05-02T15:09:58.272Z</time></trkpt><trkpt lat="43.7570833" lon="6.3207417"><ele>825.6</ele><time>2026-05-02T15:09:59.273Z</time></trkpt><trkpt lat="43.7571717" lon="6.32076"><ele>825.0</ele><time>2026-05-02T15:10:00.272Z</time></trkpt><trkpt lat="43.7572633" lon="6.3207533"><ele>825.0</ele><time>2026-05-02T15:10:01.272Z</time></trkpt><trkpt lat="43.75735" lon="6.3207417"><ele>825.0</ele><time>2026-05-02T15:10:02.272Z</time></trkpt><trkpt lat="43.7574467" lon="6.320705"><ele>825.0</ele><time>2026-05-02T15:10:03.272Z</time></trkpt><trkpt lat="43.7575333" lon="6.320655"><ele>825.0</ele><time>2026-05-02T15:10:04.272Z</time></trkpt><trkpt lat="43.7576133" lon="6.3205933"><ele>825.0</ele><time>2026-05-02T15:10:05.272Z</time></trkpt><trkpt lat="43.757685" lon="6.3205317"><ele>821.6</ele><time>2026-05-02T15:10:06.272Z</time></trkpt><trkpt lat="43.75775" lon="6.320465"><ele>818.2</ele><time>2026-05-02T15:10:07.272Z</time></trkpt><trkpt lat="43.7578133" lon="6.3203767"><ele>814.8</ele><time>2026-05-02T15:10:08.272Z</time></trkpt><trkpt lat="43.7578783" lon="6.32028"><ele>811.4</ele><time>2026-05-02T15:10:09.272Z</time></trkpt><trkpt lat="43.75794" lon="6.3201633"><ele>808.0</ele><time>2026-05-02T15:10:10.272Z</time></trkpt><trkpt lat="43.7580083" lon="6.3200533"><ele>808.0</ele><time>2026-05-02T15:10:11.272Z</time></trkpt><trkpt lat="43.75808" lon="6.3199467"><ele>808.0</ele><time>2026-05-02T15:10:12.272Z</time></trkpt><trkpt lat="43.75816" lon="6.3198483"><ele>808.0</ele><time>2026-05-02T15:10:13.272Z</time></trkpt><trkpt lat="43.7582517" lon="6.3197683"><ele>808.0</ele><time>2026-05-02T15:10:14.272Z</time></trkpt><trkpt lat="43.75834" lon="6.3196867"><ele>808.0</ele><time>2026-05-02T15:10:15.272Z</time></trkpt><trkpt lat="43.7584333" lon="6.3196083"><ele>801.8</ele><time>2026-05-02T15:10:16.272Z</time></trkpt><trkpt lat="43.7585217" lon="6.3195283"><ele>795.5999999999999</ele><time>2026-05-02T15:10:17.272Z</time></trkpt><trkpt lat="43.7586067" lon="6.31947"><ele>789.4000000000001</ele><time>2026-05-02T15:10:18.272Z</time></trkpt><trkpt lat="43.7586933" lon="6.3194467"><ele>783.2</ele><time>2026-05-02T15:10:19.272Z</time></trkpt><trkpt lat="43.7587783" lon="6.3194467"><ele>777.0</ele><time>2026-05-02T15:10:20.272Z</time></trkpt><trkpt lat="43.7588667" lon="6.31949"><ele>777.0</ele><time>2026-05-02T15:10:21.272Z</time></trkpt><trkpt lat="43.7589517" lon="6.319545"><ele>777.0</ele><time>2026-05-02T15:10:22.272Z</time></trkpt><trkpt lat="43.7590333" lon="6.3196183"><ele>777.0</ele><time>2026-05-02T15:10:23.272Z</time></trkpt><trkpt lat="43.7591183" lon="6.3197117"><ele>777.0</ele><time>2026-05-02T15:10:24.272Z</time></trkpt><trkpt lat="43.759205" lon="6.319785"><ele>777.0</ele><time>2026-05-02T15:10:25.272Z</time></trkpt><trkpt lat="43.7592967" lon="6.31981"><ele>784.8</ele><time>2026-05-02T15:10:26.272Z</time></trkpt><trkpt lat="43.7593883" lon="6.3197867"><ele>792.6</ele><time>2026-05-02T15:10:27.272Z</time></trkpt><trkpt lat="43.75948" lon="6.3197233"><ele>800.4</ele><time>2026-05-02T15:10:28.272Z</time></trkpt><trkpt lat="43.75957" lon="6.3196417"><ele>808.1999999999999</ele><time>2026-05-02T15:10:29.272Z</time></trkpt><trkpt lat="43.75966" lon="6.319535"><ele>816.0</ele><time>2026-05-02T15:10:30.272Z</time></trkpt><trkpt lat="43.7597483" lon="6.31942"><ele>816.0</ele><time>2026-05-02T15:10:31.272Z</time></trkpt><trkpt lat="43.7598233" lon="6.31931"><ele>816.0</ele><time>2026-05-02T15:10:32.273Z</time></trkpt><trkpt lat="43.7598917" lon="6.3192067"><ele>816.0</ele><time>2026-05-02T15:10:33.272Z</time></trkpt><trkpt lat="43.7599433" lon="6.3190983"><ele>816.0</ele><time>2026-05-02T15:10:34.272Z</time></trkpt><trkpt lat="43.7599817" lon="6.3189817"><ele>816.0</ele><time>2026-05-02T15:10:35.272Z</time></trkpt><trkpt lat="43.759995" lon="6.31887"><ele>813.4</ele><time>2026-05-02T15:10:36.272Z</time></trkpt><trkpt lat="43.75999" lon="6.3187467"><ele>810.8</ele><time>2026-05-02T15:10:37.272Z</time></trkpt><trkpt lat="43.7599617" lon="6.3186067"><ele>808.1999999999999</ele><time>2026-05-02T15:10:38.272Z</time></trkpt><trkpt lat="43.7599233" lon="6.3184667"><ele>805.5999999999999</ele><time>2026-05-02T15:10:39.273Z</time></trkpt><trkpt lat="43.7598967" lon="6.3183217"><ele>803.0</ele><time>2026-05-02T15:10:40.273Z</time></trkpt><trkpt lat="43.7598683" lon="6.3181783"><ele>804.4</ele><time>2026-05-02T15:10:41.273Z</time></trkpt><trkpt lat="43.7598317" lon="6.3180317"><ele>805.8</ele><time>2026-05-02T15:10:42.272Z</time></trkpt><trkpt lat="43.7597833" lon="6.3178967"><ele>807.2</ele><time>2026-05-02T15:10:43.272Z</time></trkpt><trkpt lat="43.759735" lon="6.317765"><ele>808.6</ele><time>2026-05-02T15:10:44.273Z</time></trkpt><trkpt lat="43.7596967" lon="6.317645"><ele>810.0</ele><time>2026-05-02T15:10:45.272Z</time></trkpt><trkpt lat="43.75966" lon="6.3175367"><ele>810.0</ele><time>2026-05-02T15:10:46.272Z</time></trkpt><trkpt lat="43.7596467" lon="6.3174333"><ele>810.0</ele><time>2026-05-02T15:10:47.272Z</time></trkpt><trkpt lat="43.759635" lon="6.3173167"><ele>810.0</ele><time>2026-05-02T15:10:48.273Z</time></trkpt><trkpt lat="43.7596317" lon="6.317195"><ele>810.0</ele><time>2026-05-02T15:10:49.272Z</time></trkpt><trkpt lat="43.7596533" lon="6.3170667"><ele>810.0</ele><time>2026-05-02T15:10:50.272Z</time></trkpt><trkpt lat="43.7596967" lon="6.3169367"><ele>810.0</ele><time>2026-05-02T15:10:51.272Z</time></trkpt><trkpt lat="43.7597583" lon="6.3167983"><ele>810.0</ele><time>2026-05-02T15:10:52.272Z</time></trkpt><trkpt lat="43.759835" lon="6.316665"><ele>810.0</ele><time>2026-05-02T15:10:53.272Z</time></trkpt><trkpt lat="43.7599133" lon="6.31654"><ele>810.0</ele><time>2026-05-02T15:10:54.273Z</time></trkpt><trkpt lat="43.75999" lon="6.3164233"><ele>810.0</ele><time>2026-05-02T15:10:55.272Z</time></trkpt><trkpt lat="43.760065" lon="6.31631"><ele>806.6</ele><time>2026-05-02T15:10:56.272Z</time></trkpt><trkpt lat="43.7601383" lon="6.316195"><ele>803.2</ele><time>2026-05-02T15:10:57.272Z</time></trkpt><trkpt lat="43.7602033" lon="6.31609"><ele>799.8</ele><time>2026-05-02T15:10:58.272Z</time></trkpt><trkpt lat="43.7602683" lon="6.316"><ele>796.4</ele><time>2026-05-02T15:10:59.272Z</time></trkpt><trkpt lat="43.760335" lon="6.3159383"><ele>793.0</ele><time>2026-05-02T15:11:00.272Z</time></trkpt><trkpt lat="43.7604567" lon="6.315885"><ele>793.0</ele><time>2026-05-02T15:11:02.272Z</time></trkpt><trkpt lat="43.7605233" lon="6.3159117"><ele>793.0</ele><time>2026-05-02T15:11:03.272Z</time></trkpt><trkpt lat="43.7606" lon="6.3159533"><ele>793.0</ele><time>2026-05-02T15:11:04.272Z</time></trkpt><trkpt lat="43.76069" lon="6.31601"><ele>793.0</ele><time>2026-05-02T15:11:05.272Z</time></trkpt><trkpt lat="43.7607867" lon="6.316085"><ele>793.0</ele><time>2026-05-02T15:11:06.273Z</time></trkpt><trkpt lat="43.7608917" lon="6.316175"><ele>793.0</ele><time>2026-05-02T15:11:07.272Z</time></trkpt><trkpt lat="43.7610067" lon="6.316265"><ele>793.0</ele><time>2026-05-02T15:11:08.272Z</time></trkpt><trkpt lat="43.76111" lon="6.316355"><ele>793.0</ele><time>2026-05-02T15:11:09.272Z</time></trkpt><trkpt lat="43.761205" lon="6.3164633"><ele>793.0</ele><time>2026-05-02T15:11:10.272Z</time></trkpt><trkpt lat="43.7612933" lon="6.316565"><ele>797.5</ele><time>2026-05-02T15:11:11.272Z</time></trkpt><trkpt lat="43.7613917" lon="6.3166567"><ele>802.0</ele><time>2026-05-02T15:11:12.272Z</time></trkpt><trkpt lat="43.7614967" lon="6.3167467"><ele>806.5</ele><time>2026-05-02T15:11:13.272Z</time></trkpt><trkpt lat="43.761605" lon="6.3168117"><ele>811.0</ele><time>2026-05-02T15:11:14.272Z</time></trkpt><trkpt lat="43.7617133" lon="6.31683"><ele>811.0</ele><time>2026-05-02T15:11:15.272Z</time></trkpt><trkpt lat="43.7618233" lon="6.3168283"><ele>811.0</ele><time>2026-05-02T15:11:16.272Z</time></trkpt><trkpt lat="43.76194" lon="6.3168233"><ele>811.0</ele><time>2026-05-02T15:11:17.272Z</time></trkpt><trkpt lat="43.7620417" lon="6.3167917"><ele>811.0</ele><time>2026-05-02T15:11:18.272Z</time></trkpt><trkpt lat="43.7621517" lon="6.3167367"><ele>811.0</ele><time>2026-05-02T15:11:19.272Z</time></trkpt><trkpt lat="43.7622467" lon="6.3166533"><ele>810.4</ele><time>2026-05-02T15:11:20.272Z</time></trkpt><trkpt lat="43.7623333" lon="6.3165717"><ele>809.8</ele><time>2026-05-02T15:11:21.272Z</time></trkpt><trkpt lat="43.76243" lon="6.3165217"><ele>809.1999999999999</ele><time>2026-05-02T15:11:22.272Z</time></trkpt><trkpt lat="43.76253" lon="6.3165083"><ele>808.5999999999999</ele><time>2026-05-02T15:11:23.272Z</time></trkpt><trkpt lat="43.7626317" lon="6.3165517"><ele>808.0</ele><time>2026-05-02T15:11:24.272Z</time></trkpt><trkpt lat="43.76273" lon="6.3166383"><ele>809.0</ele><time>2026-05-02T15:11:25.272Z</time></trkpt><trkpt lat="43.7628" lon="6.3167583"><ele>810.0</ele><time>2026-05-02T15:11:26.272Z</time></trkpt><trkpt lat="43.76285" lon="6.3169183"><ele>811.0</ele><time>2026-05-02T15:11:27.272Z</time></trkpt><trkpt lat="43.7628733" lon="6.3170867"><ele>812.0</ele><time>2026-05-02T15:11:28.272Z</time></trkpt><trkpt lat="43.7629117" lon="6.3172417"><ele>812.0</ele><time>2026-05-02T15:11:29.272Z</time></trkpt><trkpt lat="43.7629867" lon="6.317375"><ele>812.0</ele><time>2026-05-02T15:11:30.272Z</time></trkpt><trkpt lat="43.76309" lon="6.31748"><ele>812.0</ele><time>2026-05-02T15:11:31.272Z</time></trkpt><trkpt lat="43.7632017" lon="6.3175583"><ele>812.0</ele><time>2026-05-02T15:11:32.272Z</time></trkpt><trkpt lat="43.7633117" lon="6.317605"><ele>812.0</ele><time>2026-05-02T15:11:33.273Z</time></trkpt><trkpt lat="43.76342" lon="6.317625"><ele>812.0</ele><time>2026-05-02T15:11:34.272Z</time></trkpt><trkpt lat="43.7635283" lon="6.3176667"><ele>812.0</ele><time>2026-05-02T15:11:35.272Z</time></trkpt><trkpt lat="43.7636333" lon="6.3177233"><ele>812.0</ele><time>2026-05-02T15:11:36.273Z</time></trkpt><trkpt lat="43.7637317" lon="6.31781"><ele>814.25</ele><time>2026-05-02T15:11:37.272Z</time></trkpt><trkpt lat="43.7638267" lon="6.3179017"><ele>816.5</ele><time>2026-05-02T15:11:38.272Z</time></trkpt><trkpt lat="43.7639133" lon="6.31803"><ele>818.75</ele><time>2026-05-02T15:11:39.272Z</time></trkpt><trkpt lat="43.764" lon="6.3181683"><ele>821.0</ele><time>2026-05-02T15:11:40.272Z</time></trkpt><trkpt lat="43.76408" lon="6.31832"><ele>821.0</ele><time>2026-05-02T15:11:41.272Z</time></trkpt><trkpt lat="43.764145" lon="6.3184683"><ele>821.0</ele><time>2026-05-02T15:11:42.272Z</time></trkpt><trkpt lat="43.764205" lon="6.3186217"><ele>821.0</ele><time>2026-05-02T15:11:43.273Z</time></trkpt><trkpt lat="43.7642617" lon="6.3187617"><ele>821.0</ele><time>2026-05-02T15:11:44.272Z</time></trkpt><trkpt lat="43.7643233" lon="6.3188817"><ele>818.1999999999999</ele><time>2026-05-02T15:11:45.272Z</time></trkpt><trkpt lat="43.7644017" lon="6.3189783"><ele>815.4</ele><time>2026-05-02T15:11:46.272Z</time></trkpt><trkpt lat="43.7644833" lon="6.31907"><ele>812.6</ele><time>2026-05-02T15:11:47.272Z</time></trkpt><trkpt lat="43.76457" lon="6.31916"><ele>809.8</ele><time>2026-05-02T15:11:48.272Z</time></trkpt><trkpt lat="43.764665" lon="6.3192583"><ele>807.0</ele><time>2026-05-02T15:11:49.272Z</time></trkpt><trkpt lat="43.764745" lon="6.3193733"><ele>807.0</ele><time>2026-05-02T15:11:50.273Z</time></trkpt><trkpt lat="43.7648083" lon="6.3195083"><ele>807.0</ele><time>2026-05-02T15:11:51.273Z</time></trkpt><trkpt lat="43.76486" lon="6.3196567"><ele>807.0</ele><time>2026-05-02T15:11:52.272Z</time></trkpt><trkpt lat="43.7649033" lon="6.31981"><ele>807.0</ele><time>2026-05-02T15:11:53.273Z</time></trkpt><trkpt lat="43.76495" lon="6.3199567"><ele>807.25</ele><time>2026-05-02T15:11:54.272Z</time></trkpt><trkpt lat="43.7650083" lon="6.32012"><ele>807.5</ele><time>2026-05-02T15:11:55.272Z</time></trkpt><trkpt lat="43.7650917" lon="6.3202767"><ele>807.75</ele><time>2026-05-02T15:11:56.272Z</time></trkpt><trkpt lat="43.7652117" lon="6.320445"><ele>808.0</ele><time>2026-05-02T15:11:57.272Z</time></trkpt><trkpt lat="43.7653383" lon="6.3206233"><ele>808.0</ele><time>2026-05-02T15:11:58.272Z</time></trkpt><trkpt lat="43.7654667" lon="6.3208017"><ele>808.0</ele><time>2026-05-02T15:11:59.272Z</time></trkpt><trkpt lat="43.7655817" lon="6.32098"><ele>808.0</ele><time>2026-05-02T15:12:00.272Z</time></trkpt><trkpt lat="43.7656917" lon="6.321145"><ele>808.0</ele><time>2026-05-02T15:12:01.272Z</time></trkpt><trkpt lat="43.7657917" lon="6.32131"><ele>808.0</ele><time>2026-05-02T15:12:02.272Z</time></trkpt><trkpt lat="43.765885" lon="6.3214683"><ele>808.0</ele><time>2026-05-02T15:12:03.272Z</time></trkpt><trkpt lat="43.7659717" lon="6.3216267"><ele>808.0</ele><time>2026-05-02T15:12:04.272Z</time></trkpt><trkpt lat="43.76606" lon="6.3217983"><ele>808.0</ele><time>2026-05-02T15:12:05.272Z</time></trkpt><trkpt lat="43.7661383" lon="6.3219717"><ele>808.0</ele><time>2026-05-02T15:12:06.272Z</time></trkpt><trkpt lat="43.76621" lon="6.3221517"><ele>808.0</ele><time>2026-05-02T15:12:07.272Z</time></trkpt><trkpt lat="43.76628" lon="6.3223283"><ele>808.0</ele><time>2026-05-02T15:12:08.272Z</time></trkpt><trkpt lat="43.7663483" lon="6.3225083"><ele>810.75</ele><time>2026-05-02T15:12:09.272Z</time></trkpt><trkpt lat="43.7664033" lon="6.3226917"><ele>813.5</ele><time>2026-05-02T15:12:10.273Z</time></trkpt><trkpt lat="43.7664467" lon="6.322865"><ele>816.25</ele><time>2026-05-02T15:12:11.272Z</time></trkpt><trkpt lat="43.7664917" lon="6.32304"><ele>819.0</ele><time>2026-05-02T15:12:12.272Z</time></trkpt><trkpt lat="43.7665483" lon="6.3232217"><ele>822.25</ele><time>2026-05-02T15:12:13.272Z</time></trkpt><trkpt lat="43.7666217" lon="6.3234017"><ele>825.5</ele><time>2026-05-02T15:12:14.272Z</time></trkpt><trkpt lat="43.7666967" lon="6.3235783"><ele>828.75</ele><time>2026-05-02T15:12:15.272Z</time></trkpt><trkpt lat="43.7667883" lon="6.3237433"><ele>832.0</ele><time>2026-05-02T15:12:16.272Z</time></trkpt><trkpt lat="43.7668783" lon="6.3238967"><ele>832.75</ele><time>2026-05-02T15:12:17.272Z</time></trkpt><trkpt lat="43.766975" lon="6.3240367"><ele>833.5</ele><time>2026-05-02T15:12:18.272Z</time></trkpt><trkpt lat="43.7670517" lon="6.32416"><ele>834.25</ele><time>2026-05-02T15:12:19.273Z</time></trkpt><trkpt lat="43.7671117" lon="6.3242767"><ele>835.0</ele><time>2026-05-02T15:12:20.272Z</time></trkpt><trkpt lat="43.7671733" lon="6.3244217"><ele>835.0</ele><time>2026-05-02T15:12:21.272Z</time></trkpt><trkpt lat="43.767215" lon="6.3245783"><ele>835.0</ele><time>2026-05-02T15:12:22.272Z</time></trkpt><trkpt lat="43.7672533" lon="6.32474"><ele>835.0</ele><time>2026-05-02T15:12:23.272Z</time></trkpt><trkpt lat="43.7673033" lon="6.3249117"><ele>835.0</ele><time>2026-05-02T15:12:24.272Z</time></trkpt><trkpt lat="43.7673683" lon="6.3250717"><ele>836.5</ele><time>2026-05-02T15:12:25.272Z</time></trkpt><trkpt lat="43.7674617" lon="6.325205"><ele>838.0</ele><time>2026-05-02T15:12:26.272Z</time></trkpt><trkpt lat="43.76754" lon="6.32535"><ele>839.5</ele><time>2026-05-02T15:12:27.272Z</time></trkpt><trkpt lat="43.76761" lon="6.325505"><ele>841.0</ele><time>2026-05-02T15:12:28.272Z</time></trkpt><trkpt lat="43.7676583" lon="6.3256667"><ele>843.75</ele><time>2026-05-02T15:12:29.273Z</time></trkpt><trkpt lat="43.7676883" lon="6.3258267"><ele>846.5</ele><time>2026-05-02T15:12:30.272Z</time></trkpt><trkpt lat="43.7676933" lon="6.3259833"><ele>849.25</ele><time>2026-05-02T15:12:31.273Z</time></trkpt><trkpt lat="43.7676917" lon="6.32614"><ele>852.0</ele><time>2026-05-02T15:12:32.272Z</time></trkpt><trkpt lat="43.767685" lon="6.3263083"><ele>851.0</ele><time>2026-05-02T15:12:33.272Z</time></trkpt><trkpt lat="43.767675" lon="6.3264817"><ele>850.0</ele><time>2026-05-02T15:12:34.272Z</time></trkpt><trkpt lat="43.7677117" lon="6.3266533"><ele>849.0</ele><time>2026-05-02T15:12:35.272Z</time></trkpt><trkpt lat="43.767765" lon="6.3268133"><ele>848.0</ele><time>2026-05-02T15:12:36.272Z</time></trkpt><trkpt lat="43.7678283" lon="6.3269683"><ele>848.0</ele><time>2026-05-02T15:12:37.272Z</time></trkpt><trkpt lat="43.7678967" lon="6.327105"><ele>848.0</ele><time>2026-05-02T15:12:38.273Z</time></trkpt><trkpt lat="43.7679417" lon="6.3272417"><ele>848.0</ele><time>2026-05-02T15:12:39.272Z</time></trkpt><trkpt lat="43.7679617" lon="6.3273683"><ele>848.0</ele><time>2026-05-02T15:12:40.273Z</time></trkpt><trkpt lat="43.7679483" lon="6.3274883"><ele>848.0</ele><time>2026-05-02T15:12:41.272Z</time></trkpt><trkpt lat="43.7679033" lon="6.327605"><ele>848.4</ele><time>2026-05-02T15:12:42.273Z</time></trkpt><trkpt lat="43.7678517" lon="6.3277183"><ele>848.8</ele><time>2026-05-02T15:12:43.272Z</time></trkpt><trkpt lat="43.767805" lon="6.3278167"><ele>849.2</ele><time>2026-05-02T15:12:44.272Z</time></trkpt><trkpt lat="43.7677633" lon="6.3279183"><ele>849.6</ele><time>2026-05-02T15:12:45.272Z</time></trkpt><trkpt lat="43.7677417" lon="6.3280233"><ele>850.0</ele><time>2026-05-02T15:12:46.272Z</time></trkpt><trkpt lat="43.767765" lon="6.32818"><ele>850.0</ele><time>2026-05-02T15:12:48.272Z</time></trkpt><trkpt lat="43.7678233" lon="6.3282133"><ele>850.0</ele><time>2026-05-02T15:12:49.272Z</time></trkpt><trkpt lat="43.7679033" lon="6.3281933"><ele>850.0</ele><time>2026-05-02T15:12:50.272Z</time></trkpt><trkpt lat="43.7680167" lon="6.3280883"><ele>850.0</ele><time>2026-05-02T15:12:51.272Z</time></trkpt><trkpt lat="43.7681167" lon="6.3279783"><ele>850.0</ele><time>2026-05-02T15:12:52.272Z</time></trkpt><trkpt lat="43.7681833" lon="6.32783"><ele>849.9999999999999</ele><time>2026-05-02T15:12:53.272Z</time></trkpt><trkpt lat="43.7682167" lon="6.327695"><ele>850.0</ele><time>2026-05-02T15:12:54.273Z</time></trkpt><trkpt lat="43.7682483" lon="6.3275783"><ele>850.0</ele><time>2026-05-02T15:12:55.272Z</time></trkpt><trkpt lat="43.7682817" lon="6.3274917"><ele>850.0</ele><time>2026-05-02T15:12:56.272Z</time></trkpt><trkpt lat="43.7683667" lon="6.3274533"><ele>849.9999999999999</ele><time>2026-05-02T15:12:58.272Z</time></trkpt><trkpt lat="43.7684217" lon="6.3275517"><ele>850.0</ele><time>2026-05-02T15:13:00.272Z</time></trkpt><trkpt lat="43.7684217" lon="6.32764"><ele>850.0</ele><time>2026-05-02T15:13:01.272Z</time></trkpt><trkpt lat="43.7683983" lon="6.327735"><ele>850.0</ele><time>2026-05-02T15:13:02.272Z</time></trkpt><trkpt lat="43.7683483" lon="6.327835"><ele>850.0</ele><time>2026-05-02T15:13:03.272Z</time></trkpt><trkpt lat="43.768285" lon="6.3279533"><ele>850.0</ele><time>2026-05-02T15:13:04.272Z</time></trkpt><trkpt lat="43.7682233" lon="6.3281083"><ele>850.0</ele><time>2026-05-02T15:13:05.272Z</time></trkpt><trkpt lat="43.7681633" lon="6.328285"><ele>851.75</ele><time>2026-05-02T15:13:06.272Z</time></trkpt><trkpt lat="43.7681167" lon="6.3284633"><ele>853.5</ele><time>2026-05-02T15:13:07.272Z</time></trkpt><trkpt lat="43.7680733" lon="6.3286217"><ele>855.25</ele><time>2026-05-02T15:13:08.272Z</time></trkpt><trkpt lat="43.768035" lon="6.32877"><ele>857.0</ele><time>2026-05-02T15:13:09.272Z</time></trkpt><trkpt lat="43.7680183" lon="6.32892"><ele>858.5</ele><time>2026-05-02T15:13:10.272Z</time></trkpt><trkpt lat="43.7680217" lon="6.3290733"><ele>860.0</ele><time>2026-05-02T15:13:11.272Z</time></trkpt><trkpt lat="43.76805" lon="6.3292417"><ele>861.5</ele><time>2026-05-02T15:13:12.273Z</time></trkpt><trkpt lat="43.768085" lon="6.3294117"><ele>863.0</ele><time>2026-05-02T15:13:13.272Z</time></trkpt><trkpt lat="43.768125" lon="6.3295683"><ele>863.25</ele><time>2026-05-02T15:13:14.272Z</time></trkpt><trkpt lat="43.7681633" lon="6.3297317"><ele>863.5</ele><time>2026-05-02T15:13:15.272Z</time></trkpt><trkpt lat="43.7682133" lon="6.3298633"><ele>863.75</ele><time>2026-05-02T15:13:16.272Z</time></trkpt><trkpt lat="43.7682883" lon="6.3299767"><ele>864.0</ele><time>2026-05-02T15:13:17.272Z</time></trkpt><trkpt lat="43.768395" lon="6.3300717"><ele>864.0</ele><time>2026-05-02T15:13:18.272Z</time></trkpt><trkpt lat="43.768515" lon="6.33015"><ele>864.0</ele><time>2026-05-02T15:13:19.273Z</time></trkpt><trkpt lat="43.7686367" lon="6.330245"><ele>864.0</ele><time>2026-05-02T15:13:20.272Z</time></trkpt><trkpt lat="43.768745" lon="6.33036"><ele>864.0</ele><time>2026-05-02T15:13:21.272Z</time></trkpt><trkpt lat="43.7688517" lon="6.3304583"><ele>865.75</ele><time>2026-05-02T15:13:22.273Z</time></trkpt><trkpt lat="43.76897" lon="6.330535"><ele>867.5</ele><time>2026-05-02T15:13:23.272Z</time></trkpt><trkpt lat="43.7690983" lon="6.3305917"><ele>869.25</ele><time>2026-05-02T15:13:24.272Z</time></trkpt><trkpt lat="43.7692317" lon="6.330635"><ele>871.0</ele><time>2026-05-02T15:13:25.272Z</time></trkpt><trkpt lat="43.769375" lon="6.3306933"><ele>875.3333333333333</ele><time>2026-05-02T15:13:26.272Z</time></trkpt><trkpt lat="43.769505" lon="6.3307817"><ele>879.6666666666667</ele><time>2026-05-02T15:13:27.272Z</time></trkpt><trkpt lat="43.7696367" lon="6.330895"><ele>884.0</ele><time>2026-05-02T15:13:28.273Z</time></trkpt><trkpt lat="43.7697567" lon="6.3310433"><ele>884.0</ele><time>2026-05-02T15:13:29.273Z</time></trkpt><trkpt lat="43.7698717" lon="6.331205"><ele>884.0</ele><time>2026-05-02T15:13:30.272Z</time></trkpt><trkpt lat="43.769985" lon="6.3313817"><ele>884.0</ele><time>2026-05-02T15:13:31.272Z</time></trkpt><trkpt lat="43.7700983" lon="6.3315433"><ele>887.25</ele><time>2026-05-02T15:13:32.272Z</time></trkpt><trkpt lat="43.7702" lon="6.3316983"><ele>890.5</ele><time>2026-05-02T15:13:33.272Z</time></trkpt><trkpt lat="43.7703" lon="6.3318433"><ele>893.75</ele><time>2026-05-02T15:13:34.272Z</time></trkpt><trkpt lat="43.7703983" lon="6.33199"><ele>897.0</ele><time>2026-05-02T15:13:35.272Z</time></trkpt><trkpt lat="43.77049" lon="6.3321533"><ele>894.0</ele><time>2026-05-02T15:13:36.272Z</time></trkpt><trkpt lat="43.770575" lon="6.332315"><ele>891.0</ele><time>2026-05-02T15:13:37.272Z</time></trkpt><trkpt lat="43.770665" lon="6.3324833"><ele>888.0</ele><time>2026-05-02T15:13:38.272Z</time></trkpt><trkpt lat="43.7707633" lon="6.3326483"><ele>888.0</ele><time>2026-05-02T15:13:39.272Z</time></trkpt><trkpt lat="43.7708667" lon="6.3328117"><ele>888.0</ele><time>2026-05-02T15:13:40.272Z</time></trkpt><trkpt lat="43.7709783" lon="6.3329533"><ele>888.0</ele><time>2026-05-02T15:13:41.272Z</time></trkpt><trkpt lat="43.7710783" lon="6.3330983"><ele>889.5</ele><time>2026-05-02T15:13:42.272Z</time></trkpt><trkpt lat="43.7711617" lon="6.33325"><ele>891.0</ele><time>2026-05-02T15:13:43.273Z</time></trkpt><trkpt lat="43.7712283" lon="6.3334233"><ele>892.5</ele><time>2026-05-02T15:13:44.272Z</time></trkpt><trkpt lat="43.7712917" lon="6.3335967"><ele>894.0</ele><time>2026-05-02T15:13:45.272Z</time></trkpt><trkpt lat="43.7713483" lon="6.3337533"><ele>893.0</ele><time>2026-05-02T15:13:46.272Z</time></trkpt><trkpt lat="43.7713883" lon="6.333915"><ele>892.0000000000001</ele><time>2026-05-02T15:13:47.272Z</time></trkpt><trkpt lat="43.7714083" lon="6.334075"><ele>891.0000000000001</ele><time>2026-05-02T15:13:48.272Z</time></trkpt><trkpt lat="43.7714183" lon="6.3342083"><ele>890.0</ele><time>2026-05-02T15:13:49.272Z</time></trkpt><trkpt lat="43.77145" lon="6.3343467"><ele>889.0</ele><time>2026-05-02T15:13:50.272Z</time></trkpt><trkpt lat="43.7715117" lon="6.334465"><ele>889.0</ele><time>2026-05-02T15:13:51.272Z</time></trkpt><trkpt lat="43.7715967" lon="6.3345517"><ele>889.0</ele><time>2026-05-02T15:13:52.272Z</time></trkpt><trkpt lat="43.7717017" lon="6.3346117"><ele>889.0</ele><time>2026-05-02T15:13:53.273Z</time></trkpt><trkpt lat="43.7718183" lon="6.3346533"><ele>889.0</ele><time>2026-05-02T15:13:54.272Z</time></trkpt><trkpt lat="43.771925" lon="6.334725"><ele>892.0</ele><time>2026-05-02T15:13:55.273Z</time></trkpt><trkpt lat="43.7720333" lon="6.334835"><ele>895.0</ele><time>2026-05-02T15:13:56.272Z</time></trkpt><trkpt lat="43.7721133" lon="6.3349733"><ele>898.0</ele><time>2026-05-02T15:13:57.272Z</time></trkpt><trkpt lat="43.7721733" lon="6.3351433"><ele>901.0</ele><time>2026-05-02T15:13:58.272Z</time></trkpt><trkpt lat="43.7722133" lon="6.33532"><ele>901.0</ele><time>2026-05-02T15:13:59.272Z</time></trkpt><trkpt lat="43.772255" lon="6.3354967"><ele>900.9999999999999</ele><time>2026-05-02T15:14:00.272Z</time></trkpt><trkpt lat="43.77229" lon="6.3356467"><ele>900.9999999999999</ele><time>2026-05-02T15:14:01.272Z</time></trkpt><trkpt lat="43.77232" lon="6.335785"><ele>901.0</ele><time>2026-05-02T15:14:02.272Z</time></trkpt><trkpt lat="43.7723583" lon="6.3359"><ele>901.0</ele><time>2026-05-02T15:14:03.272Z</time></trkpt><trkpt lat="43.7724117" lon="6.33598"><ele>901.9999999999999</ele><time>2026-05-02T15:14:04.272Z</time></trkpt><trkpt lat="43.7724783" lon="6.336045"><ele>903.0</ele><time>2026-05-02T15:14:05.273Z</time></trkpt><trkpt lat="43.772555" lon="6.3360917"><ele>904.0</ele><time>2026-05-02T15:14:06.272Z</time></trkpt><trkpt lat="43.7726367" lon="6.3360983"><ele>905.0</ele><time>2026-05-02T15:14:07.272Z</time></trkpt><trkpt lat="43.7727283" lon="6.3360617"><ele>905.9999999999999</ele><time>2026-05-02T15:14:08.272Z</time></trkpt><trkpt lat="43.7728167" lon="6.3359983"><ele>907.0</ele><time>2026-05-02T15:14:09.273Z</time></trkpt><trkpt lat="43.772895" lon="6.33593"><ele>907.0</ele><time>2026-05-02T15:14:10.272Z</time></trkpt><trkpt lat="43.77297" lon="6.33588"><ele>907.0</ele><time>2026-05-02T15:14:11.273Z</time></trkpt><trkpt lat="43.7730567" lon="6.3358717"><ele>907.0</ele><time>2026-05-02T15:14:12.272Z</time></trkpt><trkpt lat="43.77314" lon="6.3359067"><ele>907.0</ele><time>2026-05-02T15:14:13.272Z</time></trkpt><trkpt lat="43.7732283" lon="6.3359783"><ele>907.0</ele><time>2026-05-02T15:14:14.272Z</time></trkpt><trkpt lat="43.773295" lon="6.3360967"><ele>906.9999999999999</ele><time>2026-05-02T15:14:15.272Z</time></trkpt><trkpt lat="43.7733467" lon="6.3362283"><ele>907.0</ele><time>2026-05-02T15:14:16.272Z</time></trkpt><trkpt lat="43.7733967" lon="6.3363383"><ele>907.0</ele><time>2026-05-02T15:14:17.272Z</time></trkpt><trkpt lat="43.7734467" lon="6.3364367"><ele>907.0</ele><time>2026-05-02T15:14:18.272Z</time></trkpt><trkpt lat="43.7734883" lon="6.3365067"><ele>906.9999999999999</ele><time>2026-05-02T15:14:19.272Z</time></trkpt><trkpt lat="43.7735333" lon="6.3365683"><ele>907.0</ele><time>2026-05-02T15:14:20.272Z</time></trkpt><trkpt lat="43.773585" lon="6.3366217"><ele>908.8</ele><time>2026-05-02T15:14:21.272Z</time></trkpt><trkpt lat="43.773655" lon="6.33668"><ele>910.6</ele><time>2026-05-02T15:14:22.273Z</time></trkpt><trkpt lat="43.7737483" lon="6.3367383"><ele>912.3999999999999</ele><time>2026-05-02T15:14:23.272Z</time></trkpt><trkpt lat="43.7738567" lon="6.3368"><ele>914.1999999999999</ele><time>2026-05-02T15:14:24.272Z</time></trkpt><trkpt lat="43.773965" lon="6.3368533"><ele>916.0</ele><time>2026-05-02T15:14:25.272Z</time></trkpt><trkpt lat="43.7740817" lon="6.3368967"><ele>916.0</ele><time>2026-05-02T15:14:26.272Z</time></trkpt><trkpt lat="43.7741967" lon="6.3369483"><ele>916.0</ele><time>2026-05-02T15:14:27.272Z</time></trkpt><trkpt lat="43.7743117" lon="6.3369983"><ele>916.0</ele><time>2026-05-02T15:14:28.273Z</time></trkpt><trkpt lat="43.7744183" lon="6.3370467"><ele>916.0</ele><time>2026-05-02T15:14:29.272Z</time></trkpt><trkpt lat="43.7745167" lon="6.3370917"><ele>916.8333333333333</ele><time>2026-05-02T15:14:30.272Z</time></trkpt><trkpt lat="43.77461" lon="6.3371367"><ele>917.6666666666666</ele><time>2026-05-02T15:14:31.272Z</time></trkpt><trkpt lat="43.7746917" lon="6.3371783"><ele>918.5</ele><time>2026-05-02T15:14:32.272Z</time></trkpt><trkpt lat="43.7747767" lon="6.33721"><ele>919.3333333333333</ele><time>2026-05-02T15:14:33.272Z</time></trkpt><trkpt lat="43.774855" lon="6.3372583"><ele>920.1666666666666</ele><time>2026-05-02T15:14:34.272Z</time></trkpt><trkpt lat="43.7749183" lon="6.337325"><ele>921.0</ele><time>2026-05-02T15:14:35.272Z</time></trkpt><trkpt lat="43.77497" lon="6.3374283"><ele>921.0</ele><time>2026-05-02T15:14:36.273Z</time></trkpt><trkpt lat="43.7749933" lon="6.3375333"><ele>920.9999999999999</ele><time>2026-05-02T15:14:37.272Z</time></trkpt><trkpt lat="43.7749967" lon="6.3376533"><ele>920.9999999999999</ele><time>2026-05-02T15:14:38.272Z</time></trkpt><trkpt lat="43.7749683" lon="6.3377733"><ele>921.0</ele><time>2026-05-02T15:14:39.273Z</time></trkpt><trkpt lat="43.7749133" lon="6.3378967"><ele>921.0</ele><time>2026-05-02T15:14:40.273Z</time></trkpt><trkpt lat="43.7748467" lon="6.3380017"><ele>922.0</ele><time>2026-05-02T15:14:41.272Z</time></trkpt><trkpt lat="43.7747867" lon="6.33809"><ele>923.0</ele><time>2026-05-02T15:14:42.272Z</time></trkpt><trkpt lat="43.774735" lon="6.3381833"><ele>924.0</ele><time>2026-05-02T15:14:43.272Z</time></trkpt><trkpt lat="43.7746917" lon="6.3382783"><ele>925.0</ele><time>2026-05-02T15:14:44.273Z</time></trkpt><trkpt lat="43.7746467" lon="6.3383783"><ele>926.0</ele><time>2026-05-02T15:14:45.273Z</time></trkpt><trkpt lat="43.7746133" lon="6.3385033"><ele>927.0</ele><time>2026-05-02T15:14:46.272Z</time></trkpt><trkpt lat="43.7745767" lon="6.33864"><ele>927.0</ele><time>2026-05-02T15:14:47.272Z</time></trkpt><trkpt lat="43.7745467" lon="6.3387833"><ele>927.0</ele><time>2026-05-02T15:14:48.272Z</time></trkpt><trkpt lat="43.7745317" lon="6.33892"><ele>927.0</ele><time>2026-05-02T15:14:49.272Z</time></trkpt><trkpt lat="43.7745217" lon="6.3390617"><ele>927.0</ele><time>2026-05-02T15:14:50.272Z</time></trkpt><trkpt lat="43.7745217" lon="6.3391967"><ele>927.0</ele><time>2026-05-02T15:14:51.272Z</time></trkpt><trkpt lat="43.7745267" lon="6.3393433"><ele>927.6</ele><time>2026-05-02T15:14:52.272Z</time></trkpt><trkpt lat="43.7745383" lon="6.3394933"><ele>928.2</ele><time>2026-05-02T15:14:53.272Z</time></trkpt><trkpt lat="43.77456" lon="6.3396417"><ele>928.8</ele><time>2026-05-02T15:14:54.272Z</time></trkpt><trkpt lat="43.7745867" lon="6.339775"><ele>929.4</ele><time>2026-05-02T15:14:55.272Z</time></trkpt><trkpt lat="43.774615" lon="6.3398933"><ele>930.0</ele><time>2026-05-02T15:14:56.272Z</time></trkpt><trkpt lat="43.7746417" lon="6.3399917"><ele>930.3333333333334</ele><time>2026-05-02T15:14:57.272Z</time></trkpt><trkpt lat="43.7746717" lon="6.3400883"><ele>930.6666666666667</ele><time>2026-05-02T15:14:58.273Z</time></trkpt><trkpt lat="43.7747117" lon="6.3401983"><ele>931.0</ele><time>2026-05-02T15:14:59.272Z</time></trkpt><trkpt lat="43.7747583" lon="6.340305"><ele>931.3333333333334</ele><time>2026-05-02T15:15:00.272Z</time></trkpt><trkpt lat="43.774815" lon="6.3404117"><ele>931.6666666666667</ele><time>2026-05-02T15:15:01.272Z</time></trkpt><trkpt lat="43.7748767" lon="6.34051"><ele>932.0</ele><time>2026-05-02T15:15:02.273Z</time></trkpt><trkpt lat="43.7749317" lon="6.3406083"><ele>931.1666666666667</ele><time>2026-05-02T15:15:03.272Z</time></trkpt><trkpt lat="43.77499" lon="6.3407083"><ele>930.3333333333334</ele><time>2026-05-02T15:15:04.272Z</time></trkpt><trkpt lat="43.7750517" lon="6.3408033"><ele>929.5</ele><time>2026-05-02T15:15:05.272Z</time></trkpt><trkpt lat="43.7751" lon="6.3408833"><ele>928.6666666666667</ele><time>2026-05-02T15:15:06.272Z</time></trkpt><trkpt lat="43.7751417" lon="6.3409517"><ele>927.8333333333334</ele><time>2026-05-02T15:15:07.272Z</time></trkpt><trkpt lat="43.7752083" lon="6.3410567"><ele>927.0</ele><time>2026-05-02T15:15:09.272Z</time></trkpt><trkpt lat="43.7752967" lon="6.3411167"><ele>926.4000000000001</ele><time>2026-05-02T15:15:11.272Z</time></trkpt><trkpt lat="43.7753967" lon="6.341055"><ele>925.8000000000001</ele><time>2026-05-02T15:15:13.272Z</time></trkpt><trkpt lat="43.77543" lon="6.3409517"><ele>925.2</ele><time>2026-05-02T15:15:14.272Z</time></trkpt><trkpt lat="43.77544" lon="6.3408267"><ele>924.6</ele><time>2026-05-02T15:15:15.272Z</time></trkpt><trkpt lat="43.77543" lon="6.3406883"><ele>924.0</ele><time>2026-05-02T15:15:16.272Z</time></trkpt><trkpt lat="43.7754033" lon="6.3405533"><ele>924.6</ele><time>2026-05-02T15:15:17.272Z</time></trkpt><trkpt lat="43.775375" lon="6.3404167"><ele>925.2</ele><time>2026-05-02T15:15:18.272Z</time></trkpt><trkpt lat="43.77535" lon="6.3402817"><ele>925.8000000000001</ele><time>2026-05-02T15:15:19.272Z</time></trkpt><trkpt lat="43.7753283" lon="6.3401483"><ele>926.4000000000001</ele><time>2026-05-02T15:15:20.272Z</time></trkpt><trkpt lat="43.7753067" lon="6.34002"><ele>927.0</ele><time>2026-05-02T15:15:21.273Z</time></trkpt><trkpt lat="43.7752917" lon="6.3399033"><ele>927.0</ele><time>2026-05-02T15:15:22.272Z</time></trkpt><trkpt lat="43.7752733" lon="6.3398"><ele>927.0</ele><time>2026-05-02T15:15:23.272Z</time></trkpt><trkpt lat="43.7752483" lon="6.3396433"><ele>927.0</ele><time>2026-05-02T15:15:25.272Z</time></trkpt><trkpt lat="43.7752683" lon="6.3394967"><ele>927.0</ele><time>2026-05-02T15:15:27.272Z</time></trkpt><trkpt lat="43.77536" lon="6.3394117"><ele>927.0</ele><time>2026-05-02T15:15:29.272Z</time></trkpt><trkpt lat="43.7754833" lon="6.33945"><ele>927.0</ele><time>2026-05-02T15:15:31.272Z</time></trkpt><trkpt lat="43.77553" lon="6.3395383"><ele>927.0</ele><time>2026-05-02T15:15:32.272Z</time></trkpt><trkpt lat="43.7755567" lon="6.339675"><ele>927.0</ele><time>2026-05-02T15:15:33.272Z</time></trkpt><trkpt lat="43.77557" lon="6.339845"><ele>927.0</ele><time>2026-05-02T15:15:34.272Z</time></trkpt><trkpt lat="43.775585" lon="6.340015"><ele>927.0</ele><time>2026-05-02T15:15:35.272Z</time></trkpt><trkpt lat="43.7756067" lon="6.3401717"><ele>927.0</ele><time>2026-05-02T15:15:36.273Z</time></trkpt><trkpt lat="43.7756333" lon="6.3403167"><ele>927.0</ele><time>2026-05-02T15:15:37.272Z</time></trkpt><trkpt lat="43.7756617" lon="6.340455"><ele>927.0</ele><time>2026-05-02T15:15:38.272Z</time></trkpt><trkpt lat="43.775695" lon="6.34059"><ele>927.0</ele><time>2026-05-02T15:15:39.272Z</time></trkpt><trkpt lat="43.7757217" lon="6.34073"><ele>927.0</ele><time>2026-05-02T15:15:40.272Z</time></trkpt><trkpt lat="43.7757483" lon="6.340865"><ele>926.4000000000001</ele><time>2026-05-02T15:15:41.272Z</time></trkpt><trkpt lat="43.7757783" lon="6.3409967"><ele>925.8000000000001</ele><time>2026-05-02T15:15:42.272Z</time></trkpt><trkpt lat="43.7758083" lon="6.34113"><ele>925.2</ele><time>2026-05-02T15:15:43.272Z</time></trkpt><trkpt lat="43.77584" lon="6.341255"><ele>924.6</ele><time>2026-05-02T15:15:44.272Z</time></trkpt><trkpt lat="43.77589" lon="6.3413717"><ele>924.0</ele><time>2026-05-02T15:15:45.272Z</time></trkpt><trkpt lat="43.775965" lon="6.34146"><ele>922.0</ele><time>2026-05-02T15:15:46.272Z</time></trkpt><trkpt lat="43.7760717" lon="6.34152"><ele>920.0</ele><time>2026-05-02T15:15:47.272Z</time></trkpt><trkpt lat="43.7761817" lon="6.3415433"><ele>918.0</ele><time>2026-05-02T15:15:48.272Z</time></trkpt><trkpt lat="43.7763017" lon="6.34156"><ele>916.0</ele><time>2026-05-02T15:15:49.272Z</time></trkpt><trkpt lat="43.7764233" lon="6.3415633"><ele>916.0</ele><time>2026-05-02T15:15:50.272Z</time></trkpt><trkpt lat="43.7765517" lon="6.3415733"><ele>916.0</ele><time>2026-05-02T15:15:51.272Z</time></trkpt><trkpt lat="43.7766733" lon="6.3415783"><ele>916.0</ele><time>2026-05-02T15:15:52.273Z</time></trkpt><trkpt lat="43.77679" lon="6.3415933"><ele>916.0</ele><time>2026-05-02T15:15:53.272Z</time></trkpt><trkpt lat="43.776905" lon="6.34161"><ele>916.4</ele><time>2026-05-02T15:15:54.272Z</time></trkpt><trkpt lat="43.7770233" lon="6.341625"><ele>916.8</ele><time>2026-05-02T15:15:55.272Z</time></trkpt><trkpt lat="43.77713" lon="6.3416333"><ele>917.1999999999999</ele><time>2026-05-02T15:15:56.272Z</time></trkpt><trkpt lat="43.7772417" lon="6.3416467"><ele>917.5999999999999</ele><time>2026-05-02T15:15:57.272Z</time></trkpt><trkpt lat="43.7773517" lon="6.3416517"><ele>918.0</ele><time>2026-05-02T15:15:58.272Z</time></trkpt><trkpt lat="43.7774567" lon="6.3416683"><ele>918.0</ele><time>2026-05-02T15:15:59.272Z</time></trkpt><trkpt lat="43.77756" lon="6.3416717"><ele>918.0</ele><time>2026-05-02T15:16:00.273Z</time></trkpt><trkpt lat="43.7776717" lon="6.34168"><ele>918.0</ele><time>2026-05-02T15:16:01.272Z</time></trkpt><trkpt lat="43.7777733" lon="6.3416817"><ele>918.0</ele><time>2026-05-02T15:16:02.272Z</time></trkpt><trkpt lat="43.7778667" lon="6.3416867"><ele>918.0</ele><time>2026-05-02T15:16:03.272Z</time></trkpt><trkpt lat="43.7779783" lon="6.3416983"><ele>918.4</ele><time>2026-05-02T15:16:04.273Z</time></trkpt><trkpt lat="43.77807" lon="6.3417"><ele>918.8</ele><time>2026-05-02T15:16:05.272Z</time></trkpt><trkpt lat="43.7781733" lon="6.3417167"><ele>919.2</ele><time>2026-05-02T15:16:06.272Z</time></trkpt><trkpt lat="43.7782667" lon="6.34172"><ele>919.6</ele><time>2026-05-02T15:16:07.272Z</time></trkpt><trkpt lat="43.77836" lon="6.3417317"><ele>920.0</ele><time>2026-05-02T15:16:08.272Z</time></trkpt><trkpt lat="43.77844" lon="6.3417367"><ele>920.0000000000001</ele><time>2026-05-02T15:16:09.272Z</time></trkpt><trkpt lat="43.7785133" lon="6.3417333"><ele>920.0</ele><time>2026-05-02T15:16:10.273Z</time></trkpt><trkpt lat="43.7785783" lon="6.341735"><ele>920.0</ele><time>2026-05-02T15:16:11.272Z</time></trkpt><trkpt lat="43.778645" lon="6.3417317"><ele>920.0</ele><time>2026-05-02T15:16:12.272Z</time></trkpt><trkpt lat="43.7787417" lon="6.3416917"><ele>920.0000000000001</ele><time>2026-05-02T15:16:14.273Z</time></trkpt><trkpt lat="43.7788167" lon="6.34161"><ele>920.0</ele><time>2026-05-02T15:16:16.272Z</time></trkpt><trkpt lat="43.7788533" lon="6.3415267"><ele>921.1666666666667</ele><time>2026-05-02T15:16:18.272Z</time></trkpt><trkpt lat="43.778875" lon="6.341425"><ele>922.3333333333334</ele><time>2026-05-02T15:16:21.272Z</time></trkpt><trkpt lat="43.7788983" lon="6.3413233"><ele>923.5</ele><time>2026-05-02T15:16:23.272Z</time></trkpt><trkpt lat="43.7789367" lon="6.3412017"><ele>924.6666666666667</ele><time>2026-05-02T15:16:25.272Z</time></trkpt><trkpt lat="43.77897" lon="6.341055"><ele>925.8333333333334</ele><time>2026-05-02T15:16:27.272Z</time></trkpt><trkpt lat="43.7789933" lon="6.3409667"><ele>927.0</ele><time>2026-05-02T15:16:28.272Z</time></trkpt><trkpt lat="43.7790167" lon="6.34088"><ele>927.6666666666666</ele><time>2026-05-02T15:16:29.272Z</time></trkpt><trkpt lat="43.7790433" lon="6.3408"><ele>928.3333333333333</ele><time>2026-05-02T15:16:30.272Z</time></trkpt><trkpt lat="43.7790767" lon="6.3407233"><ele>929.0</ele><time>2026-05-02T15:16:31.272Z</time></trkpt><trkpt lat="43.779145" lon="6.3406033"><ele>929.6666666666666</ele><time>2026-05-02T15:16:33.273Z</time></trkpt><trkpt lat="43.7791967" lon="6.340525"><ele>930.3333333333333</ele><time>2026-05-02T15:16:35.272Z</time></trkpt><trkpt lat="43.779245" lon="6.3404667"><ele>931.0</ele><time>2026-05-02T15:16:39.273Z</time></trkpt><trkpt lat="43.779315" lon="6.3403983"><ele>931.8</ele><time>2026-05-02T15:18:02.273Z</time></trkpt><trkpt lat="43.7793867" lon="6.34036"><ele>932.5999999999999</ele><time>2026-05-02T15:18:04.273Z</time></trkpt><trkpt lat="43.77949" lon="6.34031"><ele>933.4</ele><time>2026-05-02T15:18:06.273Z</time></trkpt><trkpt lat="43.7796017" lon="6.3402483"><ele>934.2</ele><time>2026-05-02T15:18:08.272Z</time></trkpt><trkpt lat="43.77966" lon="6.34021"><ele>935.0</ele><time>2026-05-02T15:18:09.273Z</time></trkpt><trkpt lat="43.7797383" lon="6.340185"><ele>935.0000000000001</ele><time>2026-05-02T15:18:11.272Z</time></trkpt><trkpt lat="43.7797983" lon="6.3402433"><ele>935.0</ele><time>2026-05-02T15:18:13.272Z</time></trkpt><trkpt lat="43.7798233" lon="6.34037"><ele>935.0</ele><time>2026-05-02T15:18:15.272Z</time></trkpt><trkpt lat="43.7798333" lon="6.3404617"><ele>935.0</ele><time>2026-05-02T15:18:16.272Z</time></trkpt><trkpt lat="43.7798367" lon="6.34056"><ele>935.0000000000001</ele><time>2026-05-02T15:18:17.272Z</time></trkpt><trkpt lat="43.77985" lon="6.3406533"><ele>935.0</ele><time>2026-05-02T15:18:18.272Z</time></trkpt><trkpt lat="43.7798717" lon="6.3407533"><ele>935.1666666666667</ele><time>2026-05-02T15:18:19.272Z</time></trkpt><trkpt lat="43.77992" lon="6.340905"><ele>935.3333333333334</ele><time>2026-05-02T15:18:21.272Z</time></trkpt><trkpt lat="43.779955" lon="6.3409883"><ele>935.5</ele><time>2026-05-02T15:18:22.272Z</time></trkpt><trkpt lat="43.7799833" lon="6.3410733"><ele>935.6666666666667</ele><time>2026-05-02T15:18:23.271Z</time></trkpt><trkpt lat="43.78001" lon="6.341165"><ele>935.8333333333334</ele><time>2026-05-02T15:18:24.271Z</time></trkpt><trkpt lat="43.7800367" lon="6.341255"><ele>936.0</ele><time>2026-05-02T15:18:25.271Z</time></trkpt><trkpt lat="43.7800983" lon="6.3413917"><ele>935.5999999999999</ele><time>2026-05-02T15:18:27.271Z</time></trkpt><trkpt lat="43.7801417" lon="6.3415417"><ele>935.1999999999999</ele><time>2026-05-02T15:18:29.272Z</time></trkpt><trkpt lat="43.7801717" lon="6.34162"><ele>934.8000000000001</ele><time>2026-05-02T15:18:30.271Z</time></trkpt><trkpt lat="43.7802" lon="6.341715"><ele>934.4000000000001</ele><time>2026-05-02T15:18:31.271Z</time></trkpt><trkpt lat="43.7802117" lon="6.34181"><ele>934.0</ele><time>2026-05-02T15:18:32.271Z</time></trkpt><trkpt lat="43.7802467" lon="6.3419833"><ele>932.6666666666666</ele><time>2026-05-02T15:18:34.271Z</time></trkpt><trkpt lat="43.7802717" lon="6.3420767"><ele>931.3333333333333</ele><time>2026-05-02T15:18:35.271Z</time></trkpt><trkpt lat="43.7802983" lon="6.3421817"><ele>930.0</ele><time>2026-05-02T15:18:36.271Z</time></trkpt><trkpt lat="43.7803317" lon="6.3422833"><ele>928.6666666666667</ele><time>2026-05-02T15:18:37.271Z</time></trkpt><trkpt lat="43.7803383" lon="6.342405"><ele>927.3333333333334</ele><time>2026-05-02T15:18:38.271Z</time></trkpt><trkpt lat="43.7803583" lon="6.3425383"><ele>926.0</ele><time>2026-05-02T15:18:39.271Z</time></trkpt><trkpt lat="43.78038" lon="6.34267"><ele>925.4</ele><time>2026-05-02T15:18:40.271Z</time></trkpt><trkpt lat="43.7804083" lon="6.3427917"><ele>924.8</ele><time>2026-05-02T15:18:41.271Z</time></trkpt><trkpt lat="43.78044" lon="6.3428933"><ele>924.1999999999999</ele><time>2026-05-02T15:18:42.271Z</time></trkpt><trkpt lat="43.7804917" lon="6.3429967"><ele>923.5999999999999</ele><time>2026-05-02T15:18:43.272Z</time></trkpt><trkpt lat="43.7805717" lon="6.34312"><ele>923.0</ele><time>2026-05-02T15:18:44.271Z</time></trkpt><trkpt lat="43.7806767" lon="6.3432483"><ele>921.75</ele><time>2026-05-02T15:18:45.271Z</time></trkpt><trkpt lat="43.78078" lon="6.3433883"><ele>920.5</ele><time>2026-05-02T15:18:46.271Z</time></trkpt><trkpt lat="43.7808783" lon="6.3435267"><ele>919.25</ele><time>2026-05-02T15:18:47.271Z</time></trkpt><trkpt lat="43.7809667" lon="6.343655"><ele>918.0</ele><time>2026-05-02T15:18:48.272Z</time></trkpt><trkpt lat="43.7810667" lon="6.3437817"><ele>915.3333333333333</ele><time>2026-05-02T15:18:49.271Z</time></trkpt><trkpt lat="43.78117" lon="6.3439183"><ele>912.6666666666666</ele><time>2026-05-02T15:18:50.271Z</time></trkpt><trkpt lat="43.781295" lon="6.34408"><ele>910.0</ele><time>2026-05-02T15:18:51.271Z</time></trkpt><trkpt lat="43.7814167" lon="6.3442683"><ele>910.0</ele><time>2026-05-02T15:18:52.271Z</time></trkpt><trkpt lat="43.7815367" lon="6.344445"><ele>910.0</ele><time>2026-05-02T15:18:53.271Z</time></trkpt><trkpt lat="43.781655" lon="6.34461"><ele>910.0</ele><time>2026-05-02T15:18:54.271Z</time></trkpt><trkpt lat="43.7817683" lon="6.3447583"><ele>911.25</ele><time>2026-05-02T15:18:55.271Z</time></trkpt><trkpt lat="43.7818733" lon="6.344915"><ele>912.5</ele><time>2026-05-02T15:18:56.271Z</time></trkpt><trkpt lat="43.7819517" lon="6.3450917"><ele>913.75</ele><time>2026-05-02T15:18:57.271Z</time></trkpt><trkpt lat="43.78199" lon="6.3452833"><ele>915.0</ele><time>2026-05-02T15:18:58.271Z</time></trkpt><trkpt lat="43.782005" lon="6.3454717"><ele>914.5</ele><time>2026-05-02T15:18:59.271Z</time></trkpt><trkpt lat="43.7820017" lon="6.3456517"><ele>914.0</ele><time>2026-05-02T15:19:00.271Z</time></trkpt><trkpt lat="43.781975" lon="6.345825"><ele>913.5</ele><time>2026-05-02T15:19:01.271Z</time></trkpt><trkpt lat="43.78193" lon="6.346005"><ele>913.0</ele><time>2026-05-02T15:19:02.271Z</time></trkpt><trkpt lat="43.7818667" lon="6.3461833"><ele>911.3333333333333</ele><time>2026-05-02T15:19:03.271Z</time></trkpt><trkpt lat="43.78178" lon="6.3463567"><ele>909.6666666666667</ele><time>2026-05-02T15:19:04.271Z</time></trkpt><trkpt lat="43.7816833" lon="6.3465333"><ele>908.0</ele><time>2026-05-02T15:19:05.271Z</time></trkpt><trkpt lat="43.781585" lon="6.346715"><ele>908.0</ele><time>2026-05-02T15:19:06.271Z</time></trkpt><trkpt lat="43.7814667" lon="6.34691"><ele>908.0</ele><time>2026-05-02T15:19:07.271Z</time></trkpt><trkpt lat="43.7813633" lon="6.3470983"><ele>908.0</ele><time>2026-05-02T15:19:08.272Z</time></trkpt><trkpt lat="43.78126" lon="6.3472967"><ele>908.0</ele><time>2026-05-02T15:19:09.271Z</time></trkpt><trkpt lat="43.7811717" lon="6.34749"><ele>908.0</ele><time>2026-05-02T15:19:10.272Z</time></trkpt><trkpt lat="43.7810833" lon="6.3476733"><ele>908.0</ele><time>2026-05-02T15:19:11.271Z</time></trkpt><trkpt lat="43.780995" lon="6.34787"><ele>907.3333333333334</ele><time>2026-05-02T15:19:12.271Z</time></trkpt><trkpt lat="43.7809117" lon="6.3480717"><ele>906.6666666666667</ele><time>2026-05-02T15:19:13.271Z</time></trkpt><trkpt lat="43.7808267" lon="6.348245"><ele>906.0</ele><time>2026-05-02T15:19:14.271Z</time></trkpt><trkpt lat="43.7807417" lon="6.34842"><ele>906.0</ele><time>2026-05-02T15:19:15.271Z</time></trkpt><trkpt lat="43.780665" lon="6.3485883"><ele>906.0</ele><time>2026-05-02T15:19:16.271Z</time></trkpt><trkpt lat="43.7806" lon="6.3487533"><ele>906.0</ele><time>2026-05-02T15:19:17.271Z</time></trkpt><trkpt lat="43.7805317" lon="6.34893"><ele>906.0</ele><time>2026-05-02T15:19:18.271Z</time></trkpt><trkpt lat="43.7804633" lon="6.3491117"><ele>905.3333333333333</ele><time>2026-05-02T15:19:19.271Z</time></trkpt><trkpt lat="43.780405" lon="6.3493083"><ele>904.6666666666666</ele><time>2026-05-02T15:19:20.271Z</time></trkpt><trkpt lat="43.7803617" lon="6.3495233"><ele>904.0</ele><time>2026-05-02T15:19:21.271Z</time></trkpt><trkpt lat="43.7803467" lon="6.3497517"><ele>904.0</ele><time>2026-05-02T15:19:22.271Z</time></trkpt><trkpt lat="43.78034" lon="6.3499967"><ele>904.0</ele><time>2026-05-02T15:19:23.271Z</time></trkpt><trkpt lat="43.7803317" lon="6.3502667"><ele>904.0</ele><time>2026-05-02T15:19:24.271Z</time></trkpt><trkpt lat="43.7803233" lon="6.3505467"><ele>903.0</ele><time>2026-05-02T15:19:25.271Z</time></trkpt><trkpt lat="43.7803067" lon="6.35083"><ele>902.0</ele><time>2026-05-02T15:19:26.271Z</time></trkpt><trkpt lat="43.7802967" lon="6.35111"><ele>901.0</ele><time>2026-05-02T15:19:27.271Z</time></trkpt><trkpt lat="43.780285" lon="6.35138"><ele>901.0</ele><time>2026-05-02T15:19:28.271Z</time></trkpt><trkpt lat="43.780275" lon="6.3516517"><ele>901.0</ele><time>2026-05-02T15:19:29.271Z</time></trkpt><trkpt lat="43.78027" lon="6.35191"><ele>901.0</ele><time>2026-05-02T15:19:30.271Z</time></trkpt><trkpt lat="43.7802583" lon="6.3521783"><ele>899.6666666666666</ele><time>2026-05-02T15:19:31.271Z</time></trkpt><trkpt lat="43.7802467" lon="6.35244"><ele>898.3333333333333</ele><time>2026-05-02T15:19:32.271Z</time></trkpt><trkpt lat="43.7802333" lon="6.352705"><ele>897.0</ele><time>2026-05-02T15:19:33.271Z</time></trkpt><trkpt lat="43.7802167" lon="6.3529533"><ele>896.0</ele><time>2026-05-02T15:19:34.271Z</time></trkpt><trkpt lat="43.7801983" lon="6.35321"><ele>895.0</ele><time>2026-05-02T15:19:35.271Z</time></trkpt><trkpt lat="43.7801817" lon="6.3534683"><ele>894.0</ele><time>2026-05-02T15:19:36.271Z</time></trkpt><trkpt lat="43.78017" lon="6.353715"><ele>891.0</ele><time>2026-05-02T15:19:37.272Z</time></trkpt><trkpt lat="43.7801617" lon="6.3539617"><ele>888.0</ele><time>2026-05-02T15:19:38.271Z</time></trkpt><trkpt lat="43.7801583" lon="6.3541967"><ele>885.0</ele><time>2026-05-02T15:19:39.271Z</time></trkpt><trkpt lat="43.78015" lon="6.354425"><ele>885.0</ele><time>2026-05-02T15:19:40.271Z</time></trkpt><trkpt lat="43.7801417" lon="6.3546517"><ele>885.0</ele><time>2026-05-02T15:19:41.271Z</time></trkpt><trkpt lat="43.78014" lon="6.3548833"><ele>885.0</ele><time>2026-05-02T15:19:42.272Z</time></trkpt><trkpt lat="43.7801417" lon="6.35511"><ele>885.0</ele><time>2026-05-02T15:19:43.271Z</time></trkpt><trkpt lat="43.78017" lon="6.3553317"><ele>885.0</ele><time>2026-05-02T15:19:44.271Z</time></trkpt><trkpt lat="43.780215" lon="6.3555583"><ele>885.0</ele><time>2026-05-02T15:19:45.271Z</time></trkpt><trkpt lat="43.78027" lon="6.35579"><ele>884.6666666666667</ele><time>2026-05-02T15:19:46.271Z</time></trkpt><trkpt lat="43.78033" lon="6.356015"><ele>884.3333333333334</ele><time>2026-05-02T15:19:47.271Z</time></trkpt><trkpt lat="43.7803867" lon="6.3562417"><ele>884.0</ele><time>2026-05-02T15:19:48.271Z</time></trkpt><trkpt lat="43.78044" lon="6.356465"><ele>883.0</ele><time>2026-05-02T15:19:49.272Z</time></trkpt><trkpt lat="43.7804883" lon="6.3566867"><ele>882.0</ele><time>2026-05-02T15:19:50.271Z</time></trkpt><trkpt lat="43.7805467" lon="6.3569067"><ele>881.0</ele><time>2026-05-02T15:19:51.272Z</time></trkpt><trkpt lat="43.7806067" lon="6.3571367"><ele>879.0</ele><time>2026-05-02T15:19:52.272Z</time></trkpt><trkpt lat="43.780665" lon="6.3573667"><ele>877.0</ele><time>2026-05-02T15:19:53.272Z</time></trkpt><trkpt lat="43.7807233" lon="6.3575967"><ele>875.0</ele><time>2026-05-02T15:19:54.272Z</time></trkpt><trkpt lat="43.7807767" lon="6.3578333"><ele>875.3333333333334</ele><time>2026-05-02T15:19:55.271Z</time></trkpt><trkpt lat="43.78083" lon="6.358075"><ele>875.6666666666667</ele><time>2026-05-02T15:19:56.271Z</time></trkpt><trkpt lat="43.78089" lon="6.3583167"><ele>876.0</ele><time>2026-05-02T15:19:57.271Z</time></trkpt><trkpt lat="43.7809517" lon="6.3585583"><ele>874.3333333333333</ele><time>2026-05-02T15:19:58.272Z</time></trkpt><trkpt lat="43.7810167" lon="6.358795"><ele>872.6666666666666</ele><time>2026-05-02T15:19:59.271Z</time></trkpt><trkpt lat="43.7810783" lon="6.35902"><ele>871.0</ele><time>2026-05-02T15:20:00.271Z</time></trkpt><trkpt lat="43.78114" lon="6.35925"><ele>869.6666666666666</ele><time>2026-05-02T15:20:01.271Z</time></trkpt><trkpt lat="43.781205" lon="6.3594733"><ele>868.3333333333333</ele><time>2026-05-02T15:20:02.271Z</time></trkpt><trkpt lat="43.7812667" lon="6.359695"><ele>867.0</ele><time>2026-05-02T15:20:03.272Z</time></trkpt><trkpt lat="43.78133" lon="6.3599133"><ele>866.0</ele><time>2026-05-02T15:20:04.271Z</time></trkpt><trkpt lat="43.781395" lon="6.3601217"><ele>865.0</ele><time>2026-05-02T15:20:05.271Z</time></trkpt><trkpt lat="43.781465" lon="6.36033"><ele>864.0</ele><time>2026-05-02T15:20:06.271Z</time></trkpt><trkpt lat="43.7815317" lon="6.3605317"><ele>865.6666666666667</ele><time>2026-05-02T15:20:07.271Z</time></trkpt><trkpt lat="43.7815933" lon="6.3607433"><ele>867.3333333333334</ele><time>2026-05-02T15:20:08.271Z</time></trkpt><trkpt lat="43.7816583" lon="6.3609583"><ele>869.0</ele><time>2026-05-02T15:20:09.272Z</time></trkpt><trkpt lat="43.78172" lon="6.361175"><ele>869.3333333333334</ele><time>2026-05-02T15:20:10.271Z</time></trkpt><trkpt lat="43.7817867" lon="6.3613917"><ele>869.6666666666667</ele><time>2026-05-02T15:20:11.271Z</time></trkpt><trkpt lat="43.7818567" lon="6.3616083"><ele>870.0</ele><time>2026-05-02T15:20:12.271Z</time></trkpt><trkpt lat="43.7819267" lon="6.3618183"><ele>864.0</ele><time>2026-05-02T15:20:13.272Z</time></trkpt><trkpt lat="43.7819917" lon="6.3620183"><ele>858.0</ele><time>2026-05-02T15:20:14.272Z</time></trkpt><trkpt lat="43.782045" lon="6.3622233"><ele>852.0</ele><time>2026-05-02T15:20:15.271Z</time></trkpt><trkpt lat="43.7820867" lon="6.36244"><ele>851.0</ele><time>2026-05-02T15:20:16.271Z</time></trkpt><trkpt lat="43.7821167" lon="6.36266"><ele>850.0</ele><time>2026-05-02T15:20:17.271Z</time></trkpt><trkpt lat="43.7821417" lon="6.3628867"><ele>849.0</ele><time>2026-05-02T15:20:18.271Z</time></trkpt><trkpt lat="43.782155" lon="6.3631233"><ele>848.3333333333333</ele><time>2026-05-02T15:20:19.272Z</time></trkpt><trkpt lat="43.7821767" lon="6.3633583"><ele>847.6666666666666</ele><time>2026-05-02T15:20:20.271Z</time></trkpt><trkpt lat="43.782185" lon="6.3635967"><ele>847.0</ele><time>2026-05-02T15:20:21.271Z</time></trkpt><trkpt lat="43.782205" lon="6.3638283"><ele>846.3333333333333</ele><time>2026-05-02T15:20:22.271Z</time></trkpt><trkpt lat="43.7822133" lon="6.3640467"><ele>845.6666666666667</ele><time>2026-05-02T15:20:23.271Z</time></trkpt><trkpt lat="43.7822467" lon="6.3642717"><ele>845.0</ele><time>2026-05-02T15:20:24.272Z</time></trkpt><trkpt lat="43.7823" lon="6.3645067"><ele>847.0</ele><time>2026-05-02T15:20:25.271Z</time></trkpt><trkpt lat="43.7823717" lon="6.364735"><ele>849.0</ele><time>2026-05-02T15:20:26.271Z</time></trkpt><trkpt lat="43.782445" lon="6.3649683"><ele>851.0</ele><time>2026-05-02T15:20:27.271Z</time></trkpt><trkpt lat="43.782515" lon="6.3652067"><ele>851.0</ele><time>2026-05-02T15:20:28.271Z</time></trkpt><trkpt lat="43.7825867" lon="6.36544"><ele>851.0</ele><time>2026-05-02T15:20:29.272Z</time></trkpt><trkpt lat="43.782665" lon="6.365665"><ele>851.0</ele><time>2026-05-02T15:20:30.271Z</time></trkpt><trkpt lat="43.7827467" lon="6.3658917"><ele>845.6666666666667</ele><time>2026-05-02T15:20:31.271Z</time></trkpt><trkpt lat="43.7828283" lon="6.3661183"><ele>840.3333333333333</ele><time>2026-05-02T15:20:32.271Z</time></trkpt><trkpt lat="43.7829083" lon="6.3663283"><ele>835.0</ele><time>2026-05-02T15:20:33.271Z</time></trkpt><trkpt lat="43.782995" lon="6.36655"><ele>835.0</ele><time>2026-05-02T15:20:34.271Z</time></trkpt><trkpt lat="43.7830817" lon="6.3667633"><ele>835.0</ele><time>2026-05-02T15:20:35.272Z</time></trkpt><trkpt lat="43.783175" lon="6.3669683"><ele>835.0</ele><time>2026-05-02T15:20:36.271Z</time></trkpt><trkpt lat="43.7832683" lon="6.36718"><ele>837.6666666666666</ele><time>2026-05-02T15:20:37.271Z</time></trkpt><trkpt lat="43.7833567" lon="6.3673917"><ele>840.3333333333333</ele><time>2026-05-02T15:20:38.271Z</time></trkpt><trkpt lat="43.78343" lon="6.36762"><ele>843.0</ele><time>2026-05-02T15:20:39.271Z</time></trkpt><trkpt lat="43.7835117" lon="6.36785"><ele>835.6666666666667</ele><time>2026-05-02T15:20:40.271Z</time></trkpt><trkpt lat="43.7835917" lon="6.3680817"><ele>828.3333333333334</ele><time>2026-05-02T15:20:41.271Z</time></trkpt><trkpt lat="43.78368" lon="6.3683017"><ele>821.0</ele><time>2026-05-02T15:20:42.271Z</time></trkpt><trkpt lat="43.7837767" lon="6.36852"><ele>821.0</ele><time>2026-05-02T15:20:43.272Z</time></trkpt><trkpt lat="43.7838683" lon="6.368745"><ele>821.0</ele><time>2026-05-02T15:20:44.271Z</time></trkpt><trkpt lat="43.78396" lon="6.3689717"><ele>821.0</ele><time>2026-05-02T15:20:45.271Z</time></trkpt><trkpt lat="43.7840433" lon="6.3691967"><ele>823.3333333333334</ele><time>2026-05-02T15:20:46.272Z</time></trkpt><trkpt lat="43.7841167" lon="6.3694233"><ele>825.6666666666667</ele><time>2026-05-02T15:20:47.271Z</time></trkpt><trkpt lat="43.784195" lon="6.3696333"><ele>828.0</ele><time>2026-05-02T15:20:48.271Z</time></trkpt><trkpt lat="43.78427" lon="6.3698417"><ele>831.0</ele><time>2026-05-02T15:20:49.271Z</time></trkpt><trkpt lat="43.78434" lon="6.3700367"><ele>834.0</ele><time>2026-05-02T15:20:50.271Z</time></trkpt><trkpt lat="43.7844183" lon="6.3702183"><ele>837.0</ele><time>2026-05-02T15:20:51.271Z</time></trkpt><trkpt lat="43.784505" lon="6.3704017"><ele>831.5</ele><time>2026-05-02T15:20:52.271Z</time></trkpt><trkpt lat="43.7846" lon="6.3705717"><ele>826.0</ele><time>2026-05-02T15:20:53.271Z</time></trkpt><trkpt lat="43.78469" lon="6.370735"><ele>820.5</ele><time>2026-05-02T15:20:54.272Z</time></trkpt><trkpt lat="43.7847817" lon="6.3708867"><ele>815.0</ele><time>2026-05-02T15:20:55.271Z</time></trkpt><trkpt lat="43.7848717" lon="6.371035"><ele>815.0</ele><time>2026-05-02T15:20:56.271Z</time></trkpt><trkpt lat="43.78497" lon="6.3711783"><ele>815.0</ele><time>2026-05-02T15:20:57.271Z</time></trkpt><trkpt lat="43.7850733" lon="6.3713"><ele>815.0</ele><time>2026-05-02T15:20:58.271Z</time></trkpt><trkpt lat="43.7851733" lon="6.3714133"><ele>815.0</ele><time>2026-05-02T15:20:59.271Z</time></trkpt><trkpt lat="43.7852817" lon="6.371525"><ele>813.4</ele><time>2026-05-02T15:21:00.271Z</time></trkpt><trkpt lat="43.785385" lon="6.37162"><ele>811.8</ele><time>2026-05-02T15:21:01.271Z</time></trkpt><trkpt lat="43.7854933" lon="6.371695"><ele>810.2</ele><time>2026-05-02T15:21:02.271Z</time></trkpt><trkpt lat="43.7855967" lon="6.37171"><ele>808.6</ele><time>2026-05-02T15:21:03.271Z</time></trkpt><trkpt lat="43.785695" lon="6.3716817"><ele>807.0</ele><time>2026-05-02T15:21:04.271Z</time></trkpt><trkpt lat="43.78579" lon="6.3716283"><ele>807.0</ele><time>2026-05-02T15:21:05.271Z</time></trkpt><trkpt lat="43.7858783" lon="6.371595"><ele>807.0</ele><time>2026-05-02T15:21:06.271Z</time></trkpt><trkpt lat="43.7860017" lon="6.3716333"><ele>807.0</ele><time>2026-05-02T15:21:07.271Z</time></trkpt><trkpt lat="43.7860617" lon="6.3716633"><ele>807.0</ele><time>2026-05-02T15:21:08.271Z</time></trkpt><trkpt lat="43.7861117" lon="6.3717467"><ele>807.0</ele><time>2026-05-02T15:21:09.272Z</time></trkpt><trkpt lat="43.786145" lon="6.371865"><ele>801.5</ele><time>2026-05-02T15:21:10.271Z</time></trkpt><trkpt lat="43.7861517" lon="6.372005"><ele>796.0</ele><time>2026-05-02T15:21:11.271Z</time></trkpt><trkpt lat="43.7861583" lon="6.372175"><ele>790.5</ele><time>2026-05-02T15:21:12.271Z</time></trkpt><trkpt lat="43.7861817" lon="6.3723483"><ele>785.0</ele><time>2026-05-02T15:21:13.271Z</time></trkpt><trkpt lat="43.7862333" lon="6.3725083"><ele>785.0</ele><time>2026-05-02T15:21:14.271Z</time></trkpt><trkpt lat="43.7863" lon="6.37264"><ele>785.0</ele><time>2026-05-02T15:21:15.272Z</time></trkpt><trkpt lat="43.78637" lon="6.372755"><ele>785.0</ele><time>2026-05-02T15:21:16.271Z</time></trkpt><trkpt lat="43.7864467" lon="6.372855"><ele>785.0</ele><time>2026-05-02T15:21:17.271Z</time></trkpt><trkpt lat="43.7865217" lon="6.37294"><ele>785.0</ele><time>2026-05-02T15:21:18.271Z</time></trkpt><trkpt lat="43.7865733" lon="6.373035"><ele>788.8</ele><time>2026-05-02T15:21:19.271Z</time></trkpt><trkpt lat="43.7866083" lon="6.37314"><ele>792.6</ele><time>2026-05-02T15:21:20.271Z</time></trkpt><trkpt lat="43.786625" lon="6.3732667"><ele>796.4000000000001</ele><time>2026-05-02T15:21:21.271Z</time></trkpt><trkpt lat="43.7866433" lon="6.3734033"><ele>800.2</ele><time>2026-05-02T15:21:22.271Z</time></trkpt><trkpt lat="43.7866567" lon="6.3735583"><ele>804.0</ele><time>2026-05-02T15:21:23.271Z</time></trkpt><trkpt lat="43.7866817" lon="6.3737167"><ele>807.25</ele><time>2026-05-02T15:21:24.272Z</time></trkpt><trkpt lat="43.7867333" lon="6.3738683"><ele>810.5</ele><time>2026-05-02T15:21:25.271Z</time></trkpt><trkpt lat="43.7867883" lon="6.3740167"><ele>813.75</ele><time>2026-05-02T15:21:26.271Z</time></trkpt><trkpt lat="43.7868483" lon="6.37417"><ele>817.0</ele><time>2026-05-02T15:21:27.271Z</time></trkpt><trkpt lat="43.7869083" lon="6.3743267"><ele>811.75</ele><time>2026-05-02T15:21:28.271Z</time></trkpt><trkpt lat="43.78697" lon="6.3744783"><ele>806.5</ele><time>2026-05-02T15:21:29.271Z</time></trkpt><trkpt lat="43.787045" lon="6.3745967"><ele>801.25</ele><time>2026-05-02T15:21:30.271Z</time></trkpt><trkpt lat="43.7871417" lon="6.3746967"><ele>796.0</ele><time>2026-05-02T15:21:31.271Z</time></trkpt><trkpt lat="43.787255" lon="6.37478"><ele>796.0</ele><time>2026-05-02T15:21:32.271Z</time></trkpt><trkpt lat="43.7873583" lon="6.3748467"><ele>796.0</ele><time>2026-05-02T15:21:33.271Z</time></trkpt><trkpt lat="43.7874733" lon="6.3749"><ele>796.0</ele><time>2026-05-02T15:21:34.271Z</time></trkpt><trkpt lat="43.7875833" lon="6.3749683"><ele>796.0</ele><time>2026-05-02T15:21:35.271Z</time></trkpt><trkpt lat="43.7876883" lon="6.37505"><ele>791.0</ele><time>2026-05-02T15:21:36.271Z</time></trkpt><trkpt lat="43.787785" lon="6.3751583"><ele>786.0</ele><time>2026-05-02T15:21:37.271Z</time></trkpt><trkpt lat="43.7878767" lon="6.3752867"><ele>781.0</ele><time>2026-05-02T15:21:38.271Z</time></trkpt><trkpt lat="43.7879683" lon="6.375405"><ele>776.0</ele><time>2026-05-02T15:21:39.271Z</time></trkpt><trkpt lat="43.7880617" lon="6.37551"><ele>773.25</ele><time>2026-05-02T15:21:40.271Z</time></trkpt><trkpt lat="43.78817" lon="6.3756033"><ele>770.5</ele><time>2026-05-02T15:21:41.271Z</time></trkpt><trkpt lat="43.7882817" lon="6.3756733"><ele>767.75</ele><time>2026-05-02T15:21:42.271Z</time></trkpt><trkpt lat="43.7883967" lon="6.3757367"><ele>765.0</ele><time>2026-05-02T15:21:43.271Z</time></trkpt><trkpt lat="43.78851" lon="6.37582"><ele>765.0</ele><time>2026-05-02T15:21:44.272Z</time></trkpt><trkpt lat="43.788625" lon="6.37592"><ele>765.0</ele><time>2026-05-02T15:21:45.271Z</time></trkpt><trkpt lat="43.7887467" lon="6.3760317"><ele>765.0</ele><time>2026-05-02T15:21:46.271Z</time></trkpt><trkpt lat="43.7888583" lon="6.376135"><ele>765.0</ele><time>2026-05-02T15:21:47.272Z</time></trkpt><trkpt lat="43.7889617" lon="6.37623"><ele>765.0</ele><time>2026-05-02T15:21:48.271Z</time></trkpt><trkpt lat="43.789085" lon="6.3763083"><ele>765.0</ele><time>2026-05-02T15:21:49.271Z</time></trkpt><trkpt lat="43.7892083" lon="6.3763867"><ele>765.0</ele><time>2026-05-02T15:21:50.271Z</time></trkpt><trkpt lat="43.7893233" lon="6.37646"><ele>765.0</ele><time>2026-05-02T15:21:51.271Z</time></trkpt><trkpt lat="43.78943" lon="6.37655"><ele>764.25</ele><time>2026-05-02T15:21:52.271Z</time></trkpt><trkpt lat="43.7895267" lon="6.3766483"><ele>763.5</ele><time>2026-05-02T15:21:53.271Z</time></trkpt><trkpt lat="43.7896117" lon="6.3767633"><ele>762.75</ele><time>2026-05-02T15:21:54.272Z</time></trkpt><trkpt lat="43.7896917" lon="6.376875"><ele>762.0</ele><time>2026-05-02T15:21:55.272Z</time></trkpt><trkpt lat="43.7897567" lon="6.3770067"><ele>762.0</ele><time>2026-05-02T15:21:56.271Z</time></trkpt><trkpt lat="43.7898167" lon="6.3771317"><ele>762.0</ele><time>2026-05-02T15:21:57.271Z</time></trkpt><trkpt lat="43.7898517" lon="6.37727"><ele>762.0</ele><time>2026-05-02T15:21:58.272Z</time></trkpt><trkpt lat="43.789855" lon="6.37738"><ele>762.0</ele><time>2026-05-02T15:21:59.271Z</time></trkpt><trkpt lat="43.7898283" lon="6.3774967"><ele>762.0</ele><time>2026-05-02T15:22:00.271Z</time></trkpt><trkpt lat="43.7897667" lon="6.3775967"><ele>762.0</ele><time>2026-05-02T15:22:01.271Z</time></trkpt><trkpt lat="43.7896783" lon="6.3776833"><ele>762.0</ele><time>2026-05-02T15:22:02.271Z</time></trkpt><trkpt lat="43.7895433" lon="6.37775"><ele>762.0</ele><time>2026-05-02T15:22:03.271Z</time></trkpt><trkpt lat="43.7894167" lon="6.3778467"><ele>762.0</ele><time>2026-05-02T15:22:04.271Z</time></trkpt><trkpt lat="43.789295" lon="6.3779583"><ele>762.6666666666666</ele><time>2026-05-02T15:22:05.271Z</time></trkpt><trkpt lat="43.7891717" lon="6.3780867"><ele>763.3333333333333</ele><time>2026-05-02T15:22:06.272Z</time></trkpt><trkpt lat="43.789065" lon="6.3782417"><ele>764.0</ele><time>2026-05-02T15:22:07.271Z</time></trkpt><trkpt lat="43.78896" lon="6.3784033"><ele>764.0</ele><time>2026-05-02T15:22:08.271Z</time></trkpt><trkpt lat="43.7888767" lon="6.3785767"><ele>764.0</ele><time>2026-05-02T15:22:09.271Z</time></trkpt><trkpt lat="43.7888067" lon="6.37875"><ele>764.0</ele><time>2026-05-02T15:22:10.271Z</time></trkpt><trkpt lat="43.7887483" lon="6.37892"><ele>764.0</ele><time>2026-05-02T15:22:11.272Z</time></trkpt><trkpt lat="43.788725" lon="6.379105"><ele>760.4000000000001</ele><time>2026-05-02T15:22:12.272Z</time></trkpt><trkpt lat="43.7887117" lon="6.3792733"><ele>756.8</ele><time>2026-05-02T15:22:13.271Z</time></trkpt><trkpt lat="43.7887133" lon="6.37944"><ele>753.2</ele><time>2026-05-02T15:22:14.271Z</time></trkpt><trkpt lat="43.7887083" lon="6.3795767"><ele>749.5999999999999</ele><time>2026-05-02T15:22:15.271Z</time></trkpt><trkpt lat="43.7886933" lon="6.3797"><ele>746.0</ele><time>2026-05-02T15:22:16.271Z</time></trkpt><trkpt lat="43.788645" lon="6.3798183"><ele>743.8</ele><time>2026-05-02T15:22:17.271Z</time></trkpt><trkpt lat="43.7885733" lon="6.3799333"><ele>741.5999999999999</ele><time>2026-05-02T15:22:18.271Z</time></trkpt><trkpt lat="43.7885017" lon="6.38006"><ele>739.4</ele><time>2026-05-02T15:22:19.271Z</time></trkpt><trkpt lat="43.7884317" lon="6.3801817"><ele>737.2</ele><time>2026-05-02T15:22:20.271Z</time></trkpt><trkpt lat="43.7883867" lon="6.380295"><ele>735.0</ele><time>2026-05-02T15:22:21.271Z</time></trkpt><trkpt lat="43.788345" lon="6.3803883"><ele>735.4</ele><time>2026-05-02T15:22:22.271Z</time></trkpt><trkpt lat="43.7883067" lon="6.3804683"><ele>735.8</ele><time>2026-05-02T15:22:23.271Z</time></trkpt><trkpt lat="43.788255" lon="6.38052"><ele>736.2</ele><time>2026-05-02T15:22:24.271Z</time></trkpt><trkpt lat="43.788125" lon="6.3804833"><ele>736.6</ele><time>2026-05-02T15:22:26.272Z</time></trkpt><trkpt lat="43.7880383" lon="6.38042"><ele>737.0</ele><time>2026-05-02T15:22:27.271Z</time></trkpt><trkpt lat="43.787945" lon="6.3803567"><ele>742.0</ele><time>2026-05-02T15:22:28.271Z</time></trkpt><trkpt lat="43.7878517" lon="6.3803133"><ele>747.0</ele><time>2026-05-02T15:22:29.272Z</time></trkpt><trkpt lat="43.7877567" lon="6.3803"><ele>752.0</ele><time>2026-05-02T15:22:30.271Z</time></trkpt><trkpt lat="43.7876567" lon="6.3802967"><ele>757.0</ele><time>2026-05-02T15:22:31.271Z</time></trkpt><trkpt lat="43.7875667" lon="6.380295"><ele>762.0</ele><time>2026-05-02T15:22:32.271Z</time></trkpt><trkpt lat="43.7874733" lon="6.38031"><ele>763.0</ele><time>2026-05-02T15:22:33.271Z</time></trkpt><trkpt lat="43.78738" lon="6.3803383"><ele>764.0</ele><time>2026-05-02T15:22:34.271Z</time></trkpt><trkpt lat="43.7872867" lon="6.3803783"><ele>765.0</ele><time>2026-05-02T15:22:35.271Z</time></trkpt><trkpt lat="43.787195" lon="6.38042"><ele>766.0</ele><time>2026-05-02T15:22:36.271Z</time></trkpt><trkpt lat="43.7871017" lon="6.3804583"><ele>767.0</ele><time>2026-05-02T15:22:37.271Z</time></trkpt><trkpt lat="43.7870233" lon="6.3804983"><ele>761.6666666666666</ele><time>2026-05-02T15:22:38.272Z</time></trkpt><trkpt lat="43.78696" lon="6.3805433"><ele>756.3333333333333</ele><time>2026-05-02T15:22:39.271Z</time></trkpt><trkpt lat="43.7868733" lon="6.3806683"><ele>751.0</ele><time>2026-05-02T15:22:41.272Z</time></trkpt><trkpt lat="43.7868533" lon="6.3807617"><ele>745.6666666666666</ele><time>2026-05-02T15:22:42.271Z</time></trkpt><trkpt lat="43.78686" lon="6.38086"><ele>740.3333333333334</ele><time>2026-05-02T15:22:43.271Z</time></trkpt><trkpt lat="43.78691" lon="6.3809483"><ele>735.0</ele><time>2026-05-02T15:22:44.271Z</time></trkpt><trkpt lat="43.7869817" lon="6.3810167"><ele>735.0</ele><time>2026-05-02T15:22:45.272Z</time></trkpt><trkpt lat="43.7870633" lon="6.3810383"><ele>735.0</ele><time>2026-05-02T15:22:46.271Z</time></trkpt><trkpt lat="43.7871483" lon="6.38101"><ele>735.0</ele><time>2026-05-02T15:22:47.271Z</time></trkpt><trkpt lat="43.78723" lon="6.380945"><ele>735.0</ele><time>2026-05-02T15:22:48.271Z</time></trkpt><trkpt lat="43.7873033" lon="6.38085"><ele>735.0</ele><time>2026-05-02T15:22:49.271Z</time></trkpt><trkpt lat="43.7873833" lon="6.380755"><ele>735.0</ele><time>2026-05-02T15:22:50.271Z</time></trkpt><trkpt lat="43.78747" lon="6.380675"><ele>735.0</ele><time>2026-05-02T15:22:51.272Z</time></trkpt><trkpt lat="43.7875667" lon="6.38062"><ele>735.0</ele><time>2026-05-02T15:22:52.271Z</time></trkpt><trkpt lat="43.787675" lon="6.380585"><ele>735.0</ele><time>2026-05-02T15:22:53.271Z</time></trkpt><trkpt lat="43.78778" lon="6.3805917"><ele>735.0</ele><time>2026-05-02T15:22:54.271Z</time></trkpt><trkpt lat="43.7878833" lon="6.3806317"><ele>735.4</ele><time>2026-05-02T15:22:55.271Z</time></trkpt><trkpt lat="43.7879817" lon="6.3807"><ele>735.8</ele><time>2026-05-02T15:22:56.271Z</time></trkpt><trkpt lat="43.7880667" lon="6.380795"><ele>736.2</ele><time>2026-05-02T15:22:57.271Z</time></trkpt><trkpt lat="43.7881567" lon="6.3808883"><ele>736.6</ele><time>2026-05-02T15:22:58.271Z</time></trkpt><trkpt lat="43.7882517" lon="6.3809667"><ele>737.0</ele><time>2026-05-02T15:22:59.271Z</time></trkpt><trkpt lat="43.788355" lon="6.3810317"><ele>737.0</ele><time>2026-05-02T15:23:00.271Z</time></trkpt><trkpt lat="43.7884533" lon="6.3810717"><ele>737.0</ele><time>2026-05-02T15:23:01.271Z</time></trkpt><trkpt lat="43.7885517" lon="6.3810917"><ele>737.0</ele><time>2026-05-02T15:23:02.271Z</time></trkpt><trkpt lat="43.7886517" lon="6.3810967"><ele>737.0</ele><time>2026-05-02T15:23:03.272Z</time></trkpt><trkpt lat="43.7887433" lon="6.381095"><ele>737.0</ele><time>2026-05-02T15:23:04.271Z</time></trkpt><trkpt lat="43.7888433" lon="6.3810667"><ele>733.25</ele><time>2026-05-02T15:23:05.271Z</time></trkpt><trkpt lat="43.7889367" lon="6.3809867"><ele>729.5</ele><time>2026-05-02T15:23:06.271Z</time></trkpt><trkpt lat="43.789025" lon="6.3808717"><ele>725.75</ele><time>2026-05-02T15:23:07.271Z</time></trkpt><trkpt lat="43.7891" lon="6.3807533"><ele>722.0</ele><time>2026-05-02T15:23:08.271Z</time></trkpt><trkpt lat="43.7891767" lon="6.3806183"><ele>725.25</ele><time>2026-05-02T15:23:09.272Z</time></trkpt><trkpt lat="43.7892533" lon="6.3804883"><ele>728.5</ele><time>2026-05-02T15:23:10.272Z</time></trkpt><trkpt lat="43.789325" lon="6.3803583"><ele>731.75</ele><time>2026-05-02T15:23:11.271Z</time></trkpt><trkpt lat="43.789395" lon="6.38023"><ele>735.0</ele><time>2026-05-02T15:23:12.271Z</time></trkpt><trkpt lat="43.78947" lon="6.3801"><ele>731.8</ele><time>2026-05-02T15:23:13.271Z</time></trkpt><trkpt lat="43.7895517" lon="6.37999"><ele>728.6</ele><time>2026-05-02T15:23:14.271Z</time></trkpt><trkpt lat="43.7896283" lon="6.3799017"><ele>725.4000000000001</ele><time>2026-05-02T15:23:15.271Z</time></trkpt><trkpt lat="43.789695" lon="6.37981"><ele>722.2</ele><time>2026-05-02T15:23:16.271Z</time></trkpt><trkpt lat="43.78976" lon="6.3797183"><ele>719.0</ele><time>2026-05-02T15:23:17.271Z</time></trkpt><trkpt lat="43.7897817" lon="6.3796"><ele>719.0</ele><time>2026-05-02T15:23:18.271Z</time></trkpt><trkpt lat="43.7898167" lon="6.3794717"><ele>719.0</ele><time>2026-05-02T15:23:19.271Z</time></trkpt><trkpt lat="43.789865" lon="6.3793367"><ele>719.0</ele><time>2026-05-02T15:23:20.272Z</time></trkpt><trkpt lat="43.789935" lon="6.37922"><ele>719.0</ele><time>2026-05-02T15:23:21.271Z</time></trkpt><trkpt lat="43.79001" lon="6.3791267"><ele>719.0</ele><time>2026-05-02T15:23:22.271Z</time></trkpt><trkpt lat="43.7900917" lon="6.3790467"><ele>717.4000000000001</ele><time>2026-05-02T15:23:23.271Z</time></trkpt><trkpt lat="43.7901883" lon="6.3789733"><ele>715.8</ele><time>2026-05-02T15:23:24.272Z</time></trkpt><trkpt lat="43.7902817" lon="6.3789083"><ele>714.2</ele><time>2026-05-02T15:23:25.271Z</time></trkpt><trkpt lat="43.79037" lon="6.3788333"><ele>712.5999999999999</ele><time>2026-05-02T15:23:26.271Z</time></trkpt><trkpt lat="43.7904467" lon="6.378745"><ele>711.0</ele><time>2026-05-02T15:23:27.271Z</time></trkpt><trkpt lat="43.7905167" lon="6.3786483"><ele>711.0</ele><time>2026-05-02T15:23:28.271Z</time></trkpt><trkpt lat="43.79059" lon="6.378555"><ele>711.0</ele><time>2026-05-02T15:23:29.271Z</time></trkpt><trkpt lat="43.790685" lon="6.3784767"><ele>711.0</ele><time>2026-05-02T15:23:30.271Z</time></trkpt><trkpt lat="43.79078" lon="6.37842"><ele>711.0</ele><time>2026-05-02T15:23:31.271Z</time></trkpt><trkpt lat="43.7908683" lon="6.37837"><ele>711.0</ele><time>2026-05-02T15:23:32.271Z</time></trkpt><trkpt lat="43.79095" lon="6.3783117"><ele>708.1999999999999</ele><time>2026-05-02T15:23:33.271Z</time></trkpt><trkpt lat="43.7910367" lon="6.3782417"><ele>705.4</ele><time>2026-05-02T15:23:34.271Z</time></trkpt><trkpt lat="43.791115" lon="6.3781467"><ele>702.6</ele><time>2026-05-02T15:23:35.271Z</time></trkpt><trkpt lat="43.7911833" lon="6.37803"><ele>699.8</ele><time>2026-05-02T15:23:36.271Z</time></trkpt><trkpt lat="43.7912533" lon="6.3779"><ele>697.0</ele><time>2026-05-02T15:23:37.271Z</time></trkpt><trkpt lat="43.7913233" lon="6.377785"><ele>697.0</ele><time>2026-05-02T15:23:38.271Z</time></trkpt><trkpt lat="43.791415" lon="6.377695"><ele>697.0</ele><time>2026-05-02T15:23:39.271Z</time></trkpt><trkpt lat="43.791525" lon="6.3776333"><ele>697.0</ele><time>2026-05-02T15:23:40.271Z</time></trkpt><trkpt lat="43.7916333" lon="6.3775983"><ele>697.0</ele><time>2026-05-02T15:23:41.271Z</time></trkpt><trkpt lat="43.7917333" lon="6.37758"><ele>697.0</ele><time>2026-05-02T15:23:42.271Z</time></trkpt><trkpt lat="43.7918333" lon="6.3776033"><ele>697.0</ele><time>2026-05-02T15:23:43.271Z</time></trkpt><trkpt lat="43.7919267" lon="6.37764"><ele>697.0</ele><time>2026-05-02T15:23:44.271Z</time></trkpt><trkpt lat="43.7920083" lon="6.377715"><ele>697.0</ele><time>2026-05-02T15:23:45.271Z</time></trkpt><trkpt lat="43.79207" lon="6.3778267"><ele>697.0</ele><time>2026-05-02T15:23:46.271Z</time></trkpt><trkpt lat="43.7921233" lon="6.3779783"><ele>697.0</ele><time>2026-05-02T15:23:47.271Z</time></trkpt><trkpt lat="43.7921733" lon="6.3781467"><ele>696.3333333333334</ele><time>2026-05-02T15:23:48.271Z</time></trkpt><trkpt lat="43.79223" lon="6.3783383"><ele>695.6666666666666</ele><time>2026-05-02T15:23:49.271Z</time></trkpt><trkpt lat="43.7923017" lon="6.37855"><ele>695.0</ele><time>2026-05-02T15:23:50.271Z</time></trkpt><trkpt lat="43.7923833" lon="6.3787667"><ele>695.6666666666666</ele><time>2026-05-02T15:23:51.271Z</time></trkpt><trkpt lat="43.7924583" lon="6.3789917"><ele>696.3333333333334</ele><time>2026-05-02T15:23:52.271Z</time></trkpt><trkpt lat="43.792525" lon="6.3792"><ele>697.0</ele><time>2026-05-02T15:23:53.271Z</time></trkpt><trkpt lat="43.792585" lon="6.3793933"><ele>697.0</ele><time>2026-05-02T15:23:54.271Z</time></trkpt><trkpt lat="43.792635" lon="6.3795567"><ele>697.0</ele><time>2026-05-02T15:23:55.271Z</time></trkpt><trkpt lat="43.7926783" lon="6.3796967"><ele>697.0</ele><time>2026-05-02T15:23:56.271Z</time></trkpt><trkpt lat="43.7927" lon="6.3798133"><ele>697.0</ele><time>2026-05-02T15:23:57.271Z</time></trkpt><trkpt lat="43.7927" lon="6.3799183"><ele>697.0</ele><time>2026-05-02T15:23:58.271Z</time></trkpt><trkpt lat="43.7926833" lon="6.3800217"><ele>697.6</ele><time>2026-05-02T15:23:59.271Z</time></trkpt><trkpt lat="43.792645" lon="6.38013"><ele>698.2</ele><time>2026-05-02T15:24:00.271Z</time></trkpt><trkpt lat="43.792605" lon="6.380255"><ele>698.8</ele><time>2026-05-02T15:24:01.271Z</time></trkpt><trkpt lat="43.7925767" lon="6.3804083"><ele>699.4</ele><time>2026-05-02T15:24:02.271Z</time></trkpt><trkpt lat="43.792565" lon="6.380555"><ele>700.0</ele><time>2026-05-02T15:24:03.271Z</time></trkpt><trkpt lat="43.7925667" lon="6.3806967"><ele>701.0</ele><time>2026-05-02T15:24:04.271Z</time></trkpt><trkpt lat="43.7925667" lon="6.3808367"><ele>702.0</ele><time>2026-05-02T15:24:05.271Z</time></trkpt><trkpt lat="43.79256" lon="6.380975"><ele>703.0</ele><time>2026-05-02T15:24:06.271Z</time></trkpt><trkpt lat="43.7925417" lon="6.3811233"><ele>704.0</ele><time>2026-05-02T15:24:07.271Z</time></trkpt><trkpt lat="43.792505" lon="6.3812767"><ele>705.0</ele><time>2026-05-02T15:24:08.271Z</time></trkpt><trkpt lat="43.792455" lon="6.3814367"><ele>708.5</ele><time>2026-05-02T15:24:09.272Z</time></trkpt><trkpt lat="43.7923817" lon="6.3815817"><ele>712.0</ele><time>2026-05-02T15:24:10.271Z</time></trkpt><trkpt lat="43.7923017" lon="6.3817133"><ele>715.5</ele><time>2026-05-02T15:24:11.271Z</time></trkpt><trkpt lat="43.7922217" lon="6.38184"><ele>719.0</ele><time>2026-05-02T15:24:12.271Z</time></trkpt><trkpt lat="43.79214" lon="6.381975"><ele>719.0</ele><time>2026-05-02T15:24:13.271Z</time></trkpt><trkpt lat="43.79206" lon="6.3821083"><ele>719.0</ele><time>2026-05-02T15:24:14.271Z</time></trkpt><trkpt lat="43.7919717" lon="6.38224"><ele>719.0</ele><time>2026-05-02T15:24:15.271Z</time></trkpt><trkpt lat="43.79189" lon="6.3823767"><ele>719.0</ele><time>2026-05-02T15:24:16.271Z</time></trkpt><trkpt lat="43.791825" lon="6.3825233"><ele>718.0</ele><time>2026-05-02T15:24:17.271Z</time></trkpt><trkpt lat="43.791775" lon="6.3826867"><ele>717.0</ele><time>2026-05-02T15:24:18.271Z</time></trkpt><trkpt lat="43.791745" lon="6.3828617"><ele>716.0</ele><time>2026-05-02T15:24:19.271Z</time></trkpt><trkpt lat="43.7917317" lon="6.3830367"><ele>715.0</ele><time>2026-05-02T15:24:20.271Z</time></trkpt><trkpt lat="43.7917267" lon="6.3831983"><ele>715.0</ele><time>2026-05-02T15:24:21.271Z</time></trkpt><trkpt lat="43.7917417" lon="6.3833517"><ele>715.0</ele><time>2026-05-02T15:24:22.271Z</time></trkpt><trkpt lat="43.7917717" lon="6.3835117"><ele>715.0</ele><time>2026-05-02T15:24:23.271Z</time></trkpt><trkpt lat="43.791815" lon="6.383655"><ele>715.0</ele><time>2026-05-02T15:24:24.271Z</time></trkpt><trkpt lat="43.79188" lon="6.3837783"><ele>716.8</ele><time>2026-05-02T15:24:25.271Z</time></trkpt><trkpt lat="43.79195" lon="6.383885"><ele>718.6</ele><time>2026-05-02T15:24:26.271Z</time></trkpt><trkpt lat="43.7920217" lon="6.3839833"><ele>720.4000000000001</ele><time>2026-05-02T15:24:27.271Z</time></trkpt><trkpt lat="43.7921" lon="6.3840583"><ele>722.2</ele><time>2026-05-02T15:24:28.271Z</time></trkpt><trkpt lat="43.792185" lon="6.3841067"><ele>724.0</ele><time>2026-05-02T15:24:29.271Z</time></trkpt><trkpt lat="43.79228" lon="6.38411"><ele>724.0</ele><time>2026-05-02T15:24:30.271Z</time></trkpt><trkpt lat="43.7923917" lon="6.38408"><ele>724.0</ele><time>2026-05-02T15:24:31.271Z</time></trkpt><trkpt lat="43.792525" lon="6.3840233"><ele>724.0</ele><time>2026-05-02T15:24:32.271Z</time></trkpt><trkpt lat="43.7926783" lon="6.383955"><ele>724.0</ele><time>2026-05-02T15:24:33.271Z</time></trkpt><trkpt lat="43.7928467" lon="6.383885"><ele>728.25</ele><time>2026-05-02T15:24:34.271Z</time></trkpt><trkpt lat="43.7930067" lon="6.3838317"><ele>732.5</ele><time>2026-05-02T15:24:35.271Z</time></trkpt><trkpt lat="43.79315" lon="6.38382"><ele>736.75</ele><time>2026-05-02T15:24:36.271Z</time></trkpt><trkpt lat="43.7932767" lon="6.38383"><ele>741.0</ele><time>2026-05-02T15:24:37.271Z</time></trkpt><trkpt lat="43.7933983" lon="6.38384"><ele>740.5</ele><time>2026-05-02T15:24:38.272Z</time></trkpt><trkpt lat="43.79352" lon="6.3838467"><ele>740.0</ele><time>2026-05-02T15:24:39.272Z</time></trkpt><trkpt lat="43.7936417" lon="6.3838483"><ele>739.5</ele><time>2026-05-02T15:24:40.271Z</time></trkpt><trkpt lat="43.7937633" lon="6.38386"><ele>739.0</ele><time>2026-05-02T15:24:41.271Z</time></trkpt><trkpt lat="43.79389" lon="6.3838667"><ele>737.8000000000001</ele><time>2026-05-02T15:24:42.271Z</time></trkpt><trkpt lat="43.79401" lon="6.3838767"><ele>736.6</ele><time>2026-05-02T15:24:43.271Z</time></trkpt><trkpt lat="43.79412" lon="6.38388"><ele>735.4</ele><time>2026-05-02T15:24:44.271Z</time></trkpt><trkpt lat="43.7942217" lon="6.3838817"><ele>734.2</ele><time>2026-05-02T15:24:45.272Z</time></trkpt><trkpt lat="43.7943167" lon="6.38389"><ele>733.0</ele><time>2026-05-02T15:24:46.271Z</time></trkpt><trkpt lat="43.79441" lon="6.3838883"><ele>734.0</ele><time>2026-05-02T15:24:47.271Z</time></trkpt><trkpt lat="43.794505" lon="6.383845"><ele>735.0</ele><time>2026-05-02T15:24:48.271Z</time></trkpt><trkpt lat="43.7946033" lon="6.3837767"><ele>736.0</ele><time>2026-05-02T15:24:49.271Z</time></trkpt><trkpt lat="43.794705" lon="6.383685"><ele>737.0</ele><time>2026-05-02T15:24:50.271Z</time></trkpt><trkpt lat="43.794805" lon="6.38357"><ele>737.0</ele><time>2026-05-02T15:24:51.271Z</time></trkpt><trkpt lat="43.7949133" lon="6.383445"><ele>737.0</ele><time>2026-05-02T15:24:52.271Z</time></trkpt><trkpt lat="43.7950217" lon="6.383315"><ele>737.0</ele><time>2026-05-02T15:24:53.271Z</time></trkpt><trkpt lat="43.7951317" lon="6.3831833"><ele>737.0</ele><time>2026-05-02T15:24:54.271Z</time></trkpt><trkpt lat="43.7952483" lon="6.3830617"><ele>739.0</ele><time>2026-05-02T15:24:55.272Z</time></trkpt><trkpt lat="43.7953583" lon="6.3829383"><ele>741.0</ele><time>2026-05-02T15:24:56.271Z</time></trkpt><trkpt lat="43.79546" lon="6.3828367"><ele>743.0</ele><time>2026-05-02T15:24:57.271Z</time></trkpt><trkpt lat="43.7955533" lon="6.382745"><ele>745.0</ele><time>2026-05-02T15:24:58.271Z</time></trkpt><trkpt lat="43.7956467" lon="6.3826517"><ele>745.0</ele><time>2026-05-02T15:24:59.271Z</time></trkpt><trkpt lat="43.7957283" lon="6.382565"><ele>745.0</ele><time>2026-05-02T15:25:00.271Z</time></trkpt><trkpt lat="43.7958167" lon="6.3824983"><ele>745.0</ele><time>2026-05-02T15:25:01.271Z</time></trkpt><trkpt lat="43.795885" lon="6.38246"><ele>745.0</ele><time>2026-05-02T15:25:02.271Z</time></trkpt><trkpt lat="43.7959667" lon="6.38245"><ele>745.0</ele><time>2026-05-02T15:25:03.271Z</time></trkpt><trkpt lat="43.79604" lon="6.3824983"><ele>745.0</ele><time>2026-05-02T15:25:04.272Z</time></trkpt><trkpt lat="43.7961067" lon="6.3825767"><ele>747.1666666666667</ele><time>2026-05-02T15:25:05.271Z</time></trkpt><trkpt lat="43.7961683" lon="6.3826733"><ele>749.3333333333334</ele><time>2026-05-02T15:25:06.272Z</time></trkpt><trkpt lat="43.7962133" lon="6.3827667"><ele>751.5</ele><time>2026-05-02T15:25:07.271Z</time></trkpt><trkpt lat="43.7962383" lon="6.382865"><ele>753.6666666666666</ele><time>2026-05-02T15:25:08.271Z</time></trkpt><trkpt lat="43.7962383" lon="6.3829583"><ele>755.8333333333333</ele><time>2026-05-02T15:25:09.271Z</time></trkpt><trkpt lat="43.79621" lon="6.3830517"><ele>758.0</ele><time>2026-05-02T15:25:10.271Z</time></trkpt><trkpt lat="43.7961567" lon="6.3831483"><ele>758.0</ele><time>2026-05-02T15:25:11.271Z</time></trkpt><trkpt lat="43.7960933" lon="6.3832517"><ele>758.0</ele><time>2026-05-02T15:25:12.271Z</time></trkpt><trkpt lat="43.7960367" lon="6.3833583"><ele>758.0</ele><time>2026-05-02T15:25:13.271Z</time></trkpt><trkpt lat="43.7959883" lon="6.3834783"><ele>758.0</ele><time>2026-05-02T15:25:14.272Z</time></trkpt><trkpt lat="43.7959683" lon="6.3836033"><ele>758.0</ele><time>2026-05-02T15:25:15.271Z</time></trkpt><trkpt lat="43.79598" lon="6.383715"><ele>758.0</ele><time>2026-05-02T15:25:16.271Z</time></trkpt><trkpt lat="43.79601" lon="6.3838133"><ele>758.0</ele><time>2026-05-02T15:25:17.271Z</time></trkpt><trkpt lat="43.7960633" lon="6.3838933"><ele>758.0</ele><time>2026-05-02T15:25:18.272Z</time></trkpt><trkpt lat="43.7961383" lon="6.3839683"><ele>758.0</ele><time>2026-05-02T15:25:19.271Z</time></trkpt><trkpt lat="43.796225" lon="6.384025"><ele>758.0</ele><time>2026-05-02T15:25:20.271Z</time></trkpt><trkpt lat="43.796325" lon="6.3840683"><ele>758.0</ele><time>2026-05-02T15:25:21.271Z</time></trkpt><trkpt lat="43.7964233" lon="6.3841"><ele>757.5</ele><time>2026-05-02T15:25:22.271Z</time></trkpt><trkpt lat="43.7964983" lon="6.3841433"><ele>757.0</ele><time>2026-05-02T15:25:23.271Z</time></trkpt><trkpt lat="43.7965683" lon="6.384185"><ele>756.5</ele><time>2026-05-02T15:25:24.271Z</time></trkpt><trkpt lat="43.7966317" lon="6.38425"><ele>756.0</ele><time>2026-05-02T15:25:25.271Z</time></trkpt><trkpt lat="43.7966783" lon="6.38433"><ele>755.5</ele><time>2026-05-02T15:25:26.271Z</time></trkpt><trkpt lat="43.7967083" lon="6.3844317"><ele>755.0</ele><time>2026-05-02T15:25:27.271Z</time></trkpt><trkpt lat="43.7967117" lon="6.384535"><ele>755.0</ele><time>2026-05-02T15:25:28.271Z</time></trkpt><trkpt lat="43.79669" lon="6.38465"><ele>755.0</ele><time>2026-05-02T15:25:29.271Z</time></trkpt><trkpt lat="43.796665" lon="6.3847633"><ele>755.0</ele><time>2026-05-02T15:25:30.271Z</time></trkpt><trkpt lat="43.796635" lon="6.3848717"><ele>755.0</ele><time>2026-05-02T15:25:31.271Z</time></trkpt><trkpt lat="43.7965917" lon="6.3849833"><ele>755.0</ele><time>2026-05-02T15:25:32.271Z</time></trkpt><trkpt lat="43.7965317" lon="6.385095"><ele>755.0</ele><time>2026-05-02T15:25:33.271Z</time></trkpt><trkpt lat="43.796455" lon="6.3851867"><ele>755.2</ele><time>2026-05-02T15:25:34.271Z</time></trkpt><trkpt lat="43.7963667" lon="6.3852817"><ele>755.4</ele><time>2026-05-02T15:25:35.271Z</time></trkpt><trkpt lat="43.7962867" lon="6.3853667"><ele>755.5999999999999</ele><time>2026-05-02T15:25:36.271Z</time></trkpt><trkpt lat="43.7962217" lon="6.3854483"><ele>755.8</ele><time>2026-05-02T15:25:37.271Z</time></trkpt><trkpt lat="43.796165" lon="6.3855467"><ele>756.0</ele><time>2026-05-02T15:25:38.271Z</time></trkpt><trkpt lat="43.7961333" lon="6.3856567"><ele>758.1999999999999</ele><time>2026-05-02T15:25:39.272Z</time></trkpt><trkpt lat="43.79612" lon="6.3857817"><ele>760.4</ele><time>2026-05-02T15:25:40.271Z</time></trkpt><trkpt lat="43.7961267" lon="6.38592"><ele>762.6</ele><time>2026-05-02T15:25:41.272Z</time></trkpt><trkpt lat="43.7961433" lon="6.3860467"><ele>764.8</ele><time>2026-05-02T15:25:42.272Z</time></trkpt><trkpt lat="43.796155" lon="6.3861617"><ele>767.0</ele><time>2026-05-02T15:25:43.271Z</time></trkpt><trkpt lat="43.796155" lon="6.386275"><ele>767.6666666666666</ele><time>2026-05-02T15:25:44.271Z</time></trkpt><trkpt lat="43.7961283" lon="6.38639"><ele>768.3333333333333</ele><time>2026-05-02T15:25:45.271Z</time></trkpt><trkpt lat="43.7960817" lon="6.3864833"><ele>769.0</ele><time>2026-05-02T15:25:46.271Z</time></trkpt><trkpt lat="43.796015" lon="6.3865633"><ele>769.6666666666666</ele><time>2026-05-02T15:25:47.271Z</time></trkpt><trkpt lat="43.7959367" lon="6.3866317"><ele>770.3333333333334</ele><time>2026-05-02T15:25:48.271Z</time></trkpt><trkpt lat="43.7958617" lon="6.3866783"><ele>771.0</ele><time>2026-05-02T15:25:49.272Z</time></trkpt><trkpt lat="43.7957833" lon="6.386725"><ele>769.0</ele><time>2026-05-02T15:25:50.271Z</time></trkpt><trkpt lat="43.7957067" lon="6.3867767"><ele>767.0</ele><time>2026-05-02T15:25:51.272Z</time></trkpt><trkpt lat="43.79563" lon="6.3868217"><ele>765.0</ele><time>2026-05-02T15:25:52.271Z</time></trkpt><trkpt lat="43.7955517" lon="6.386835"><ele>763.0</ele><time>2026-05-02T15:25:53.271Z</time></trkpt><trkpt lat="43.795465" lon="6.3868083"><ele>761.0</ele><time>2026-05-02T15:25:54.272Z</time></trkpt><trkpt lat="43.7953883" lon="6.3867467"><ele>759.0</ele><time>2026-05-02T15:25:55.271Z</time></trkpt><trkpt lat="43.79532" lon="6.3866567"><ele>759.0</ele><time>2026-05-02T15:25:56.271Z</time></trkpt><trkpt lat="43.79526" lon="6.386555"><ele>759.0</ele><time>2026-05-02T15:25:57.271Z</time></trkpt><trkpt lat="43.7951933" lon="6.3864733"><ele>759.0</ele><time>2026-05-02T15:25:58.271Z</time></trkpt><trkpt lat="43.7951167" lon="6.38642"><ele>759.0</ele><time>2026-05-02T15:25:59.272Z</time></trkpt><trkpt lat="43.7950417" lon="6.3864083"><ele>759.0</ele><time>2026-05-02T15:26:00.272Z</time></trkpt><trkpt lat="43.794975" lon="6.386435"><ele>759.0</ele><time>2026-05-02T15:26:01.271Z</time></trkpt><trkpt lat="43.7949083" lon="6.3864767"><ele>759.4000000000001</ele><time>2026-05-02T15:26:02.272Z</time></trkpt><trkpt lat="43.7948517" lon="6.386555"><ele>759.8</ele><time>2026-05-02T15:26:03.271Z</time></trkpt><trkpt lat="43.7948017" lon="6.3866717"><ele>760.2</ele><time>2026-05-02T15:26:04.271Z</time></trkpt><trkpt lat="43.7947633" lon="6.38679"><ele>760.5999999999999</ele><time>2026-05-02T15:26:05.271Z</time></trkpt><trkpt lat="43.7947383" lon="6.38692"><ele>761.0</ele><time>2026-05-02T15:26:06.271Z</time></trkpt><trkpt lat="43.79473" lon="6.387055"><ele>761.0</ele><time>2026-05-02T15:26:07.271Z</time></trkpt><trkpt lat="43.7947217" lon="6.3871917"><ele>761.0</ele><time>2026-05-02T15:26:08.272Z</time></trkpt><trkpt lat="43.79473" lon="6.3873283"><ele>761.0</ele><time>2026-05-02T15:26:09.271Z</time></trkpt><trkpt lat="43.7947667" lon="6.3874717"><ele>761.0</ele><time>2026-05-02T15:26:10.272Z</time></trkpt><trkpt lat="43.79481" lon="6.3876133"><ele>761.0</ele><time>2026-05-02T15:26:11.271Z</time></trkpt><trkpt lat="43.794855" lon="6.3877467"><ele>761.0</ele><time>2026-05-02T15:26:12.271Z</time></trkpt><trkpt lat="43.7949033" lon="6.387885"><ele>761.0</ele><time>2026-05-02T15:26:13.271Z</time></trkpt><trkpt lat="43.794945" lon="6.388015"><ele>761.0</ele><time>2026-05-02T15:26:14.271Z</time></trkpt><trkpt lat="43.79497" lon="6.3881417"><ele>761.0</ele><time>2026-05-02T15:26:15.271Z</time></trkpt><trkpt lat="43.794995" lon="6.3882583"><ele>761.0</ele><time>2026-05-02T15:26:16.271Z</time></trkpt><trkpt lat="43.7950067" lon="6.3883683"><ele>761.0</ele><time>2026-05-02T15:26:17.271Z</time></trkpt><trkpt lat="43.795015" lon="6.3884767"><ele>761.0</ele><time>2026-05-02T15:26:18.271Z</time></trkpt><trkpt lat="43.795015" lon="6.3885767"><ele>761.0</ele><time>2026-05-02T15:26:19.271Z</time></trkpt><trkpt lat="43.7949917" lon="6.3886767"><ele>761.0</ele><time>2026-05-02T15:26:20.271Z</time></trkpt><trkpt lat="43.7949483" lon="6.3887667"><ele>761.0</ele><time>2026-05-02T15:26:21.271Z</time></trkpt><trkpt lat="43.7948733" lon="6.38885"><ele>761.0</ele><time>2026-05-02T15:26:22.271Z</time></trkpt><trkpt lat="43.7947833" lon="6.38891"><ele>763.5999999999999</ele><time>2026-05-02T15:26:23.271Z</time></trkpt><trkpt lat="43.7946833" lon="6.38896"><ele>766.2</ele><time>2026-05-02T15:26:24.272Z</time></trkpt><trkpt lat="43.79459" lon="6.389015"><ele>768.8</ele><time>2026-05-02T15:26:25.271Z</time></trkpt><trkpt lat="43.7944967" lon="6.3890967"><ele>771.4000000000001</ele><time>2026-05-02T15:26:26.271Z</time></trkpt><trkpt lat="43.7944067" lon="6.3892167"><ele>774.0</ele><time>2026-05-02T15:26:27.271Z</time></trkpt><trkpt lat="43.7943217" lon="6.3893283"><ele>774.75</ele><time>2026-05-02T15:26:28.271Z</time></trkpt><trkpt lat="43.7942417" lon="6.389445"><ele>775.5</ele><time>2026-05-02T15:26:29.271Z</time></trkpt><trkpt lat="43.7941667" lon="6.3895717"><ele>776.25</ele><time>2026-05-02T15:26:30.271Z</time></trkpt><trkpt lat="43.7940917" lon="6.389715"><ele>777.0</ele><time>2026-05-02T15:26:31.271Z</time></trkpt><trkpt lat="43.794025" lon="6.389855"><ele>777.0</ele><time>2026-05-02T15:26:32.271Z</time></trkpt><trkpt lat="43.7939583" lon="6.3900067"><ele>777.0</ele><time>2026-05-02T15:26:33.272Z</time></trkpt><trkpt lat="43.7938917" lon="6.3901683"><ele>777.0</ele><time>2026-05-02T15:26:34.272Z</time></trkpt><trkpt lat="43.7938267" lon="6.39031"><ele>777.0</ele><time>2026-05-02T15:26:35.272Z</time></trkpt><trkpt lat="43.7937633" lon="6.3904517"><ele>782.75</ele><time>2026-05-02T15:26:36.271Z</time></trkpt><trkpt lat="43.7937183" lon="6.3905933"><ele>788.5</ele><time>2026-05-02T15:26:37.271Z</time></trkpt><trkpt lat="43.7936783" lon="6.3907383"><ele>794.25</ele><time>2026-05-02T15:26:38.271Z</time></trkpt><trkpt lat="43.793645" lon="6.39089"><ele>800.0</ele><time>2026-05-02T15:26:39.272Z</time></trkpt><trkpt lat="43.7936183" lon="6.3910733"><ele>800.0</ele><time>2026-05-02T15:26:40.271Z</time></trkpt><trkpt lat="43.7935933" lon="6.3912883"><ele>800.0</ele><time>2026-05-02T15:26:41.272Z</time></trkpt><trkpt lat="43.793575" lon="6.3915133"><ele>800.0</ele><time>2026-05-02T15:26:42.271Z</time></trkpt><trkpt lat="43.7935583" lon="6.3917167"><ele>803.25</ele><time>2026-05-02T15:26:43.272Z</time></trkpt><trkpt lat="43.793545" lon="6.3918983"><ele>806.5</ele><time>2026-05-02T15:26:44.271Z</time></trkpt><trkpt lat="43.79352" lon="6.3920633"><ele>809.75</ele><time>2026-05-02T15:26:45.271Z</time></trkpt><trkpt lat="43.7934983" lon="6.39222"><ele>813.0</ele><time>2026-05-02T15:26:46.271Z</time></trkpt><trkpt lat="43.7934917" lon="6.392355"><ele>812.4</ele><time>2026-05-02T15:26:47.271Z</time></trkpt><trkpt lat="43.7935033" lon="6.3925033"><ele>811.8</ele><time>2026-05-02T15:26:48.271Z</time></trkpt><trkpt lat="43.79353" lon="6.392645"><ele>811.2</ele><time>2026-05-02T15:26:49.271Z</time></trkpt><trkpt lat="43.7935733" lon="6.392795"><ele>810.6</ele><time>2026-05-02T15:26:50.271Z</time></trkpt><trkpt lat="43.7936167" lon="6.3929233"><ele>810.0</ele><time>2026-05-02T15:26:51.271Z</time></trkpt><trkpt lat="43.7936483" lon="6.393055"><ele>808.8333333333334</ele><time>2026-05-02T15:26:52.271Z</time></trkpt><trkpt lat="43.7936583" lon="6.3931783"><ele>807.6666666666667</ele><time>2026-05-02T15:26:53.271Z</time></trkpt><trkpt lat="43.7936517" lon="6.3933117"><ele>806.5</ele><time>2026-05-02T15:26:54.271Z</time></trkpt><trkpt lat="43.79365" lon="6.3934433"><ele>805.3333333333334</ele><time>2026-05-02T15:26:55.271Z</time></trkpt><trkpt lat="43.7936617" lon="6.3935633"><ele>804.1666666666667</ele><time>2026-05-02T15:26:56.271Z</time></trkpt><trkpt lat="43.7936883" lon="6.3936683"><ele>803.0</ele><time>2026-05-02T15:26:57.271Z</time></trkpt><trkpt lat="43.793725" lon="6.3937667"><ele>801.6666666666667</ele><time>2026-05-02T15:26:58.272Z</time></trkpt><trkpt lat="43.79376" lon="6.3938467"><ele>800.3333333333334</ele><time>2026-05-02T15:26:59.271Z</time></trkpt><trkpt lat="43.7937967" lon="6.3939817"><ele>799.0</ele><time>2026-05-02T15:27:01.271Z</time></trkpt><trkpt lat="43.7938283" lon="6.3941167"><ele>797.6666666666667</ele><time>2026-05-02T15:27:03.271Z</time></trkpt><trkpt lat="43.7938433" lon="6.3942117"><ele>796.3333333333334</ele><time>2026-05-02T15:27:04.271Z</time></trkpt><trkpt lat="43.7938583" lon="6.3943117"><ele>795.0</ele><time>2026-05-02T15:27:05.271Z</time></trkpt><trkpt lat="43.7938733" lon="6.39442"><ele>795.0</ele><time>2026-05-02T15:27:06.272Z</time></trkpt><trkpt lat="43.7938917" lon="6.3945317"><ele>795.0</ele><time>2026-05-02T15:27:07.271Z</time></trkpt><trkpt lat="43.7939083" lon="6.3946633"><ele>795.0</ele><time>2026-05-02T15:27:08.271Z</time></trkpt><trkpt lat="43.793925" lon="6.3948183"><ele>795.0</ele><time>2026-05-02T15:27:09.271Z</time></trkpt><trkpt lat="43.79395" lon="6.3949667"><ele>795.0</ele><time>2026-05-02T15:27:10.271Z</time></trkpt><trkpt lat="43.7939783" lon="6.3951217"><ele>794.6</ele><time>2026-05-02T15:27:11.271Z</time></trkpt><trkpt lat="43.794015" lon="6.3952617"><ele>794.2</ele><time>2026-05-02T15:27:12.271Z</time></trkpt><trkpt lat="43.7940533" lon="6.3954033"><ele>793.8</ele><time>2026-05-02T15:27:13.272Z</time></trkpt><trkpt lat="43.794085" lon="6.39555"><ele>793.4</ele><time>2026-05-02T15:27:14.271Z</time></trkpt><trkpt lat="43.7941" lon="6.3957117"><ele>793.0</ele><time>2026-05-02T15:27:15.271Z</time></trkpt><trkpt lat="43.7941" lon="6.3958733"><ele>791.5999999999999</ele><time>2026-05-02T15:27:16.271Z</time></trkpt><trkpt lat="43.7940833" lon="6.396035"><ele>790.1999999999999</ele><time>2026-05-02T15:27:17.271Z</time></trkpt><trkpt lat="43.794065" lon="6.3961867"><ele>788.8</ele><time>2026-05-02T15:27:18.271Z</time></trkpt><trkpt lat="43.79406" lon="6.396325"><ele>787.4</ele><time>2026-05-02T15:27:19.271Z</time></trkpt><trkpt lat="43.7940717" lon="6.3964467"><ele>786.0</ele><time>2026-05-02T15:27:20.271Z</time></trkpt><trkpt lat="43.7940983" lon="6.3965517"><ele>785.1999999999999</ele><time>2026-05-02T15:27:21.271Z</time></trkpt><trkpt lat="43.7941467" lon="6.39667"><ele>784.4</ele><time>2026-05-02T15:27:22.271Z</time></trkpt><trkpt lat="43.79422" lon="6.3967667"><ele>783.6</ele><time>2026-05-02T15:27:23.271Z</time></trkpt><trkpt lat="43.7943067" lon="6.396855"><ele>782.8</ele><time>2026-05-02T15:27:24.271Z</time></trkpt><trkpt lat="43.7943933" lon="6.3969417"><ele>782.0</ele><time>2026-05-02T15:27:25.271Z</time></trkpt><trkpt lat="43.7944717" lon="6.3970183"><ele>785.6666666666667</ele><time>2026-05-02T15:27:26.271Z</time></trkpt><trkpt lat="43.79452" lon="6.397115"><ele>789.3333333333334</ele><time>2026-05-02T15:27:27.271Z</time></trkpt><trkpt lat="43.7945567" lon="6.3972283"><ele>793.0</ele><time>2026-05-02T15:27:28.272Z</time></trkpt><trkpt lat="43.7945533" lon="6.3973483"><ele>796.6666666666667</ele><time>2026-05-02T15:27:29.271Z</time></trkpt><trkpt lat="43.7945317" lon="6.3974667"><ele>800.3333333333334</ele><time>2026-05-02T15:27:30.272Z</time></trkpt><trkpt lat="43.7945083" lon="6.397575"><ele>804.0</ele><time>2026-05-02T15:27:31.271Z</time></trkpt><trkpt lat="43.79449" lon="6.397665"><ele>804.0</ele><time>2026-05-02T15:27:32.271Z</time></trkpt><trkpt lat="43.7944617" lon="6.397845"><ele>804.0</ele><time>2026-05-02T15:27:34.271Z</time></trkpt><trkpt lat="43.794445" lon="6.3979333"><ele>804.0</ele><time>2026-05-02T15:27:35.271Z</time></trkpt><trkpt lat="43.7944133" lon="6.3980233"><ele>804.0</ele><time>2026-05-02T15:27:36.272Z</time></trkpt><trkpt lat="43.7943783" lon="6.3980967"><ele>804.0</ele><time>2026-05-02T15:27:37.271Z</time></trkpt><trkpt lat="43.7943367" lon="6.3981633"><ele>804.0</ele><time>2026-05-02T15:27:38.271Z</time></trkpt><trkpt lat="43.7942867" lon="6.3982167"><ele>801.7142857142857</ele><time>2026-05-02T15:27:39.271Z</time></trkpt><trkpt lat="43.7942317" lon="6.39827"><ele>799.4285714285714</ele><time>2026-05-02T15:27:40.271Z</time></trkpt><trkpt lat="43.7941817" lon="6.3983317"><ele>797.1428571428571</ele><time>2026-05-02T15:27:41.271Z</time></trkpt><trkpt lat="43.7941483" lon="6.39841"><ele>794.8571428571429</ele><time>2026-05-02T15:27:42.271Z</time></trkpt><trkpt lat="43.7941217" lon="6.3985"><ele>792.5714285714287</ele><time>2026-05-02T15:27:43.271Z</time></trkpt><trkpt lat="43.7940917" lon="6.3986017"><ele>790.2857142857143</ele><time>2026-05-02T15:27:44.271Z</time></trkpt><trkpt lat="43.7940583" lon="6.3987167"><ele>788.0</ele><time>2026-05-02T15:27:45.271Z</time></trkpt><trkpt lat="43.7940333" lon="6.3988367"><ele>788.0000000000001</ele><time>2026-05-02T15:27:46.271Z</time></trkpt><trkpt lat="43.7940283" lon="6.398955"><ele>788.0</ele><time>2026-05-02T15:27:47.271Z</time></trkpt><trkpt lat="43.7940317" lon="6.3990733"><ele>788.0</ele><time>2026-05-02T15:27:48.271Z</time></trkpt><trkpt lat="43.7940583" lon="6.3991733"><ele>788.0</ele><time>2026-05-02T15:27:49.271Z</time></trkpt><trkpt lat="43.79411" lon="6.39925"><ele>788.0000000000001</ele><time>2026-05-02T15:27:50.271Z</time></trkpt><trkpt lat="43.7941717" lon="6.3993167"><ele>788.0</ele><time>2026-05-02T15:27:51.271Z</time></trkpt><trkpt lat="43.7942517" lon="6.3993667"><ele>788.8</ele><time>2026-05-02T15:27:52.271Z</time></trkpt><trkpt lat="43.79434" lon="6.3994383"><ele>789.5999999999999</ele><time>2026-05-02T15:27:53.271Z</time></trkpt><trkpt lat="43.794415" lon="6.3995467"><ele>790.4000000000001</ele><time>2026-05-02T15:27:54.272Z</time></trkpt><trkpt lat="43.794475" lon="6.3996617"><ele>791.2</ele><time>2026-05-02T15:27:55.272Z</time></trkpt><trkpt lat="43.7945233" lon="6.3998"><ele>792.0</ele><time>2026-05-02T15:27:56.271Z</time></trkpt><trkpt lat="43.7945717" lon="6.3999317"><ele>792.0</ele><time>2026-05-02T15:27:57.271Z</time></trkpt><trkpt lat="43.7946217" lon="6.4000567"><ele>792.0</ele><time>2026-05-02T15:27:58.271Z</time></trkpt><trkpt lat="43.7946767" lon="6.40016"><ele>792.0</ele><time>2026-05-02T15:27:59.271Z</time></trkpt><trkpt lat="43.7947467" lon="6.400245"><ele>792.0</ele><time>2026-05-02T15:28:00.271Z</time></trkpt><trkpt lat="43.7948233" lon="6.40032"><ele>792.0</ele><time>2026-05-02T15:28:01.272Z</time></trkpt><trkpt lat="43.7948917" lon="6.40041"><ele>790.2</ele><time>2026-05-02T15:28:02.271Z</time></trkpt><trkpt lat="43.7949417" lon="6.4005167"><ele>788.4000000000001</ele><time>2026-05-02T15:28:03.271Z</time></trkpt><trkpt lat="43.7949583" lon="6.40066"><ele>786.5999999999999</ele><time>2026-05-02T15:28:04.271Z</time></trkpt><trkpt lat="43.7949567" lon="6.4008083"><ele>784.8</ele><time>2026-05-02T15:28:05.271Z</time></trkpt><trkpt lat="43.794925" lon="6.4009417"><ele>783.0</ele><time>2026-05-02T15:28:06.271Z</time></trkpt><trkpt lat="43.79487" lon="6.401055"><ele>783.0</ele><time>2026-05-02T15:28:07.271Z</time></trkpt><trkpt lat="43.7948033" lon="6.40116"><ele>783.0</ele><time>2026-05-02T15:28:08.271Z</time></trkpt><trkpt lat="43.7947183" lon="6.4012533"><ele>783.0</ele><time>2026-05-02T15:28:09.271Z</time></trkpt><trkpt lat="43.7946333" lon="6.4013283"><ele>783.0</ele><time>2026-05-02T15:28:10.271Z</time></trkpt><trkpt lat="43.7945617" lon="6.4013967"><ele>783.0</ele><time>2026-05-02T15:28:11.271Z</time></trkpt><trkpt lat="43.7944817" lon="6.4014717"><ele>785.8</ele><time>2026-05-02T15:28:12.271Z</time></trkpt><trkpt lat="43.79441" lon="6.4015417"><ele>788.5999999999999</ele><time>2026-05-02T15:28:13.271Z</time></trkpt><trkpt lat="43.7943433" lon="6.4016233"><ele>791.4000000000001</ele><time>2026-05-02T15:28:14.271Z</time></trkpt><trkpt lat="43.7942717" lon="6.401715"><ele>794.2</ele><time>2026-05-02T15:28:15.271Z</time></trkpt><trkpt lat="43.7942083" lon="6.4018167"><ele>797.0</ele><time>2026-05-02T15:28:16.271Z</time></trkpt><trkpt lat="43.79417" lon="6.4019233"><ele>791.6</ele><time>2026-05-02T15:28:17.271Z</time></trkpt><trkpt lat="43.7941483" lon="6.4020433"><ele>786.2</ele><time>2026-05-02T15:28:18.271Z</time></trkpt><trkpt lat="43.7941433" lon="6.4021717"><ele>780.8</ele><time>2026-05-02T15:28:19.271Z</time></trkpt><trkpt lat="43.794145" lon="6.4023067"><ele>775.4</ele><time>2026-05-02T15:28:20.271Z</time></trkpt><trkpt lat="43.7941467" lon="6.4024533"><ele>770.0</ele><time>2026-05-02T15:28:21.271Z</time></trkpt><trkpt lat="43.7941417" lon="6.4026017"><ele>770.0</ele><time>2026-05-02T15:28:22.272Z</time></trkpt><trkpt lat="43.7941167" lon="6.40275"><ele>770.0</ele><time>2026-05-02T15:28:23.271Z</time></trkpt><trkpt lat="43.79408" lon="6.402875"><ele>770.0</ele><time>2026-05-02T15:28:24.272Z</time></trkpt><trkpt lat="43.79403" lon="6.4029867"><ele>770.0</ele><time>2026-05-02T15:28:25.271Z</time></trkpt><trkpt lat="43.7939633" lon="6.4030833"><ele>770.0</ele><time>2026-05-02T15:28:26.271Z</time></trkpt><trkpt lat="43.7938883" lon="6.403175"><ele>770.8</ele><time>2026-05-02T15:28:27.271Z</time></trkpt><trkpt lat="43.793815" lon="6.4032767"><ele>771.6</ele><time>2026-05-02T15:28:28.271Z</time></trkpt><trkpt lat="43.79374" lon="6.403385"><ele>772.4000000000001</ele><time>2026-05-02T15:28:29.271Z</time></trkpt><trkpt lat="43.7936733" lon="6.40349"><ele>773.2</ele><time>2026-05-02T15:28:30.271Z</time></trkpt><trkpt lat="43.793615" lon="6.4035933"><ele>774.0</ele><time>2026-05-02T15:28:31.271Z</time></trkpt><trkpt lat="43.793585" lon="6.4037117"><ele>774.0</ele><time>2026-05-02T15:28:32.271Z</time></trkpt><trkpt lat="43.793565" lon="6.4038267"><ele>774.0</ele><time>2026-05-02T15:28:33.271Z</time></trkpt><trkpt lat="43.7935683" lon="6.4039467"><ele>774.0</ele><time>2026-05-02T15:28:34.271Z</time></trkpt><trkpt lat="43.7935967" lon="6.40407"><ele>774.0</ele><time>2026-05-02T15:28:35.271Z</time></trkpt><trkpt lat="43.7936433" lon="6.4041967"><ele>774.0</ele><time>2026-05-02T15:28:36.272Z</time></trkpt><trkpt lat="43.7937117" lon="6.4043217"><ele>774.0</ele><time>2026-05-02T15:28:37.271Z</time></trkpt><trkpt lat="43.7937717" lon="6.40443"><ele>774.0</ele><time>2026-05-02T15:28:38.271Z</time></trkpt><trkpt lat="43.79383" lon="6.404535"><ele>774.0</ele><time>2026-05-02T15:28:39.271Z</time></trkpt><trkpt lat="43.7938633" lon="6.4046517"><ele>774.0</ele><time>2026-05-02T15:28:40.271Z</time></trkpt><trkpt lat="43.79389" lon="6.4047683"><ele>774.0</ele><time>2026-05-02T15:28:41.271Z</time></trkpt><trkpt lat="43.7938783" lon="6.4048917"><ele>774.0</ele><time>2026-05-02T15:28:42.271Z</time></trkpt><trkpt lat="43.7938583" lon="6.4050367"><ele>774.0</ele><time>2026-05-02T15:28:43.271Z</time></trkpt><trkpt lat="43.7938317" lon="6.4051967"><ele>774.0</ele><time>2026-05-02T15:28:44.271Z</time></trkpt><trkpt lat="43.7938133" lon="6.4053617"><ele>774.0</ele><time>2026-05-02T15:28:45.271Z</time></trkpt><trkpt lat="43.7938067" lon="6.40552"><ele>772.8000000000001</ele><time>2026-05-02T15:28:46.271Z</time></trkpt><trkpt lat="43.7937967" lon="6.4056733"><ele>771.6</ele><time>2026-05-02T15:28:47.271Z</time></trkpt><trkpt lat="43.79377" lon="6.4058283"><ele>770.4</ele><time>2026-05-02T15:28:48.271Z</time></trkpt><trkpt lat="43.79372" lon="6.405965"><ele>769.2</ele><time>2026-05-02T15:28:49.271Z</time></trkpt><trkpt lat="43.7936517" lon="6.406085"><ele>768.0</ele><time>2026-05-02T15:28:50.271Z</time></trkpt><trkpt lat="43.7935783" lon="6.40619"><ele>768.0</ele><time>2026-05-02T15:28:51.271Z</time></trkpt><trkpt lat="43.7935117" lon="6.4062933"><ele>768.0</ele><time>2026-05-02T15:28:52.271Z</time></trkpt><trkpt lat="43.79345" lon="6.406405"><ele>768.0</ele><time>2026-05-02T15:28:53.271Z</time></trkpt><trkpt lat="43.793385" lon="6.4065183"><ele>768.0</ele><time>2026-05-02T15:28:54.271Z</time></trkpt><trkpt lat="43.7933367" lon="6.4066267"><ele>768.0</ele><time>2026-05-02T15:28:55.272Z</time></trkpt><trkpt lat="43.7932933" lon="6.4067317"><ele>765.8333333333334</ele><time>2026-05-02T15:28:56.271Z</time></trkpt><trkpt lat="43.7932483" lon="6.4068317"><ele>763.6666666666666</ele><time>2026-05-02T15:28:57.271Z</time></trkpt><trkpt lat="43.7931983" lon="6.406955"><ele>761.5</ele><time>2026-05-02T15:28:58.271Z</time></trkpt><trkpt lat="43.79319" lon="6.4070433"><ele>759.3333333333333</ele><time>2026-05-02T15:28:59.271Z</time></trkpt><trkpt lat="43.7931733" lon="6.4071483"><ele>757.1666666666666</ele><time>2026-05-02T15:29:00.272Z</time></trkpt><trkpt lat="43.7931867" lon="6.407235"><ele>755.0</ele><time>2026-05-02T15:29:01.272Z</time></trkpt><trkpt lat="43.79322" lon="6.40731"><ele>753.6</ele><time>2026-05-02T15:29:02.271Z</time></trkpt><trkpt lat="43.7932717" lon="6.4073767"><ele>752.2</ele><time>2026-05-02T15:29:03.271Z</time></trkpt><trkpt lat="43.7933417" lon="6.407435"><ele>750.8</ele><time>2026-05-02T15:29:04.272Z</time></trkpt><trkpt lat="43.7934383" lon="6.4075117"><ele>749.4</ele><time>2026-05-02T15:29:05.271Z</time></trkpt><trkpt lat="43.793545" lon="6.407565"><ele>748.0</ele><time>2026-05-02T15:29:06.271Z</time></trkpt><trkpt lat="43.79365" lon="6.4076233"><ele>748.0</ele><time>2026-05-02T15:29:07.271Z</time></trkpt><trkpt lat="43.793745" lon="6.4076817"><ele>748.0</ele><time>2026-05-02T15:29:08.271Z</time></trkpt><trkpt lat="43.793825" lon="6.4077367"><ele>748.0</ele><time>2026-05-02T15:29:09.271Z</time></trkpt><trkpt lat="43.7938983" lon="6.407795"><ele>748.0</ele><time>2026-05-02T15:29:10.271Z</time></trkpt><trkpt lat="43.7939733" lon="6.40783"><ele>748.0</ele><time>2026-05-02T15:29:11.271Z</time></trkpt><trkpt lat="43.7940517" lon="6.4078383"><ele>748.0</ele><time>2026-05-02T15:29:12.271Z</time></trkpt><trkpt lat="43.7941333" lon="6.4078083"><ele>748.0</ele><time>2026-05-02T15:29:13.271Z</time></trkpt><trkpt lat="43.7942167" lon="6.4077367"><ele>748.0</ele><time>2026-05-02T15:29:14.271Z</time></trkpt><trkpt lat="43.7942983" lon="6.407625"><ele>748.0</ele><time>2026-05-02T15:29:15.271Z</time></trkpt><trkpt lat="43.7943767" lon="6.4075133"><ele>748.0</ele><time>2026-05-02T15:29:16.271Z</time></trkpt><trkpt lat="43.7944633" lon="6.4074283"><ele>748.0</ele><time>2026-05-02T15:29:17.271Z</time></trkpt><trkpt lat="43.7945567" lon="6.4073683"><ele>745.8</ele><time>2026-05-02T15:29:18.272Z</time></trkpt><trkpt lat="43.7946433" lon="6.407345"><ele>743.5999999999999</ele><time>2026-05-02T15:29:19.271Z</time></trkpt><trkpt lat="43.7947417" lon="6.4073567"><ele>741.4000000000001</ele><time>2026-05-02T15:29:20.271Z</time></trkpt><trkpt lat="43.794845" lon="6.407385"><ele>739.2</ele><time>2026-05-02T15:29:21.272Z</time></trkpt><trkpt lat="43.794935" lon="6.4074267"><ele>737.0</ele><time>2026-05-02T15:29:22.271Z</time></trkpt><trkpt lat="43.7950317" lon="6.4074683"><ele>737.0</ele><time>2026-05-02T15:29:23.271Z</time></trkpt><trkpt lat="43.7951433" lon="6.407505"><ele>737.0</ele><time>2026-05-02T15:29:24.271Z</time></trkpt><trkpt lat="43.7952667" lon="6.407545"><ele>737.0</ele><time>2026-05-02T15:29:25.271Z</time></trkpt><trkpt lat="43.7953883" lon="6.4075817"><ele>737.0</ele><time>2026-05-02T15:29:26.271Z</time></trkpt><trkpt lat="43.7955033" lon="6.4076283"><ele>738.4000000000001</ele><time>2026-05-02T15:29:27.271Z</time></trkpt><trkpt lat="43.7956217" lon="6.40768"><ele>739.8000000000001</ele><time>2026-05-02T15:29:28.27Z</time></trkpt><trkpt lat="43.7957267" lon="6.4077383"><ele>741.2</ele><time>2026-05-02T15:29:29.27Z</time></trkpt><trkpt lat="43.7958133" lon="6.4078"><ele>742.6</ele><time>2026-05-02T15:29:30.27Z</time></trkpt><trkpt lat="43.7958817" lon="6.4078567"><ele>744.0</ele><time>2026-05-02T15:29:31.27Z</time></trkpt><trkpt lat="43.7959783" lon="6.4079333"><ele>745.2</ele><time>2026-05-02T15:29:33.27Z</time></trkpt><trkpt lat="43.7960817" lon="6.4080217"><ele>746.4000000000001</ele><time>2026-05-02T15:29:35.27Z</time></trkpt><trkpt lat="43.796145" lon="6.40817"><ele>747.6</ele><time>2026-05-02T15:29:37.271Z</time></trkpt><trkpt lat="43.79614" lon="6.4082633"><ele>748.8</ele><time>2026-05-02T15:29:38.27Z</time></trkpt><trkpt lat="43.79611" lon="6.408375"><ele>750.0</ele><time>2026-05-02T15:29:39.27Z</time></trkpt><trkpt lat="43.79607" lon="6.40851"><ele>750.0</ele><time>2026-05-02T15:29:40.27Z</time></trkpt><trkpt lat="43.7960183" lon="6.4086683"><ele>750.0</ele><time>2026-05-02T15:29:41.27Z</time></trkpt><trkpt lat="43.7959733" lon="6.408835"><ele>750.0</ele><time>2026-05-02T15:29:42.27Z</time></trkpt><trkpt lat="43.7959533" lon="6.4089983"><ele>750.0</ele><time>2026-05-02T15:29:43.271Z</time></trkpt><trkpt lat="43.79593" lon="6.4091483"><ele>750.2</ele><time>2026-05-02T15:29:44.271Z</time></trkpt><trkpt lat="43.7959083" lon="6.4092783"><ele>750.4</ele><time>2026-05-02T15:29:45.27Z</time></trkpt><trkpt lat="43.79592" lon="6.40942"><ele>750.5999999999999</ele><time>2026-05-02T15:29:46.27Z</time></trkpt><trkpt lat="43.7959717" lon="6.409535"><ele>750.8</ele><time>2026-05-02T15:29:47.27Z</time></trkpt><trkpt lat="43.7960367" lon="6.4096217"><ele>751.0</ele><time>2026-05-02T15:29:48.27Z</time></trkpt><trkpt lat="43.796105" lon="6.4096667"><ele>752.8333333333334</ele><time>2026-05-02T15:29:49.271Z</time></trkpt><trkpt lat="43.796175" lon="6.4097283"><ele>754.6666666666667</ele><time>2026-05-02T15:29:50.271Z</time></trkpt><trkpt lat="43.7962283" lon="6.4098017"><ele>756.5</ele><time>2026-05-02T15:29:51.27Z</time></trkpt><trkpt lat="43.7962583" lon="6.4099067"><ele>758.3333333333334</ele><time>2026-05-02T15:29:52.27Z</time></trkpt><trkpt lat="43.7962567" lon="6.4100167"><ele>760.1666666666666</ele><time>2026-05-02T15:29:53.27Z</time></trkpt><trkpt lat="43.7962233" lon="6.4101367"><ele>762.0</ele><time>2026-05-02T15:29:54.27Z</time></trkpt><trkpt lat="43.7962083" lon="6.4102717"><ele>762.0</ele><time>2026-05-02T15:29:55.27Z</time></trkpt><trkpt lat="43.7962217" lon="6.410405"><ele>762.0</ele><time>2026-05-02T15:29:56.27Z</time></trkpt><trkpt lat="43.7962483" lon="6.410555"><ele>762.0</ele><time>2026-05-02T15:29:57.27Z</time></trkpt><trkpt lat="43.7962667" lon="6.410705"><ele>762.0</ele><time>2026-05-02T15:29:58.27Z</time></trkpt><trkpt lat="43.7962833" lon="6.4108533"><ele>762.0</ele><time>2026-05-02T15:29:59.27Z</time></trkpt><trkpt lat="43.796295" lon="6.4109817"><ele>762.0</ele><time>2026-05-02T15:30:00.271Z</time></trkpt><trkpt lat="43.7963267" lon="6.4111"><ele>762.0</ele><time>2026-05-02T15:30:01.27Z</time></trkpt><trkpt lat="43.7963883" lon="6.4111983"><ele>762.0</ele><time>2026-05-02T15:30:02.27Z</time></trkpt><trkpt lat="43.7964617" lon="6.41128"><ele>762.0</ele><time>2026-05-02T15:30:03.27Z</time></trkpt><trkpt lat="43.796525" lon="6.411385"><ele>762.0</ele><time>2026-05-02T15:30:04.27Z</time></trkpt><trkpt lat="43.7965817" lon="6.4115083"><ele>784.6</ele><time>2026-05-02T15:30:05.27Z</time></trkpt><trkpt lat="43.796625" lon="6.4116433"><ele>807.2</ele><time>2026-05-02T15:30:06.27Z</time></trkpt><trkpt lat="43.796665" lon="6.4117883"><ele>829.8</ele><time>2026-05-02T15:30:07.27Z</time></trkpt><trkpt lat="43.796715" lon="6.4119317"><ele>852.4</ele><time>2026-05-02T15:30:08.27Z</time></trkpt><trkpt lat="43.79678" lon="6.4120617"><ele>875.0</ele><time>2026-05-02T15:30:09.27Z</time></trkpt><trkpt lat="43.79686" lon="6.412175"><ele>875.0</ele><time>2026-05-02T15:30:10.27Z</time></trkpt><trkpt lat="43.7969417" lon="6.4122733"><ele>875.0</ele><time>2026-05-02T15:30:11.27Z</time></trkpt><trkpt lat="43.79702" lon="6.4123617"><ele>875.0</ele><time>2026-05-02T15:30:12.27Z</time></trkpt><trkpt lat="43.7970967" lon="6.4124467"><ele>875.0</ele><time>2026-05-02T15:30:13.27Z</time></trkpt><trkpt lat="43.7971467" lon="6.4125383"><ele>875.0</ele><time>2026-05-02T15:30:14.27Z</time></trkpt><trkpt lat="43.7971633" lon="6.4126367"><ele>875.0000000000001</ele><time>2026-05-02T15:30:15.27Z</time></trkpt><trkpt lat="43.7971583" lon="6.412735"><ele>875.0</ele><time>2026-05-02T15:30:16.27Z</time></trkpt><trkpt lat="43.7971267" lon="6.4128183"><ele>875.0</ele><time>2026-05-02T15:30:17.271Z</time></trkpt><trkpt lat="43.7970933" lon="6.4129133"><ele>875.0</ele><time>2026-05-02T15:30:18.27Z</time></trkpt><trkpt lat="43.7970383" lon="6.4130217"><ele>875.0000000000001</ele><time>2026-05-02T15:30:19.27Z</time></trkpt><trkpt lat="43.79696" lon="6.4131233"><ele>875.0</ele><time>2026-05-02T15:30:20.271Z</time></trkpt><trkpt lat="43.7968933" lon="6.41322"><ele>872.8333333333334</ele><time>2026-05-02T15:30:21.27Z</time></trkpt><trkpt lat="43.79684" lon="6.4133183"><ele>870.6666666666667</ele><time>2026-05-02T15:30:22.27Z</time></trkpt><trkpt lat="43.7968017" lon="6.41341"><ele>868.5</ele><time>2026-05-02T15:30:23.27Z</time></trkpt><trkpt lat="43.796795" lon="6.4135233"><ele>866.3333333333333</ele><time>2026-05-02T15:30:24.27Z</time></trkpt><trkpt lat="43.7967933" lon="6.413655"><ele>864.1666666666666</ele><time>2026-05-02T15:30:25.27Z</time></trkpt><trkpt lat="43.7967867" lon="6.41379"><ele>862.0</ele><time>2026-05-02T15:30:26.27Z</time></trkpt><trkpt lat="43.796765" lon="6.4139267"><ele>862.0</ele><time>2026-05-02T15:30:27.27Z</time></trkpt><trkpt lat="43.7967183" lon="6.41406"><ele>862.0</ele><time>2026-05-02T15:30:28.27Z</time></trkpt><trkpt lat="43.7966567" lon="6.4141983"><ele>862.0</ele><time>2026-05-02T15:30:29.27Z</time></trkpt><trkpt lat="43.796605" lon="6.4143333"><ele>862.0</ele><time>2026-05-02T15:30:30.27Z</time></trkpt><trkpt lat="43.7965417" lon="6.4144583"><ele>862.0</ele><time>2026-05-02T15:30:31.27Z</time></trkpt><trkpt lat="43.7964567" lon="6.4145617"><ele>862.0</ele><time>2026-05-02T15:30:32.27Z</time></trkpt><trkpt lat="43.7963783" lon="6.4146483"><ele>862.0</ele><time>2026-05-02T15:30:33.27Z</time></trkpt><trkpt lat="43.796305" lon="6.414725"><ele>862.0</ele><time>2026-05-02T15:30:34.27Z</time></trkpt><trkpt lat="43.79623" lon="6.4147933"><ele>862.0</ele><time>2026-05-02T15:30:35.271Z</time></trkpt><trkpt lat="43.7961833" lon="6.414885"><ele>862.0</ele><time>2026-05-02T15:30:36.27Z</time></trkpt><trkpt lat="43.796165" lon="6.4150033"><ele>862.1666666666666</ele><time>2026-05-02T15:30:37.271Z</time></trkpt><trkpt lat="43.7961667" lon="6.4151267"><ele>862.3333333333333</ele><time>2026-05-02T15:30:38.27Z</time></trkpt><trkpt lat="43.7961483" lon="6.4152483"><ele>862.5</ele><time>2026-05-02T15:30:39.271Z</time></trkpt><trkpt lat="43.796115" lon="6.415365"><ele>862.6666666666667</ele><time>2026-05-02T15:30:40.27Z</time></trkpt><trkpt lat="43.7960767" lon="6.4154533"><ele>862.8333333333334</ele><time>2026-05-02T15:30:41.27Z</time></trkpt><trkpt lat="43.7960267" lon="6.41556"><ele>863.0</ele><time>2026-05-02T15:30:42.27Z</time></trkpt><trkpt lat="43.795985" lon="6.415685"><ele>863.0</ele><time>2026-05-02T15:30:43.27Z</time></trkpt><trkpt lat="43.795935" lon="6.41582"><ele>863.0</ele><time>2026-05-02T15:30:44.27Z</time></trkpt><trkpt lat="43.7958667" lon="6.4159533"><ele>863.0</ele><time>2026-05-02T15:30:45.27Z</time></trkpt><trkpt lat="43.7957917" lon="6.4160783"><ele>863.0</ele><time>2026-05-02T15:30:46.27Z</time></trkpt><trkpt lat="43.7957083" lon="6.4161917"><ele>871.25</ele><time>2026-05-02T15:30:47.27Z</time></trkpt><trkpt lat="43.795635" lon="6.4163233"><ele>879.5</ele><time>2026-05-02T15:30:48.271Z</time></trkpt><trkpt lat="43.7955633" lon="6.4164583"><ele>887.75</ele><time>2026-05-02T15:30:49.271Z</time></trkpt><trkpt lat="43.7954883" lon="6.4165933"><ele>896.0</ele><time>2026-05-02T15:30:50.27Z</time></trkpt><trkpt lat="43.795405" lon="6.4167167"><ele>896.0</ele><time>2026-05-02T15:30:51.27Z</time></trkpt><trkpt lat="43.7953133" lon="6.4168283"><ele>896.0</ele><time>2026-05-02T15:30:52.271Z</time></trkpt><trkpt lat="43.79522" lon="6.4169367"><ele>896.0</ele><time>2026-05-02T15:30:53.27Z</time></trkpt><trkpt lat="43.795125" lon="6.4170517"><ele>896.0</ele><time>2026-05-02T15:30:54.27Z</time></trkpt><trkpt lat="43.795035" lon="6.4171667"><ele>887.0</ele><time>2026-05-02T15:30:55.271Z</time></trkpt><trkpt lat="43.7949517" lon="6.41727"><ele>878.0</ele><time>2026-05-02T15:30:56.27Z</time></trkpt><trkpt lat="43.79487" lon="6.4173967"><ele>869.0</ele><time>2026-05-02T15:30:57.27Z</time></trkpt><trkpt lat="43.794795" lon="6.4175217"><ele>860.0</ele><time>2026-05-02T15:30:58.27Z</time></trkpt><trkpt lat="43.7947233" lon="6.4176517"><ele>860.0</ele><time>2026-05-02T15:30:59.27Z</time></trkpt><trkpt lat="43.79465" lon="6.4177833"><ele>860.0</ele><time>2026-05-02T15:31:00.27Z</time></trkpt><trkpt lat="43.7945717" lon="6.4179083"><ele>860.0</ele><time>2026-05-02T15:31:01.27Z</time></trkpt><trkpt lat="43.79449" lon="6.4180417"><ele>860.0</ele><time>2026-05-02T15:31:02.27Z</time></trkpt><trkpt lat="43.7944083" lon="6.4181417"><ele>859.25</ele><time>2026-05-02T15:31:03.27Z</time></trkpt><trkpt lat="43.7943067" lon="6.4182333"><ele>858.5</ele><time>2026-05-02T15:31:04.27Z</time></trkpt><trkpt lat="43.7942167" lon="6.4183383"><ele>857.75</ele><time>2026-05-02T15:31:05.27Z</time></trkpt><trkpt lat="43.7941417" lon="6.4184567"><ele>857.0</ele><time>2026-05-02T15:31:06.27Z</time></trkpt><trkpt lat="43.79408" lon="6.4185867"><ele>857.0</ele><time>2026-05-02T15:31:07.27Z</time></trkpt><trkpt lat="43.794035" lon="6.4187283"><ele>857.0</ele><time>2026-05-02T15:31:08.27Z</time></trkpt><trkpt lat="43.7940017" lon="6.41886"><ele>857.0</ele><time>2026-05-02T15:31:09.27Z</time></trkpt><trkpt lat="43.7939667" lon="6.4189933"><ele>857.0</ele><time>2026-05-02T15:31:10.271Z</time></trkpt><trkpt lat="43.7939283" lon="6.4191283"><ele>857.0</ele><time>2026-05-02T15:31:11.271Z</time></trkpt><trkpt lat="43.7938817" lon="6.4192533"><ele>857.0</ele><time>2026-05-02T15:31:12.27Z</time></trkpt><trkpt lat="43.79383" lon="6.4193783"><ele>857.0</ele><time>2026-05-02T15:31:13.27Z</time></trkpt><trkpt lat="43.7937717" lon="6.419505"><ele>857.0</ele><time>2026-05-02T15:31:14.27Z</time></trkpt><trkpt lat="43.793725" lon="6.4196383"><ele>857.0</ele><time>2026-05-02T15:31:15.27Z</time></trkpt><trkpt lat="43.7936867" lon="6.4197733"><ele>857.0</ele><time>2026-05-02T15:31:16.27Z</time></trkpt><trkpt lat="43.7936433" lon="6.4199"><ele>856.6</ele><time>2026-05-02T15:31:17.27Z</time></trkpt><trkpt lat="43.7935967" lon="6.420035"><ele>856.2</ele><time>2026-05-02T15:31:18.27Z</time></trkpt><trkpt lat="43.7935333" lon="6.4201633"><ele>855.8</ele><time>2026-05-02T15:31:19.27Z</time></trkpt><trkpt lat="43.793455" lon="6.4202667"><ele>855.4</ele><time>2026-05-02T15:31:20.27Z</time></trkpt><trkpt lat="43.7933733" lon="6.4203617"><ele>855.0</ele><time>2026-05-02T15:31:21.27Z</time></trkpt><trkpt lat="43.7932983" lon="6.4204683"><ele>857.2</ele><time>2026-05-02T15:31:22.271Z</time></trkpt><trkpt lat="43.7932317" lon="6.4205817"><ele>859.4</ele><time>2026-05-02T15:31:23.27Z</time></trkpt><trkpt lat="43.7931617" lon="6.420695"><ele>861.5999999999999</ele><time>2026-05-02T15:31:24.27Z</time></trkpt><trkpt lat="43.7930933" lon="6.4208067"><ele>863.8</ele><time>2026-05-02T15:31:25.271Z</time></trkpt><trkpt lat="43.7930333" lon="6.42092"><ele>866.0</ele><time>2026-05-02T15:31:26.271Z</time></trkpt><trkpt lat="43.792985" lon="6.4210317"><ele>866.0</ele><time>2026-05-02T15:31:27.27Z</time></trkpt><trkpt lat="43.792945" lon="6.42115"><ele>865.9999999999999</ele><time>2026-05-02T15:31:28.27Z</time></trkpt><trkpt lat="43.792895" lon="6.4212717"><ele>865.9999999999999</ele><time>2026-05-02T15:31:29.27Z</time></trkpt><trkpt lat="43.7928333" lon="6.42139"><ele>866.0</ele><time>2026-05-02T15:31:30.27Z</time></trkpt><trkpt lat="43.792765" lon="6.4214967"><ele>866.0</ele><time>2026-05-02T15:31:31.271Z</time></trkpt><trkpt lat="43.792685" lon="6.42159"><ele>865.0</ele><time>2026-05-02T15:31:32.27Z</time></trkpt><trkpt lat="43.7926017" lon="6.4216817"><ele>863.9999999999999</ele><time>2026-05-02T15:31:33.27Z</time></trkpt><trkpt lat="43.7925217" lon="6.4217733"><ele>862.9999999999999</ele><time>2026-05-02T15:31:34.27Z</time></trkpt><trkpt lat="43.7924317" lon="6.4218633"><ele>862.0</ele><time>2026-05-02T15:31:35.27Z</time></trkpt><trkpt lat="43.7923317" lon="6.42192"><ele>861.0</ele><time>2026-05-02T15:31:36.271Z</time></trkpt><trkpt lat="43.7922383" lon="6.42197"><ele>861.0</ele><time>2026-05-02T15:31:37.27Z</time></trkpt><trkpt lat="43.7921517" lon="6.42203"><ele>860.9999999999999</ele><time>2026-05-02T15:31:38.27Z</time></trkpt><trkpt lat="43.7920767" lon="6.4221167"><ele>860.9999999999999</ele><time>2026-05-02T15:31:39.27Z</time></trkpt><trkpt lat="43.79201" lon="6.4222233"><ele>861.0</ele><time>2026-05-02T15:31:40.27Z</time></trkpt><trkpt lat="43.7919483" lon="6.4223283"><ele>861.0</ele><time>2026-05-02T15:31:41.27Z</time></trkpt><trkpt lat="43.7918867" lon="6.4224383"><ele>861.0</ele><time>2026-05-02T15:31:42.27Z</time></trkpt><trkpt lat="43.7918217" lon="6.422545"><ele>860.9999999999999</ele><time>2026-05-02T15:31:43.27Z</time></trkpt><trkpt lat="43.7917483" lon="6.4226533"><ele>860.9999999999999</ele><time>2026-05-02T15:31:44.27Z</time></trkpt><trkpt lat="43.79167" lon="6.4227633"><ele>861.0</ele><time>2026-05-02T15:31:45.27Z</time></trkpt><trkpt lat="43.7915883" lon="6.4228783"><ele>861.0</ele><time>2026-05-02T15:31:46.271Z</time></trkpt><trkpt lat="43.7915083" lon="6.4230017"><ele>861.0</ele><time>2026-05-02T15:31:47.27Z</time></trkpt><trkpt lat="43.7914383" lon="6.4231333"><ele>860.9999999999999</ele><time>2026-05-02T15:31:48.27Z</time></trkpt><trkpt lat="43.79137" lon="6.4232617"><ele>860.9999999999999</ele><time>2026-05-02T15:31:49.27Z</time></trkpt><trkpt lat="43.791305" lon="6.423385"><ele>861.0</ele><time>2026-05-02T15:31:50.27Z</time></trkpt><trkpt lat="43.7912433" lon="6.4235033"><ele>861.0</ele><time>2026-05-02T15:31:51.27Z</time></trkpt><trkpt lat="43.7911867" lon="6.4236183"><ele>861.0</ele><time>2026-05-02T15:31:52.271Z</time></trkpt><trkpt lat="43.7911233" lon="6.4237333"><ele>860.9999999999999</ele><time>2026-05-02T15:31:53.27Z</time></trkpt><trkpt lat="43.7910617" lon="6.4238433"><ele>860.9999999999999</ele><time>2026-05-02T15:31:54.27Z</time></trkpt><trkpt lat="43.7909933" lon="6.42395"><ele>861.0</ele><time>2026-05-02T15:31:55.27Z</time></trkpt><trkpt lat="43.79093" lon="6.42405"><ele>861.0</ele><time>2026-05-02T15:31:56.27Z</time></trkpt><trkpt lat="43.7908783" lon="6.424145"><ele>840.3333333333334</ele><time>2026-05-02T15:31:57.27Z</time></trkpt><trkpt lat="43.7908267" lon="6.4242367"><ele>819.6666666666666</ele><time>2026-05-02T15:31:58.27Z</time></trkpt><trkpt lat="43.7907867" lon="6.42434"><ele>799.0</ele><time>2026-05-02T15:31:59.27Z</time></trkpt><trkpt lat="43.79076" lon="6.4244467"><ele>778.3333333333333</ele><time>2026-05-02T15:32:00.27Z</time></trkpt><trkpt lat="43.79074" lon="6.4245567"><ele>757.6666666666666</ele><time>2026-05-02T15:32:01.27Z</time></trkpt><trkpt lat="43.7907383" lon="6.4246867"><ele>737.0</ele><time>2026-05-02T15:32:02.27Z</time></trkpt><trkpt lat="43.7907583" lon="6.4248367"><ele>737.0</ele><time>2026-05-02T15:32:03.27Z</time></trkpt><trkpt lat="43.790795" lon="6.4249817"><ele>737.0</ele><time>2026-05-02T15:32:04.27Z</time></trkpt><trkpt lat="43.7908367" lon="6.42514"><ele>737.0</ele><time>2026-05-02T15:32:05.27Z</time></trkpt><trkpt lat="43.7908917" lon="6.4252933"><ele>737.0</ele><time>2026-05-02T15:32:06.27Z</time></trkpt><trkpt lat="43.790955" lon="6.4254333"><ele>730.0</ele><time>2026-05-02T15:32:07.27Z</time></trkpt><trkpt lat="43.7910417" lon="6.4255833"><ele>723.0</ele><time>2026-05-02T15:32:08.27Z</time></trkpt><trkpt lat="43.79111" lon="6.42572"><ele>716.0</ele><time>2026-05-02T15:32:09.27Z</time></trkpt><trkpt lat="43.791165" lon="6.425855"><ele>709.0</ele><time>2026-05-02T15:32:10.27Z</time></trkpt><trkpt lat="43.7912067" lon="6.4259933"><ele>709.0</ele><time>2026-05-02T15:32:11.27Z</time></trkpt><trkpt lat="43.7912583" lon="6.4261367"><ele>709.0</ele><time>2026-05-02T15:32:12.27Z</time></trkpt><trkpt lat="43.7913017" lon="6.4262833"><ele>709.0</ele><time>2026-05-02T15:32:13.27Z</time></trkpt><trkpt lat="43.7913317" lon="6.4264417"><ele>709.0</ele><time>2026-05-02T15:32:14.27Z</time></trkpt><trkpt lat="43.7913467" lon="6.42661"><ele>710.25</ele><time>2026-05-02T15:32:15.27Z</time></trkpt><trkpt lat="43.7913567" lon="6.4267833"><ele>711.5</ele><time>2026-05-02T15:32:16.27Z</time></trkpt><trkpt lat="43.7913717" lon="6.4269633"><ele>712.75</ele><time>2026-05-02T15:32:17.27Z</time></trkpt><trkpt lat="43.7913967" lon="6.4271367"><ele>714.0</ele><time>2026-05-02T15:32:18.27Z</time></trkpt><trkpt lat="43.79143" lon="6.4273117"><ele>709.75</ele><time>2026-05-02T15:32:19.27Z</time></trkpt><trkpt lat="43.7914833" lon="6.4274733"><ele>705.5</ele><time>2026-05-02T15:32:20.27Z</time></trkpt><trkpt lat="43.791525" lon="6.42764"><ele>701.25</ele><time>2026-05-02T15:32:21.27Z</time></trkpt><trkpt lat="43.79156" lon="6.4277933"><ele>697.0</ele><time>2026-05-02T15:32:22.27Z</time></trkpt><trkpt lat="43.7916017" lon="6.4279333"><ele>695.0</ele><time>2026-05-02T15:32:23.27Z</time></trkpt><trkpt lat="43.79164" lon="6.42806"><ele>693.0</ele><time>2026-05-02T15:32:24.27Z</time></trkpt><trkpt lat="43.7916767" lon="6.4281817"><ele>691.0</ele><time>2026-05-02T15:32:25.27Z</time></trkpt><trkpt lat="43.7916883" lon="6.4282917"><ele>689.0</ele><time>2026-05-02T15:32:26.271Z</time></trkpt><trkpt lat="43.7916583" lon="6.4284033"><ele>687.0</ele><time>2026-05-02T15:32:27.27Z</time></trkpt><trkpt lat="43.7916133" lon="6.428515"><ele>687.0</ele><time>2026-05-02T15:32:28.27Z</time></trkpt><trkpt lat="43.7915717" lon="6.4286533"><ele>687.0</ele><time>2026-05-02T15:32:29.27Z</time></trkpt><trkpt lat="43.7915833" lon="6.42877"><ele>687.0</ele><time>2026-05-02T15:32:30.27Z</time></trkpt><trkpt lat="43.79162" lon="6.4289"><ele>687.0</ele><time>2026-05-02T15:32:31.27Z</time></trkpt><trkpt lat="43.791655" lon="6.4290367"><ele>687.0</ele><time>2026-05-02T15:32:32.27Z</time></trkpt><trkpt lat="43.7917067" lon="6.429165"><ele>689.6</ele><time>2026-05-02T15:32:33.27Z</time></trkpt><trkpt lat="43.7917617" lon="6.42928"><ele>692.2</ele><time>2026-05-02T15:32:34.27Z</time></trkpt><trkpt lat="43.791835" lon="6.4293883"><ele>694.8</ele><time>2026-05-02T15:32:35.27Z</time></trkpt><trkpt lat="43.79193" lon="6.4294733"><ele>697.4</ele><time>2026-05-02T15:32:36.27Z</time></trkpt><trkpt lat="43.7920017" lon="6.4295767"><ele>700.0</ele><time>2026-05-02T15:32:37.271Z</time></trkpt><trkpt lat="43.792065" lon="6.4296933"><ele>692.6</ele><time>2026-05-02T15:32:38.271Z</time></trkpt><trkpt lat="43.7921283" lon="6.4298183"><ele>685.2</ele><time>2026-05-02T15:32:39.27Z</time></trkpt><trkpt lat="43.7921983" lon="6.4299333"><ele>677.8</ele><time>2026-05-02T15:32:40.27Z</time></trkpt><trkpt lat="43.7922567" lon="6.4300617"><ele>670.4</ele><time>2026-05-02T15:32:41.27Z</time></trkpt><trkpt lat="43.7923083" lon="6.4302033"><ele>663.0</ele><time>2026-05-02T15:32:42.27Z</time></trkpt><trkpt lat="43.792355" lon="6.4303533"><ele>660.0</ele><time>2026-05-02T15:32:43.27Z</time></trkpt><trkpt lat="43.7924033" lon="6.4305"><ele>657.0</ele><time>2026-05-02T15:32:44.27Z</time></trkpt><trkpt lat="43.7924533" lon="6.4306383"><ele>654.0</ele><time>2026-05-02T15:32:45.27Z</time></trkpt><trkpt lat="43.7925083" lon="6.43076"><ele>651.0</ele><time>2026-05-02T15:32:46.27Z</time></trkpt><trkpt lat="43.7925633" lon="6.4308833"><ele>648.0</ele><time>2026-05-02T15:32:47.27Z</time></trkpt><trkpt lat="43.7926017" lon="6.43101"><ele>648.0</ele><time>2026-05-02T15:32:48.27Z</time></trkpt><trkpt lat="43.7926167" lon="6.4311417"><ele>648.0</ele><time>2026-05-02T15:32:49.27Z</time></trkpt><trkpt lat="43.7926067" lon="6.4312817"><ele>648.0</ele><time>2026-05-02T15:32:50.27Z</time></trkpt><trkpt lat="43.7925683" lon="6.4314183"><ele>648.0</ele><time>2026-05-02T15:32:51.27Z</time></trkpt><trkpt lat="43.7925083" lon="6.4315483"><ele>648.0</ele><time>2026-05-02T15:32:52.27Z</time></trkpt><trkpt lat="43.7924333" lon="6.4316667"><ele>647.5999999999999</ele><time>2026-05-02T15:32:53.27Z</time></trkpt><trkpt lat="43.7923533" lon="6.4317683"><ele>647.1999999999999</ele><time>2026-05-02T15:32:54.27Z</time></trkpt><trkpt lat="43.79228" lon="6.4318667"><ele>646.8</ele><time>2026-05-02T15:32:55.27Z</time></trkpt><trkpt lat="43.7922167" lon="6.4319733"><ele>646.4</ele><time>2026-05-02T15:32:56.27Z</time></trkpt><trkpt lat="43.79217" lon="6.4321033"><ele>646.0</ele><time>2026-05-02T15:32:57.27Z</time></trkpt><trkpt lat="43.7921367" lon="6.4322383"><ele>645.4</ele><time>2026-05-02T15:32:58.27Z</time></trkpt><trkpt lat="43.7921217" lon="6.4323567"><ele>644.8</ele><time>2026-05-02T15:32:59.27Z</time></trkpt><trkpt lat="43.792145" lon="6.43248"><ele>644.1999999999999</ele><time>2026-05-02T15:33:00.27Z</time></trkpt><trkpt lat="43.7921917" lon="6.4325733"><ele>643.5999999999999</ele><time>2026-05-02T15:33:01.27Z</time></trkpt><trkpt lat="43.7922767" lon="6.4326583"><ele>643.0</ele><time>2026-05-02T15:33:02.27Z</time></trkpt><trkpt lat="43.7923683" lon="6.4327333"><ele>643.0</ele><time>2026-05-02T15:33:03.27Z</time></trkpt><trkpt lat="43.7924433" lon="6.43282"><ele>643.0</ele><time>2026-05-02T15:33:04.27Z</time></trkpt><trkpt lat="43.7924933" lon="6.4329217"><ele>643.0</ele><time>2026-05-02T15:33:05.27Z</time></trkpt><trkpt lat="43.7925283" lon="6.4330317"><ele>643.0</ele><time>2026-05-02T15:33:06.27Z</time></trkpt><trkpt lat="43.7925617" lon="6.4331433"><ele>643.0</ele><time>2026-05-02T15:33:07.27Z</time></trkpt><trkpt lat="43.7926233" lon="6.4332367"><ele>644.2</ele><time>2026-05-02T15:33:08.27Z</time></trkpt><trkpt lat="43.7927167" lon="6.433315"><ele>645.4</ele><time>2026-05-02T15:33:09.27Z</time></trkpt><trkpt lat="43.7928167" lon="6.43339"><ele>646.6</ele><time>2026-05-02T15:33:10.27Z</time></trkpt><trkpt lat="43.7929017" lon="6.4334633"><ele>647.8000000000001</ele><time>2026-05-02T15:33:11.27Z</time></trkpt><trkpt lat="43.7929733" lon="6.433535"><ele>649.0</ele><time>2026-05-02T15:33:12.271Z</time></trkpt><trkpt lat="43.793055" lon="6.4336"><ele>649.0</ele><time>2026-05-02T15:33:13.271Z</time></trkpt><trkpt lat="43.793135" lon="6.4336383"><ele>649.0</ele><time>2026-05-02T15:33:14.27Z</time></trkpt><trkpt lat="43.7932217" lon="6.4336567"><ele>649.0</ele><time>2026-05-02T15:33:15.27Z</time></trkpt><trkpt lat="43.7933183" lon="6.4336333"><ele>649.0</ele><time>2026-05-02T15:33:16.27Z</time></trkpt><trkpt lat="43.7934167" lon="6.433605"><ele>649.0</ele><time>2026-05-02T15:33:17.271Z</time></trkpt><trkpt lat="43.7935183" lon="6.4335817"><ele>649.1666666666667</ele><time>2026-05-02T15:33:18.27Z</time></trkpt><trkpt lat="43.7936117" lon="6.4335733"><ele>649.3333333333334</ele><time>2026-05-02T15:33:19.27Z</time></trkpt><trkpt lat="43.7937017" lon="6.433585"><ele>649.5</ele><time>2026-05-02T15:33:20.271Z</time></trkpt><trkpt lat="43.7937767" lon="6.43364"><ele>649.6666666666666</ele><time>2026-05-02T15:33:21.271Z</time></trkpt><trkpt lat="43.7938433" lon="6.4337117"><ele>649.8333333333333</ele><time>2026-05-02T15:33:22.27Z</time></trkpt><trkpt lat="43.7938917" lon="6.433825"><ele>650.0</ele><time>2026-05-02T15:33:23.27Z</time></trkpt><trkpt lat="43.793925" lon="6.4339717"><ele>649.0</ele><time>2026-05-02T15:33:24.27Z</time></trkpt><trkpt lat="43.7939583" lon="6.434135"><ele>648.0</ele><time>2026-05-02T15:33:25.271Z</time></trkpt><trkpt lat="43.7939983" lon="6.4342933"><ele>647.0</ele><time>2026-05-02T15:33:26.27Z</time></trkpt><trkpt lat="43.794055" lon="6.4344417"><ele>646.0</ele><time>2026-05-02T15:33:27.271Z</time></trkpt><trkpt lat="43.7941117" lon="6.4345867"><ele>645.8</ele><time>2026-05-02T15:33:28.271Z</time></trkpt><trkpt lat="43.7941817" lon="6.43471"><ele>645.5999999999999</ele><time>2026-05-02T15:33:29.27Z</time></trkpt><trkpt lat="43.794245" lon="6.4348333"><ele>645.4</ele><time>2026-05-02T15:33:30.27Z</time></trkpt><trkpt lat="43.7943067" lon="6.4349433"><ele>645.2</ele><time>2026-05-02T15:33:31.27Z</time></trkpt><trkpt lat="43.7943833" lon="6.435045"><ele>645.0</ele><time>2026-05-02T15:33:32.27Z</time></trkpt><trkpt lat="43.7944583" lon="6.435155"><ele>646.25</ele><time>2026-05-02T15:33:33.27Z</time></trkpt><trkpt lat="43.7945367" lon="6.43526"><ele>647.5</ele><time>2026-05-02T15:33:34.27Z</time></trkpt><trkpt lat="43.794625" lon="6.4353733"><ele>648.75</ele><time>2026-05-02T15:33:35.27Z</time></trkpt><trkpt lat="43.7947183" lon="6.4354683"><ele>650.0</ele><time>2026-05-02T15:33:36.27Z</time></trkpt><trkpt lat="43.7948117" lon="6.4355567"><ele>650.0</ele><time>2026-05-02T15:33:37.27Z</time></trkpt><trkpt lat="43.7949167" lon="6.4356467"><ele>650.0</ele><time>2026-05-02T15:33:38.27Z</time></trkpt><trkpt lat="43.79503" lon="6.4357467"><ele>650.0</ele><time>2026-05-02T15:33:39.27Z</time></trkpt><trkpt lat="43.795135" lon="6.4358567"><ele>650.0</ele><time>2026-05-02T15:33:40.27Z</time></trkpt><trkpt lat="43.7952383" lon="6.4359617"><ele>651.0</ele><time>2026-05-02T15:33:41.27Z</time></trkpt><trkpt lat="43.7953333" lon="6.4360567"><ele>652.0</ele><time>2026-05-02T15:33:42.27Z</time></trkpt><trkpt lat="43.79543" lon="6.4361483"><ele>653.0</ele><time>2026-05-02T15:33:43.271Z</time></trkpt><trkpt lat="43.7955217" lon="6.4362417"><ele>654.0</ele><time>2026-05-02T15:33:44.27Z</time></trkpt><trkpt lat="43.7956133" lon="6.4363367"><ele>654.0</ele><time>2026-05-02T15:33:45.27Z</time></trkpt><trkpt lat="43.7956967" lon="6.4364417"><ele>654.0</ele><time>2026-05-02T15:33:46.27Z</time></trkpt><trkpt lat="43.7957717" lon="6.43657"><ele>654.0</ele><time>2026-05-02T15:33:47.27Z</time></trkpt><trkpt lat="43.7958367" lon="6.43673"><ele>654.0</ele><time>2026-05-02T15:33:48.271Z</time></trkpt><trkpt lat="43.79589" lon="6.4369133"><ele>654.0</ele><time>2026-05-02T15:33:49.27Z</time></trkpt><trkpt lat="43.7959417" lon="6.4370967"><ele>654.0</ele><time>2026-05-02T15:33:50.27Z</time></trkpt><trkpt lat="43.7959817" lon="6.437285"><ele>654.0</ele><time>2026-05-02T15:33:51.27Z</time></trkpt><trkpt lat="43.7960367" lon="6.4374783"><ele>654.0</ele><time>2026-05-02T15:33:52.27Z</time></trkpt><trkpt lat="43.7960917" lon="6.437655"><ele>654.25</ele><time>2026-05-02T15:33:53.27Z</time></trkpt><trkpt lat="43.7961533" lon="6.4378267"><ele>654.5</ele><time>2026-05-02T15:33:54.27Z</time></trkpt><trkpt lat="43.7962267" lon="6.4379667"><ele>654.75</ele><time>2026-05-02T15:33:55.27Z</time></trkpt><trkpt lat="43.7963267" lon="6.4380917"><ele>655.0</ele><time>2026-05-02T15:33:56.27Z</time></trkpt><trkpt lat="43.7964367" lon="6.4381817"><ele>655.0</ele><time>2026-05-02T15:33:57.27Z</time></trkpt><trkpt lat="43.796545" lon="6.43828"><ele>655.0</ele><time>2026-05-02T15:33:58.27Z</time></trkpt><trkpt lat="43.7966467" lon="6.4383717"><ele>655.0</ele><time>2026-05-02T15:33:59.27Z</time></trkpt><trkpt lat="43.7967567" lon="6.4384567"><ele>655.0</ele><time>2026-05-02T15:34:00.27Z</time></trkpt><trkpt lat="43.796885" lon="6.4384967"><ele>656.3333333333334</ele><time>2026-05-02T15:34:01.27Z</time></trkpt><trkpt lat="43.7970333" lon="6.4384783"><ele>657.6666666666666</ele><time>2026-05-02T15:34:02.271Z</time></trkpt><trkpt lat="43.7971983" lon="6.438445"><ele>659.0</ele><time>2026-05-02T15:34:03.271Z</time></trkpt><trkpt lat="43.79736" lon="6.4384067"><ele>659.0</ele><time>2026-05-02T15:34:04.27Z</time></trkpt><trkpt lat="43.797525" lon="6.4383783"><ele>659.0</ele><time>2026-05-02T15:34:05.27Z</time></trkpt><trkpt lat="43.7976867" lon="6.4383433"><ele>659.0</ele><time>2026-05-02T15:34:06.27Z</time></trkpt><trkpt lat="43.7978433" lon="6.438305"><ele>656.3333333333333</ele><time>2026-05-02T15:34:07.27Z</time></trkpt><trkpt lat="43.798005" lon="6.4382683"><ele>653.6666666666666</ele><time>2026-05-02T15:34:08.27Z</time></trkpt><trkpt lat="43.7981633" lon="6.4382333"><ele>651.0</ele><time>2026-05-02T15:34:09.27Z</time></trkpt><trkpt lat="43.7983267" lon="6.43819"><ele>651.0</ele><time>2026-05-02T15:34:10.271Z</time></trkpt><trkpt lat="43.7984833" lon="6.4381483"><ele>651.0</ele><time>2026-05-02T15:34:11.27Z</time></trkpt><trkpt lat="43.7986217" lon="6.4381067"><ele>651.0</ele><time>2026-05-02T15:34:12.27Z</time></trkpt><trkpt lat="43.79875" lon="6.4380683"><ele>651.0</ele><time>2026-05-02T15:34:13.27Z</time></trkpt><trkpt lat="43.798875" lon="6.4380167"><ele>655.0</ele><time>2026-05-02T15:34:14.27Z</time></trkpt><trkpt lat="43.7989933" lon="6.4379617"><ele>659.0</ele><time>2026-05-02T15:34:15.27Z</time></trkpt><trkpt lat="43.7991067" lon="6.4379017"><ele>663.0</ele><time>2026-05-02T15:34:16.271Z</time></trkpt><trkpt lat="43.7992267" lon="6.437855"><ele>667.0</ele><time>2026-05-02T15:34:17.27Z</time></trkpt><trkpt lat="43.79935" lon="6.4378533"><ele>667.0</ele><time>2026-05-02T15:34:18.27Z</time></trkpt><trkpt lat="43.7994683" lon="6.43788"><ele>667.0</ele><time>2026-05-02T15:34:19.27Z</time></trkpt><trkpt lat="43.7995883" lon="6.4379333"><ele>667.0</ele><time>2026-05-02T15:34:20.27Z</time></trkpt><trkpt lat="43.7996917" lon="6.4380283"><ele>667.0</ele><time>2026-05-02T15:34:21.27Z</time></trkpt><trkpt lat="43.7997783" lon="6.4381433"><ele>663.75</ele><time>2026-05-02T15:34:22.27Z</time></trkpt><trkpt lat="43.7998567" lon="6.4382567"><ele>660.5</ele><time>2026-05-02T15:34:23.27Z</time></trkpt><trkpt lat="43.7999533" lon="6.4383417"><ele>657.25</ele><time>2026-05-02T15:34:24.27Z</time></trkpt><trkpt lat="43.8000583" lon="6.4384217"><ele>654.0</ele><time>2026-05-02T15:34:25.271Z</time></trkpt><trkpt lat="43.8001717" lon="6.438455"><ele>654.0</ele><time>2026-05-02T15:34:26.27Z</time></trkpt><trkpt lat="43.80028" lon="6.438445"><ele>654.0</ele><time>2026-05-02T15:34:27.27Z</time></trkpt><trkpt lat="43.8003917" lon="6.438395"><ele>654.0</ele><time>2026-05-02T15:34:28.27Z</time></trkpt><trkpt lat="43.8005067" lon="6.4383283"><ele>654.0</ele><time>2026-05-02T15:34:29.27Z</time></trkpt><trkpt lat="43.800635" lon="6.4382433"><ele>654.0</ele><time>2026-05-02T15:34:30.27Z</time></trkpt><trkpt lat="43.8007683" lon="6.438155"><ele>654.0</ele><time>2026-05-02T15:34:31.27Z</time></trkpt><trkpt lat="43.80091" lon="6.43807"><ele>654.0</ele><time>2026-05-02T15:34:32.27Z</time></trkpt><trkpt lat="43.8010583" lon="6.4379867"><ele>660.6666666666666</ele><time>2026-05-02T15:34:33.27Z</time></trkpt><trkpt lat="43.8012017" lon="6.4379267"><ele>667.3333333333333</ele><time>2026-05-02T15:34:34.27Z</time></trkpt><trkpt lat="43.8013533" lon="6.437885"><ele>674.0</ele><time>2026-05-02T15:34:35.27Z</time></trkpt><trkpt lat="43.8014983" lon="6.4378583"><ele>674.0</ele><time>2026-05-02T15:34:36.27Z</time></trkpt><trkpt lat="43.80165" lon="6.437865"><ele>674.0</ele><time>2026-05-02T15:34:37.27Z</time></trkpt><trkpt lat="43.801805" lon="6.43786"><ele>674.0</ele><time>2026-05-02T15:34:38.27Z</time></trkpt><trkpt lat="43.8019517" lon="6.4378567"><ele>674.25</ele><time>2026-05-02T15:34:39.271Z</time></trkpt><trkpt lat="43.8021017" lon="6.4378367"><ele>674.5</ele><time>2026-05-02T15:34:40.27Z</time></trkpt><trkpt lat="43.802245" lon="6.437805"><ele>674.75</ele><time>2026-05-02T15:34:41.271Z</time></trkpt><trkpt lat="43.802385" lon="6.4377567"><ele>675.0</ele><time>2026-05-02T15:34:42.271Z</time></trkpt><trkpt lat="43.8025217" lon="6.43772"><ele>675.0</ele><time>2026-05-02T15:34:43.27Z</time></trkpt><trkpt lat="43.80265" lon="6.43771"><ele>675.0</ele><time>2026-05-02T15:34:44.27Z</time></trkpt><trkpt lat="43.8027783" lon="6.437715"><ele>675.0</ele><time>2026-05-02T15:34:45.27Z</time></trkpt><trkpt lat="43.8029117" lon="6.43774"><ele>675.0</ele><time>2026-05-02T15:34:46.27Z</time></trkpt><trkpt lat="43.80304" lon="6.43777"><ele>674.75</ele><time>2026-05-02T15:34:47.27Z</time></trkpt><trkpt lat="43.803175" lon="6.4378033"><ele>674.5</ele><time>2026-05-02T15:34:48.27Z</time></trkpt><trkpt lat="43.803295" lon="6.4378633"><ele>674.25</ele><time>2026-05-02T15:34:49.271Z</time></trkpt><trkpt lat="43.80341" lon="6.4379383"><ele>674.0</ele><time>2026-05-02T15:34:50.271Z</time></trkpt><trkpt lat="43.8035333" lon="6.4380117"><ele>674.0</ele><time>2026-05-02T15:34:51.27Z</time></trkpt><trkpt lat="43.8036367" lon="6.4380967"><ele>674.0</ele><time>2026-05-02T15:34:52.271Z</time></trkpt><trkpt lat="43.8037467" lon="6.43818"><ele>674.0</ele><time>2026-05-02T15:34:53.27Z</time></trkpt><trkpt lat="43.8038467" lon="6.438255"><ele>674.0</ele><time>2026-05-02T15:34:54.27Z</time></trkpt><trkpt lat="43.8039467" lon="6.4383383"><ele>674.0</ele><time>2026-05-02T15:34:55.27Z</time></trkpt><trkpt lat="43.8040483" lon="6.4384083"><ele>674.0</ele><time>2026-05-02T15:34:56.27Z</time></trkpt><trkpt lat="43.804135" lon="6.43849"><ele>674.0</ele><time>2026-05-02T15:34:57.27Z</time></trkpt><trkpt lat="43.8042067" lon="6.438605"><ele>674.0</ele><time>2026-05-02T15:34:58.27Z</time></trkpt><trkpt lat="43.8042567" lon="6.4387383"><ele>674.0</ele><time>2026-05-02T15:34:59.27Z</time></trkpt><trkpt lat="43.80428" lon="6.438895"><ele>669.75</ele><time>2026-05-02T15:35:00.27Z</time></trkpt><trkpt lat="43.8042867" lon="6.43907"><ele>665.5</ele><time>2026-05-02T15:35:01.27Z</time></trkpt><trkpt lat="43.8042917" lon="6.4392717"><ele>661.25</ele><time>2026-05-02T15:35:02.27Z</time></trkpt><trkpt lat="43.804315" lon="6.4394817"><ele>657.0</ele><time>2026-05-02T15:35:03.271Z</time></trkpt><trkpt lat="43.8043233" lon="6.4397"><ele>656.0</ele><time>2026-05-02T15:35:04.271Z</time></trkpt><trkpt lat="43.8043133" lon="6.439905"><ele>655.0</ele><time>2026-05-02T15:35:05.271Z</time></trkpt><trkpt lat="43.8042983" lon="6.4401017"><ele>654.0</ele><time>2026-05-02T15:35:06.27Z</time></trkpt><trkpt lat="43.8042867" lon="6.440285"><ele>653.0</ele><time>2026-05-02T15:35:07.27Z</time></trkpt><trkpt lat="43.8042783" lon="6.4404733"><ele>652.4</ele><time>2026-05-02T15:35:08.27Z</time></trkpt><trkpt lat="43.804295" lon="6.440645"><ele>651.8</ele><time>2026-05-02T15:35:09.27Z</time></trkpt><trkpt lat="43.804325" lon="6.4407983"><ele>651.2</ele><time>2026-05-02T15:35:10.27Z</time></trkpt><trkpt lat="43.8043817" lon="6.4409167"><ele>650.6</ele><time>2026-05-02T15:35:11.27Z</time></trkpt><trkpt lat="43.8044583" lon="6.4409983"><ele>650.0</ele><time>2026-05-02T15:35:12.27Z</time></trkpt><trkpt lat="43.8045417" lon="6.4410417"><ele>649.8</ele><time>2026-05-02T15:35:13.27Z</time></trkpt><trkpt lat="43.804635" lon="6.44104"><ele>649.6</ele><time>2026-05-02T15:35:14.27Z</time></trkpt><trkpt lat="43.80473" lon="6.4410067"><ele>649.4000000000001</ele><time>2026-05-02T15:35:15.27Z</time></trkpt><trkpt lat="43.8048217" lon="6.440955"><ele>649.2</ele><time>2026-05-02T15:35:16.27Z</time></trkpt><trkpt lat="43.8049133" lon="6.4408883"><ele>649.0</ele><time>2026-05-02T15:35:17.27Z</time></trkpt><trkpt lat="43.8049967" lon="6.4408083"><ele>649.0</ele><time>2026-05-02T15:35:18.27Z</time></trkpt><trkpt lat="43.8050717" lon="6.4407133"><ele>649.0</ele><time>2026-05-02T15:35:19.27Z</time></trkpt><trkpt lat="43.8051383" lon="6.440605"><ele>649.0</ele><time>2026-05-02T15:35:20.27Z</time></trkpt><trkpt lat="43.8051983" lon="6.440475"><ele>649.0</ele><time>2026-05-02T15:35:21.27Z</time></trkpt><trkpt lat="43.8052617" lon="6.440335"><ele>649.0</ele><time>2026-05-02T15:35:22.27Z</time></trkpt><trkpt lat="43.8053217" lon="6.4402133"><ele>650.0</ele><time>2026-05-02T15:35:23.27Z</time></trkpt><trkpt lat="43.80539" lon="6.4401367"><ele>651.0</ele><time>2026-05-02T15:35:24.27Z</time></trkpt><trkpt lat="43.8054633" lon="6.4400833"><ele>652.0</ele><time>2026-05-02T15:35:25.27Z</time></trkpt><trkpt lat="43.8055783" lon="6.440045"><ele>653.0</ele><time>2026-05-02T15:35:27.271Z</time></trkpt><trkpt lat="43.805645" lon="6.4400367"><ele>654.0</ele><time>2026-05-02T15:35:28.271Z</time></trkpt><trkpt lat="43.8057117" lon="6.4400083"><ele>655.0</ele><time>2026-05-02T15:35:29.27Z</time></trkpt><trkpt lat="43.80577" lon="6.4399583"><ele>655.0</ele><time>2026-05-02T15:35:30.27Z</time></trkpt><trkpt lat="43.8058183" lon="6.4398883"><ele>655.0</ele><time>2026-05-02T15:35:31.27Z</time></trkpt><trkpt lat="43.8058617" lon="6.4397967"><ele>655.0</ele><time>2026-05-02T15:35:32.271Z</time></trkpt><trkpt lat="43.8058967" lon="6.4396783"><ele>655.0</ele><time>2026-05-02T15:35:33.27Z</time></trkpt><trkpt lat="43.8059417" lon="6.43954"><ele>655.0</ele><time>2026-05-02T15:35:34.27Z</time></trkpt><trkpt lat="43.805995" lon="6.4393933"><ele>654.0</ele><time>2026-05-02T15:35:35.27Z</time></trkpt><trkpt lat="43.8060383" lon="6.439225"><ele>653.0</ele><time>2026-05-02T15:35:36.27Z</time></trkpt><trkpt lat="43.8060867" lon="6.4390683"><ele>652.0</ele><time>2026-05-02T15:35:37.27Z</time></trkpt><trkpt lat="43.8061233" lon="6.438935"><ele>651.0</ele><time>2026-05-02T15:35:38.27Z</time></trkpt><trkpt lat="43.8061617" lon="6.438805"><ele>653.25</ele><time>2026-05-02T15:35:39.27Z</time></trkpt><trkpt lat="43.8062083" lon="6.4386683"><ele>655.5</ele><time>2026-05-02T15:35:40.27Z</time></trkpt><trkpt lat="43.8062817" lon="6.4385683"><ele>657.75</ele><time>2026-05-02T15:35:41.27Z</time></trkpt><trkpt lat="43.8063767" lon="6.4384617"><ele>660.0</ele><time>2026-05-02T15:35:42.27Z</time></trkpt><trkpt lat="43.80648" lon="6.4383667"><ele>660.0</ele><time>2026-05-02T15:35:43.27Z</time></trkpt><trkpt lat="43.8065933" lon="6.4382833"><ele>660.0</ele><time>2026-05-02T15:35:44.27Z</time></trkpt><trkpt lat="43.8067133" lon="6.438205"><ele>660.0</ele><time>2026-05-02T15:35:45.271Z</time></trkpt><trkpt lat="43.8068367" lon="6.4381183"><ele>660.0</ele><time>2026-05-02T15:35:46.27Z</time></trkpt><trkpt lat="43.806965" lon="6.4380283"><ele>666.0</ele><time>2026-05-02T15:35:47.27Z</time></trkpt><trkpt lat="43.8071" lon="6.43795"><ele>672.0</ele><time>2026-05-02T15:35:48.27Z</time></trkpt><trkpt lat="43.80726" lon="6.4378933"><ele>678.0</ele><time>2026-05-02T15:35:49.27Z</time></trkpt><trkpt lat="43.8074167" lon="6.437855"><ele>678.0</ele><time>2026-05-02T15:35:50.27Z</time></trkpt><trkpt lat="43.8075833" lon="6.43786"><ele>678.0</ele><time>2026-05-02T15:35:51.27Z</time></trkpt><trkpt lat="43.8077517" lon="6.4378833"><ele>678.0</ele><time>2026-05-02T15:35:52.27Z</time></trkpt><trkpt lat="43.8079233" lon="6.4379317"><ele>670.0</ele><time>2026-05-02T15:35:53.27Z</time></trkpt><trkpt lat="43.8080883" lon="6.4379717"><ele>662.0</ele><time>2026-05-02T15:35:54.271Z</time></trkpt><trkpt lat="43.8082467" lon="6.4380167"><ele>654.0</ele><time>2026-05-02T15:35:55.27Z</time></trkpt><trkpt lat="43.808395" lon="6.4380517"><ele>655.0</ele><time>2026-05-02T15:35:56.27Z</time></trkpt><trkpt lat="43.8085333" lon="6.4380867"><ele>656.0</ele><time>2026-05-02T15:35:57.27Z</time></trkpt><trkpt lat="43.8086633" lon="6.4381217"><ele>657.0</ele><time>2026-05-02T15:35:58.271Z</time></trkpt><trkpt lat="43.8087783" lon="6.4381317"><ele>658.0</ele><time>2026-05-02T15:35:59.27Z</time></trkpt><trkpt lat="43.8088983" lon="6.438115"><ele>658.0</ele><time>2026-05-02T15:36:00.27Z</time></trkpt><trkpt lat="43.8090133" lon="6.4380683"><ele>658.0</ele><time>2026-05-02T15:36:01.27Z</time></trkpt><trkpt lat="43.8091283" lon="6.4379817"><ele>658.0</ele><time>2026-05-02T15:36:02.27Z</time></trkpt><trkpt lat="43.8092383" lon="6.4378933"><ele>658.0</ele><time>2026-05-02T15:36:03.27Z</time></trkpt><trkpt lat="43.8093533" lon="6.4378067"><ele>661.75</ele><time>2026-05-02T15:36:04.27Z</time></trkpt><trkpt lat="43.8094733" lon="6.43775"><ele>665.5</ele><time>2026-05-02T15:36:05.27Z</time></trkpt><trkpt lat="43.8095883" lon="6.4376817"><ele>669.25</ele><time>2026-05-02T15:36:06.27Z</time></trkpt><trkpt lat="43.8097017" lon="6.4376117"><ele>673.0</ele><time>2026-05-02T15:36:07.27Z</time></trkpt><trkpt lat="43.809815" lon="6.4375267"><ele>673.0</ele><time>2026-05-02T15:36:08.27Z</time></trkpt><trkpt lat="43.809925" lon="6.437445"><ele>673.0</ele><time>2026-05-02T15:36:09.271Z</time></trkpt><trkpt lat="43.8100317" lon="6.4373717"><ele>673.0</ele><time>2026-05-02T15:36:10.27Z</time></trkpt><trkpt lat="43.8101267" lon="6.437295"><ele>673.0</ele><time>2026-05-02T15:36:11.27Z</time></trkpt><trkpt lat="43.8102033" lon="6.43721"><ele>672.8</ele><time>2026-05-02T15:36:12.27Z</time></trkpt><trkpt lat="43.8102883" lon="6.437115"><ele>672.5999999999999</ele><time>2026-05-02T15:36:13.27Z</time></trkpt><trkpt lat="43.8103833" lon="6.4370317"><ele>672.4000000000001</ele><time>2026-05-02T15:36:14.271Z</time></trkpt><trkpt lat="43.81049" lon="6.4369683"><ele>672.2</ele><time>2026-05-02T15:36:15.27Z</time></trkpt><trkpt lat="43.8105817" lon="6.4369267"><ele>672.0</ele><time>2026-05-02T15:36:16.27Z</time></trkpt><trkpt lat="43.8106917" lon="6.4368767"><ele>672.0</ele><time>2026-05-02T15:36:17.27Z</time></trkpt><trkpt lat="43.8108233" lon="6.4367833"><ele>672.0</ele><time>2026-05-02T15:36:18.27Z</time></trkpt><trkpt lat="43.8109483" lon="6.436715"><ele>672.0</ele><time>2026-05-02T15:36:19.27Z</time></trkpt><trkpt lat="43.811065" lon="6.4366533"><ele>672.0</ele><time>2026-05-02T15:36:20.27Z</time></trkpt><trkpt lat="43.81118" lon="6.4365883"><ele>668.5</ele><time>2026-05-02T15:36:21.27Z</time></trkpt><trkpt lat="43.8112917" lon="6.43653"><ele>665.0</ele><time>2026-05-02T15:36:22.27Z</time></trkpt><trkpt lat="43.8114017" lon="6.436445"><ele>661.5</ele><time>2026-05-02T15:36:23.27Z</time></trkpt><trkpt lat="43.8115217" lon="6.4364067"><ele>658.0</ele><time>2026-05-02T15:36:24.27Z</time></trkpt><trkpt lat="43.81165" lon="6.436405"><ele>658.0</ele><time>2026-05-02T15:36:25.27Z</time></trkpt><trkpt lat="43.8117867" lon="6.4364333"><ele>658.0</ele><time>2026-05-02T15:36:26.271Z</time></trkpt><trkpt lat="43.811935" lon="6.4364833"><ele>658.0</ele><time>2026-05-02T15:36:27.27Z</time></trkpt><trkpt lat="43.812075" lon="6.436545"><ele>658.0</ele><time>2026-05-02T15:36:28.27Z</time></trkpt><trkpt lat="43.81221" lon="6.43662"><ele>660.5</ele><time>2026-05-02T15:36:29.27Z</time></trkpt><trkpt lat="43.8123217" lon="6.4366883"><ele>663.0</ele><time>2026-05-02T15:36:30.27Z</time></trkpt><trkpt lat="43.8124583" lon="6.4367733"><ele>665.5</ele><time>2026-05-02T15:36:31.27Z</time></trkpt><trkpt lat="43.8125883" lon="6.43688"><ele>668.0</ele><time>2026-05-02T15:36:32.271Z</time></trkpt><trkpt lat="43.81271" lon="6.4369817"><ele>663.25</ele><time>2026-05-02T15:36:33.27Z</time></trkpt><trkpt lat="43.8128317" lon="6.4370867"><ele>658.5</ele><time>2026-05-02T15:36:34.27Z</time></trkpt><trkpt lat="43.81294" lon="6.43719"><ele>653.75</ele><time>2026-05-02T15:36:35.27Z</time></trkpt><trkpt lat="43.8130517" lon="6.43731"><ele>649.0</ele><time>2026-05-02T15:36:36.27Z</time></trkpt><trkpt lat="43.813175" lon="6.43744"><ele>649.0</ele><time>2026-05-02T15:36:37.27Z</time></trkpt><trkpt lat="43.81329" lon="6.4375633"><ele>649.0</ele><time>2026-05-02T15:36:38.27Z</time></trkpt><trkpt lat="43.8134117" lon="6.4376967"><ele>649.0</ele><time>2026-05-02T15:36:39.27Z</time></trkpt><trkpt lat="43.8135333" lon="6.4378333"><ele>657.75</ele><time>2026-05-02T15:36:40.27Z</time></trkpt><trkpt lat="43.8136433" lon="6.43796"><ele>666.5</ele><time>2026-05-02T15:36:41.27Z</time></trkpt><trkpt lat="43.813755" lon="6.438085"><ele>675.25</ele><time>2026-05-02T15:36:42.27Z</time></trkpt><trkpt lat="43.8138667" lon="6.4381667"><ele>684.0</ele><time>2026-05-02T15:36:43.27Z</time></trkpt><trkpt lat="43.813975" lon="6.4382217"><ele>679.6</ele><time>2026-05-02T15:36:44.27Z</time></trkpt><trkpt lat="43.814085" lon="6.4382633"><ele>675.2</ele><time>2026-05-02T15:36:45.27Z</time></trkpt><trkpt lat="43.8141867" lon="6.4382983"><ele>670.8000000000001</ele><time>2026-05-02T15:36:46.27Z</time></trkpt><trkpt lat="43.8142783" lon="6.4383167"><ele>666.4000000000001</ele><time>2026-05-02T15:36:47.27Z</time></trkpt><trkpt lat="43.8143683" lon="6.4383283"><ele>662.0</ele><time>2026-05-02T15:36:48.271Z</time></trkpt><trkpt lat="43.8144733" lon="6.43833"><ele>662.0</ele><time>2026-05-02T15:36:49.27Z</time></trkpt><trkpt lat="43.8145833" lon="6.4383217"><ele>662.0</ele><time>2026-05-02T15:36:50.271Z</time></trkpt><trkpt lat="43.8146933" lon="6.4383183"><ele>662.0</ele><time>2026-05-02T15:36:51.27Z</time></trkpt><trkpt lat="43.814815" lon="6.4383183"><ele>662.0</ele><time>2026-05-02T15:36:52.27Z</time></trkpt><trkpt lat="43.8149583" lon="6.4382967"><ele>662.0</ele><time>2026-05-02T15:36:53.27Z</time></trkpt><trkpt lat="43.815085" lon="6.43828"><ele>662.0</ele><time>2026-05-02T15:36:54.27Z</time></trkpt><trkpt lat="43.8151983" lon="6.4382683"><ele>662.0</ele><time>2026-05-02T15:36:55.27Z</time></trkpt><trkpt lat="43.815285" lon="6.4382683"><ele>662.0</ele><time>2026-05-02T15:36:56.27Z</time></trkpt><trkpt lat="43.8153717" lon="6.4382683"><ele>662.0</ele><time>2026-05-02T15:36:57.27Z</time></trkpt><trkpt lat="43.81546" lon="6.438245"><ele>664.8</ele><time>2026-05-02T15:36:58.27Z</time></trkpt><trkpt lat="43.815545" lon="6.4381567"><ele>667.6</ele><time>2026-05-02T15:36:59.27Z</time></trkpt><trkpt lat="43.8156283" lon="6.4380683"><ele>670.4</ele><time>2026-05-02T15:37:00.271Z</time></trkpt><trkpt lat="43.8157117" lon="6.437975"><ele>673.1999999999999</ele><time>2026-05-02T15:37:01.27Z</time></trkpt><trkpt lat="43.8157617" lon="6.437835"><ele>676.0</ele><time>2026-05-02T15:37:02.27Z</time></trkpt><trkpt lat="43.8158033" lon="6.4376883"><ele>676.0</ele><time>2026-05-02T15:37:03.271Z</time></trkpt><trkpt lat="43.8158333" lon="6.4375417"><ele>676.0</ele><time>2026-05-02T15:37:04.27Z</time></trkpt><trkpt lat="43.8158833" lon="6.4374617"><ele>676.0</ele><time>2026-05-02T15:37:05.27Z</time></trkpt><trkpt lat="43.8159333" lon="6.4373783"><ele>676.0</ele><time>2026-05-02T15:37:06.271Z</time></trkpt><trkpt lat="43.8159883" lon="6.43726"><ele>676.0</ele><time>2026-05-02T15:37:07.27Z</time></trkpt><trkpt lat="43.8160533" lon="6.4371417"><ele>677.5999999999999</ele><time>2026-05-02T15:37:08.27Z</time></trkpt><trkpt lat="43.81614" lon="6.4370483"><ele>679.2</ele><time>2026-05-02T15:37:09.271Z</time></trkpt><trkpt lat="43.816235" lon="6.4369717"><ele>680.8</ele><time>2026-05-02T15:37:10.271Z</time></trkpt><trkpt lat="43.816325" lon="6.4368933"><ele>682.4000000000001</ele><time>2026-05-02T15:37:11.27Z</time></trkpt><trkpt lat="43.816405" lon="6.4368167"><ele>684.0</ele><time>2026-05-02T15:37:12.27Z</time></trkpt><trkpt lat="43.8164917" lon="6.4367517"><ele>684.0</ele><time>2026-05-02T15:37:13.27Z</time></trkpt><trkpt lat="43.8165833" lon="6.436695"><ele>684.0</ele><time>2026-05-02T15:37:14.27Z</time></trkpt><trkpt lat="43.8166817" lon="6.4366467"><ele>684.0</ele><time>2026-05-02T15:37:15.27Z</time></trkpt><trkpt lat="43.8167733" lon="6.436585"><ele>684.0</ele><time>2026-05-02T15:37:16.27Z</time></trkpt><trkpt lat="43.8168767" lon="6.43657"><ele>684.0</ele><time>2026-05-02T15:37:17.271Z</time></trkpt><trkpt lat="43.816995" lon="6.4365633"><ele>681.5</ele><time>2026-05-02T15:37:18.27Z</time></trkpt><trkpt lat="43.8171267" lon="6.43657"><ele>679.0</ele><time>2026-05-02T15:37:19.27Z</time></trkpt><trkpt lat="43.81726" lon="6.4365633"><ele>676.5</ele><time>2026-05-02T15:37:20.27Z</time></trkpt><trkpt lat="43.817425" lon="6.4365533"><ele>674.0</ele><time>2026-05-02T15:37:21.27Z</time></trkpt><trkpt lat="43.817575" lon="6.43658"><ele>672.5</ele><time>2026-05-02T15:37:22.27Z</time></trkpt><trkpt lat="43.81771" lon="6.4365617"><ele>671.0</ele><time>2026-05-02T15:37:23.271Z</time></trkpt><trkpt lat="43.81784" lon="6.436535"><ele>669.5</ele><time>2026-05-02T15:37:24.27Z</time></trkpt><trkpt lat="43.8179633" lon="6.4364917"><ele>668.0</ele><time>2026-05-02T15:37:25.27Z</time></trkpt><trkpt lat="43.8180833" lon="6.4364367"><ele>668.0</ele><time>2026-05-02T15:37:26.27Z</time></trkpt><trkpt lat="43.8181983" lon="6.43637"><ele>668.0</ele><time>2026-05-02T15:37:27.27Z</time></trkpt><trkpt lat="43.8183183" lon="6.4362817"><ele>668.0</ele><time>2026-05-02T15:37:28.27Z</time></trkpt><trkpt lat="43.8184283" lon="6.43619"><ele>668.0</ele><time>2026-05-02T15:37:29.27Z</time></trkpt><trkpt lat="43.8185317" lon="6.4360983"><ele>667.25</ele><time>2026-05-02T15:37:30.27Z</time></trkpt><trkpt lat="43.8186267" lon="6.4360017"><ele>666.5</ele><time>2026-05-02T15:37:31.27Z</time></trkpt><trkpt lat="43.8187183" lon="6.4358733"><ele>665.75</ele><time>2026-05-02T15:37:32.27Z</time></trkpt><trkpt lat="43.818795" lon="6.4357383"><ele>665.0</ele><time>2026-05-02T15:37:33.27Z</time></trkpt><trkpt lat="43.81886" lon="6.4355967"><ele>665.0</ele><time>2026-05-02T15:37:34.27Z</time></trkpt><trkpt lat="43.81892" lon="6.43545"><ele>665.0</ele><time>2026-05-02T15:37:35.27Z</time></trkpt><trkpt lat="43.818975" lon="6.4353117"><ele>665.0</ele><time>2026-05-02T15:37:36.27Z</time></trkpt><trkpt lat="43.8190317" lon="6.4351717"><ele>665.0</ele><time>2026-05-02T15:37:37.27Z</time></trkpt><trkpt lat="43.81909" lon="6.4350383"><ele>665.0</ele><time>2026-05-02T15:37:38.27Z</time></trkpt><trkpt lat="43.8191483" lon="6.4349167"><ele>665.0</ele><time>2026-05-02T15:37:39.271Z</time></trkpt><trkpt lat="43.8192017" lon="6.43478"><ele>665.0</ele><time>2026-05-02T15:37:40.27Z</time></trkpt><trkpt lat="43.8192567" lon="6.43464"><ele>665.0</ele><time>2026-05-02T15:37:41.27Z</time></trkpt><trkpt lat="43.8193183" lon="6.4345017"><ele>665.4</ele><time>2026-05-02T15:37:42.27Z</time></trkpt><trkpt lat="43.8193683" lon="6.4343617"><ele>665.8</ele><time>2026-05-02T15:37:43.27Z</time></trkpt><trkpt lat="43.8194233" lon="6.434235"><ele>666.2</ele><time>2026-05-02T15:37:44.271Z</time></trkpt><trkpt lat="43.8194817" lon="6.434095"><ele>666.6</ele><time>2026-05-02T15:37:45.27Z</time></trkpt><trkpt lat="43.8195467" lon="6.4339767"><ele>667.0</ele><time>2026-05-02T15:37:46.27Z</time></trkpt><trkpt lat="43.819625" lon="6.4338633"><ele>668.0</ele><time>2026-05-02T15:37:47.27Z</time></trkpt><trkpt lat="43.8197117" lon="6.4337567"><ele>669.0</ele><time>2026-05-02T15:37:48.27Z</time></trkpt><trkpt lat="43.8197933" lon="6.4336533"><ele>670.0</ele><time>2026-05-02T15:37:49.27Z</time></trkpt><trkpt lat="43.8198917" lon="6.4335683"><ele>671.0</ele><time>2026-05-02T15:37:50.27Z</time></trkpt><trkpt lat="43.8199833" lon="6.4334817"><ele>671.0</ele><time>2026-05-02T15:37:51.27Z</time></trkpt><trkpt lat="43.8200667" lon="6.4333767"><ele>671.0</ele><time>2026-05-02T15:37:52.271Z</time></trkpt><trkpt lat="43.820125" lon="6.4332617"><ele>671.0</ele><time>2026-05-02T15:37:53.27Z</time></trkpt><trkpt lat="43.820185" lon="6.4331217"><ele>671.0</ele><time>2026-05-02T15:37:54.27Z</time></trkpt><trkpt lat="43.820225" lon="6.432985"><ele>671.0</ele><time>2026-05-02T15:37:55.27Z</time></trkpt><trkpt lat="43.8202667" lon="6.4328333"><ele>668.0</ele><time>2026-05-02T15:37:56.27Z</time></trkpt><trkpt lat="43.8203133" lon="6.432685"><ele>665.0</ele><time>2026-05-02T15:37:57.27Z</time></trkpt><trkpt lat="43.8203733" lon="6.4325417"><ele>662.0</ele><time>2026-05-02T15:37:58.27Z</time></trkpt><trkpt lat="43.8204383" lon="6.4324083"><ele>659.0</ele><time>2026-05-02T15:37:59.27Z</time></trkpt><trkpt lat="43.82051" lon="6.4322833"><ele>659.0</ele><time>2026-05-02T15:38:00.271Z</time></trkpt><trkpt lat="43.820585" lon="6.4321633"><ele>659.0</ele><time>2026-05-02T15:38:01.271Z</time></trkpt><trkpt lat="43.8206567" lon="6.4320717"><ele>659.0</ele><time>2026-05-02T15:38:02.27Z</time></trkpt><trkpt lat="43.8207317" lon="6.4319867"><ele>659.0</ele><time>2026-05-02T15:38:03.271Z</time></trkpt><trkpt lat="43.8208017" lon="6.4318867"><ele>659.0</ele><time>2026-05-02T15:38:04.27Z</time></trkpt><trkpt lat="43.8208667" lon="6.4317767"><ele>660.1666666666666</ele><time>2026-05-02T15:38:05.27Z</time></trkpt><trkpt lat="43.8209217" lon="6.4316667"><ele>661.3333333333333</ele><time>2026-05-02T15:38:06.27Z</time></trkpt><trkpt lat="43.8209667" lon="6.4315767"><ele>662.5</ele><time>2026-05-02T15:38:07.27Z</time></trkpt><trkpt lat="43.82101" lon="6.4315"><ele>663.6666666666666</ele><time>2026-05-02T15:38:08.27Z</time></trkpt><trkpt lat="43.82106" lon="6.4314317"><ele>664.8333333333334</ele><time>2026-05-02T15:38:09.27Z</time></trkpt><trkpt lat="43.8211117" lon="6.4313783"><ele>666.0</ele><time>2026-05-02T15:38:10.27Z</time></trkpt><trkpt lat="43.8212417" lon="6.43133"><ele>666.0</ele><time>2026-05-02T15:38:12.27Z</time></trkpt><trkpt lat="43.8213267" lon="6.431325"><ele>666.0</ele><time>2026-05-02T15:38:13.27Z</time></trkpt><trkpt lat="43.8214167" lon="6.43134"><ele>666.0</ele><time>2026-05-02T15:38:14.27Z</time></trkpt><trkpt lat="43.8215017" lon="6.4313667"><ele>666.0</ele><time>2026-05-02T15:38:15.27Z</time></trkpt><trkpt lat="43.8215917" lon="6.4313783"><ele>666.0</ele><time>2026-05-02T15:38:16.27Z</time></trkpt><trkpt lat="43.8216783" lon="6.4313683"><ele>666.0</ele><time>2026-05-02T15:38:17.27Z</time></trkpt><trkpt lat="43.8217667" lon="6.4313417"><ele>666.8333333333334</ele><time>2026-05-02T15:38:18.27Z</time></trkpt><trkpt lat="43.8218467" lon="6.4313033"><ele>667.6666666666666</ele><time>2026-05-02T15:38:19.271Z</time></trkpt><trkpt lat="43.82192" lon="6.4312517"><ele>668.5</ele><time>2026-05-02T15:38:20.27Z</time></trkpt><trkpt lat="43.8219883" lon="6.4312"><ele>669.3333333333333</ele><time>2026-05-02T15:38:21.27Z</time></trkpt><trkpt lat="43.82205" lon="6.4311517"><ele>670.1666666666666</ele><time>2026-05-02T15:38:22.271Z</time></trkpt><trkpt lat="43.8221133" lon="6.4311117"><ele>671.0</ele><time>2026-05-02T15:38:23.27Z</time></trkpt><trkpt lat="43.82218" lon="6.4310983"><ele>671.0</ele><time>2026-05-02T15:38:24.27Z</time></trkpt><trkpt lat="43.8222583" lon="6.4311033"><ele>671.0</ele><time>2026-05-02T15:38:25.27Z</time></trkpt><trkpt lat="43.8223367" lon="6.431125"><ele>671.0</ele><time>2026-05-02T15:38:26.27Z</time></trkpt><trkpt lat="43.8224183" lon="6.43115"><ele>671.0</ele><time>2026-05-02T15:38:27.27Z</time></trkpt><trkpt lat="43.8224983" lon="6.4311883"><ele>671.0</ele><time>2026-05-02T15:38:28.27Z</time></trkpt><trkpt lat="43.8225783" lon="6.4312283"><ele>671.0</ele><time>2026-05-02T15:38:29.27Z</time></trkpt><trkpt lat="43.8226683" lon="6.4312667"><ele>671.0</ele><time>2026-05-02T15:38:30.27Z</time></trkpt><trkpt lat="43.82276" lon="6.431295"><ele>671.0</ele><time>2026-05-02T15:38:31.27Z</time></trkpt><trkpt lat="43.8228467" lon="6.4313233"><ele>671.0</ele><time>2026-05-02T15:38:32.27Z</time></trkpt><trkpt lat="43.8229283" lon="6.4313533"><ele>671.0</ele><time>2026-05-02T15:38:33.27Z</time></trkpt><trkpt lat="43.823005" lon="6.4313833"><ele>671.0</ele><time>2026-05-02T15:38:34.27Z</time></trkpt><trkpt lat="43.8230733" lon="6.4313983"><ele>671.0</ele><time>2026-05-02T15:38:35.27Z</time></trkpt><trkpt lat="43.82314" lon="6.4314167"><ele>671.0</ele><time>2026-05-02T15:38:36.27Z</time></trkpt><trkpt lat="43.8232083" lon="6.4314133"><ele>671.0</ele><time>2026-05-02T15:38:37.27Z</time></trkpt><trkpt lat="43.8232817" lon="6.4313933"><ele>671.0</ele><time>2026-05-02T15:38:38.27Z</time></trkpt><trkpt lat="43.82336" lon="6.4313533"><ele>671.0</ele><time>2026-05-02T15:38:39.27Z</time></trkpt><trkpt lat="43.8234367" lon="6.4312817"><ele>671.0</ele><time>2026-05-02T15:38:40.27Z</time></trkpt><trkpt lat="43.82352" lon="6.4311817"><ele>671.0</ele><time>2026-05-02T15:38:41.27Z</time></trkpt><trkpt lat="43.823615" lon="6.4310683"><ele>671.25</ele><time>2026-05-02T15:38:42.271Z</time></trkpt><trkpt lat="43.8237117" lon="6.430965"><ele>671.5</ele><time>2026-05-02T15:38:43.27Z</time></trkpt><trkpt lat="43.823805" lon="6.4308783"><ele>671.75</ele><time>2026-05-02T15:38:44.271Z</time></trkpt><trkpt lat="43.8239033" lon="6.43078"><ele>672.0</ele><time>2026-05-02T15:38:45.27Z</time></trkpt><trkpt lat="43.8240117" lon="6.43069"><ele>672.0</ele><time>2026-05-02T15:38:46.27Z</time></trkpt><trkpt lat="43.8241167" lon="6.4306233"><ele>672.0</ele><time>2026-05-02T15:38:47.27Z</time></trkpt><trkpt lat="43.824225" lon="6.4305733"><ele>672.0</ele><time>2026-05-02T15:38:48.27Z</time></trkpt><trkpt lat="43.8243433" lon="6.4305433"><ele>672.0</ele><time>2026-05-02T15:38:49.27Z</time></trkpt><trkpt lat="43.8244667" lon="6.43052"><ele>672.0</ele><time>2026-05-02T15:38:50.271Z</time></trkpt><trkpt lat="43.8245867" lon="6.43051"><ele>672.0</ele><time>2026-05-02T15:38:51.27Z</time></trkpt><trkpt lat="43.8247133" lon="6.4304883"><ele>672.0</ele><time>2026-05-02T15:38:52.27Z</time></trkpt><trkpt lat="43.8248333" lon="6.430485"><ele>672.0</ele><time>2026-05-02T15:38:53.27Z</time></trkpt><trkpt lat="43.8249583" lon="6.4304817"><ele>672.0</ele><time>2026-05-02T15:38:54.27Z</time></trkpt><trkpt lat="43.8250783" lon="6.4304817"><ele>672.0</ele><time>2026-05-02T15:38:55.27Z</time></trkpt><trkpt lat="43.8251883" lon="6.4304783"><ele>672.0</ele><time>2026-05-02T15:38:56.27Z</time></trkpt><trkpt lat="43.8253067" lon="6.4304733"><ele>672.0</ele><time>2026-05-02T15:38:57.27Z</time></trkpt><trkpt lat="43.825425" lon="6.4304717"><ele>672.8</ele><time>2026-05-02T15:38:58.27Z</time></trkpt><trkpt lat="43.82554" lon="6.4304783"><ele>673.6</ele><time>2026-05-02T15:38:59.27Z</time></trkpt><trkpt lat="43.8256533" lon="6.43049"><ele>674.4</ele><time>2026-05-02T15:39:00.27Z</time></trkpt><trkpt lat="43.8257533" lon="6.4304967"><ele>675.1999999999999</ele><time>2026-05-02T15:39:01.27Z</time></trkpt><trkpt lat="43.8258467" lon="6.4304667"><ele>676.0</ele><time>2026-05-02T15:39:02.27Z</time></trkpt><trkpt lat="43.8259283" lon="6.43042"><ele>674.3333333333334</ele><time>2026-05-02T15:39:03.27Z</time></trkpt><trkpt lat="43.82599" lon="6.4303517"><ele>672.6666666666667</ele><time>2026-05-02T15:39:04.271Z</time></trkpt><trkpt lat="43.8260417" lon="6.4302833"><ele>671.0</ele><time>2026-05-02T15:39:05.27Z</time></trkpt><trkpt lat="43.8260917" lon="6.4302183"><ele>669.3333333333334</ele><time>2026-05-02T15:39:06.27Z</time></trkpt><trkpt lat="43.8261317" lon="6.43015"><ele>667.6666666666666</ele><time>2026-05-02T15:39:07.27Z</time></trkpt><trkpt lat="43.82618" lon="6.430045"><ele>666.0</ele><time>2026-05-02T15:39:08.27Z</time></trkpt><trkpt lat="43.8262117" lon="6.4299383"><ele>666.0</ele><time>2026-05-02T15:39:09.27Z</time></trkpt><trkpt lat="43.8262433" lon="6.4298233"><ele>666.0</ele><time>2026-05-02T15:39:10.27Z</time></trkpt><trkpt lat="43.8262733" lon="6.4297033"><ele>666.0</ele><time>2026-05-02T15:39:11.27Z</time></trkpt><trkpt lat="43.8263017" lon="6.4295817"><ele>666.0</ele><time>2026-05-02T15:39:12.27Z</time></trkpt><trkpt lat="43.826335" lon="6.4294533"><ele>666.0</ele><time>2026-05-02T15:39:13.27Z</time></trkpt><trkpt lat="43.8263567" lon="6.429315"><ele>666.3333333333334</ele><time>2026-05-02T15:39:14.27Z</time></trkpt><trkpt lat="43.82638" lon="6.4291267"><ele>666.6666666666667</ele><time>2026-05-02T15:39:15.27Z</time></trkpt><trkpt lat="43.8263933" lon="6.428905"><ele>667.0</ele><time>2026-05-02T15:39:16.27Z</time></trkpt><trkpt lat="43.8263983" lon="6.4286467"><ele>668.0</ele><time>2026-05-02T15:39:17.27Z</time></trkpt><trkpt lat="43.8264067" lon="6.42839"><ele>669.0</ele><time>2026-05-02T15:39:18.27Z</time></trkpt><trkpt lat="43.8264167" lon="6.4281567"><ele>670.0</ele><time>2026-05-02T15:39:19.27Z</time></trkpt><trkpt lat="43.8264417" lon="6.42795"><ele>672.25</ele><time>2026-05-02T15:39:20.27Z</time></trkpt><trkpt lat="43.82648" lon="6.4277517"><ele>674.5</ele><time>2026-05-02T15:39:21.27Z</time></trkpt><trkpt lat="43.826535" lon="6.427565"><ele>676.75</ele><time>2026-05-02T15:39:22.27Z</time></trkpt><trkpt lat="43.8266233" lon="6.4273983"><ele>679.0</ele><time>2026-05-02T15:39:23.27Z</time></trkpt><trkpt lat="43.82671" lon="6.4272217"><ele>677.0</ele><time>2026-05-02T15:39:24.27Z</time></trkpt><trkpt lat="43.8267883" lon="6.4270617"><ele>675.0</ele><time>2026-05-02T15:39:25.27Z</time></trkpt><trkpt lat="43.826875" lon="6.42693"><ele>673.0</ele><time>2026-05-02T15:39:26.27Z</time></trkpt><trkpt lat="43.8269483" lon="6.4268"><ele>671.0</ele><time>2026-05-02T15:39:27.271Z</time></trkpt><trkpt lat="43.82702" lon="6.426685"><ele>671.0</ele><time>2026-05-02T15:39:28.27Z</time></trkpt><trkpt lat="43.82708" lon="6.4265833"><ele>671.0</ele><time>2026-05-02T15:39:29.27Z</time></trkpt><trkpt lat="43.8271433" lon="6.4264833"><ele>671.0</ele><time>2026-05-02T15:39:30.27Z</time></trkpt><trkpt lat="43.8272117" lon="6.42639"><ele>671.0</ele><time>2026-05-02T15:39:31.27Z</time></trkpt><trkpt lat="43.8272767" lon="6.4263067"><ele>671.0</ele><time>2026-05-02T15:39:32.27Z</time></trkpt><trkpt lat="43.8273467" lon="6.426225"><ele>674.0</ele><time>2026-05-02T15:39:33.27Z</time></trkpt><trkpt lat="43.8274167" lon="6.4261383"><ele>677.0</ele><time>2026-05-02T15:39:34.27Z</time></trkpt><trkpt lat="43.827495" lon="6.4260567"><ele>680.0</ele><time>2026-05-02T15:39:35.27Z</time></trkpt><trkpt lat="43.82758" lon="6.425995"><ele>683.0</ele><time>2026-05-02T15:39:36.27Z</time></trkpt><trkpt lat="43.8276667" lon="6.4259517"><ele>686.0</ele><time>2026-05-02T15:39:37.27Z</time></trkpt><trkpt lat="43.8277567" lon="6.4259367"><ele>686.0</ele><time>2026-05-02T15:39:38.27Z</time></trkpt><trkpt lat="43.8278483" lon="6.4259233"><ele>686.0</ele><time>2026-05-02T15:39:39.27Z</time></trkpt><trkpt lat="43.8279467" lon="6.4259267"><ele>686.0</ele><time>2026-05-02T15:39:40.27Z</time></trkpt><trkpt lat="43.8280483" lon="6.425945"><ele>686.0</ele><time>2026-05-02T15:39:41.271Z</time></trkpt><trkpt lat="43.8281517" lon="6.4259683"><ele>686.0</ele><time>2026-05-02T15:39:42.27Z</time></trkpt><trkpt lat="43.8282467" lon="6.426005"><ele>686.0</ele><time>2026-05-02T15:39:43.27Z</time></trkpt><trkpt lat="43.8283467" lon="6.4260433"><ele>686.0</ele><time>2026-05-02T15:39:44.27Z</time></trkpt><trkpt lat="43.828445" lon="6.426085"><ele>686.0</ele><time>2026-05-02T15:39:45.27Z</time></trkpt><trkpt lat="43.8285367" lon="6.426135"><ele>686.0</ele><time>2026-05-02T15:39:46.271Z</time></trkpt><trkpt lat="43.8286183" lon="6.4261883"><ele>686.0</ele><time>2026-05-02T15:39:47.27Z</time></trkpt><trkpt lat="43.8287017" lon="6.426245"><ele>687.6666666666666</ele><time>2026-05-02T15:39:48.27Z</time></trkpt><trkpt lat="43.828775" lon="6.4263033"><ele>689.3333333333333</ele><time>2026-05-02T15:39:49.27Z</time></trkpt><trkpt lat="43.8288383" lon="6.4263617"><ele>691.0</ele><time>2026-05-02T15:39:50.271Z</time></trkpt><trkpt lat="43.8289133" lon="6.42642"><ele>692.6666666666666</ele><time>2026-05-02T15:39:51.27Z</time></trkpt><trkpt lat="43.8290033" lon="6.4264667"><ele>694.3333333333334</ele><time>2026-05-02T15:39:52.27Z</time></trkpt><trkpt lat="43.8290917" lon="6.426505"><ele>696.0</ele><time>2026-05-02T15:39:53.27Z</time></trkpt><trkpt lat="43.82918" lon="6.4265383"><ele>694.0</ele><time>2026-05-02T15:39:54.27Z</time></trkpt><trkpt lat="43.8292633" lon="6.426575"><ele>692.0</ele><time>2026-05-02T15:39:55.271Z</time></trkpt><trkpt lat="43.829335" lon="6.4266333"><ele>690.0</ele><time>2026-05-02T15:39:56.27Z</time></trkpt><trkpt lat="43.8294033" lon="6.4267083"><ele>688.0</ele><time>2026-05-02T15:39:57.27Z</time></trkpt><trkpt lat="43.829465" lon="6.4267933"><ele>686.0</ele><time>2026-05-02T15:39:58.27Z</time></trkpt><trkpt lat="43.82951" lon="6.4268933"><ele>684.0</ele><time>2026-05-02T15:39:59.27Z</time></trkpt><trkpt lat="43.8295467" lon="6.4269933"><ele>684.0</ele><time>2026-05-02T15:40:00.27Z</time></trkpt><trkpt lat="43.8295817" lon="6.4270983"><ele>684.0</ele><time>2026-05-02T15:40:01.27Z</time></trkpt><trkpt lat="43.82961" lon="6.4272"><ele>684.0</ele><time>2026-05-02T15:40:02.27Z</time></trkpt><trkpt lat="43.8296483" lon="6.4273033"><ele>684.0</ele><time>2026-05-02T15:40:03.27Z</time></trkpt><trkpt lat="43.8297033" lon="6.4273933"><ele>684.0</ele><time>2026-05-02T15:40:04.27Z</time></trkpt><trkpt lat="43.829765" lon="6.4274767"><ele>684.0</ele><time>2026-05-02T15:40:05.271Z</time></trkpt><trkpt lat="43.829845" lon="6.4275617"><ele>683.6</ele><time>2026-05-02T15:40:06.27Z</time></trkpt><trkpt lat="43.82993" lon="6.4276417"><ele>683.2</ele><time>2026-05-02T15:40:07.27Z</time></trkpt><trkpt lat="43.8300083" lon="6.4277233"><ele>682.8000000000001</ele><time>2026-05-02T15:40:08.271Z</time></trkpt><trkpt lat="43.8300783" lon="6.4278067"><ele>682.4000000000001</ele><time>2026-05-02T15:40:09.271Z</time></trkpt><trkpt lat="43.8301383" lon="6.4279"><ele>682.0</ele><time>2026-05-02T15:40:10.27Z</time></trkpt><trkpt lat="43.8301983" lon="6.4280133"><ele>682.0</ele><time>2026-05-02T15:40:11.27Z</time></trkpt><trkpt lat="43.8302567" lon="6.4281167"><ele>682.0</ele><time>2026-05-02T15:40:12.27Z</time></trkpt><trkpt lat="43.830305" lon="6.4282283"><ele>682.0</ele><time>2026-05-02T15:40:13.271Z</time></trkpt><trkpt lat="43.8303517" lon="6.428345"><ele>682.0</ele><time>2026-05-02T15:40:14.271Z</time></trkpt><trkpt lat="43.8303933" lon="6.4284633"><ele>682.0</ele><time>2026-05-02T15:40:15.27Z</time></trkpt><trkpt lat="43.8304367" lon="6.4286017"><ele>682.0</ele><time>2026-05-02T15:40:16.27Z</time></trkpt><trkpt lat="43.830455" lon="6.428745"><ele>682.0</ele><time>2026-05-02T15:40:17.27Z</time></trkpt><trkpt lat="43.830455" lon="6.4289"><ele>682.0</ele><time>2026-05-02T15:40:18.27Z</time></trkpt><trkpt lat="43.8304433" lon="6.429045"><ele>682.0</ele><time>2026-05-02T15:40:19.27Z</time></trkpt><trkpt lat="43.830435" lon="6.4291917"><ele>682.0</ele><time>2026-05-02T15:40:20.27Z</time></trkpt><trkpt lat="43.83044" lon="6.4293283"><ele>681.4000000000001</ele><time>2026-05-02T15:40:21.27Z</time></trkpt><trkpt lat="43.830445" lon="6.4294733"><ele>680.8000000000001</ele><time>2026-05-02T15:40:22.27Z</time></trkpt><trkpt lat="43.8304583" lon="6.4296133"><ele>680.2</ele><time>2026-05-02T15:40:23.27Z</time></trkpt><trkpt lat="43.83047" lon="6.42975"><ele>679.6</ele><time>2026-05-02T15:40:24.27Z</time></trkpt><trkpt lat="43.8304867" lon="6.4298867"><ele>679.0</ele><time>2026-05-02T15:40:25.271Z</time></trkpt><trkpt lat="43.830505" lon="6.4300317"><ele>679.0</ele><time>2026-05-02T15:40:26.27Z</time></trkpt><trkpt lat="43.83054" lon="6.43018"><ele>679.0</ele><time>2026-05-02T15:40:27.27Z</time></trkpt><trkpt lat="43.8305967" lon="6.430345"><ele>679.0</ele><time>2026-05-02T15:40:28.27Z</time></trkpt><trkpt lat="43.8306633" lon="6.4305317"><ele>679.0</ele><time>2026-05-02T15:40:29.27Z</time></trkpt><trkpt lat="43.8307333" lon="6.43073"><ele>678.5</ele><time>2026-05-02T15:40:30.27Z</time></trkpt><trkpt lat="43.8308133" lon="6.4309083"><ele>678.0</ele><time>2026-05-02T15:40:31.27Z</time></trkpt><trkpt lat="43.8308767" lon="6.4310783"><ele>677.5</ele><time>2026-05-02T15:40:32.27Z</time></trkpt><trkpt lat="43.8309383" lon="6.4312267"><ele>677.0</ele><time>2026-05-02T15:40:33.27Z</time></trkpt><trkpt lat="43.830995" lon="6.4313633"><ele>679.8</ele><time>2026-05-02T15:40:34.27Z</time></trkpt><trkpt lat="43.83104" lon="6.43147"><ele>682.6</ele><time>2026-05-02T15:40:35.27Z</time></trkpt><trkpt lat="43.831075" lon="6.4315633"><ele>685.4</ele><time>2026-05-02T15:40:36.27Z</time></trkpt><trkpt lat="43.8311383" lon="6.431705"><ele>688.1999999999999</ele><time>2026-05-02T15:40:38.27Z</time></trkpt><trkpt lat="43.8311933" lon="6.4318617"><ele>691.0</ele><time>2026-05-02T15:40:40.27Z</time></trkpt><trkpt lat="43.8312217" lon="6.43195"><ele>691.0</ele><time>2026-05-02T15:40:41.27Z</time></trkpt><trkpt lat="43.8312417" lon="6.4320467"><ele>691.0</ele><time>2026-05-02T15:40:42.271Z</time></trkpt><trkpt lat="43.8312517" lon="6.43215"><ele>691.0</ele><time>2026-05-02T15:40:43.27Z</time></trkpt><trkpt lat="43.8312633" lon="6.4322733"><ele>691.0</ele><time>2026-05-02T15:40:44.27Z</time></trkpt><trkpt lat="43.8312667" lon="6.4323867"><ele>691.0</ele><time>2026-05-02T15:40:45.27Z</time></trkpt><trkpt lat="43.8312733" lon="6.4325"><ele>691.0</ele><time>2026-05-02T15:40:46.27Z</time></trkpt><trkpt lat="43.8312717" lon="6.43262"><ele>690.5</ele><time>2026-05-02T15:40:47.271Z</time></trkpt><trkpt lat="43.8312717" lon="6.432745"><ele>690.0</ele><time>2026-05-02T15:40:48.27Z</time></trkpt><trkpt lat="43.8312683" lon="6.43286"><ele>689.5</ele><time>2026-05-02T15:40:49.27Z</time></trkpt><trkpt lat="43.8312633" lon="6.432985"><ele>689.0</ele><time>2026-05-02T15:40:50.27Z</time></trkpt><trkpt lat="43.8312683" lon="6.4331067"><ele>688.5</ele><time>2026-05-02T15:40:51.27Z</time></trkpt><trkpt lat="43.8312733" lon="6.43322"><ele>688.0</ele><time>2026-05-02T15:40:52.27Z</time></trkpt><trkpt lat="43.831295" lon="6.43332"><ele>688.0</ele><time>2026-05-02T15:40:53.27Z</time></trkpt><trkpt lat="43.8313433" lon="6.4334333"><ele>688.0</ele><time>2026-05-02T15:40:54.27Z</time></trkpt><trkpt lat="43.8314167" lon="6.4335567"><ele>688.0</ele><time>2026-05-02T15:40:55.27Z</time></trkpt><trkpt lat="43.8315167" lon="6.4336917"><ele>688.0</ele><time>2026-05-02T15:40:56.27Z</time></trkpt><trkpt lat="43.8316233" lon="6.43383"><ele>685.75</ele><time>2026-05-02T15:40:57.27Z</time></trkpt><trkpt lat="43.831725" lon="6.4339717"><ele>683.5</ele><time>2026-05-02T15:40:58.27Z</time></trkpt><trkpt lat="43.8318183" lon="6.434125"><ele>681.25</ele><time>2026-05-02T15:40:59.27Z</time></trkpt><trkpt lat="43.8319267" lon="6.4342767"><ele>679.0</ele><time>2026-05-02T15:41:00.27Z</time></trkpt><trkpt lat="43.83205" lon="6.4344217"><ele>679.6666666666667</ele><time>2026-05-02T15:41:01.27Z</time></trkpt><trkpt lat="43.8321833" lon="6.4345567"><ele>680.3333333333334</ele><time>2026-05-02T15:41:02.27Z</time></trkpt><trkpt lat="43.8323183" lon="6.434695"><ele>681.0</ele><time>2026-05-02T15:41:03.27Z</time></trkpt><trkpt lat="43.8324517" lon="6.4348367"><ele>681.0</ele><time>2026-05-02T15:41:04.27Z</time></trkpt><trkpt lat="43.8325933" lon="6.4349683"><ele>681.0</ele><time>2026-05-02T15:41:05.27Z</time></trkpt><trkpt lat="43.832715" lon="6.435085"><ele>681.0</ele><time>2026-05-02T15:41:06.27Z</time></trkpt><trkpt lat="43.832825" lon="6.43522"><ele>684.5</ele><time>2026-05-02T15:41:07.271Z</time></trkpt><trkpt lat="43.8329217" lon="6.4353717"><ele>688.0</ele><time>2026-05-02T15:41:08.271Z</time></trkpt><trkpt lat="43.832995" lon="6.4355317"><ele>691.5</ele><time>2026-05-02T15:41:09.27Z</time></trkpt><trkpt lat="43.8330467" lon="6.4357233"><ele>695.0</ele><time>2026-05-02T15:41:10.27Z</time></trkpt><trkpt lat="43.8330733" lon="6.4359633"><ele>695.0</ele><time>2026-05-02T15:41:11.27Z</time></trkpt><trkpt lat="43.8331033" lon="6.43621"><ele>695.0</ele><time>2026-05-02T15:41:12.27Z</time></trkpt><trkpt lat="43.833135" lon="6.43644"><ele>695.0</ele><time>2026-05-02T15:41:13.27Z</time></trkpt><trkpt lat="43.8331717" lon="6.436675"><ele>692.3333333333333</ele><time>2026-05-02T15:41:14.27Z</time></trkpt><trkpt lat="43.83321" lon="6.43691"><ele>689.6666666666666</ele><time>2026-05-02T15:41:15.27Z</time></trkpt><trkpt lat="43.83324" lon="6.437135"><ele>687.0</ele><time>2026-05-02T15:41:16.27Z</time></trkpt><trkpt lat="43.8332683" lon="6.437355"><ele>686.0</ele><time>2026-05-02T15:41:17.27Z</time></trkpt><trkpt lat="43.8333" lon="6.437565"><ele>685.0</ele><time>2026-05-02T15:41:18.27Z</time></trkpt><trkpt lat="43.8333483" lon="6.4377733"><ele>684.0</ele><time>2026-05-02T15:41:19.27Z</time></trkpt><trkpt lat="43.8333917" lon="6.4380067"><ele>682.3333333333334</ele><time>2026-05-02T15:41:20.27Z</time></trkpt><trkpt lat="43.833435" lon="6.4382317"><ele>680.6666666666667</ele><time>2026-05-02T15:41:21.27Z</time></trkpt><trkpt lat="43.833475" lon="6.43847"><ele>679.0</ele><time>2026-05-02T15:41:22.27Z</time></trkpt><trkpt lat="43.83349" lon="6.4387067"><ele>693.3333333333334</ele><time>2026-05-02T15:41:23.27Z</time></trkpt><trkpt lat="43.8335033" lon="6.4389383"><ele>707.6666666666666</ele><time>2026-05-02T15:41:24.27Z</time></trkpt><trkpt lat="43.8335067" lon="6.4391767"><ele>722.0</ele><time>2026-05-02T15:41:25.27Z</time></trkpt><trkpt lat="43.8335" lon="6.4394267"><ele>724.0</ele><time>2026-05-02T15:41:26.27Z</time></trkpt><trkpt lat="43.83348" lon="6.4396633"><ele>726.0</ele><time>2026-05-02T15:41:27.27Z</time></trkpt><trkpt lat="43.833425" lon="6.43989"><ele>728.0</ele><time>2026-05-02T15:41:28.27Z</time></trkpt><trkpt lat="43.8333633" lon="6.4401033"><ele>715.6666666666666</ele><time>2026-05-02T15:41:29.27Z</time></trkpt><trkpt lat="43.8332867" lon="6.4403167"><ele>703.3333333333334</ele><time>2026-05-02T15:41:30.27Z</time></trkpt><trkpt lat="43.83322" lon="6.440505"><ele>691.0</ele><time>2026-05-02T15:41:31.27Z</time></trkpt><trkpt lat="43.8331533" lon="6.4406983"><ele>691.0</ele><time>2026-05-02T15:41:32.27Z</time></trkpt><trkpt lat="43.8330767" lon="6.4408883"><ele>691.0</ele><time>2026-05-02T15:41:33.27Z</time></trkpt><trkpt lat="43.8329933" lon="6.441065"><ele>691.0</ele><time>2026-05-02T15:41:34.27Z</time></trkpt><trkpt lat="43.832915" lon="6.4412383"><ele>688.25</ele><time>2026-05-02T15:41:35.27Z</time></trkpt><trkpt lat="43.8328483" lon="6.441405"><ele>685.5</ele><time>2026-05-02T15:41:36.27Z</time></trkpt><trkpt lat="43.83278" lon="6.4415767"><ele>682.75</ele><time>2026-05-02T15:41:37.27Z</time></trkpt><trkpt lat="43.832705" lon="6.4417483"><ele>680.0</ele><time>2026-05-02T15:41:38.27Z</time></trkpt><trkpt lat="43.8326183" lon="6.441915"><ele>680.0</ele><time>2026-05-02T15:41:39.27Z</time></trkpt><trkpt lat="43.8324983" lon="6.4420667"><ele>680.0</ele><time>2026-05-02T15:41:40.271Z</time></trkpt><trkpt lat="43.8323617" lon="6.4422183"><ele>680.0</ele><time>2026-05-02T15:41:41.271Z</time></trkpt><trkpt lat="43.8322183" lon="6.442355"><ele>680.6666666666666</ele><time>2026-05-02T15:41:42.27Z</time></trkpt><trkpt lat="43.8320467" lon="6.4424783"><ele>681.3333333333334</ele><time>2026-05-02T15:41:43.27Z</time></trkpt><trkpt lat="43.8318867" lon="6.4425883"><ele>682.0</ele><time>2026-05-02T15:41:44.27Z</time></trkpt><trkpt lat="43.8317217" lon="6.4426883"><ele>682.0</ele><time>2026-05-02T15:41:45.27Z</time></trkpt><trkpt lat="43.831565" lon="6.442765"><ele>682.0</ele><time>2026-05-02T15:41:46.27Z</time></trkpt><trkpt lat="43.8314067" lon="6.4428467"><ele>682.0</ele><time>2026-05-02T15:41:47.27Z</time></trkpt><trkpt lat="43.8312533" lon="6.4429317"><ele>686.5</ele><time>2026-05-02T15:41:48.27Z</time></trkpt><trkpt lat="43.8311217" lon="6.4430167"><ele>691.0</ele><time>2026-05-02T15:41:49.27Z</time></trkpt><trkpt lat="43.8310033" lon="6.44313"><ele>695.5</ele><time>2026-05-02T15:41:50.271Z</time></trkpt><trkpt lat="43.8308967" lon="6.44328"><ele>700.0</ele><time>2026-05-02T15:41:51.27Z</time></trkpt><trkpt lat="43.83081" lon="6.4434383"><ele>700.0</ele><time>2026-05-02T15:41:52.27Z</time></trkpt><trkpt lat="43.83074" lon="6.443625"><ele>700.0</ele><time>2026-05-02T15:41:53.27Z</time></trkpt><trkpt lat="43.830695" lon="6.4438217"><ele>700.0</ele><time>2026-05-02T15:41:54.27Z</time></trkpt><trkpt lat="43.8306667" lon="6.4440183"><ele>700.0</ele><time>2026-05-02T15:41:55.27Z</time></trkpt><trkpt lat="43.8306567" lon="6.444215"><ele>702.5</ele><time>2026-05-02T15:41:56.27Z</time></trkpt><trkpt lat="43.830665" lon="6.4443983"><ele>705.0</ele><time>2026-05-02T15:41:57.27Z</time></trkpt><trkpt lat="43.8306667" lon="6.4445717"><ele>707.5</ele><time>2026-05-02T15:41:58.27Z</time></trkpt><trkpt lat="43.8306933" lon="6.4447383"><ele>710.0</ele><time>2026-05-02T15:41:59.27Z</time></trkpt><trkpt lat="43.8307317" lon="6.4449083"><ele>710.0</ele><time>2026-05-02T15:42:00.27Z</time></trkpt><trkpt lat="43.8308033" lon="6.4450617"><ele>710.0</ele><time>2026-05-02T15:42:01.27Z</time></trkpt><trkpt lat="43.83091" lon="6.4451683"><ele>710.0</ele><time>2026-05-02T15:42:02.271Z</time></trkpt><trkpt lat="43.8310517" lon="6.4452617"><ele>710.0</ele><time>2026-05-02T15:42:03.27Z</time></trkpt><trkpt lat="43.831165" lon="6.445395"><ele>718.25</ele><time>2026-05-02T15:42:04.27Z</time></trkpt><trkpt lat="43.8312867" lon="6.445525"><ele>726.5</ele><time>2026-05-02T15:42:05.27Z</time></trkpt><trkpt lat="43.831395" lon="6.4456683"><ele>734.75</ele><time>2026-05-02T15:42:06.27Z</time></trkpt><trkpt lat="43.831515" lon="6.44578"><ele>743.0</ele><time>2026-05-02T15:42:07.27Z</time></trkpt><trkpt lat="43.83164" lon="6.4459067"><ele>743.0</ele><time>2026-05-02T15:42:08.271Z</time></trkpt><trkpt lat="43.831755" lon="6.4460983"><ele>743.0</ele><time>2026-05-02T15:42:09.27Z</time></trkpt><trkpt lat="43.8318633" lon="6.44628"><ele>743.0</ele><time>2026-05-02T15:42:10.271Z</time></trkpt><trkpt lat="43.8319483" lon="6.4464633"><ele>748.3333333333333</ele><time>2026-05-02T15:42:11.271Z</time></trkpt><trkpt lat="43.83201" lon="6.44667"><ele>753.6666666666666</ele><time>2026-05-02T15:42:12.271Z</time></trkpt><trkpt lat="43.8320433" lon="6.4469033"><ele>759.0</ele><time>2026-05-02T15:42:13.27Z</time></trkpt><trkpt lat="43.832065" lon="6.4471267"><ele>759.0</ele><time>2026-05-02T15:42:14.27Z</time></trkpt><trkpt lat="43.8320633" lon="6.4473767"><ele>759.0</ele><time>2026-05-02T15:42:15.27Z</time></trkpt><trkpt lat="43.83205" lon="6.447625"><ele>759.0</ele><time>2026-05-02T15:42:16.27Z</time></trkpt><trkpt lat="43.8320483" lon="6.4478733"><ele>759.0</ele><time>2026-05-02T15:42:17.27Z</time></trkpt><trkpt lat="43.832045" lon="6.44811"><ele>759.0</ele><time>2026-05-02T15:42:18.271Z</time></trkpt><trkpt lat="43.83203" lon="6.448345"><ele>759.0</ele><time>2026-05-02T15:42:19.27Z</time></trkpt><trkpt lat="43.8320017" lon="6.44857"><ele>750.6666666666666</ele><time>2026-05-02T15:42:20.27Z</time></trkpt><trkpt lat="43.831955" lon="6.4488067"><ele>742.3333333333333</ele><time>2026-05-02T15:42:21.27Z</time></trkpt><trkpt lat="43.8318733" lon="6.44902"><ele>734.0</ele><time>2026-05-02T15:42:22.27Z</time></trkpt><trkpt lat="43.83179" lon="6.44921"><ele>724.75</ele><time>2026-05-02T15:42:23.27Z</time></trkpt><trkpt lat="43.8316933" lon="6.4493667"><ele>715.5</ele><time>2026-05-02T15:42:24.27Z</time></trkpt><trkpt lat="43.831605" lon="6.4495233"><ele>706.25</ele><time>2026-05-02T15:42:25.27Z</time></trkpt><trkpt lat="43.8315533" lon="6.4496883"><ele>697.0</ele><time>2026-05-02T15:42:26.27Z</time></trkpt><trkpt lat="43.8315433" lon="6.4498733"><ele>697.0</ele><time>2026-05-02T15:42:27.27Z</time></trkpt><trkpt lat="43.8315683" lon="6.4500683"><ele>697.0</ele><time>2026-05-02T15:42:28.27Z</time></trkpt><trkpt lat="43.8316183" lon="6.4502767"><ele>697.0</ele><time>2026-05-02T15:42:29.271Z</time></trkpt><trkpt lat="43.8316717" lon="6.4504717"><ele>697.6666666666667</ele><time>2026-05-02T15:42:30.27Z</time></trkpt><trkpt lat="43.831705" lon="6.4506917"><ele>698.3333333333334</ele><time>2026-05-02T15:42:31.27Z</time></trkpt><trkpt lat="43.8317117" lon="6.450915"><ele>699.0</ele><time>2026-05-02T15:42:32.27Z</time></trkpt><trkpt lat="43.8316817" lon="6.4511317"><ele>701.0</ele><time>2026-05-02T15:42:33.27Z</time></trkpt><trkpt lat="43.83166" lon="6.4513617"><ele>703.0</ele><time>2026-05-02T15:42:34.27Z</time></trkpt><trkpt lat="43.831625" lon="6.451585"><ele>705.0</ele><time>2026-05-02T15:42:35.271Z</time></trkpt><trkpt lat="43.8315683" lon="6.4517933"><ele>705.0</ele><time>2026-05-02T15:42:36.27Z</time></trkpt><trkpt lat="43.831505" lon="6.4519883"><ele>705.0</ele><time>2026-05-02T15:42:37.27Z</time></trkpt><trkpt lat="43.8314167" lon="6.452165"><ele>705.0</ele><time>2026-05-02T15:42:38.27Z</time></trkpt><trkpt lat="43.8313083" lon="6.4523167"><ele>708.3333333333334</ele><time>2026-05-02T15:42:39.271Z</time></trkpt><trkpt lat="43.8311817" lon="6.4524517"><ele>711.6666666666667</ele><time>2026-05-02T15:42:40.27Z</time></trkpt><trkpt lat="43.8310367" lon="6.4525883"><ele>715.0</ele><time>2026-05-02T15:42:41.27Z</time></trkpt><trkpt lat="43.8309033" lon="6.4527383"><ele>711.0</ele><time>2026-05-02T15:42:42.27Z</time></trkpt><trkpt lat="43.83079" lon="6.4529183"><ele>707.0</ele><time>2026-05-02T15:42:43.27Z</time></trkpt><trkpt lat="43.8307" lon="6.4531017"><ele>703.0</ele><time>2026-05-02T15:42:44.27Z</time></trkpt><trkpt lat="43.830625" lon="6.453315"><ele>703.0</ele><time>2026-05-02T15:42:45.27Z</time></trkpt><trkpt lat="43.830565" lon="6.45354"><ele>703.0</ele><time>2026-05-02T15:42:46.27Z</time></trkpt><trkpt lat="43.83052" lon="6.453785"><ele>703.0</ele><time>2026-05-02T15:42:47.27Z</time></trkpt><trkpt lat="43.8304883" lon="6.4540283"><ele>706.3333333333334</ele><time>2026-05-02T15:42:48.27Z</time></trkpt><trkpt lat="43.830475" lon="6.4542733"><ele>709.6666666666666</ele><time>2026-05-02T15:42:49.27Z</time></trkpt><trkpt lat="43.8304733" lon="6.4544933"><ele>713.0</ele><time>2026-05-02T15:42:50.27Z</time></trkpt><trkpt lat="43.83047" lon="6.4546983"><ele>714.0</ele><time>2026-05-02T15:42:51.27Z</time></trkpt><trkpt lat="43.830475" lon="6.4548933"><ele>715.0</ele><time>2026-05-02T15:42:52.27Z</time></trkpt><trkpt lat="43.8304933" lon="6.4550783"><ele>716.0</ele><time>2026-05-02T15:42:53.27Z</time></trkpt><trkpt lat="43.83053" lon="6.45528"><ele>717.0</ele><time>2026-05-02T15:42:54.27Z</time></trkpt><trkpt lat="43.8305583" lon="6.4554867"><ele>719.0</ele><time>2026-05-02T15:42:55.27Z</time></trkpt><trkpt lat="43.8305633" lon="6.4556917"><ele>721.0</ele><time>2026-05-02T15:42:56.27Z</time></trkpt><trkpt lat="43.8305617" lon="6.4558817"><ele>723.0</ele><time>2026-05-02T15:42:57.27Z</time></trkpt><trkpt lat="43.8305333" lon="6.45606"><ele>725.0</ele><time>2026-05-02T15:42:58.27Z</time></trkpt><trkpt lat="43.8304767" lon="6.4562217"><ele>729.0</ele><time>2026-05-02T15:42:59.27Z</time></trkpt><trkpt lat="43.8304017" lon="6.456385"><ele>733.0</ele><time>2026-05-02T15:43:00.27Z</time></trkpt><trkpt lat="43.830295" lon="6.45655"><ele>737.0</ele><time>2026-05-02T15:43:01.27Z</time></trkpt><trkpt lat="43.8301817" lon="6.4567067"><ele>728.3333333333333</ele><time>2026-05-02T15:43:02.27Z</time></trkpt><trkpt lat="43.8300567" lon="6.4568717"><ele>719.6666666666666</ele><time>2026-05-02T15:43:03.27Z</time></trkpt><trkpt lat="43.82993" lon="6.457035"><ele>711.0</ele><time>2026-05-02T15:43:04.27Z</time></trkpt><trkpt lat="43.8298183" lon="6.45719"><ele>711.0</ele><time>2026-05-02T15:43:05.27Z</time></trkpt><trkpt lat="43.8297117" lon="6.4573567"><ele>711.0</ele><time>2026-05-02T15:43:06.27Z</time></trkpt><trkpt lat="43.8296233" lon="6.4575367"><ele>711.0</ele><time>2026-05-02T15:43:07.271Z</time></trkpt><trkpt lat="43.829545" lon="6.4577333"><ele>711.0</ele><time>2026-05-02T15:43:08.27Z</time></trkpt><trkpt lat="43.8294683" lon="6.4579133"><ele>711.0</ele><time>2026-05-02T15:43:09.27Z</time></trkpt><trkpt lat="43.8293833" lon="6.4581017"><ele>711.0</ele><time>2026-05-02T15:43:10.27Z</time></trkpt><trkpt lat="43.8292967" lon="6.458285"><ele>712.5</ele><time>2026-05-02T15:43:11.27Z</time></trkpt><trkpt lat="43.8292067" lon="6.4584517"><ele>714.0</ele><time>2026-05-02T15:43:12.27Z</time></trkpt><trkpt lat="43.8291067" lon="6.4585967"><ele>715.5</ele><time>2026-05-02T15:43:13.27Z</time></trkpt><trkpt lat="43.8289817" lon="6.4587167"><ele>717.0</ele><time>2026-05-02T15:43:14.27Z</time></trkpt><trkpt lat="43.8288633" lon="6.45884"><ele>717.0</ele><time>2026-05-02T15:43:15.27Z</time></trkpt><trkpt lat="43.82876" lon="6.4589767"><ele>717.0</ele><time>2026-05-02T15:43:16.27Z</time></trkpt><trkpt lat="43.8286767" lon="6.459125"><ele>717.0</ele><time>2026-05-02T15:43:17.27Z</time></trkpt><trkpt lat="43.8286233" lon="6.45928"><ele>717.0</ele><time>2026-05-02T15:43:18.271Z</time></trkpt><trkpt lat="43.8286" lon="6.4594317"><ele>717.0</ele><time>2026-05-02T15:43:19.27Z</time></trkpt><trkpt lat="43.8285983" lon="6.459605"><ele>717.0</ele><time>2026-05-02T15:43:20.27Z</time></trkpt><trkpt lat="43.8285867" lon="6.459765"><ele>717.0</ele><time>2026-05-02T15:43:21.27Z</time></trkpt><trkpt lat="43.8285467" lon="6.4599283"><ele>717.0</ele><time>2026-05-02T15:43:22.27Z</time></trkpt><trkpt lat="43.82847" lon="6.46008"><ele>715.5</ele><time>2026-05-02T15:43:23.27Z</time></trkpt><trkpt lat="43.828375" lon="6.4602317"><ele>714.0</ele><time>2026-05-02T15:43:24.271Z</time></trkpt><trkpt lat="43.8282767" lon="6.4603767"><ele>712.5</ele><time>2026-05-02T15:43:25.27Z</time></trkpt><trkpt lat="43.8281983" lon="6.4605517"><ele>711.0</ele><time>2026-05-02T15:43:26.27Z</time></trkpt><trkpt lat="43.8281183" lon="6.4607267"><ele>711.0</ele><time>2026-05-02T15:43:27.27Z</time></trkpt><trkpt lat="43.8280183" lon="6.46088"><ele>711.0</ele><time>2026-05-02T15:43:28.271Z</time></trkpt><trkpt lat="43.827915" lon="6.4610083"><ele>711.0</ele><time>2026-05-02T15:43:29.27Z</time></trkpt><trkpt lat="43.8278183" lon="6.4611567"><ele>711.0</ele><time>2026-05-02T15:43:30.27Z</time></trkpt><trkpt lat="43.8277517" lon="6.461325"><ele>713.25</ele><time>2026-05-02T15:43:31.271Z</time></trkpt><trkpt lat="43.8277183" lon="6.4614933"><ele>715.5</ele><time>2026-05-02T15:43:32.271Z</time></trkpt><trkpt lat="43.827705" lon="6.4616767"><ele>717.75</ele><time>2026-05-02T15:43:33.27Z</time></trkpt><trkpt lat="43.8277167" lon="6.46187"><ele>720.0</ele><time>2026-05-02T15:43:34.27Z</time></trkpt><trkpt lat="43.8277483" lon="6.4620667"><ele>718.75</ele><time>2026-05-02T15:43:35.27Z</time></trkpt><trkpt lat="43.8277983" lon="6.4622417"><ele>717.5</ele><time>2026-05-02T15:43:36.27Z</time></trkpt><trkpt lat="43.827865" lon="6.4624283"><ele>716.25</ele><time>2026-05-02T15:43:37.27Z</time></trkpt><trkpt lat="43.8279367" lon="6.4626267"><ele>715.0</ele><time>2026-05-02T15:43:38.27Z</time></trkpt><trkpt lat="43.828005" lon="6.4628183"><ele>712.3333333333334</ele><time>2026-05-02T15:43:39.27Z</time></trkpt><trkpt lat="43.828085" lon="6.4629983"><ele>709.6666666666666</ele><time>2026-05-02T15:43:40.27Z</time></trkpt><trkpt lat="43.8281667" lon="6.4631783"><ele>707.0</ele><time>2026-05-02T15:43:41.27Z</time></trkpt><trkpt lat="43.8282483" lon="6.4633567"><ele>707.0</ele><time>2026-05-02T15:43:42.271Z</time></trkpt><trkpt lat="43.8283233" lon="6.4635267"><ele>707.0</ele><time>2026-05-02T15:43:43.27Z</time></trkpt><trkpt lat="43.82842" lon="6.4636583"><ele>707.0</ele><time>2026-05-02T15:43:44.27Z</time></trkpt><trkpt lat="43.8285333" lon="6.4637683"><ele>707.0</ele><time>2026-05-02T15:43:45.27Z</time></trkpt><trkpt lat="43.8286383" lon="6.463905"><ele>711.75</ele><time>2026-05-02T15:43:46.27Z</time></trkpt><trkpt lat="43.8287017" lon="6.4640767"><ele>716.5</ele><time>2026-05-02T15:43:47.27Z</time></trkpt><trkpt lat="43.8287267" lon="6.4642717"><ele>721.25</ele><time>2026-05-02T15:43:48.27Z</time></trkpt><trkpt lat="43.8287233" lon="6.464475"><ele>726.0</ele><time>2026-05-02T15:43:49.27Z</time></trkpt><trkpt lat="43.8286967" lon="6.4646783"><ele>726.0</ele><time>2026-05-02T15:43:50.27Z</time></trkpt><trkpt lat="43.82868" lon="6.4648817"><ele>726.0</ele><time>2026-05-02T15:43:51.27Z</time></trkpt><trkpt lat="43.828665" lon="6.46509"><ele>726.0</ele><time>2026-05-02T15:43:52.27Z</time></trkpt><trkpt lat="43.8286583" lon="6.4652783"><ele>726.0</ele><time>2026-05-02T15:43:53.27Z</time></trkpt><trkpt lat="43.8286767" lon="6.4654517"><ele>725.5</ele><time>2026-05-02T15:43:54.27Z</time></trkpt><trkpt lat="43.8287267" lon="6.4656383"><ele>725.0</ele><time>2026-05-02T15:43:55.27Z</time></trkpt><trkpt lat="43.82879" lon="6.4658"><ele>724.5</ele><time>2026-05-02T15:43:56.27Z</time></trkpt><trkpt lat="43.8288567" lon="6.465965"><ele>724.0</ele><time>2026-05-02T15:43:57.27Z</time></trkpt><trkpt lat="43.82893" lon="6.4661283"><ele>722.5</ele><time>2026-05-02T15:43:58.27Z</time></trkpt><trkpt lat="43.8290033" lon="6.4662883"><ele>721.0</ele><time>2026-05-02T15:43:59.27Z</time></trkpt><trkpt lat="43.829065" lon="6.4664583"><ele>719.5</ele><time>2026-05-02T15:44:00.27Z</time></trkpt><trkpt lat="43.8291017" lon="6.46663"><ele>718.0</ele><time>2026-05-02T15:44:01.27Z</time></trkpt><trkpt lat="43.829105" lon="6.4668033"><ele>718.0</ele><time>2026-05-02T15:44:02.27Z</time></trkpt><trkpt lat="43.82908" lon="6.4669683"><ele>718.0</ele><time>2026-05-02T15:44:03.27Z</time></trkpt><trkpt lat="43.8290333" lon="6.4671283"><ele>718.0</ele><time>2026-05-02T15:44:04.27Z</time></trkpt><trkpt lat="43.8289867" lon="6.4672883"><ele>718.0</ele><time>2026-05-02T15:44:05.27Z</time></trkpt><trkpt lat="43.8289567" lon="6.467455"><ele>718.0</ele><time>2026-05-02T15:44:06.27Z</time></trkpt><trkpt lat="43.8289417" lon="6.467625"><ele>718.0</ele><time>2026-05-02T15:44:07.27Z</time></trkpt><trkpt lat="43.8289433" lon="6.4678"><ele>718.0</ele><time>2026-05-02T15:44:08.27Z</time></trkpt><trkpt lat="43.8289667" lon="6.4679883"><ele>718.0</ele><time>2026-05-02T15:44:09.27Z</time></trkpt><trkpt lat="43.829015" lon="6.468185"><ele>717.6666666666667</ele><time>2026-05-02T15:44:10.271Z</time></trkpt><trkpt lat="43.8290767" lon="6.4683867"><ele>717.3333333333334</ele><time>2026-05-02T15:44:11.27Z</time></trkpt><trkpt lat="43.829135" lon="6.4685717"><ele>717.0</ele><time>2026-05-02T15:44:12.27Z</time></trkpt><trkpt lat="43.8291733" lon="6.4687683"><ele>718.25</ele><time>2026-05-02T15:44:13.271Z</time></trkpt><trkpt lat="43.82917" lon="6.46896"><ele>719.5</ele><time>2026-05-02T15:44:14.27Z</time></trkpt><trkpt lat="43.82913" lon="6.4691667"><ele>720.75</ele><time>2026-05-02T15:44:15.27Z</time></trkpt><trkpt lat="43.829085" lon="6.4693717"><ele>722.0</ele><time>2026-05-02T15:44:16.27Z</time></trkpt><trkpt lat="43.8290617" lon="6.46957"><ele>721.6666666666666</ele><time>2026-05-02T15:44:17.27Z</time></trkpt><trkpt lat="43.82906" lon="6.469785"><ele>721.3333333333334</ele><time>2026-05-02T15:44:18.27Z</time></trkpt><trkpt lat="43.8290967" lon="6.4699983"><ele>721.0</ele><time>2026-05-02T15:44:19.27Z</time></trkpt><trkpt lat="43.829155" lon="6.4702033"><ele>721.0</ele><time>2026-05-02T15:44:20.27Z</time></trkpt><trkpt lat="43.82923" lon="6.47042"><ele>721.0</ele><time>2026-05-02T15:44:21.27Z</time></trkpt><trkpt lat="43.8293033" lon="6.470635"><ele>721.0</ele><time>2026-05-02T15:44:22.27Z</time></trkpt><trkpt lat="43.82937" lon="6.470835"><ele>722.6666666666667</ele><time>2026-05-02T15:44:23.27Z</time></trkpt><trkpt lat="43.82944" lon="6.471035"><ele>724.3333333333334</ele><time>2026-05-02T15:44:24.27Z</time></trkpt><trkpt lat="43.8295183" lon="6.4712233"><ele>726.0</ele><time>2026-05-02T15:44:25.27Z</time></trkpt><trkpt lat="43.82961" lon="6.471395"><ele>726.0</ele><time>2026-05-02T15:44:26.271Z</time></trkpt><trkpt lat="43.8297317" lon="6.471565"><ele>726.0</ele><time>2026-05-02T15:44:27.27Z</time></trkpt><trkpt lat="43.8298583" lon="6.47171"><ele>726.0</ele><time>2026-05-02T15:44:28.271Z</time></trkpt><trkpt lat="43.8299917" lon="6.47183"><ele>726.0</ele><time>2026-05-02T15:44:29.27Z</time></trkpt><trkpt lat="43.8301033" lon="6.4719467"><ele>726.0</ele><time>2026-05-02T15:44:30.27Z</time></trkpt><trkpt lat="43.8301817" lon="6.472105"><ele>726.0</ele><time>2026-05-02T15:44:31.27Z</time></trkpt><trkpt lat="43.83023" lon="6.4722933"><ele>726.0</ele><time>2026-05-02T15:44:32.27Z</time></trkpt><trkpt lat="43.83029" lon="6.4724883"><ele>727.3333333333334</ele><time>2026-05-02T15:44:33.27Z</time></trkpt><trkpt lat="43.83036" lon="6.472695"><ele>728.6666666666667</ele><time>2026-05-02T15:44:34.27Z</time></trkpt><trkpt lat="43.8304217" lon="6.4729117"><ele>730.0</ele><time>2026-05-02T15:44:35.271Z</time></trkpt><trkpt lat="43.8304833" lon="6.473125"><ele>730.0</ele><time>2026-05-02T15:44:36.27Z</time></trkpt><trkpt lat="43.8305633" lon="6.4733083"><ele>730.0</ele><time>2026-05-02T15:44:37.27Z</time></trkpt><trkpt lat="43.8306683" lon="6.4734483"><ele>730.0</ele><time>2026-05-02T15:44:38.27Z</time></trkpt><trkpt lat="43.8307983" lon="6.47357"><ele>730.0</ele><time>2026-05-02T15:44:39.271Z</time></trkpt><trkpt lat="43.8309283" lon="6.4736733"><ele>730.0</ele><time>2026-05-02T15:44:40.271Z</time></trkpt><trkpt lat="43.8310533" lon="6.4738033"><ele>730.0</ele><time>2026-05-02T15:44:41.27Z</time></trkpt><trkpt lat="43.8311317" lon="6.4739567"><ele>730.0</ele><time>2026-05-02T15:44:42.27Z</time></trkpt><trkpt lat="43.8311983" lon="6.47414"><ele>734.0</ele><time>2026-05-02T15:44:43.27Z</time></trkpt><trkpt lat="43.8312267" lon="6.4743533"><ele>738.0</ele><time>2026-05-02T15:44:44.271Z</time></trkpt><trkpt lat="43.8312433" lon="6.4745783"><ele>742.0</ele><time>2026-05-02T15:44:45.27Z</time></trkpt><trkpt lat="43.8312533" lon="6.4748"><ele>742.0</ele><time>2026-05-02T15:44:46.27Z</time></trkpt><trkpt lat="43.8312683" lon="6.4750283"><ele>742.0</ele><time>2026-05-02T15:44:47.27Z</time></trkpt><trkpt lat="43.8313033" lon="6.4752583"><ele>742.0</ele><time>2026-05-02T15:44:48.27Z</time></trkpt><trkpt lat="43.831345" lon="6.4754767"><ele>739.75</ele><time>2026-05-02T15:44:49.27Z</time></trkpt><trkpt lat="43.8313967" lon="6.4756733"><ele>737.5</ele><time>2026-05-02T15:44:50.27Z</time></trkpt><trkpt lat="43.8314633" lon="6.4758567"><ele>735.25</ele><time>2026-05-02T15:44:51.271Z</time></trkpt><trkpt lat="43.83152" lon="6.4760383"><ele>733.0</ele><time>2026-05-02T15:44:52.27Z</time></trkpt><trkpt lat="43.831565" lon="6.4762367"><ele>731.75</ele><time>2026-05-02T15:44:53.27Z</time></trkpt><trkpt lat="43.8315783" lon="6.4764467"><ele>730.5</ele><time>2026-05-02T15:44:54.27Z</time></trkpt><trkpt lat="43.83158" lon="6.4766533"><ele>729.25</ele><time>2026-05-02T15:44:55.27Z</time></trkpt><trkpt lat="43.8316183" lon="6.4768517"><ele>728.0</ele><time>2026-05-02T15:44:56.27Z</time></trkpt><trkpt lat="43.83167" lon="6.477045"><ele>727.0</ele><time>2026-05-02T15:44:57.27Z</time></trkpt><trkpt lat="43.8317183" lon="6.4772167"><ele>726.0</ele><time>2026-05-02T15:44:58.27Z</time></trkpt><trkpt lat="43.8317733" lon="6.477395"><ele>725.0</ele><time>2026-05-02T15:44:59.27Z</time></trkpt><trkpt lat="43.8318267" lon="6.4775733"><ele>724.0</ele><time>2026-05-02T15:45:00.27Z</time></trkpt><trkpt lat="43.8318767" lon="6.4777633"><ele>732.5</ele><time>2026-05-02T15:45:01.27Z</time></trkpt><trkpt lat="43.8319217" lon="6.47796"><ele>741.0</ele><time>2026-05-02T15:45:02.27Z</time></trkpt><trkpt lat="43.8319633" lon="6.4781517"><ele>749.5</ele><time>2026-05-02T15:45:03.27Z</time></trkpt><trkpt lat="43.832015" lon="6.478345"><ele>758.0</ele><time>2026-05-02T15:45:04.271Z</time></trkpt><trkpt lat="43.83206" lon="6.478515"><ele>758.0</ele><time>2026-05-02T15:45:05.27Z</time></trkpt><trkpt lat="43.8320767" lon="6.4787067"><ele>758.0</ele><time>2026-05-02T15:45:06.27Z</time></trkpt><trkpt lat="43.832065" lon="6.4789017"><ele>758.0</ele><time>2026-05-02T15:45:07.27Z</time></trkpt><trkpt lat="43.8320667" lon="6.4790917"><ele>758.0</ele><time>2026-05-02T15:45:08.27Z</time></trkpt><trkpt lat="43.8321017" lon="6.47929"><ele>755.3333333333333</ele><time>2026-05-02T15:45:09.27Z</time></trkpt><trkpt lat="43.83216" lon="6.4794883"><ele>752.6666666666666</ele><time>2026-05-02T15:45:10.27Z</time></trkpt><trkpt lat="43.8322333" lon="6.4796683"><ele>750.0</ele><time>2026-05-02T15:45:11.27Z</time></trkpt><trkpt lat="43.832325" lon="6.4798483"><ele>745.0</ele><time>2026-05-02T15:45:12.271Z</time></trkpt><trkpt lat="43.8324317" lon="6.4800033"><ele>740.0</ele><time>2026-05-02T15:45:13.27Z</time></trkpt><trkpt lat="43.8325333" lon="6.4801517"><ele>735.0</ele><time>2026-05-02T15:45:14.27Z</time></trkpt><trkpt lat="43.8326167" lon="6.4803217"><ele>740.0</ele><time>2026-05-02T15:45:15.27Z</time></trkpt><trkpt lat="43.8326933" lon="6.48049"><ele>745.0</ele><time>2026-05-02T15:45:16.27Z</time></trkpt><trkpt lat="43.8327633" lon="6.4806667"><ele>750.0</ele><time>2026-05-02T15:45:17.27Z</time></trkpt><trkpt lat="43.8328167" lon="6.4808617"><ele>755.0</ele><time>2026-05-02T15:45:18.27Z</time></trkpt><trkpt lat="43.8328583" lon="6.481065"><ele>753.5</ele><time>2026-05-02T15:45:19.27Z</time></trkpt><trkpt lat="43.83288" lon="6.4812717"><ele>752.0</ele><time>2026-05-02T15:45:20.27Z</time></trkpt><trkpt lat="43.8329167" lon="6.4814633"><ele>750.5</ele><time>2026-05-02T15:45:21.27Z</time></trkpt><trkpt lat="43.8329533" lon="6.4816467"><ele>749.0</ele><time>2026-05-02T15:45:22.27Z</time></trkpt><trkpt lat="43.8330067" lon="6.4818133"><ele>749.0</ele><time>2026-05-02T15:45:23.27Z</time></trkpt><trkpt lat="43.8330667" lon="6.4819633"><ele>749.0</ele><time>2026-05-02T15:45:24.27Z</time></trkpt><trkpt lat="43.8331383" lon="6.4821017"><ele>749.0</ele><time>2026-05-02T15:45:25.27Z</time></trkpt><trkpt lat="43.8332133" lon="6.48223"><ele>749.0</ele><time>2026-05-02T15:45:26.27Z</time></trkpt><trkpt lat="43.8333033" lon="6.4823533"><ele>751.5</ele><time>2026-05-02T15:45:27.27Z</time></trkpt><trkpt lat="43.8334033" lon="6.48246"><ele>754.0</ele><time>2026-05-02T15:45:28.271Z</time></trkpt><trkpt lat="43.8335117" lon="6.482545"><ele>756.5</ele><time>2026-05-02T15:45:29.271Z</time></trkpt><trkpt lat="43.83363" lon="6.4826117"><ele>759.0</ele><time>2026-05-02T15:45:30.27Z</time></trkpt><trkpt lat="43.83376" lon="6.4826767"><ele>759.0</ele><time>2026-05-02T15:45:31.27Z</time></trkpt><trkpt lat="43.8338883" lon="6.48273"><ele>759.0</ele><time>2026-05-02T15:45:32.27Z</time></trkpt><trkpt lat="43.8340167" lon="6.4827833"><ele>759.0</ele><time>2026-05-02T15:45:33.27Z</time></trkpt><trkpt lat="43.8341333" lon="6.4828483"><ele>759.0</ele><time>2026-05-02T15:45:34.27Z</time></trkpt><trkpt lat="43.8342567" lon="6.4829367"><ele>757.5</ele><time>2026-05-02T15:45:35.27Z</time></trkpt><trkpt lat="43.8343683" lon="6.4830467"><ele>756.0</ele><time>2026-05-02T15:45:36.271Z</time></trkpt><trkpt lat="43.834465" lon="6.4831917"><ele>754.5</ele><time>2026-05-02T15:45:37.27Z</time></trkpt><trkpt lat="43.8345567" lon="6.4833533"><ele>753.0</ele><time>2026-05-02T15:45:38.27Z</time></trkpt><trkpt lat="43.8346583" lon="6.4835117"><ele>753.0</ele><time>2026-05-02T15:45:39.27Z</time></trkpt><trkpt lat="43.8347717" lon="6.4836683"><ele>753.0</ele><time>2026-05-02T15:45:40.271Z</time></trkpt><trkpt lat="43.8349033" lon="6.4837983"><ele>753.0</ele><time>2026-05-02T15:45:41.27Z</time></trkpt><trkpt lat="43.8350333" lon="6.4839167"><ele>757.0</ele><time>2026-05-02T15:45:42.271Z</time></trkpt><trkpt lat="43.8351533" lon="6.48405"><ele>761.0</ele><time>2026-05-02T15:45:43.27Z</time></trkpt><trkpt lat="43.83525" lon="6.484215"><ele>765.0</ele><time>2026-05-02T15:45:44.27Z</time></trkpt><trkpt lat="43.835335" lon="6.4844083"><ele>761.3333333333334</ele><time>2026-05-02T15:45:45.27Z</time></trkpt><trkpt lat="43.8353983" lon="6.4846217"><ele>757.6666666666667</ele><time>2026-05-02T15:45:46.27Z</time></trkpt><trkpt lat="43.83544" lon="6.4848533"><ele>754.0</ele><time>2026-05-02T15:45:47.27Z</time></trkpt><trkpt lat="43.8354733" lon="6.48507"><ele>754.0</ele><time>2026-05-02T15:45:48.27Z</time></trkpt><trkpt lat="43.83551" lon="6.4852717"><ele>754.0</ele><time>2026-05-02T15:45:49.27Z</time></trkpt><trkpt lat="43.8355483" lon="6.48546"><ele>754.0</ele><time>2026-05-02T15:45:50.27Z</time></trkpt><trkpt lat="43.83556" lon="6.48564"><ele>754.0</ele><time>2026-05-02T15:45:51.27Z</time></trkpt><trkpt lat="43.8355433" lon="6.4858017"><ele>753.25</ele><time>2026-05-02T15:45:52.27Z</time></trkpt><trkpt lat="43.835485" lon="6.4859333"><ele>752.5</ele><time>2026-05-02T15:45:53.27Z</time></trkpt><trkpt lat="43.8353967" lon="6.48603"><ele>751.75</ele><time>2026-05-02T15:45:54.27Z</time></trkpt><trkpt lat="43.8352983" lon="6.4861267"><ele>751.0</ele><time>2026-05-02T15:45:55.27Z</time></trkpt><trkpt lat="43.8352217" lon="6.4862617"><ele>754.5</ele><time>2026-05-02T15:45:56.27Z</time></trkpt><trkpt lat="43.8351667" lon="6.4864033"><ele>758.0</ele><time>2026-05-02T15:45:57.271Z</time></trkpt><trkpt lat="43.8351317" lon="6.4865717"><ele>761.5</ele><time>2026-05-02T15:45:58.27Z</time></trkpt><trkpt lat="43.8350867" lon="6.4867483"><ele>765.0</ele><time>2026-05-02T15:45:59.271Z</time></trkpt><trkpt lat="43.835055" lon="6.4869233"><ele>755.75</ele><time>2026-05-02T15:46:00.271Z</time></trkpt><trkpt lat="43.8350333" lon="6.487095"><ele>746.5</ele><time>2026-05-02T15:46:01.27Z</time></trkpt><trkpt lat="43.8350367" lon="6.4872667"><ele>737.25</ele><time>2026-05-02T15:46:02.27Z</time></trkpt><trkpt lat="43.8350567" lon="6.4874517"><ele>728.0</ele><time>2026-05-02T15:46:03.27Z</time></trkpt><trkpt lat="43.8351083" lon="6.48766"><ele>734.6666666666666</ele><time>2026-05-02T15:46:04.27Z</time></trkpt><trkpt lat="43.8351733" lon="6.4878683"><ele>741.3333333333334</ele><time>2026-05-02T15:46:05.27Z</time></trkpt><trkpt lat="43.835215" lon="6.48807"><ele>748.0</ele><time>2026-05-02T15:46:06.27Z</time></trkpt><trkpt lat="43.835255" lon="6.4882767"><ele>748.0</ele><time>2026-05-02T15:46:07.27Z</time></trkpt><trkpt lat="43.835295" lon="6.4884833"><ele>748.0</ele><time>2026-05-02T15:46:08.271Z</time></trkpt><trkpt lat="43.8353367" lon="6.4886917"><ele>748.0</ele><time>2026-05-02T15:46:09.27Z</time></trkpt><trkpt lat="43.8353833" lon="6.4888817"><ele>745.8</ele><time>2026-05-02T15:46:10.271Z</time></trkpt><trkpt lat="43.8354283" lon="6.489055"><ele>743.5999999999999</ele><time>2026-05-02T15:46:11.27Z</time></trkpt><trkpt lat="43.8354583" lon="6.4892033"><ele>741.4000000000001</ele><time>2026-05-02T15:46:12.27Z</time></trkpt><trkpt lat="43.8354567" lon="6.4893317"><ele>739.2</ele><time>2026-05-02T15:46:13.27Z</time></trkpt><trkpt lat="43.83542" lon="6.489465"><ele>737.0</ele><time>2026-05-02T15:46:14.27Z</time></trkpt><trkpt lat="43.835345" lon="6.4895883"><ele>738.4000000000001</ele><time>2026-05-02T15:46:15.27Z</time></trkpt><trkpt lat="43.8352483" lon="6.48969"><ele>739.8000000000001</ele><time>2026-05-02T15:46:16.27Z</time></trkpt><trkpt lat="43.8351567" lon="6.4897867"><ele>741.2</ele><time>2026-05-02T15:46:17.27Z</time></trkpt><trkpt lat="43.8350683" lon="6.4898767"><ele>742.6</ele><time>2026-05-02T15:46:18.27Z</time></trkpt><trkpt lat="43.834995" lon="6.4899683"><ele>744.0</ele><time>2026-05-02T15:46:19.27Z</time></trkpt><trkpt lat="43.8349517" lon="6.4900833"><ele>740.5</ele><time>2026-05-02T15:46:20.27Z</time></trkpt><trkpt lat="43.83495" lon="6.4902333"><ele>737.0</ele><time>2026-05-02T15:46:21.271Z</time></trkpt><trkpt lat="43.834965" lon="6.4904"><ele>733.5</ele><time>2026-05-02T15:46:22.271Z</time></trkpt><trkpt lat="43.8350067" lon="6.4905667"><ele>730.0</ele><time>2026-05-02T15:46:23.27Z</time></trkpt><trkpt lat="43.8350567" lon="6.4907483"><ele>729.75</ele><time>2026-05-02T15:46:24.271Z</time></trkpt><trkpt lat="43.835105" lon="6.490935"><ele>729.5</ele><time>2026-05-02T15:46:25.271Z</time></trkpt><trkpt lat="43.835145" lon="6.49112"><ele>729.25</ele><time>2026-05-02T15:46:26.27Z</time></trkpt><trkpt lat="43.8351783" lon="6.4912983"><ele>729.0</ele><time>2026-05-02T15:46:27.27Z</time></trkpt><trkpt lat="43.8351967" lon="6.4914633"><ele>729.25</ele><time>2026-05-02T15:46:28.27Z</time></trkpt><trkpt lat="43.8351967" lon="6.4916267"><ele>729.5</ele><time>2026-05-02T15:46:29.27Z</time></trkpt><trkpt lat="43.8351617" lon="6.4917767"><ele>729.75</ele><time>2026-05-02T15:46:30.27Z</time></trkpt><trkpt lat="43.8351" lon="6.4919183"><ele>730.0</ele><time>2026-05-02T15:46:31.27Z</time></trkpt><trkpt lat="43.8350333" lon="6.492055"><ele>731.5</ele><time>2026-05-02T15:46:32.27Z</time></trkpt><trkpt lat="43.834965" lon="6.4922033"><ele>733.0</ele><time>2026-05-02T15:46:33.27Z</time></trkpt><trkpt lat="43.8349133" lon="6.4923667"><ele>734.5</ele><time>2026-05-02T15:46:34.27Z</time></trkpt><trkpt lat="43.83487" lon="6.4925267"><ele>736.0</ele><time>2026-05-02T15:46:35.27Z</time></trkpt><trkpt lat="43.8348217" lon="6.4926867"><ele>736.0</ele><time>2026-05-02T15:46:36.27Z</time></trkpt><trkpt lat="43.83479" lon="6.4928317"><ele>736.0</ele><time>2026-05-02T15:46:37.27Z</time></trkpt><trkpt lat="43.8347733" lon="6.4929717"><ele>736.0</ele><time>2026-05-02T15:46:38.27Z</time></trkpt><trkpt lat="43.8347917" lon="6.4931267"><ele>736.0</ele><time>2026-05-02T15:46:39.27Z</time></trkpt><trkpt lat="43.834835" lon="6.4932483"><ele>736.0</ele><time>2026-05-02T15:46:40.27Z</time></trkpt><trkpt lat="43.8349133" lon="6.4933333"><ele>735.0</ele><time>2026-05-02T15:46:41.27Z</time></trkpt><trkpt lat="43.8350233" lon="6.4934"><ele>734.0</ele><time>2026-05-02T15:46:42.27Z</time></trkpt><trkpt lat="43.8351633" lon="6.4934433"><ele>733.0</ele><time>2026-05-02T15:46:43.27Z</time></trkpt><trkpt lat="43.8353017" lon="6.4934617"><ele>732.0</ele><time>2026-05-02T15:46:44.27Z</time></trkpt><trkpt lat="43.8354417" lon="6.4934483"><ele>732.0</ele><time>2026-05-02T15:46:45.27Z</time></trkpt><trkpt lat="43.8355767" lon="6.49339"><ele>732.0</ele><time>2026-05-02T15:46:46.27Z</time></trkpt><trkpt lat="43.8357067" lon="6.4933183"><ele>732.0</ele><time>2026-05-02T15:46:47.27Z</time></trkpt><trkpt lat="43.83583" lon="6.493245"><ele>732.0</ele><time>2026-05-02T15:46:48.27Z</time></trkpt><trkpt lat="43.8359517" lon="6.4931667"><ele>729.25</ele><time>2026-05-02T15:46:49.27Z</time></trkpt><trkpt lat="43.836055" lon="6.49307"><ele>726.5</ele><time>2026-05-02T15:46:50.271Z</time></trkpt><trkpt lat="43.8361633" lon="6.49297"><ele>723.75</ele><time>2026-05-02T15:46:51.27Z</time></trkpt><trkpt lat="43.8362867" lon="6.4929033"><ele>721.0</ele><time>2026-05-02T15:46:52.27Z</time></trkpt><trkpt lat="43.836435" lon="6.4928867"><ele>721.0</ele><time>2026-05-02T15:46:53.27Z</time></trkpt><trkpt lat="43.8365867" lon="6.4929217"><ele>721.0</ele><time>2026-05-02T15:46:54.27Z</time></trkpt><trkpt lat="43.8367267" lon="6.4929717"><ele>721.0</ele><time>2026-05-02T15:46:55.27Z</time></trkpt><trkpt lat="43.8368667" lon="6.4930167"><ele>721.0</ele><time>2026-05-02T15:46:56.27Z</time></trkpt><trkpt lat="43.8370083" lon="6.4930717"><ele>724.75</ele><time>2026-05-02T15:46:57.27Z</time></trkpt><trkpt lat="43.8371383" lon="6.493135"><ele>728.5</ele><time>2026-05-02T15:46:58.27Z</time></trkpt><trkpt lat="43.83727" lon="6.493215"><ele>732.25</ele><time>2026-05-02T15:46:59.271Z</time></trkpt><trkpt lat="43.8374017" lon="6.493325"><ele>736.0</ele><time>2026-05-02T15:47:00.27Z</time></trkpt><trkpt lat="43.8375183" lon="6.4934533"><ele>735.0</ele><time>2026-05-02T15:47:01.27Z</time></trkpt><trkpt lat="43.83764" lon="6.4935983"><ele>734.0</ele><time>2026-05-02T15:47:02.27Z</time></trkpt><trkpt lat="43.8377483" lon="6.4937483"><ele>733.0</ele><time>2026-05-02T15:47:03.27Z</time></trkpt><trkpt lat="43.83785" lon="6.493895"><ele>730.0</ele><time>2026-05-02T15:47:04.27Z</time></trkpt><trkpt lat="43.8379367" lon="6.49402"><ele>727.0</ele><time>2026-05-02T15:47:05.27Z</time></trkpt><trkpt lat="43.8380267" lon="6.4940767"><ele>724.0</ele><time>2026-05-02T15:47:06.27Z</time></trkpt><trkpt lat="43.8381267" lon="6.4940733"><ele>721.0</ele><time>2026-05-02T15:47:07.27Z</time></trkpt><trkpt lat="43.8382217" lon="6.4940133"><ele>718.0</ele><time>2026-05-02T15:47:08.27Z</time></trkpt><trkpt lat="43.8383" lon="6.4938967"><ele>718.0</ele><time>2026-05-02T15:47:09.27Z</time></trkpt><trkpt lat="43.8383633" lon="6.4937633"><ele>718.0</ele><time>2026-05-02T15:47:10.27Z</time></trkpt><trkpt lat="43.8384517" lon="6.4936467"><ele>718.0</ele><time>2026-05-02T15:47:11.271Z</time></trkpt><trkpt lat="43.8385617" lon="6.4935667"><ele>718.0</ele><time>2026-05-02T15:47:12.27Z</time></trkpt><trkpt lat="43.83867" lon="6.493505"><ele>719.75</ele><time>2026-05-02T15:47:13.27Z</time></trkpt><trkpt lat="43.8387817" lon="6.4934783"><ele>721.5</ele><time>2026-05-02T15:47:14.27Z</time></trkpt><trkpt lat="43.83889" lon="6.4934883"><ele>723.25</ele><time>2026-05-02T15:47:15.27Z</time></trkpt><trkpt lat="43.8389933" lon="6.4935283"><ele>725.0</ele><time>2026-05-02T15:47:16.27Z</time></trkpt><trkpt lat="43.8391033" lon="6.4935967"><ele>725.0</ele><time>2026-05-02T15:47:17.27Z</time></trkpt><trkpt lat="43.839215" lon="6.4936617"><ele>725.0</ele><time>2026-05-02T15:47:18.27Z</time></trkpt><trkpt lat="43.8393183" lon="6.4937283"><ele>725.0</ele><time>2026-05-02T15:47:19.27Z</time></trkpt><trkpt lat="43.8394267" lon="6.4938083"><ele>725.0</ele><time>2026-05-02T15:47:20.27Z</time></trkpt><trkpt lat="43.839535" lon="6.4939"><ele>725.0</ele><time>2026-05-02T15:47:21.27Z</time></trkpt><trkpt lat="43.83964" lon="6.4940217"><ele>725.0</ele><time>2026-05-02T15:47:22.27Z</time></trkpt><trkpt lat="43.8397367" lon="6.4941517"><ele>725.0</ele><time>2026-05-02T15:47:23.271Z</time></trkpt><trkpt lat="43.8398383" lon="6.4942667"><ele>725.0</ele><time>2026-05-02T15:47:24.27Z</time></trkpt><trkpt lat="43.839945" lon="6.49436"><ele>725.0</ele><time>2026-05-02T15:47:25.271Z</time></trkpt><trkpt lat="43.8400567" lon="6.4944533"><ele>725.0</ele><time>2026-05-02T15:47:26.27Z</time></trkpt><trkpt lat="43.840165" lon="6.4945517"><ele>725.0</ele><time>2026-05-02T15:47:27.27Z</time></trkpt><trkpt lat="43.8402633" lon="6.4946517"><ele>725.0</ele><time>2026-05-02T15:47:28.27Z</time></trkpt><trkpt lat="43.84036" lon="6.4947683"><ele>725.5</ele><time>2026-05-02T15:47:29.27Z</time></trkpt><trkpt lat="43.84046" lon="6.494875"><ele>726.0</ele><time>2026-05-02T15:47:30.271Z</time></trkpt><trkpt lat="43.8405483" lon="6.4949833"><ele>726.5</ele><time>2026-05-02T15:47:31.271Z</time></trkpt><trkpt lat="43.8406433" lon="6.4950817"><ele>727.0</ele><time>2026-05-02T15:47:32.271Z</time></trkpt><trkpt lat="43.840745" lon="6.4951833"><ele>727.0</ele><time>2026-05-02T15:47:33.27Z</time></trkpt><trkpt lat="43.8408467" lon="6.4952917"><ele>727.0</ele><time>2026-05-02T15:47:34.27Z</time></trkpt><trkpt lat="43.8409467" lon="6.4953933"><ele>727.0</ele><time>2026-05-02T15:47:35.27Z</time></trkpt><trkpt lat="43.8410417" lon="6.4954883"><ele>727.0</ele><time>2026-05-02T15:47:36.27Z</time></trkpt><trkpt lat="43.8411467" lon="6.4955883"><ele>726.25</ele><time>2026-05-02T15:47:37.27Z</time></trkpt><trkpt lat="43.841255" lon="6.495685"><ele>725.5</ele><time>2026-05-02T15:47:38.27Z</time></trkpt><trkpt lat="43.8413617" lon="6.4957833"><ele>724.75</ele><time>2026-05-02T15:47:39.27Z</time></trkpt><trkpt lat="43.8414617" lon="6.4958817"><ele>724.0</ele><time>2026-05-02T15:47:40.27Z</time></trkpt><trkpt lat="43.8415533" lon="6.4959817"><ele>724.0</ele><time>2026-05-02T15:47:41.27Z</time></trkpt><trkpt lat="43.8416417" lon="6.496095"><ele>724.0</ele><time>2026-05-02T15:47:42.27Z</time></trkpt><trkpt lat="43.8417367" lon="6.4962033"><ele>724.0</ele><time>2026-05-02T15:47:43.27Z</time></trkpt><trkpt lat="43.8418217" lon="6.4963467"><ele>724.0</ele><time>2026-05-02T15:47:44.27Z</time></trkpt><trkpt lat="43.841895" lon="6.4964833"><ele>726.5</ele><time>2026-05-02T15:47:45.271Z</time></trkpt><trkpt lat="43.84196" lon="6.4966533"><ele>729.0</ele><time>2026-05-02T15:47:46.27Z</time></trkpt><trkpt lat="43.8420233" lon="6.496815"><ele>731.5</ele><time>2026-05-02T15:47:47.27Z</time></trkpt><trkpt lat="43.842085" lon="6.4969833"><ele>734.0</ele><time>2026-05-02T15:47:48.27Z</time></trkpt><trkpt lat="43.84214" lon="6.4971483"><ele>734.0</ele><time>2026-05-02T15:47:49.27Z</time></trkpt><trkpt lat="43.8422217" lon="6.4973033"><ele>734.0</ele><time>2026-05-02T15:47:50.27Z</time></trkpt><trkpt lat="43.84229" lon="6.4974617"><ele>734.0</ele><time>2026-05-02T15:47:51.27Z</time></trkpt><trkpt lat="43.8423667" lon="6.4976233"><ele>734.0</ele><time>2026-05-02T15:47:52.27Z</time></trkpt><trkpt lat="43.842445" lon="6.49778"><ele>730.5</ele><time>2026-05-02T15:47:53.27Z</time></trkpt><trkpt lat="43.8425317" lon="6.4979383"><ele>727.0</ele><time>2026-05-02T15:47:54.271Z</time></trkpt><trkpt lat="43.8426133" lon="6.4980967"><ele>723.5</ele><time>2026-05-02T15:47:55.27Z</time></trkpt><trkpt lat="43.842695" lon="6.498255"><ele>720.0</ele><time>2026-05-02T15:47:56.27Z</time></trkpt><trkpt lat="43.842775" lon="6.4984117"><ele>725.75</ele><time>2026-05-02T15:47:57.271Z</time></trkpt><trkpt lat="43.842845" lon="6.4985583"><ele>731.5</ele><time>2026-05-02T15:47:58.27Z</time></trkpt><trkpt lat="43.84292" lon="6.4987283"><ele>737.25</ele><time>2026-05-02T15:47:59.271Z</time></trkpt><trkpt lat="43.84297" lon="6.4988933"><ele>743.0</ele><time>2026-05-02T15:48:00.27Z</time></trkpt><trkpt lat="43.8430117" lon="6.4990817"><ele>743.0</ele><time>2026-05-02T15:48:01.27Z</time></trkpt><trkpt lat="43.8430317" lon="6.4992667"><ele>743.0</ele><time>2026-05-02T15:48:02.27Z</time></trkpt><trkpt lat="43.843045" lon="6.4994633"><ele>743.0</ele><time>2026-05-02T15:48:03.27Z</time></trkpt><trkpt lat="43.843055" lon="6.4996483"><ele>743.0</ele><time>2026-05-02T15:48:04.27Z</time></trkpt><trkpt lat="43.8430783" lon="6.4998383"><ele>740.5</ele><time>2026-05-02T15:48:05.27Z</time></trkpt><trkpt lat="43.8431" lon="6.50004"><ele>738.0</ele><time>2026-05-02T15:48:06.271Z</time></trkpt><trkpt lat="43.8431267" lon="6.5002283"><ele>735.5</ele><time>2026-05-02T15:48:07.27Z</time></trkpt><trkpt lat="43.84318" lon="6.500415"><ele>733.0</ele><time>2026-05-02T15:48:08.27Z</time></trkpt><trkpt lat="43.843245" lon="6.500605"><ele>730.0</ele><time>2026-05-02T15:48:09.27Z</time></trkpt><trkpt lat="43.8433317" lon="6.50079"><ele>727.0</ele><time>2026-05-02T15:48:10.27Z</time></trkpt><trkpt lat="43.8434217" lon="6.50097"><ele>724.0</ele><time>2026-05-02T15:48:11.27Z</time></trkpt><trkpt lat="43.8435167" lon="6.5011533"><ele>725.0</ele><time>2026-05-02T15:48:12.27Z</time></trkpt><trkpt lat="43.843615" lon="6.501345"><ele>726.0</ele><time>2026-05-02T15:48:13.27Z</time></trkpt><trkpt lat="43.84371" lon="6.50152"><ele>727.0</ele><time>2026-05-02T15:48:14.27Z</time></trkpt><trkpt lat="43.8438067" lon="6.5017"><ele>727.0</ele><time>2026-05-02T15:48:15.27Z</time></trkpt><trkpt lat="43.8438917" lon="6.5018783"><ele>727.0</ele><time>2026-05-02T15:48:16.27Z</time></trkpt><trkpt lat="43.843975" lon="6.502055"><ele>727.0</ele><time>2026-05-02T15:48:17.27Z</time></trkpt><trkpt lat="43.844065" lon="6.5022283"><ele>727.0</ele><time>2026-05-02T15:48:18.271Z</time></trkpt><trkpt lat="43.8441533" lon="6.5023967"><ele>727.0</ele><time>2026-05-02T15:48:19.271Z</time></trkpt><trkpt lat="43.8442333" lon="6.5025583"><ele>727.0</ele><time>2026-05-02T15:48:20.271Z</time></trkpt><trkpt lat="43.844315" lon="6.5027133"><ele>727.0</ele><time>2026-05-02T15:48:21.27Z</time></trkpt><trkpt lat="43.844395" lon="6.5028617"><ele>726.25</ele><time>2026-05-02T15:48:22.27Z</time></trkpt><trkpt lat="43.844475" lon="6.503005"><ele>725.5</ele><time>2026-05-02T15:48:23.27Z</time></trkpt><trkpt lat="43.844545" lon="6.5031533"><ele>724.75</ele><time>2026-05-02T15:48:24.271Z</time></trkpt><trkpt lat="43.844605" lon="6.5033017"><ele>724.0</ele><time>2026-05-02T15:48:25.27Z</time></trkpt><trkpt lat="43.8446717" lon="6.5034617"><ele>724.0</ele><time>2026-05-02T15:48:26.27Z</time></trkpt><trkpt lat="43.8447283" lon="6.5036117"><ele>724.0</ele><time>2026-05-02T15:48:27.271Z</time></trkpt><trkpt lat="43.8447867" lon="6.5037617"><ele>724.0</ele><time>2026-05-02T15:48:28.27Z</time></trkpt><trkpt lat="43.8448483" lon="6.503925"><ele>724.0</ele><time>2026-05-02T15:48:29.27Z</time></trkpt><trkpt lat="43.844915" lon="6.5041"><ele>724.25</ele><time>2026-05-02T15:48:30.27Z</time></trkpt><trkpt lat="43.8449817" lon="6.5042683"><ele>724.5</ele><time>2026-05-02T15:48:31.27Z</time></trkpt><trkpt lat="43.8450483" lon="6.5044317"><ele>724.75</ele><time>2026-05-02T15:48:32.27Z</time></trkpt><trkpt lat="43.845115" lon="6.5045983"><ele>725.0</ele><time>2026-05-02T15:48:33.271Z</time></trkpt><trkpt lat="43.8451733" lon="6.5047617"><ele>724.25</ele><time>2026-05-02T15:48:34.27Z</time></trkpt><trkpt lat="43.8452317" lon="6.5049217"><ele>723.5</ele><time>2026-05-02T15:48:35.27Z</time></trkpt><trkpt lat="43.8452917" lon="6.5050883"><ele>722.75</ele><time>2026-05-02T15:48:36.27Z</time></trkpt><trkpt lat="43.84535" lon="6.5052433"><ele>722.0</ele><time>2026-05-02T15:48:37.27Z</time></trkpt><trkpt lat="43.8454067" lon="6.505405"><ele>722.0</ele><time>2026-05-02T15:48:38.27Z</time></trkpt><trkpt lat="43.8454683" lon="6.5055617"><ele>722.0</ele><time>2026-05-02T15:48:39.27Z</time></trkpt><trkpt lat="43.84552" lon="6.5057333"><ele>722.0</ele><time>2026-05-02T15:48:40.27Z</time></trkpt><trkpt lat="43.8455683" lon="6.505905"><ele>722.0</ele><time>2026-05-02T15:48:41.27Z</time></trkpt><trkpt lat="43.845615" lon="6.5060883"><ele>722.0</ele><time>2026-05-02T15:48:42.27Z</time></trkpt><trkpt lat="43.8456633" lon="6.5062683"><ele>722.0</ele><time>2026-05-02T15:48:43.27Z</time></trkpt><trkpt lat="43.845705" lon="6.506445"><ele>722.0</ele><time>2026-05-02T15:48:44.27Z</time></trkpt><trkpt lat="43.8457433" lon="6.50663"><ele>722.0</ele><time>2026-05-02T15:48:45.27Z</time></trkpt><trkpt lat="43.845785" lon="6.5068083"><ele>722.0</ele><time>2026-05-02T15:48:46.27Z</time></trkpt><trkpt lat="43.8458283" lon="6.5069783"><ele>722.0</ele><time>2026-05-02T15:48:47.27Z</time></trkpt><trkpt lat="43.8458683" lon="6.5071467"><ele>722.0</ele><time>2026-05-02T15:48:48.271Z</time></trkpt><trkpt lat="43.8459083" lon="6.5073167"><ele>722.0</ele><time>2026-05-02T15:48:49.27Z</time></trkpt><trkpt lat="43.84595" lon="6.50748"><ele>722.0</ele><time>2026-05-02T15:48:50.27Z</time></trkpt><trkpt lat="43.8459967" lon="6.5076383"><ele>722.0</ele><time>2026-05-02T15:48:51.27Z</time></trkpt><trkpt lat="43.8460367" lon="6.5078033"><ele>722.0</ele><time>2026-05-02T15:48:52.271Z</time></trkpt><trkpt lat="43.84608" lon="6.507965"><ele>722.0</ele><time>2026-05-02T15:48:53.27Z</time></trkpt><trkpt lat="43.8461133" lon="6.508125"><ele>722.0</ele><time>2026-05-02T15:48:54.27Z</time></trkpt><trkpt lat="43.846145" lon="6.5082783"><ele>722.0</ele><time>2026-05-02T15:48:55.27Z</time></trkpt><trkpt lat="43.8461767" lon="6.5084267"><ele>722.0</ele><time>2026-05-02T15:48:56.27Z</time></trkpt><trkpt lat="43.8462083" lon="6.508575"><ele>722.0</ele><time>2026-05-02T15:48:57.27Z</time></trkpt><trkpt lat="43.8462233" lon="6.5087283"><ele>722.5</ele><time>2026-05-02T15:48:58.27Z</time></trkpt><trkpt lat="43.8462267" lon="6.50889"><ele>723.0</ele><time>2026-05-02T15:48:59.27Z</time></trkpt><trkpt lat="43.8462233" lon="6.50906"><ele>723.5</ele><time>2026-05-02T15:49:00.27Z</time></trkpt><trkpt lat="43.846215" lon="6.5092217"><ele>724.0</ele><time>2026-05-02T15:49:01.27Z</time></trkpt><trkpt lat="43.8462033" lon="6.5093917"><ele>724.0</ele><time>2026-05-02T15:49:02.27Z</time></trkpt><trkpt lat="43.8461933" lon="6.5095483"><ele>724.0</ele><time>2026-05-02T15:49:03.27Z</time></trkpt><trkpt lat="43.846185" lon="6.5096967"><ele>724.0</ele><time>2026-05-02T15:49:04.27Z</time></trkpt><trkpt lat="43.8461833" lon="6.5098367"><ele>724.0</ele><time>2026-05-02T15:49:05.27Z</time></trkpt><trkpt lat="43.8461783" lon="6.5099783"><ele>724.0</ele><time>2026-05-02T15:49:06.269Z</time></trkpt><trkpt lat="43.8461767" lon="6.5101133"><ele>723.75</ele><time>2026-05-02T15:49:07.269Z</time></trkpt><trkpt lat="43.84617" lon="6.5102767"><ele>723.5</ele><time>2026-05-02T15:49:08.269Z</time></trkpt><trkpt lat="43.8461667" lon="6.5104333"><ele>723.25</ele><time>2026-05-02T15:49:09.269Z</time></trkpt><trkpt lat="43.84616" lon="6.510605"><ele>723.0</ele><time>2026-05-02T15:49:10.27Z</time></trkpt><trkpt lat="43.8461517" lon="6.5107633"><ele>723.0</ele><time>2026-05-02T15:49:11.27Z</time></trkpt><trkpt lat="43.8461467" lon="6.5109183"><ele>723.0</ele><time>2026-05-02T15:49:12.269Z</time></trkpt><trkpt lat="43.8461467" lon="6.5110583"><ele>723.0</ele><time>2026-05-02T15:49:13.269Z</time></trkpt><trkpt lat="43.8461433" lon="6.511185"><ele>723.0</ele><time>2026-05-02T15:49:14.269Z</time></trkpt><trkpt lat="43.846135" lon="6.5113083"><ele>723.0</ele><time>2026-05-02T15:49:15.269Z</time></trkpt><trkpt lat="43.8461283" lon="6.5114233"><ele>723.3333333333334</ele><time>2026-05-02T15:49:16.27Z</time></trkpt><trkpt lat="43.8461217" lon="6.51153"><ele>723.6666666666666</ele><time>2026-05-02T15:49:17.269Z</time></trkpt><trkpt lat="43.846115" lon="6.5116317"><ele>724.0</ele><time>2026-05-02T15:49:18.269Z</time></trkpt><trkpt lat="43.8461133" lon="6.5117883"><ele>724.3333333333333</ele><time>2026-05-02T15:49:20.269Z</time></trkpt><trkpt lat="43.8461033" lon="6.5119167"><ele>724.6666666666666</ele><time>2026-05-02T15:49:22.269Z</time></trkpt><trkpt lat="43.8460983" lon="6.5120183"><ele>725.0</ele><time>2026-05-02T15:49:24.269Z</time></trkpt><trkpt lat="43.8460917" lon="6.5121417"><ele>725.3333333333333</ele><time>2026-05-02T15:49:27.269Z</time></trkpt><trkpt lat="43.84609" lon="6.5122367"><ele>725.6666666666666</ele><time>2026-05-02T15:49:29.269Z</time></trkpt><trkpt lat="43.8460833" lon="6.51235"><ele>726.0</ele><time>2026-05-02T15:49:31.269Z</time></trkpt><trkpt lat="43.8460767" lon="6.5124567"><ele>726.3333333333334</ele><time>2026-05-02T15:49:33.27Z</time></trkpt><trkpt lat="43.8460867" lon="6.5125517"><ele>726.6666666666667</ele><time>2026-05-02T15:49:36.269Z</time></trkpt><trkpt lat="43.8461667" lon="6.5125417"><ele>727.0</ele><time>2026-05-02T15:49:39.27Z</time></trkpt><trkpt lat="43.846245" lon="6.5125867"><ele>727.0</ele><time>2026-05-02T15:49:42.27Z</time></trkpt><trkpt lat="43.846315" lon="6.51261"><ele>727.0</ele><time>2026-05-02T15:49:45.269Z</time></trkpt><trkpt lat="43.846395" lon="6.512625"><ele>727.0</ele><time>2026-05-02T15:50:14.269Z</time></trkpt><trkpt lat="43.8465017" lon="6.51269"><ele>727.0</ele><time>2026-05-02T16:15:01.27Z</time></trkpt><trkpt lat="43.846555" lon="6.5125833"><ele>727.0</ele><time>2026-05-02T16:54:52.272Z</time></trkpt><trkpt lat="43.8466133" lon="6.5125383"><ele>727.0</ele><time>2026-05-02T16:55:00.272Z</time></trkpt><trkpt lat="43.846669" lon="6.5124873"><ele>727.0</ele><time>2026-05-02T16:55:10.272Z</time></trkpt><trkpt lat="43.8467651" lon="6.5124342"><ele>727.0</ele><time>2026-05-02T16:55:23.272Z</time></trkpt><trkpt lat="43.8468246" lon="6.5123825"><ele>727.0</ele><time>2026-05-02T16:55:28.272Z</time></trkpt><trkpt lat="43.8468816" lon="6.5123007"><ele>727.0</ele><time>2026-05-02T16:55:35.272Z</time></trkpt><trkpt lat="43.8469312" lon="6.5122392"><ele>727.0</ele><time>2026-05-02T16:55:39.272Z</time></trkpt><trkpt lat="43.8470066" lon="6.5121988"><ele>727.0</ele><time>2026-05-02T16:55:45.272Z</time></trkpt><trkpt lat="43.8470702" lon="6.5121643"><ele>727.4000000000001</ele><time>2026-05-02T16:55:50.272Z</time></trkpt><trkpt lat="43.8471386" lon="6.5121208"><ele>727.8000000000001</ele><time>2026-05-02T16:56:10.273Z</time></trkpt><trkpt lat="43.8472495" lon="6.5121032"><ele>728.2</ele><time>2026-05-02T16:56:23.272Z</time></trkpt><trkpt lat="43.8473127" lon="6.5119932"><ele>728.6</ele><time>2026-05-02T16:57:00.273Z</time></trkpt><trkpt lat="43.8473" lon="6.5117917"><ele>729.0</ele><time>2026-05-02T17:04:39.273Z</time></trkpt><trkpt lat="43.847415" lon="6.5119333"><ele>729.0</ele><time>2026-05-02T17:52:42.276Z</time></trkpt><trkpt lat="43.8473694" lon="6.5120106"><ele>729.0</ele><time>2026-05-02T17:52:47.275Z</time></trkpt><trkpt lat="43.8473091" lon="6.5120369"><ele>729.0</ele><time>2026-05-02T17:52:51.275Z</time></trkpt><trkpt lat="43.8472368" lon="6.5120428"><ele>729.0</ele><time>2026-05-02T17:52:58.275Z</time></trkpt><trkpt lat="43.8471111" lon="6.5120648"><ele>729.0</ele><time>2026-05-02T17:53:16.275Z</time></trkpt><trkpt lat="43.8470575" lon="6.5121496"><ele>729.0</ele><time>2026-05-02T17:53:22.275Z</time></trkpt><trkpt lat="43.8470052" lon="6.5122158"><ele>728.6666666666666</ele><time>2026-05-02T17:53:27.275Z</time></trkpt><trkpt lat="43.8469632" lon="6.5123081"><ele>728.3333333333334</ele><time>2026-05-02T17:53:35.275Z</time></trkpt><trkpt lat="43.8469316" lon="6.5123852"><ele>728.0</ele><time>2026-05-02T17:53:38.275Z</time></trkpt><trkpt lat="43.8468785" lon="6.5124577"><ele>727.6666666666667</ele><time>2026-05-02T17:53:42.275Z</time></trkpt><trkpt lat="43.8467895" lon="6.5125187"><ele>727.3333333333334</ele><time>2026-05-02T17:53:53.275Z</time></trkpt><trkpt lat="43.8467155" lon="6.5125686"><ele>727.0</ele><time>2026-05-02T17:53:57.275Z</time></trkpt><trkpt lat="43.8466537" lon="6.512601"><ele>727.0</ele><time>2026-05-02T17:54:02.275Z</time></trkpt><trkpt lat="43.8465896" lon="6.5126385"><ele>727.0</ele><time>2026-05-02T17:54:29.275Z</time></trkpt><trkpt lat="43.8465012" lon="6.5126646"><ele>727.0</ele><time>2026-05-02T18:02:18.275Z</time></trkpt><trkpt lat="43.8465567" lon="6.51262"><ele>727.0</ele><time>2026-05-02T18:02:21.275Z</time></trkpt><trkpt lat="43.8466383" lon="6.512545"><ele>727.0</ele><time>2026-05-02T18:02:23.275Z</time></trkpt><trkpt lat="43.8467383" lon="6.5124483"><ele>727.0</ele><time>2026-05-02T18:02:25.275Z</time></trkpt><trkpt lat="43.84679" lon="6.5123983"><ele>727.3333333333334</ele><time>2026-05-02T18:02:26.276Z</time></trkpt><trkpt lat="43.8468483" lon="6.51236"><ele>727.6666666666667</ele><time>2026-05-02T18:02:27.275Z</time></trkpt><trkpt lat="43.8469033" lon="6.5123117"><ele>728.0</ele><time>2026-05-02T18:02:28.275Z</time></trkpt><trkpt lat="43.8469583" lon="6.5122633"><ele>728.3333333333334</ele><time>2026-05-02T18:02:29.275Z</time></trkpt><trkpt lat="43.8470633" lon="6.51218"><ele>728.6666666666666</ele><time>2026-05-02T18:02:31.275Z</time></trkpt><trkpt lat="43.8471717" lon="6.5121083"><ele>729.0</ele><time>2026-05-02T18:02:33.275Z</time></trkpt><trkpt lat="43.8472317" lon="6.51207"><ele>729.0</ele><time>2026-05-02T18:02:34.275Z</time></trkpt><trkpt lat="43.847295" lon="6.5120283"><ele>729.0</ele><time>2026-05-02T18:02:35.275Z</time></trkpt><trkpt lat="43.84736" lon="6.512005"><ele>729.0</ele><time>2026-05-02T18:02:36.275Z</time></trkpt><trkpt lat="43.8474317" lon="6.5119733"><ele>729.0</ele><time>2026-05-02T18:02:37.275Z</time></trkpt><trkpt lat="43.847505" lon="6.5119517"><ele>729.0</ele><time>2026-05-02T18:02:38.276Z</time></trkpt><trkpt lat="43.84758" lon="6.5119317"><ele>729.0</ele><time>2026-05-02T18:02:39.276Z</time></trkpt><trkpt lat="43.847645" lon="6.5119483"><ele>729.0</ele><time>2026-05-02T18:02:40.275Z</time></trkpt><trkpt lat="43.8477467" lon="6.511865"><ele>730.0</ele><time>2026-05-02T18:02:42.275Z</time></trkpt><trkpt lat="43.8478" lon="6.51171"><ele>731.0</ele><time>2026-05-02T18:02:44.275Z</time></trkpt><trkpt lat="43.8478183" lon="6.5115933"><ele>732.0</ele><time>2026-05-02T18:02:45.276Z</time></trkpt><trkpt lat="43.84784" lon="6.5114733"><ele>733.0</ele><time>2026-05-02T18:02:46.275Z</time></trkpt><trkpt lat="43.8478767" lon="6.51135"><ele>734.0</ele><time>2026-05-02T18:02:47.275Z</time></trkpt><trkpt lat="43.8479133" lon="6.51122"><ele>734.0</ele><time>2026-05-02T18:02:48.276Z</time></trkpt><trkpt lat="43.847955" lon="6.51108"><ele>734.0</ele><time>2026-05-02T18:02:49.275Z</time></trkpt><trkpt lat="43.8479967" lon="6.5109417"><ele>734.0</ele><time>2026-05-02T18:02:50.275Z</time></trkpt><trkpt lat="43.8480533" lon="6.510815"><ele>734.0</ele><time>2026-05-02T18:02:51.275Z</time></trkpt><trkpt lat="43.84811" lon="6.5106933"><ele>734.0</ele><time>2026-05-02T18:02:52.275Z</time></trkpt><trkpt lat="43.84817" lon="6.510575"><ele>734.0</ele><time>2026-05-02T18:02:53.275Z</time></trkpt><trkpt lat="43.8482383" lon="6.5104767"><ele>734.0</ele><time>2026-05-02T18:02:54.275Z</time></trkpt><trkpt lat="43.8483067" lon="6.51038"><ele>734.0</ele><time>2026-05-02T18:02:55.275Z</time></trkpt><trkpt lat="43.8483667" lon="6.5102633"><ele>734.0</ele><time>2026-05-02T18:02:56.275Z</time></trkpt><trkpt lat="43.8484367" lon="6.5101433"><ele>734.0</ele><time>2026-05-02T18:02:57.275Z</time></trkpt><trkpt lat="43.8485033" lon="6.510025"><ele>735.0</ele><time>2026-05-02T18:02:58.275Z</time></trkpt><trkpt lat="43.8485733" lon="6.5098917"><ele>736.0</ele><time>2026-05-02T18:02:59.275Z</time></trkpt><trkpt lat="43.8486483" lon="6.5097533"><ele>737.0</ele><time>2026-05-02T18:03:00.275Z</time></trkpt><trkpt lat="43.8487217" lon="6.5096083"><ele>738.0</ele><time>2026-05-02T18:03:01.275Z</time></trkpt><trkpt lat="43.8488083" lon="6.5094767"><ele>738.0</ele><time>2026-05-02T18:03:02.275Z</time></trkpt><trkpt lat="43.848895" lon="6.5093483"><ele>738.0</ele><time>2026-05-02T18:03:03.275Z</time></trkpt><trkpt lat="43.84898" lon="6.5092383"><ele>738.0</ele><time>2026-05-02T18:03:04.276Z</time></trkpt><trkpt lat="43.84908" lon="6.509145"><ele>738.0</ele><time>2026-05-02T18:03:05.275Z</time></trkpt><trkpt lat="43.8491933" lon="6.50906"><ele>740.75</ele><time>2026-05-02T18:03:06.275Z</time></trkpt><trkpt lat="43.8493183" lon="6.5089833"><ele>743.5</ele><time>2026-05-02T18:03:07.275Z</time></trkpt><trkpt lat="43.8494533" lon="6.5089217"><ele>746.25</ele><time>2026-05-02T18:03:08.275Z</time></trkpt><trkpt lat="43.8495833" lon="6.5088583"><ele>749.0</ele><time>2026-05-02T18:03:09.275Z</time></trkpt><trkpt lat="43.8497067" lon="6.5088083"><ele>749.0</ele><time>2026-05-02T18:03:10.275Z</time></trkpt><trkpt lat="43.8498233" lon="6.5087533"><ele>749.0</ele><time>2026-05-02T18:03:11.275Z</time></trkpt><trkpt lat="43.8499483" lon="6.5086933"><ele>749.0</ele><time>2026-05-02T18:03:12.275Z</time></trkpt><trkpt lat="43.850075" lon="6.50863"><ele>749.0</ele><time>2026-05-02T18:03:13.275Z</time></trkpt><trkpt lat="43.8502017" lon="6.5085617"><ele>748.25</ele><time>2026-05-02T18:03:14.275Z</time></trkpt><trkpt lat="43.8503333" lon="6.5084967"><ele>747.5</ele><time>2026-05-02T18:03:15.275Z</time></trkpt><trkpt lat="43.85046" lon="6.50843"><ele>746.75</ele><time>2026-05-02T18:03:16.275Z</time></trkpt><trkpt lat="43.850585" lon="6.50837"><ele>746.0</ele><time>2026-05-02T18:03:17.275Z</time></trkpt><trkpt lat="43.8507133" lon="6.5082967"><ele>746.0</ele><time>2026-05-02T18:03:18.275Z</time></trkpt><trkpt lat="43.8508383" lon="6.5082283"><ele>746.0</ele><time>2026-05-02T18:03:19.276Z</time></trkpt><trkpt lat="43.8509533" lon="6.50817"><ele>746.0</ele><time>2026-05-02T18:03:20.276Z</time></trkpt><trkpt lat="43.8510617" lon="6.5081517"><ele>746.0</ele><time>2026-05-02T18:03:21.275Z</time></trkpt><trkpt lat="43.851155" lon="6.5081117"><ele>746.1666666666666</ele><time>2026-05-02T18:03:22.275Z</time></trkpt><trkpt lat="43.851235" lon="6.50808"><ele>746.3333333333333</ele><time>2026-05-02T18:03:23.275Z</time></trkpt><trkpt lat="43.8513083" lon="6.5080633"><ele>746.5</ele><time>2026-05-02T18:03:24.275Z</time></trkpt><trkpt lat="43.8514417" lon="6.508075"><ele>746.6666666666666</ele><time>2026-05-02T18:03:26.275Z</time></trkpt><trkpt lat="43.8515067" lon="6.5080933"><ele>746.8333333333334</ele><time>2026-05-02T18:03:27.275Z</time></trkpt><trkpt lat="43.85158" lon="6.50809"><ele>747.0</ele><time>2026-05-02T18:03:28.275Z</time></trkpt><trkpt lat="43.8516433" lon="6.50805"><ele>747.0</ele><time>2026-05-02T18:03:29.275Z</time></trkpt><trkpt lat="43.851695" lon="6.5079733"><ele>747.0</ele><time>2026-05-02T18:03:30.275Z</time></trkpt><trkpt lat="43.8517283" lon="6.507875"><ele>747.0</ele><time>2026-05-02T18:03:31.275Z</time></trkpt><trkpt lat="43.851755" lon="6.5077667"><ele>747.0</ele><time>2026-05-02T18:03:32.275Z</time></trkpt><trkpt lat="43.8517883" lon="6.507675"><ele>747.0</ele><time>2026-05-02T18:03:33.275Z</time></trkpt><trkpt lat="43.8518417" lon="6.50758"><ele>747.0</ele><time>2026-05-02T18:03:34.275Z</time></trkpt><trkpt lat="43.8519033" lon="6.507475"><ele>746.6</ele><time>2026-05-02T18:03:35.276Z</time></trkpt><trkpt lat="43.851975" lon="6.50737"><ele>746.2</ele><time>2026-05-02T18:03:36.275Z</time></trkpt><trkpt lat="43.852045" lon="6.5072533"><ele>745.8</ele><time>2026-05-02T18:03:37.276Z</time></trkpt><trkpt lat="43.85211" lon="6.5071367"><ele>745.4</ele><time>2026-05-02T18:03:38.275Z</time></trkpt><trkpt lat="43.8521733" lon="6.5070083"><ele>745.0</ele><time>2026-05-02T18:03:39.275Z</time></trkpt><trkpt lat="43.8522467" lon="6.5068617"><ele>745.0</ele><time>2026-05-02T18:03:40.275Z</time></trkpt><trkpt lat="43.8523183" lon="6.5067083"><ele>745.0</ele><time>2026-05-02T18:03:41.276Z</time></trkpt><trkpt lat="43.85239" lon="6.50654"><ele>745.0</ele><time>2026-05-02T18:03:42.276Z</time></trkpt><trkpt lat="43.85246" lon="6.50637"><ele>745.0</ele><time>2026-05-02T18:03:43.275Z</time></trkpt><trkpt lat="43.8525333" lon="6.506195"><ele>746.3333333333334</ele><time>2026-05-02T18:03:44.275Z</time></trkpt><trkpt lat="43.852615" lon="6.5060217"><ele>747.6666666666666</ele><time>2026-05-02T18:03:45.275Z</time></trkpt><trkpt lat="43.85271" lon="6.5058317"><ele>749.0</ele><time>2026-05-02T18:03:46.275Z</time></trkpt><trkpt lat="43.85281" lon="6.505635"><ele>746.3333333333333</ele><time>2026-05-02T18:03:47.275Z</time></trkpt><trkpt lat="43.8529117" lon="6.5054283"><ele>743.6666666666666</ele><time>2026-05-02T18:03:48.275Z</time></trkpt><trkpt lat="43.8529933" lon="6.5052267"><ele>741.0</ele><time>2026-05-02T18:03:49.275Z</time></trkpt><trkpt lat="43.8530817" lon="6.5050183"><ele>741.0</ele><time>2026-05-02T18:03:50.275Z</time></trkpt><trkpt lat="43.853175" lon="6.5048117"><ele>741.0</ele><time>2026-05-02T18:03:51.275Z</time></trkpt><trkpt lat="43.85326" lon="6.5046067"><ele>741.0</ele><time>2026-05-02T18:03:52.275Z</time></trkpt><trkpt lat="43.8533467" lon="6.5044033"><ele>741.0</ele><time>2026-05-02T18:03:53.275Z</time></trkpt><trkpt lat="43.8534333" lon="6.5041967"><ele>741.0</ele><time>2026-05-02T18:03:54.275Z</time></trkpt><trkpt lat="43.8535183" lon="6.503995"><ele>741.0</ele><time>2026-05-02T18:03:55.276Z</time></trkpt><trkpt lat="43.8536133" lon="6.5037967"><ele>741.3333333333334</ele><time>2026-05-02T18:03:56.275Z</time></trkpt><trkpt lat="43.853705" lon="6.503585"><ele>741.6666666666667</ele><time>2026-05-02T18:03:57.275Z</time></trkpt><trkpt lat="43.8537883" lon="6.50339"><ele>742.0</ele><time>2026-05-02T18:03:58.275Z</time></trkpt><trkpt lat="43.853875" lon="6.5031933"><ele>742.0</ele><time>2026-05-02T18:03:59.275Z</time></trkpt><trkpt lat="43.8539633" lon="6.5029883"><ele>742.0</ele><time>2026-05-02T18:04:00.275Z</time></trkpt><trkpt lat="43.85405" lon="6.5027917"><ele>742.0</ele><time>2026-05-02T18:04:01.276Z</time></trkpt><trkpt lat="43.8541433" lon="6.502585"><ele>743.0</ele><time>2026-05-02T18:04:02.276Z</time></trkpt><trkpt lat="43.8542367" lon="6.5023883"><ele>744.0</ele><time>2026-05-02T18:04:03.275Z</time></trkpt><trkpt lat="43.8543433" lon="6.5021983"><ele>745.0</ele><time>2026-05-02T18:04:04.275Z</time></trkpt><trkpt lat="43.85446" lon="6.502015"><ele>746.0</ele><time>2026-05-02T18:04:05.275Z</time></trkpt><trkpt lat="43.854585" lon="6.5018667"><ele>747.0</ele><time>2026-05-02T18:04:06.275Z</time></trkpt><trkpt lat="43.854705" lon="6.501715"><ele>748.0</ele><time>2026-05-02T18:04:07.275Z</time></trkpt><trkpt lat="43.8548233" lon="6.5015567"><ele>748.0</ele><time>2026-05-02T18:04:08.275Z</time></trkpt><trkpt lat="43.8549517" lon="6.5013833"><ele>748.0</ele><time>2026-05-02T18:04:09.276Z</time></trkpt><trkpt lat="43.8550617" lon="6.5012283"><ele>748.0</ele><time>2026-05-02T18:04:10.275Z</time></trkpt><trkpt lat="43.8551767" lon="6.5010767"><ele>749.0</ele><time>2026-05-02T18:04:11.275Z</time></trkpt><trkpt lat="43.8552917" lon="6.5009283"><ele>750.0</ele><time>2026-05-02T18:04:12.275Z</time></trkpt><trkpt lat="43.8554033" lon="6.5007683"><ele>751.0</ele><time>2026-05-02T18:04:13.275Z</time></trkpt><trkpt lat="43.855515" lon="6.5006067"><ele>751.0</ele><time>2026-05-02T18:04:14.275Z</time></trkpt><trkpt lat="43.8556133" lon="6.50044"><ele>751.0</ele><time>2026-05-02T18:04:15.276Z</time></trkpt><trkpt lat="43.8556867" lon="6.5002617"><ele>751.0</ele><time>2026-05-02T18:04:16.275Z</time></trkpt><trkpt lat="43.8557417" lon="6.500075"><ele>751.0</ele><time>2026-05-02T18:04:17.275Z</time></trkpt><trkpt lat="43.8557717" lon="6.4998733"><ele>752.0</ele><time>2026-05-02T18:04:18.276Z</time></trkpt><trkpt lat="43.8557783" lon="6.4996533"><ele>753.0</ele><time>2026-05-02T18:04:19.275Z</time></trkpt><trkpt lat="43.8557817" lon="6.499435"><ele>754.0</ele><time>2026-05-02T18:04:20.275Z</time></trkpt><trkpt lat="43.85579" lon="6.4992033"><ele>754.6666666666667</ele><time>2026-05-02T18:04:21.275Z</time></trkpt><trkpt lat="43.8558" lon="6.4989517"><ele>755.3333333333334</ele><time>2026-05-02T18:04:22.275Z</time></trkpt><trkpt lat="43.8558067" lon="6.498685"><ele>756.0</ele><time>2026-05-02T18:04:23.275Z</time></trkpt><trkpt lat="43.85581" lon="6.4984217"><ele>756.3333333333334</ele><time>2026-05-02T18:04:24.275Z</time></trkpt><trkpt lat="43.85582" lon="6.4981567"><ele>756.6666666666667</ele><time>2026-05-02T18:04:25.275Z</time></trkpt><trkpt lat="43.8558317" lon="6.4978917"><ele>757.0</ele><time>2026-05-02T18:04:26.275Z</time></trkpt><trkpt lat="43.8558483" lon="6.497625"><ele>757.6666666666667</ele><time>2026-05-02T18:04:27.275Z</time></trkpt><trkpt lat="43.8558617" lon="6.4973633"><ele>758.3333333333334</ele><time>2026-05-02T18:04:28.275Z</time></trkpt><trkpt lat="43.85588" lon="6.4971117"><ele>759.0</ele><time>2026-05-02T18:04:29.275Z</time></trkpt><trkpt lat="43.855885" lon="6.496865"><ele>759.3333333333334</ele><time>2026-05-02T18:04:30.275Z</time></trkpt><trkpt lat="43.855895" lon="6.496635"><ele>759.6666666666667</ele><time>2026-05-02T18:04:31.275Z</time></trkpt><trkpt lat="43.8558933" lon="6.4964083"><ele>760.0</ele><time>2026-05-02T18:04:32.275Z</time></trkpt><trkpt lat="43.8559017" lon="6.4961983"><ele>761.0</ele><time>2026-05-02T18:04:33.275Z</time></trkpt><trkpt lat="43.8559167" lon="6.4960117"><ele>762.0</ele><time>2026-05-02T18:04:34.275Z</time></trkpt><trkpt lat="43.85597" lon="6.4958567"><ele>763.0</ele><time>2026-05-02T18:04:35.275Z</time></trkpt><trkpt lat="43.85607" lon="6.4957167"><ele>764.0</ele><time>2026-05-02T18:04:36.275Z</time></trkpt><trkpt lat="43.85619" lon="6.4956267"><ele>765.3333333333333</ele><time>2026-05-02T18:04:37.275Z</time></trkpt><trkpt lat="43.856335" lon="6.4955833"><ele>766.6666666666666</ele><time>2026-05-02T18:04:38.276Z</time></trkpt><trkpt lat="43.8564833" lon="6.49559"><ele>768.0</ele><time>2026-05-02T18:04:39.275Z</time></trkpt><trkpt lat="43.8566433" lon="6.4956183"><ele>767.5</ele><time>2026-05-02T18:04:40.275Z</time></trkpt><trkpt lat="43.8567967" lon="6.495625"><ele>767.0</ele><time>2026-05-02T18:04:41.275Z</time></trkpt><trkpt lat="43.8569333" lon="6.4956417"><ele>766.5</ele><time>2026-05-02T18:04:42.275Z</time></trkpt><trkpt lat="43.857065" lon="6.4956217"><ele>766.0</ele><time>2026-05-02T18:04:43.275Z</time></trkpt><trkpt lat="43.85718" lon="6.495565"><ele>766.0</ele><time>2026-05-02T18:04:44.275Z</time></trkpt><trkpt lat="43.8572867" lon="6.495465"><ele>766.0</ele><time>2026-05-02T18:04:45.275Z</time></trkpt><trkpt lat="43.8573933" lon="6.4953317"><ele>766.0</ele><time>2026-05-02T18:04:46.276Z</time></trkpt><trkpt lat="43.8574933" lon="6.4952167"><ele>766.0</ele><time>2026-05-02T18:04:47.275Z</time></trkpt><trkpt lat="43.85761" lon="6.4951317"><ele>771.0</ele><time>2026-05-02T18:04:48.275Z</time></trkpt><trkpt lat="43.8577533" lon="6.4951133"><ele>776.0</ele><time>2026-05-02T18:04:49.275Z</time></trkpt><trkpt lat="43.8579083" lon="6.4951017"><ele>781.0</ele><time>2026-05-02T18:04:50.275Z</time></trkpt><trkpt lat="43.8580517" lon="6.4950917"><ele>786.0</ele><time>2026-05-02T18:04:51.276Z</time></trkpt><trkpt lat="43.858195" lon="6.495065"><ele>786.0</ele><time>2026-05-02T18:04:52.275Z</time></trkpt><trkpt lat="43.8583433" lon="6.4950317"><ele>786.0</ele><time>2026-05-02T18:04:53.275Z</time></trkpt><trkpt lat="43.858495" lon="6.4949933"><ele>786.0</ele><time>2026-05-02T18:04:54.275Z</time></trkpt><trkpt lat="43.8586517" lon="6.4949783"><ele>787.6666666666667</ele><time>2026-05-02T18:04:55.275Z</time></trkpt><trkpt lat="43.8588117" lon="6.494965"><ele>789.3333333333334</ele><time>2026-05-02T18:04:56.275Z</time></trkpt><trkpt lat="43.858975" lon="6.4949617"><ele>791.0</ele><time>2026-05-02T18:04:57.275Z</time></trkpt><trkpt lat="43.8591367" lon="6.49496"><ele>793.6666666666667</ele><time>2026-05-02T18:04:58.276Z</time></trkpt><trkpt lat="43.859295" lon="6.4949667"><ele>796.3333333333333</ele><time>2026-05-02T18:04:59.275Z</time></trkpt><trkpt lat="43.859455" lon="6.49498"><ele>799.0</ele><time>2026-05-02T18:05:00.276Z</time></trkpt><trkpt lat="43.859615" lon="6.494995"><ele>799.0</ele><time>2026-05-02T18:05:01.275Z</time></trkpt><trkpt lat="43.8597733" lon="6.4950133"><ele>799.0</ele><time>2026-05-02T18:05:02.275Z</time></trkpt><trkpt lat="43.8599317" lon="6.4950217"><ele>799.0</ele><time>2026-05-02T18:05:03.275Z</time></trkpt><trkpt lat="43.8600883" lon="6.4950417"><ele>800.0</ele><time>2026-05-02T18:05:04.275Z</time></trkpt><trkpt lat="43.86022" lon="6.4950783"><ele>801.0</ele><time>2026-05-02T18:05:05.275Z</time></trkpt><trkpt lat="43.8603417" lon="6.4951683"><ele>802.0</ele><time>2026-05-02T18:05:06.275Z</time></trkpt><trkpt lat="43.8604517" lon="6.4952817"><ele>803.0</ele><time>2026-05-02T18:05:07.275Z</time></trkpt><trkpt lat="43.8605367" lon="6.4954067"><ele>803.0</ele><time>2026-05-02T18:05:08.275Z</time></trkpt><trkpt lat="43.8606383" lon="6.495485"><ele>803.0</ele><time>2026-05-02T18:05:09.275Z</time></trkpt><trkpt lat="43.8607483" lon="6.49551"><ele>803.0</ele><time>2026-05-02T18:05:10.275Z</time></trkpt><trkpt lat="43.8608483" lon="6.4954833"><ele>803.0</ele><time>2026-05-02T18:05:11.275Z</time></trkpt><trkpt lat="43.8609367" lon="6.4954067"><ele>803.0</ele><time>2026-05-02T18:05:12.275Z</time></trkpt><trkpt lat="43.8610067" lon="6.4952833"><ele>803.0</ele><time>2026-05-02T18:05:13.275Z</time></trkpt><trkpt lat="43.8610433" lon="6.4951267"><ele>803.0</ele><time>2026-05-02T18:05:14.275Z</time></trkpt><trkpt lat="43.8610433" lon="6.4949567"><ele>803.0</ele><time>2026-05-02T18:05:15.275Z</time></trkpt><trkpt lat="43.8609933" lon="6.4948233"><ele>803.0</ele><time>2026-05-02T18:05:16.275Z</time></trkpt><trkpt lat="43.8609133" lon="6.49471"><ele>803.0</ele><time>2026-05-02T18:05:17.275Z</time></trkpt><trkpt lat="43.8608" lon="6.49464"><ele>803.0</ele><time>2026-05-02T18:05:18.275Z</time></trkpt><trkpt lat="43.8606617" lon="6.494585"><ele>803.0</ele><time>2026-05-02T18:05:19.275Z</time></trkpt><trkpt lat="43.860505" lon="6.4945483"><ele>803.0</ele><time>2026-05-02T18:05:20.275Z</time></trkpt><trkpt lat="43.8603433" lon="6.494535"><ele>812.0</ele><time>2026-05-02T18:05:21.275Z</time></trkpt><trkpt lat="43.8601867" lon="6.49453"><ele>821.0</ele><time>2026-05-02T18:05:22.275Z</time></trkpt><trkpt lat="43.86003" lon="6.4945267"><ele>830.0</ele><time>2026-05-02T18:05:23.275Z</time></trkpt><trkpt lat="43.859875" lon="6.4945067"><ele>830.3333333333334</ele><time>2026-05-02T18:05:24.275Z</time></trkpt><trkpt lat="43.8597317" lon="6.49447"><ele>830.6666666666667</ele><time>2026-05-02T18:05:25.275Z</time></trkpt><trkpt lat="43.859585" lon="6.4944167"><ele>831.0</ele><time>2026-05-02T18:05:26.275Z</time></trkpt><trkpt lat="43.8594383" lon="6.4943433"><ele>831.0</ele><time>2026-05-02T18:05:27.275Z</time></trkpt><trkpt lat="43.8592917" lon="6.4942817"><ele>831.0</ele><time>2026-05-02T18:05:28.275Z</time></trkpt><trkpt lat="43.8591483" lon="6.494235"><ele>831.0</ele><time>2026-05-02T18:05:29.275Z</time></trkpt><trkpt lat="43.8590033" lon="6.49419"><ele>831.0</ele><time>2026-05-02T18:05:30.276Z</time></trkpt><trkpt lat="43.8588683" lon="6.494145"><ele>829.25</ele><time>2026-05-02T18:05:31.275Z</time></trkpt><trkpt lat="43.858735" lon="6.494085"><ele>827.5</ele><time>2026-05-02T18:05:32.275Z</time></trkpt><trkpt lat="43.8586233" lon="6.4940183"><ele>825.75</ele><time>2026-05-02T18:05:33.275Z</time></trkpt><trkpt lat="43.858535" lon="6.4939233"><ele>824.0</ele><time>2026-05-02T18:05:34.275Z</time></trkpt><trkpt lat="43.8584817" lon="6.49382"><ele>828.0</ele><time>2026-05-02T18:05:35.275Z</time></trkpt><trkpt lat="43.8584667" lon="6.4936867"><ele>832.0</ele><time>2026-05-02T18:05:36.275Z</time></trkpt><trkpt lat="43.8584717" lon="6.4935617"><ele>836.0</ele><time>2026-05-02T18:05:37.275Z</time></trkpt><trkpt lat="43.85851" lon="6.4934217"><ele>840.0</ele><time>2026-05-02T18:05:38.275Z</time></trkpt><trkpt lat="43.8585767" lon="6.4932717"><ele>844.0</ele><time>2026-05-02T18:05:39.275Z</time></trkpt><trkpt lat="43.8586783" lon="6.4931317"><ele>844.0</ele><time>2026-05-02T18:05:40.275Z</time></trkpt><trkpt lat="43.8587883" lon="6.492985"><ele>844.0</ele><time>2026-05-02T18:05:41.275Z</time></trkpt><trkpt lat="43.8588917" lon="6.4928467"><ele>844.0</ele><time>2026-05-02T18:05:42.275Z</time></trkpt><trkpt lat="43.8589883" lon="6.4926917"><ele>844.0</ele><time>2026-05-02T18:05:43.275Z</time></trkpt><trkpt lat="43.8590633" lon="6.4925383"><ele>842.75</ele><time>2026-05-02T18:05:44.275Z</time></trkpt><trkpt lat="43.8591117" lon="6.4923833"><ele>841.5</ele><time>2026-05-02T18:05:45.275Z</time></trkpt><trkpt lat="43.8591717" lon="6.49224"><ele>840.25</ele><time>2026-05-02T18:05:46.275Z</time></trkpt><trkpt lat="43.85925" lon="6.4920933"><ele>839.0</ele><time>2026-05-02T18:05:47.275Z</time></trkpt><trkpt lat="43.8593333" lon="6.4919633"><ele>844.25</ele><time>2026-05-02T18:05:48.275Z</time></trkpt><trkpt lat="43.8594333" lon="6.4918533"><ele>849.5</ele><time>2026-05-02T18:05:49.275Z</time></trkpt><trkpt lat="43.8595483" lon="6.4917533"><ele>854.75</ele><time>2026-05-02T18:05:50.275Z</time></trkpt><trkpt lat="43.8596533" lon="6.4916467"><ele>860.0</ele><time>2026-05-02T18:05:51.275Z</time></trkpt><trkpt lat="43.85976" lon="6.4915417"><ele>860.0</ele><time>2026-05-02T18:05:52.275Z</time></trkpt><trkpt lat="43.85986" lon="6.4914383"><ele>860.0</ele><time>2026-05-02T18:05:53.275Z</time></trkpt><trkpt lat="43.85995" lon="6.491335"><ele>860.0</ele><time>2026-05-02T18:05:54.275Z</time></trkpt><trkpt lat="43.86002" lon="6.49123"><ele>860.0</ele><time>2026-05-02T18:05:55.275Z</time></trkpt><trkpt lat="43.860075" lon="6.4911033"><ele>857.25</ele><time>2026-05-02T18:05:56.275Z</time></trkpt><trkpt lat="43.8600883" lon="6.490945"><ele>854.5</ele><time>2026-05-02T18:05:57.275Z</time></trkpt><trkpt lat="43.8600583" lon="6.4907783"><ele>851.75</ele><time>2026-05-02T18:05:58.275Z</time></trkpt><trkpt lat="43.8600083" lon="6.4906117"><ele>849.0</ele><time>2026-05-02T18:05:59.275Z</time></trkpt><trkpt lat="43.8599817" lon="6.4904483"><ele>851.0</ele><time>2026-05-02T18:06:00.275Z</time></trkpt><trkpt lat="43.85997" lon="6.4902933"><ele>853.0</ele><time>2026-05-02T18:06:01.275Z</time></trkpt><trkpt lat="43.859985" lon="6.4901183"><ele>855.0</ele><time>2026-05-02T18:06:02.276Z</time></trkpt><trkpt lat="43.8599833" lon="6.4899533"><ele>857.0</ele><time>2026-05-02T18:06:03.275Z</time></trkpt><trkpt lat="43.8599583" lon="6.489805"><ele>857.0000000000001</ele><time>2026-05-02T18:06:04.275Z</time></trkpt><trkpt lat="43.8599033" lon="6.48969"><ele>857.0</ele><time>2026-05-02T18:06:05.275Z</time></trkpt><trkpt lat="43.859855" lon="6.48958"><ele>857.0</ele><time>2026-05-02T18:06:06.275Z</time></trkpt><trkpt lat="43.8598233" lon="6.4894817"><ele>857.0</ele><time>2026-05-02T18:06:07.275Z</time></trkpt><trkpt lat="43.8598283" lon="6.4893833"><ele>857.0000000000001</ele><time>2026-05-02T18:06:08.276Z</time></trkpt><trkpt lat="43.8598717" lon="6.48931"><ele>857.0</ele><time>2026-05-02T18:06:09.275Z</time></trkpt><trkpt lat="43.8599317" lon="6.4892717"><ele>857.5</ele><time>2026-05-02T18:06:10.275Z</time></trkpt><trkpt lat="43.8600017" lon="6.489295"><ele>858.0</ele><time>2026-05-02T18:06:11.276Z</time></trkpt><trkpt lat="43.8600717" lon="6.4893883"><ele>858.5</ele><time>2026-05-02T18:06:12.275Z</time></trkpt><trkpt lat="43.8601167" lon="6.48956"><ele>859.0</ele><time>2026-05-02T18:06:13.275Z</time></trkpt><trkpt lat="43.8601467" lon="6.4897783"><ele>875.0</ele><time>2026-05-02T18:06:14.275Z</time></trkpt><trkpt lat="43.86016" lon="6.4900033"><ele>891.0</ele><time>2026-05-02T18:06:15.275Z</time></trkpt><trkpt lat="43.860155" lon="6.4902217"><ele>907.0</ele><time>2026-05-02T18:06:16.275Z</time></trkpt><trkpt lat="43.860155" lon="6.490405"><ele>906.0</ele><time>2026-05-02T18:06:17.275Z</time></trkpt><trkpt lat="43.8601867" lon="6.4905483"><ele>905.0</ele><time>2026-05-02T18:06:18.275Z</time></trkpt><trkpt lat="43.8602467" lon="6.490675"><ele>904.0</ele><time>2026-05-02T18:06:19.276Z</time></trkpt><trkpt lat="43.8603233" lon="6.4908067"><ele>903.0</ele><time>2026-05-02T18:06:20.276Z</time></trkpt><trkpt lat="43.8603733" lon="6.4909583"><ele>903.0</ele><time>2026-05-02T18:06:21.276Z</time></trkpt><trkpt lat="43.8603983" lon="6.4911167"><ele>903.0</ele><time>2026-05-02T18:06:22.276Z</time></trkpt><trkpt lat="43.860395" lon="6.4912783"><ele>903.0</ele><time>2026-05-02T18:06:23.275Z</time></trkpt><trkpt lat="43.860355" lon="6.49143"><ele>903.0</ele><time>2026-05-02T18:06:24.275Z</time></trkpt><trkpt lat="43.8602983" lon="6.49156"><ele>902.5</ele><time>2026-05-02T18:06:25.275Z</time></trkpt><trkpt lat="43.8601833" lon="6.4916633"><ele>902.0</ele><time>2026-05-02T18:06:26.275Z</time></trkpt><trkpt lat="43.8600767" lon="6.491785"><ele>901.5</ele><time>2026-05-02T18:06:27.276Z</time></trkpt><trkpt lat="43.859995" lon="6.4919317"><ele>901.0</ele><time>2026-05-02T18:06:28.275Z</time></trkpt><trkpt lat="43.8599167" lon="6.4920883"><ele>894.0</ele><time>2026-05-02T18:06:29.275Z</time></trkpt><trkpt lat="43.85984" lon="6.49222"><ele>887.0</ele><time>2026-05-02T18:06:30.275Z</time></trkpt><trkpt lat="43.8597833" lon="6.49235"><ele>880.0</ele><time>2026-05-02T18:06:31.275Z</time></trkpt><trkpt lat="43.8597067" lon="6.4925067"><ele>873.0</ele><time>2026-05-02T18:06:32.275Z</time></trkpt><trkpt lat="43.8596683" lon="6.4926517"><ele>873.0</ele><time>2026-05-02T18:06:33.276Z</time></trkpt><trkpt lat="43.85967" lon="6.492765"><ele>873.0</ele><time>2026-05-02T18:06:34.275Z</time></trkpt><trkpt lat="43.8596933" lon="6.4928517"><ele>873.0</ele><time>2026-05-02T18:06:35.275Z</time></trkpt><trkpt lat="43.8597467" lon="6.4929117"><ele>873.0</ele><time>2026-05-02T18:06:36.275Z</time></trkpt><trkpt lat="43.85983" lon="6.49294"><ele>873.0</ele><time>2026-05-02T18:06:37.275Z</time></trkpt><trkpt lat="43.859935" lon="6.4929167"><ele>873.0</ele><time>2026-05-02T18:06:38.276Z</time></trkpt><trkpt lat="43.8600583" lon="6.4928483"><ele>877.5</ele><time>2026-05-02T18:06:39.275Z</time></trkpt><trkpt lat="43.8601917" lon="6.4927583"><ele>882.0</ele><time>2026-05-02T18:06:40.275Z</time></trkpt><trkpt lat="43.8603217" lon="6.49269"><ele>886.5</ele><time>2026-05-02T18:06:41.276Z</time></trkpt><trkpt lat="43.860465" lon="6.4926467"><ele>891.0</ele><time>2026-05-02T18:06:42.276Z</time></trkpt><trkpt lat="43.8606083" lon="6.4926367"><ele>891.0</ele><time>2026-05-02T18:06:43.275Z</time></trkpt><trkpt lat="43.8607383" lon="6.4926533"><ele>891.0</ele><time>2026-05-02T18:06:44.276Z</time></trkpt><trkpt lat="43.8608767" lon="6.49268"><ele>891.0</ele><time>2026-05-02T18:06:45.275Z</time></trkpt><trkpt lat="43.86102" lon="6.49271"><ele>891.0</ele><time>2026-05-02T18:06:46.275Z</time></trkpt><trkpt lat="43.861175" lon="6.49272"><ele>894.0</ele><time>2026-05-02T18:06:47.275Z</time></trkpt><trkpt lat="43.8613283" lon="6.492735"><ele>897.0</ele><time>2026-05-02T18:06:48.275Z</time></trkpt><trkpt lat="43.861465" lon="6.4927667"><ele>900.0</ele><time>2026-05-02T18:06:49.275Z</time></trkpt><trkpt lat="43.8616017" lon="6.49281"><ele>903.0</ele><time>2026-05-02T18:06:50.275Z</time></trkpt><trkpt lat="43.861735" lon="6.4928067"><ele>900.75</ele><time>2026-05-02T18:06:51.275Z</time></trkpt><trkpt lat="43.86187" lon="6.492775"><ele>898.5</ele><time>2026-05-02T18:06:52.275Z</time></trkpt><trkpt lat="43.8620117" lon="6.4927133"><ele>896.25</ele><time>2026-05-02T18:06:53.276Z</time></trkpt><trkpt lat="43.8621633" lon="6.4926367"><ele>894.0</ele><time>2026-05-02T18:06:54.275Z</time></trkpt><trkpt lat="43.8623083" lon="6.4925617"><ele>894.0</ele><time>2026-05-02T18:06:55.275Z</time></trkpt><trkpt lat="43.862445" lon="6.4924867"><ele>894.0</ele><time>2026-05-02T18:06:56.275Z</time></trkpt><trkpt lat="43.862585" lon="6.4924183"><ele>894.0</ele><time>2026-05-02T18:06:57.275Z</time></trkpt><trkpt lat="43.8627233" lon="6.492365"><ele>894.0</ele><time>2026-05-02T18:06:58.275Z</time></trkpt><trkpt lat="43.8628633" lon="6.4923217"><ele>890.25</ele><time>2026-05-02T18:06:59.275Z</time></trkpt><trkpt lat="43.8629983" lon="6.4922783"><ele>886.5</ele><time>2026-05-02T18:07:00.275Z</time></trkpt><trkpt lat="43.86313" lon="6.492205"><ele>882.75</ele><time>2026-05-02T18:07:01.276Z</time></trkpt><trkpt lat="43.8632633" lon="6.4921183"><ele>879.0</ele><time>2026-05-02T18:07:02.275Z</time></trkpt><trkpt lat="43.8633867" lon="6.4920217"><ele>883.25</ele><time>2026-05-02T18:07:03.275Z</time></trkpt><trkpt lat="43.863515" lon="6.491925"><ele>887.5</ele><time>2026-05-02T18:07:04.275Z</time></trkpt><trkpt lat="43.863635" lon="6.49181"><ele>891.75</ele><time>2026-05-02T18:07:05.275Z</time></trkpt><trkpt lat="43.8637567" lon="6.4916983"><ele>896.0</ele><time>2026-05-02T18:07:06.275Z</time></trkpt><trkpt lat="43.8638767" lon="6.4915867"><ele>896.0</ele><time>2026-05-02T18:07:07.275Z</time></trkpt><trkpt lat="43.864" lon="6.491495"><ele>896.0</ele><time>2026-05-02T18:07:08.276Z</time></trkpt><trkpt lat="43.864125" lon="6.4914117"><ele>896.0</ele><time>2026-05-02T18:07:09.276Z</time></trkpt><trkpt lat="43.8642533" lon="6.4913417"><ele>896.0</ele><time>2026-05-02T18:07:10.275Z</time></trkpt><trkpt lat="43.8643917" lon="6.4912867"><ele>907.3333333333334</ele><time>2026-05-02T18:07:11.275Z</time></trkpt><trkpt lat="43.864545" lon="6.49124"><ele>918.6666666666667</ele><time>2026-05-02T18:07:12.275Z</time></trkpt><trkpt lat="43.864695" lon="6.4911983"><ele>930.0</ele><time>2026-05-02T18:07:13.276Z</time></trkpt><trkpt lat="43.8648483" lon="6.4911583"><ele>930.0</ele><time>2026-05-02T18:07:14.275Z</time></trkpt><trkpt lat="43.8650083" lon="6.4911233"><ele>930.0</ele><time>2026-05-02T18:07:15.275Z</time></trkpt><trkpt lat="43.8651583" lon="6.4911167"><ele>930.0</ele><time>2026-05-02T18:07:16.275Z</time></trkpt><trkpt lat="43.8653117" lon="6.4911233"><ele>932.3333333333333</ele><time>2026-05-02T18:07:17.275Z</time></trkpt><trkpt lat="43.865455" lon="6.49116"><ele>934.6666666666666</ele><time>2026-05-02T18:07:18.275Z</time></trkpt><trkpt lat="43.8656083" lon="6.4912133"><ele>937.0</ele><time>2026-05-02T18:07:19.275Z</time></trkpt><trkpt lat="43.8657633" lon="6.49127"><ele>926.0</ele><time>2026-05-02T18:07:20.275Z</time></trkpt><trkpt lat="43.86592" lon="6.491325"><ele>915.0</ele><time>2026-05-02T18:07:21.276Z</time></trkpt><trkpt lat="43.8660683" lon="6.4913967"><ele>904.0</ele><time>2026-05-02T18:07:22.275Z</time></trkpt><trkpt lat="43.8662033" lon="6.4914483"><ele>903.4000000000001</ele><time>2026-05-02T18:07:23.276Z</time></trkpt><trkpt lat="43.866335" lon="6.4914783"><ele>902.8000000000001</ele><time>2026-05-02T18:07:24.276Z</time></trkpt><trkpt lat="43.8664267" lon="6.4915367"><ele>902.1999999999999</ele><time>2026-05-02T18:07:25.275Z</time></trkpt><trkpt lat="43.8665017" lon="6.4915517"><ele>901.5999999999999</ele><time>2026-05-02T18:07:26.275Z</time></trkpt><trkpt lat="43.8665717" lon="6.4915217"><ele>901.0</ele><time>2026-05-02T18:07:27.275Z</time></trkpt><trkpt lat="43.8666217" lon="6.4914567"><ele>901.0</ele><time>2026-05-02T18:07:28.276Z</time></trkpt><trkpt lat="43.8666467" lon="6.4913517"><ele>900.9999999999999</ele><time>2026-05-02T18:07:29.275Z</time></trkpt><trkpt lat="43.8666233" lon="6.49125"><ele>900.9999999999999</ele><time>2026-05-02T18:07:30.275Z</time></trkpt><trkpt lat="43.866565" lon="6.4911567"><ele>901.0</ele><time>2026-05-02T18:07:31.275Z</time></trkpt><trkpt lat="43.8664633" lon="6.4910967"><ele>901.0</ele><time>2026-05-02T18:07:32.275Z</time></trkpt><trkpt lat="43.8663233" lon="6.4910833"><ele>907.75</ele><time>2026-05-02T18:07:33.275Z</time></trkpt><trkpt lat="43.8661783" lon="6.4910483"><ele>914.5</ele><time>2026-05-02T18:07:34.276Z</time></trkpt><trkpt lat="43.8660417" lon="6.490995"><ele>921.25</ele><time>2026-05-02T18:07:35.275Z</time></trkpt><trkpt lat="43.865915" lon="6.49093"><ele>928.0</ele><time>2026-05-02T18:07:36.275Z</time></trkpt><trkpt lat="43.8657933" lon="6.4908533"><ele>930.25</ele><time>2026-05-02T18:07:37.275Z</time></trkpt><trkpt lat="43.8656633" lon="6.49079"><ele>932.5</ele><time>2026-05-02T18:07:38.275Z</time></trkpt><trkpt lat="43.86553" lon="6.4907333"><ele>934.75</ele><time>2026-05-02T18:07:39.275Z</time></trkpt><trkpt lat="43.8653933" lon="6.49066"><ele>937.0</ele><time>2026-05-02T18:07:40.275Z</time></trkpt><trkpt lat="43.865255" lon="6.490605"><ele>935.25</ele><time>2026-05-02T18:07:41.275Z</time></trkpt><trkpt lat="43.8651083" lon="6.4905717"><ele>933.5</ele><time>2026-05-02T18:07:42.275Z</time></trkpt><trkpt lat="43.8649567" lon="6.490545"><ele>931.75</ele><time>2026-05-02T18:07:43.275Z</time></trkpt><trkpt lat="43.86481" lon="6.4905217"><ele>930.0</ele><time>2026-05-02T18:07:44.275Z</time></trkpt><trkpt lat="43.8646517" lon="6.4905167"><ele>930.0</ele><time>2026-05-02T18:07:45.275Z</time></trkpt><trkpt lat="43.8644967" lon="6.49053"><ele>930.0</ele><time>2026-05-02T18:07:46.275Z</time></trkpt><trkpt lat="43.8643467" lon="6.4905383"><ele>930.0</ele><time>2026-05-02T18:07:47.275Z</time></trkpt><trkpt lat="43.8641967" lon="6.49054"><ele>931.3333333333333</ele><time>2026-05-02T18:07:48.275Z</time></trkpt><trkpt lat="43.8640433" lon="6.4905433"><ele>932.6666666666666</ele><time>2026-05-02T18:07:49.275Z</time></trkpt><trkpt lat="43.8638883" lon="6.490565"><ele>934.0</ele><time>2026-05-02T18:07:50.275Z</time></trkpt><trkpt lat="43.8637383" lon="6.4905917"><ele>934.0</ele><time>2026-05-02T18:07:51.275Z</time></trkpt><trkpt lat="43.8636" lon="6.490655"><ele>934.0</ele><time>2026-05-02T18:07:52.275Z</time></trkpt><trkpt lat="43.8634617" lon="6.490735"><ele>934.0</ele><time>2026-05-02T18:07:53.275Z</time></trkpt><trkpt lat="43.8633283" lon="6.4908167"><ele>934.0</ele><time>2026-05-02T18:07:54.275Z</time></trkpt><trkpt lat="43.8632033" lon="6.4908767"><ele>937.25</ele><time>2026-05-02T18:07:55.275Z</time></trkpt><trkpt lat="43.863075" lon="6.4909283"><ele>940.5</ele><time>2026-05-02T18:07:56.275Z</time></trkpt><trkpt lat="43.86295" lon="6.490935"><ele>943.75</ele><time>2026-05-02T18:07:57.275Z</time></trkpt><trkpt lat="43.862825" lon="6.49091"><ele>947.0</ele><time>2026-05-02T18:07:58.275Z</time></trkpt><trkpt lat="43.8627033" lon="6.49085"><ele>948.25</ele><time>2026-05-02T18:07:59.275Z</time></trkpt><trkpt lat="43.86257" lon="6.490785"><ele>949.5</ele><time>2026-05-02T18:08:00.276Z</time></trkpt><trkpt lat="43.8624383" lon="6.4907117"><ele>950.75</ele><time>2026-05-02T18:08:01.275Z</time></trkpt><trkpt lat="43.862325" lon="6.4906117"><ele>952.0</ele><time>2026-05-02T18:08:02.275Z</time></trkpt><trkpt lat="43.86221" lon="6.4905"><ele>956.25</ele><time>2026-05-02T18:08:03.276Z</time></trkpt><trkpt lat="43.8621017" lon="6.4903583"><ele>960.5</ele><time>2026-05-02T18:08:04.275Z</time></trkpt><trkpt lat="43.8619983" lon="6.49021"><ele>964.75</ele><time>2026-05-02T18:08:05.275Z</time></trkpt><trkpt lat="43.8618883" lon="6.49007"><ele>969.0</ele><time>2026-05-02T18:08:06.275Z</time></trkpt><trkpt lat="43.8617933" lon="6.489945"><ele>968.0</ele><time>2026-05-02T18:08:07.275Z</time></trkpt><trkpt lat="43.8617117" lon="6.489825"><ele>967.0000000000001</ele><time>2026-05-02T18:08:08.275Z</time></trkpt><trkpt lat="43.8616467" lon="6.4897117"><ele>966.0000000000001</ele><time>2026-05-02T18:08:09.275Z</time></trkpt><trkpt lat="43.8616033" lon="6.48961"><ele>965.0</ele><time>2026-05-02T18:08:10.276Z</time></trkpt><trkpt lat="43.861585" lon="6.489515"><ele>964.0</ele><time>2026-05-02T18:08:11.276Z</time></trkpt><trkpt lat="43.8616383" lon="6.48941"><ele>964.0</ele><time>2026-05-02T18:08:13.276Z</time></trkpt><trkpt lat="43.8617017" lon="6.4894317"><ele>964.0000000000001</ele><time>2026-05-02T18:08:14.275Z</time></trkpt><trkpt lat="43.8617667" lon="6.4895"><ele>964.0000000000001</ele><time>2026-05-02T18:08:15.275Z</time></trkpt><trkpt lat="43.8618333" lon="6.489625"><ele>964.0</ele><time>2026-05-02T18:08:16.275Z</time></trkpt><trkpt lat="43.8619183" lon="6.4897367"><ele>964.0</ele><time>2026-05-02T18:08:17.276Z</time></trkpt><trkpt lat="43.8620083" lon="6.4898033"><ele>965.25</ele><time>2026-05-02T18:08:18.275Z</time></trkpt><trkpt lat="43.86212" lon="6.4898283"><ele>966.5</ele><time>2026-05-02T18:08:19.275Z</time></trkpt><trkpt lat="43.8622533" lon="6.489815"><ele>967.75</ele><time>2026-05-02T18:08:20.275Z</time></trkpt><trkpt lat="43.86238" lon="6.4898317"><ele>969.0</ele><time>2026-05-02T18:08:21.275Z</time></trkpt><trkpt lat="43.8625017" lon="6.4898517"><ele>969.5</ele><time>2026-05-02T18:08:22.276Z</time></trkpt><trkpt lat="43.86263" lon="6.4898767"><ele>970.0</ele><time>2026-05-02T18:08:23.275Z</time></trkpt><trkpt lat="43.8627583" lon="6.48991"><ele>970.5</ele><time>2026-05-02T18:08:24.275Z</time></trkpt><trkpt lat="43.8628817" lon="6.4899417"><ele>971.0</ele><time>2026-05-02T18:08:25.275Z</time></trkpt><trkpt lat="43.863" lon="6.4899783"><ele>971.0</ele><time>2026-05-02T18:08:26.275Z</time></trkpt><trkpt lat="43.863115" lon="6.49002"><ele>971.0</ele><time>2026-05-02T18:08:27.275Z</time></trkpt><trkpt lat="43.8632267" lon="6.4900517"><ele>971.0</ele><time>2026-05-02T18:08:28.275Z</time></trkpt><trkpt lat="43.8633583" lon="6.490035"><ele>971.0</ele><time>2026-05-02T18:08:29.275Z</time></trkpt><trkpt lat="43.8634767" lon="6.489985"><ele>969.75</ele><time>2026-05-02T18:08:30.275Z</time></trkpt><trkpt lat="43.8635983" lon="6.4899367"><ele>968.5</ele><time>2026-05-02T18:08:31.275Z</time></trkpt><trkpt lat="43.8637317" lon="6.4898917"><ele>967.25</ele><time>2026-05-02T18:08:32.275Z</time></trkpt><trkpt lat="43.8638633" lon="6.489845"><ele>966.0</ele><time>2026-05-02T18:08:33.275Z</time></trkpt><trkpt lat="43.8639967" lon="6.4898067"><ele>966.0</ele><time>2026-05-02T18:08:34.275Z</time></trkpt><trkpt lat="43.8641283" lon="6.489765"><ele>966.0</ele><time>2026-05-02T18:08:35.275Z</time></trkpt><trkpt lat="43.8642633" lon="6.4897317"><ele>966.0</ele><time>2026-05-02T18:08:36.275Z</time></trkpt><trkpt lat="43.8643967" lon="6.4896917"><ele>966.0</ele><time>2026-05-02T18:08:37.275Z</time></trkpt><trkpt lat="43.8645267" lon="6.48964"><ele>971.5</ele><time>2026-05-02T18:08:38.275Z</time></trkpt><trkpt lat="43.86465" lon="6.489565"><ele>977.0</ele><time>2026-05-02T18:08:39.275Z</time></trkpt><trkpt lat="43.8647617" lon="6.489465"><ele>982.5</ele><time>2026-05-02T18:08:40.275Z</time></trkpt><trkpt lat="43.8648783" lon="6.4893583"><ele>988.0</ele><time>2026-05-02T18:08:41.275Z</time></trkpt><trkpt lat="43.8650017" lon="6.4892783"><ele>987.0</ele><time>2026-05-02T18:08:42.275Z</time></trkpt><trkpt lat="43.8651367" lon="6.489225"><ele>986.0</ele><time>2026-05-02T18:08:43.275Z</time></trkpt><trkpt lat="43.86527" lon="6.4891783"><ele>985.0</ele><time>2026-05-02T18:08:44.275Z</time></trkpt><trkpt lat="43.8654" lon="6.489125"><ele>984.0</ele><time>2026-05-02T18:08:45.275Z</time></trkpt><trkpt lat="43.8655217" lon="6.4890367"><ele>984.0</ele><time>2026-05-02T18:08:46.275Z</time></trkpt><trkpt lat="43.8656317" lon="6.4889267"><ele>984.0</ele><time>2026-05-02T18:08:47.275Z</time></trkpt><trkpt lat="43.865735" lon="6.4888"><ele>984.0</ele><time>2026-05-02T18:08:48.275Z</time></trkpt><trkpt lat="43.8658317" lon="6.488645"><ele>984.0</ele><time>2026-05-02T18:08:49.276Z</time></trkpt><trkpt lat="43.86592" lon="6.48848"><ele>983.0</ele><time>2026-05-02T18:08:50.275Z</time></trkpt><trkpt lat="43.8659983" lon="6.4883"><ele>982.0</ele><time>2026-05-02T18:08:51.275Z</time></trkpt><trkpt lat="43.8660567" lon="6.4881167"><ele>981.0</ele><time>2026-05-02T18:08:52.275Z</time></trkpt><trkpt lat="43.8661067" lon="6.487935"><ele>980.0</ele><time>2026-05-02T18:08:53.275Z</time></trkpt><trkpt lat="43.8661533" lon="6.4877567"><ele>983.2</ele><time>2026-05-02T18:08:54.276Z</time></trkpt><trkpt lat="43.8662017" lon="6.487615"><ele>986.4</ele><time>2026-05-02T18:08:55.275Z</time></trkpt><trkpt lat="43.8662667" lon="6.487505"><ele>989.5999999999999</ele><time>2026-05-02T18:08:56.275Z</time></trkpt><trkpt lat="43.86635" lon="6.487435"><ele>992.8</ele><time>2026-05-02T18:08:57.276Z</time></trkpt><trkpt lat="43.8664617" lon="6.4874133"><ele>996.0</ele><time>2026-05-02T18:08:58.275Z</time></trkpt><trkpt lat="43.8665883" lon="6.4873967"><ele>996.0</ele><time>2026-05-02T18:08:59.275Z</time></trkpt><trkpt lat="43.866715" lon="6.4873683"><ele>996.0</ele><time>2026-05-02T18:09:00.276Z</time></trkpt><trkpt lat="43.8668417" lon="6.487305"><ele>996.0</ele><time>2026-05-02T18:09:01.275Z</time></trkpt><trkpt lat="43.866965" lon="6.487215"><ele>996.0</ele><time>2026-05-02T18:09:02.275Z</time></trkpt><trkpt lat="43.86708" lon="6.4871133"><ele>998.0</ele><time>2026-05-02T18:09:03.275Z</time></trkpt><trkpt lat="43.86719" lon="6.486995"><ele>1000.0</ele><time>2026-05-02T18:09:04.276Z</time></trkpt><trkpt lat="43.867295" lon="6.48688"><ele>1002.0</ele><time>2026-05-02T18:09:05.275Z</time></trkpt><trkpt lat="43.8673883" lon="6.4867683"><ele>1004.0</ele><time>2026-05-02T18:09:06.276Z</time></trkpt><trkpt lat="43.8674733" lon="6.486655"><ele>1004.0</ele><time>2026-05-02T18:09:07.276Z</time></trkpt><trkpt lat="43.8675283" lon="6.4865383"><ele>1004.0000000000001</ele><time>2026-05-02T18:09:08.276Z</time></trkpt><trkpt lat="43.8675583" lon="6.4864"><ele>1004.0000000000001</ele><time>2026-05-02T18:09:09.276Z</time></trkpt><trkpt lat="43.8675333" lon="6.48627"><ele>1004.0</ele><time>2026-05-02T18:09:10.276Z</time></trkpt><trkpt lat="43.8674683" lon="6.4861483"><ele>1004.0</ele><time>2026-05-02T18:09:11.276Z</time></trkpt><trkpt lat="43.8673733" lon="6.4860783"><ele>1004.0</ele><time>2026-05-02T18:09:12.276Z</time></trkpt><trkpt lat="43.8672583" lon="6.4860717"><ele>1004.0</ele><time>2026-05-02T18:09:13.277Z</time></trkpt><trkpt lat="43.867145" lon="6.48612"><ele>1004.0</ele><time>2026-05-02T18:09:14.276Z</time></trkpt><trkpt lat="43.867025" lon="6.48621"><ele>1004.0</ele><time>2026-05-02T18:09:15.276Z</time></trkpt><trkpt lat="43.8669117" lon="6.4863067"><ele>1004.0</ele><time>2026-05-02T18:09:16.276Z</time></trkpt><trkpt lat="43.866795" lon="6.4863983"><ele>1004.0</ele><time>2026-05-02T18:09:17.276Z</time></trkpt><trkpt lat="43.8666867" lon="6.4864667"><ele>1004.0</ele><time>2026-05-02T18:09:18.276Z</time></trkpt><trkpt lat="43.8665717" lon="6.48653"><ele>1004.0</ele><time>2026-05-02T18:09:19.276Z</time></trkpt><trkpt lat="43.866445" lon="6.4865517"><ele>1006.75</ele><time>2026-05-02T18:09:20.276Z</time></trkpt><trkpt lat="43.86632" lon="6.4865517"><ele>1009.5</ele><time>2026-05-02T18:09:21.276Z</time></trkpt><trkpt lat="43.8661967" lon="6.4865267"><ele>1012.25</ele><time>2026-05-02T18:09:22.276Z</time></trkpt><trkpt lat="43.8660717" lon="6.4864833"><ele>1015.0</ele><time>2026-05-02T18:09:23.276Z</time></trkpt><trkpt lat="43.8659383" lon="6.4864333"><ele>1017.0</ele><time>2026-05-02T18:09:24.277Z</time></trkpt><trkpt lat="43.8658083" lon="6.4863967"><ele>1019.0</ele><time>2026-05-02T18:09:25.276Z</time></trkpt><trkpt lat="43.8656867" lon="6.48636"><ele>1021.0</ele><time>2026-05-02T18:09:26.276Z</time></trkpt><trkpt lat="43.8655833" lon="6.4863467"><ele>1023.0</ele><time>2026-05-02T18:09:27.276Z</time></trkpt><trkpt lat="43.8654783" lon="6.4863933"><ele>1023.0</ele><time>2026-05-02T18:09:28.276Z</time></trkpt><trkpt lat="43.8653917" lon="6.4864883"><ele>1023.0</ele><time>2026-05-02T18:09:29.276Z</time></trkpt><trkpt lat="43.8653333" lon="6.4866233"><ele>1023.0</ele><time>2026-05-02T18:09:30.276Z</time></trkpt><trkpt lat="43.8652817" lon="6.4867633"><ele>1023.0</ele><time>2026-05-02T18:09:31.276Z</time></trkpt><trkpt lat="43.8652067" lon="6.4868667"><ele>1023.0</ele><time>2026-05-02T18:09:32.276Z</time></trkpt><trkpt lat="43.8651133" lon="6.48694"><ele>1025.75</ele><time>2026-05-02T18:09:33.276Z</time></trkpt><trkpt lat="43.8649867" lon="6.4869783"><ele>1028.5</ele><time>2026-05-02T18:09:34.277Z</time></trkpt><trkpt lat="43.864855" lon="6.487"><ele>1031.25</ele><time>2026-05-02T18:09:35.276Z</time></trkpt><trkpt lat="43.8647283" lon="6.4870017"><ele>1034.0</ele><time>2026-05-02T18:09:36.276Z</time></trkpt><trkpt lat="43.8646117" lon="6.4869767"><ele>1034.0</ele><time>2026-05-02T18:09:37.276Z</time></trkpt><trkpt lat="43.8645017" lon="6.4869183"><ele>1034.0</ele><time>2026-05-02T18:09:38.276Z</time></trkpt><trkpt lat="43.8644017" lon="6.4868283"><ele>1034.0</ele><time>2026-05-02T18:09:39.276Z</time></trkpt><trkpt lat="43.8643117" lon="6.486715"><ele>1034.0</ele><time>2026-05-02T18:09:40.276Z</time></trkpt><trkpt lat="43.86422" lon="6.4865933"><ele>1035.0</ele><time>2026-05-02T18:09:41.276Z</time></trkpt><trkpt lat="43.8641267" lon="6.4864617"><ele>1036.0</ele><time>2026-05-02T18:09:42.276Z</time></trkpt><trkpt lat="43.864045" lon="6.4863167"><ele>1037.0</ele><time>2026-05-02T18:09:43.276Z</time></trkpt><trkpt lat="43.8639583" lon="6.48618"><ele>1038.0</ele><time>2026-05-02T18:09:44.277Z</time></trkpt><trkpt lat="43.8638667" lon="6.4860567"><ele>1038.0</ele><time>2026-05-02T18:09:45.276Z</time></trkpt><trkpt lat="43.863765" lon="6.485945"><ele>1038.0</ele><time>2026-05-02T18:09:46.277Z</time></trkpt><trkpt lat="43.86367" lon="6.485855"><ele>1038.0</ele><time>2026-05-02T18:09:47.276Z</time></trkpt><trkpt lat="43.8635733" lon="6.4857917"><ele>1038.0</ele><time>2026-05-02T18:09:48.276Z</time></trkpt><trkpt lat="43.8634983" lon="6.485725"><ele>1038.0</ele><time>2026-05-02T18:09:49.276Z</time></trkpt><trkpt lat="43.8634417" lon="6.485645"><ele>1038.0</ele><time>2026-05-02T18:09:50.276Z</time></trkpt><trkpt lat="43.8634233" lon="6.485545"><ele>1038.0</ele><time>2026-05-02T18:09:51.276Z</time></trkpt><trkpt lat="43.8634483" lon="6.4854617"><ele>1038.0</ele><time>2026-05-02T18:09:52.276Z</time></trkpt><trkpt lat="43.8635167" lon="6.48541"><ele>1038.0</ele><time>2026-05-02T18:09:53.276Z</time></trkpt><trkpt lat="43.86361" lon="6.4854083"><ele>1038.0</ele><time>2026-05-02T18:09:54.276Z</time></trkpt><trkpt lat="43.863715" lon="6.4854667"><ele>1038.0</ele><time>2026-05-02T18:09:55.276Z</time></trkpt><trkpt lat="43.8638317" lon="6.4855517"><ele>1039.75</ele><time>2026-05-02T18:09:56.277Z</time></trkpt><trkpt lat="43.8639583" lon="6.4856233"><ele>1041.5</ele><time>2026-05-02T18:09:57.276Z</time></trkpt><trkpt lat="43.86408" lon="6.4856483"><ele>1043.25</ele><time>2026-05-02T18:09:58.276Z</time></trkpt><trkpt lat="43.8642017" lon="6.48563"><ele>1045.0</ele><time>2026-05-02T18:09:59.276Z</time></trkpt><trkpt lat="43.864325" lon="6.4855883"><ele>1045.0</ele><time>2026-05-02T18:10:00.277Z</time></trkpt><trkpt lat="43.8644467" lon="6.4855333"><ele>1045.0</ele><time>2026-05-02T18:10:01.277Z</time></trkpt><trkpt lat="43.864565" lon="6.4854817"><ele>1045.0</ele><time>2026-05-02T18:10:02.276Z</time></trkpt><trkpt lat="43.8646833" lon="6.485425"><ele>1045.0</ele><time>2026-05-02T18:10:03.276Z</time></trkpt><trkpt lat="43.8647917" lon="6.4853767"><ele>1047.3333333333333</ele><time>2026-05-02T18:10:04.276Z</time></trkpt><trkpt lat="43.86489" lon="6.4853317"><ele>1049.6666666666665</ele><time>2026-05-02T18:10:05.276Z</time></trkpt><trkpt lat="43.8649817" lon="6.485275"><ele>1052.0</ele><time>2026-05-02T18:10:06.277Z</time></trkpt><trkpt lat="43.865035" lon="6.485195"><ele>1054.3333333333333</ele><time>2026-05-02T18:10:07.277Z</time></trkpt><trkpt lat="43.8650467" lon="6.4850983"><ele>1056.6666666666667</ele><time>2026-05-02T18:10:08.276Z</time></trkpt><trkpt lat="43.8650217" lon="6.485015"><ele>1059.0</ele><time>2026-05-02T18:10:09.276Z</time></trkpt><trkpt lat="43.8649617" lon="6.4849567"><ele>1059.0</ele><time>2026-05-02T18:10:10.276Z</time></trkpt><trkpt lat="43.8648483" lon="6.4849767"><ele>1059.0</ele><time>2026-05-02T18:10:11.276Z</time></trkpt><trkpt lat="43.864715" lon="6.4850433"><ele>1059.0</ele><time>2026-05-02T18:10:12.276Z</time></trkpt><trkpt lat="43.86458" lon="6.485105"><ele>1059.0</ele><time>2026-05-02T18:10:13.276Z</time></trkpt><trkpt lat="43.8644533" lon="6.485135"><ele>1059.0</ele><time>2026-05-02T18:10:14.276Z</time></trkpt><trkpt lat="43.8643483" lon="6.485125"><ele>1059.0</ele><time>2026-05-02T18:10:15.276Z</time></trkpt><trkpt lat="43.8642517" lon="6.485075"><ele>1059.0</ele><time>2026-05-02T18:10:16.276Z</time></trkpt><trkpt lat="43.8641733" lon="6.48497"><ele>1059.0</ele><time>2026-05-02T18:10:17.276Z</time></trkpt><trkpt lat="43.86413" lon="6.4848317"><ele>1059.0</ele><time>2026-05-02T18:10:18.276Z</time></trkpt><trkpt lat="43.8641283" lon="6.48465"><ele>1059.75</ele><time>2026-05-02T18:10:19.276Z</time></trkpt><trkpt lat="43.8641367" lon="6.4844633"><ele>1060.5</ele><time>2026-05-02T18:10:20.277Z</time></trkpt><trkpt lat="43.864115" lon="6.4842767"><ele>1061.25</ele><time>2026-05-02T18:10:21.276Z</time></trkpt><trkpt lat="43.8640683" lon="6.4841133"><ele>1062.0</ele><time>2026-05-02T18:10:22.276Z</time></trkpt><trkpt lat="43.8640117" lon="6.4839517"><ele>1062.0</ele><time>2026-05-02T18:10:23.276Z</time></trkpt><trkpt lat="43.8639617" lon="6.483785"><ele>1062.0</ele><time>2026-05-02T18:10:24.276Z</time></trkpt><trkpt lat="43.8639417" lon="6.4836017"><ele>1062.0</ele><time>2026-05-02T18:10:25.276Z</time></trkpt><trkpt lat="43.8639417" lon="6.4834067"><ele>1062.0</ele><time>2026-05-02T18:10:26.276Z</time></trkpt><trkpt lat="43.8639467" lon="6.48322"><ele>1064.0</ele><time>2026-05-02T18:10:27.276Z</time></trkpt><trkpt lat="43.8639717" lon="6.4830283"><ele>1066.0</ele><time>2026-05-02T18:10:28.276Z</time></trkpt><trkpt lat="43.8640017" lon="6.4828367"><ele>1068.0</ele><time>2026-05-02T18:10:29.276Z</time></trkpt><trkpt lat="43.8640317" lon="6.4826467"><ele>1070.0</ele><time>2026-05-02T18:10:30.276Z</time></trkpt><trkpt lat="43.86407" lon="6.4824517"><ele>1070.0</ele><time>2026-05-02T18:10:31.276Z</time></trkpt><trkpt lat="43.86411" lon="6.482275"><ele>1070.0</ele><time>2026-05-02T18:10:32.277Z</time></trkpt><trkpt lat="43.864165" lon="6.4821"><ele>1070.0</ele><time>2026-05-02T18:10:33.276Z</time></trkpt><trkpt lat="43.86424" lon="6.4819517"><ele>1070.0</ele><time>2026-05-02T18:10:34.276Z</time></trkpt><trkpt lat="43.8643383" lon="6.4818117"><ele>1074.0</ele><time>2026-05-02T18:10:35.276Z</time></trkpt><trkpt lat="43.8644567" lon="6.4816933"><ele>1078.0</ele><time>2026-05-02T18:10:36.276Z</time></trkpt><trkpt lat="43.8645733" lon="6.481565"><ele>1082.0</ele><time>2026-05-02T18:10:37.276Z</time></trkpt><trkpt lat="43.8646867" lon="6.48142"><ele>1086.0</ele><time>2026-05-02T18:10:38.276Z</time></trkpt><trkpt lat="43.86479" lon="6.4812633"><ele>1086.0</ele><time>2026-05-02T18:10:39.276Z</time></trkpt><trkpt lat="43.8648767" lon="6.4810883"><ele>1086.0</ele><time>2026-05-02T18:10:40.276Z</time></trkpt><trkpt lat="43.864945" lon="6.4808883"><ele>1086.0</ele><time>2026-05-02T18:10:41.276Z</time></trkpt><trkpt lat="43.8650017" lon="6.4806633"><ele>1086.0</ele><time>2026-05-02T18:10:42.276Z</time></trkpt><trkpt lat="43.86506" lon="6.4804467"><ele>1086.0</ele><time>2026-05-02T18:10:43.276Z</time></trkpt><trkpt lat="43.8651083" lon="6.4802483"><ele>1086.0</ele><time>2026-05-02T18:10:44.276Z</time></trkpt><trkpt lat="43.8651633" lon="6.48004"><ele>1095.0</ele><time>2026-05-02T18:10:45.276Z</time></trkpt><trkpt lat="43.86521" lon="6.4798283"><ele>1104.0</ele><time>2026-05-02T18:10:46.276Z</time></trkpt><trkpt lat="43.8652417" lon="6.479605"><ele>1113.0</ele><time>2026-05-02T18:10:47.276Z</time></trkpt><trkpt lat="43.86527" lon="6.4793933"><ele>1113.0</ele><time>2026-05-02T18:10:48.276Z</time></trkpt><trkpt lat="43.86529" lon="6.4791933"><ele>1113.0</ele><time>2026-05-02T18:10:49.276Z</time></trkpt><trkpt lat="43.86532" lon="6.478995"><ele>1113.0</ele><time>2026-05-02T18:10:50.276Z</time></trkpt><trkpt lat="43.86533" lon="6.4787933"><ele>1113.0</ele><time>2026-05-02T18:10:51.276Z</time></trkpt><trkpt lat="43.86534" lon="6.478595"><ele>1111.25</ele><time>2026-05-02T18:10:52.276Z</time></trkpt><trkpt lat="43.8653533" lon="6.478425"><ele>1109.5</ele><time>2026-05-02T18:10:53.276Z</time></trkpt><trkpt lat="43.8653883" lon="6.4782733"><ele>1107.75</ele><time>2026-05-02T18:10:54.277Z</time></trkpt><trkpt lat="43.8654517" lon="6.4781367"><ele>1106.0</ele><time>2026-05-02T18:10:55.276Z</time></trkpt><trkpt lat="43.865525" lon="6.4780217"><ele>1101.75</ele><time>2026-05-02T18:10:56.276Z</time></trkpt><trkpt lat="43.8656183" lon="6.4779067"><ele>1097.5</ele><time>2026-05-02T18:10:57.276Z</time></trkpt><trkpt lat="43.865725" lon="6.477795"><ele>1093.25</ele><time>2026-05-02T18:10:58.276Z</time></trkpt><trkpt lat="43.8658333" lon="6.4776733"><ele>1089.0</ele><time>2026-05-02T18:10:59.276Z</time></trkpt><trkpt lat="43.865945" lon="6.4775483"><ele>1093.5</ele><time>2026-05-02T18:11:00.276Z</time></trkpt><trkpt lat="43.8660567" lon="6.47742"><ele>1098.0</ele><time>2026-05-02T18:11:01.276Z</time></trkpt><trkpt lat="43.86616" lon="6.4772783"><ele>1102.5</ele><time>2026-05-02T18:11:02.276Z</time></trkpt><trkpt lat="43.8662583" lon="6.4771167"><ele>1107.0</ele><time>2026-05-02T18:11:03.276Z</time></trkpt><trkpt lat="43.8663567" lon="6.4769517"><ele>1107.0</ele><time>2026-05-02T18:11:04.276Z</time></trkpt><trkpt lat="43.8664533" lon="6.476795"><ele>1107.0</ele><time>2026-05-02T18:11:05.276Z</time></trkpt><trkpt lat="43.8665217" lon="6.47663"><ele>1107.0</ele><time>2026-05-02T18:11:06.276Z</time></trkpt><trkpt lat="43.8665667" lon="6.4764467"><ele>1107.0</ele><time>2026-05-02T18:11:07.276Z</time></trkpt><trkpt lat="43.8665883" lon="6.476255"><ele>1106.0</ele><time>2026-05-02T18:11:08.277Z</time></trkpt><trkpt lat="43.8665983" lon="6.47605"><ele>1105.0</ele><time>2026-05-02T18:11:09.276Z</time></trkpt><trkpt lat="43.8666117" lon="6.47585"><ele>1104.0</ele><time>2026-05-02T18:11:10.276Z</time></trkpt><trkpt lat="43.8666333" lon="6.475645"><ele>1103.0</ele><time>2026-05-02T18:11:11.276Z</time></trkpt><trkpt lat="43.8666633" lon="6.4754533"><ele>1099.25</ele><time>2026-05-02T18:11:12.277Z</time></trkpt><trkpt lat="43.866705" lon="6.4752733"><ele>1095.5</ele><time>2026-05-02T18:11:13.276Z</time></trkpt><trkpt lat="43.8667633" lon="6.4750983"><ele>1091.75</ele><time>2026-05-02T18:11:14.276Z</time></trkpt><trkpt lat="43.8668383" lon="6.4749433"><ele>1088.0</ele><time>2026-05-02T18:11:15.276Z</time></trkpt><trkpt lat="43.8669267" lon="6.474805"><ele>1093.25</ele><time>2026-05-02T18:11:16.276Z</time></trkpt><trkpt lat="43.8670167" lon="6.47466"><ele>1098.5</ele><time>2026-05-02T18:11:17.276Z</time></trkpt><trkpt lat="43.867115" lon="6.47451"><ele>1103.75</ele><time>2026-05-02T18:11:18.276Z</time></trkpt><trkpt lat="43.867195" lon="6.4743583"><ele>1109.0</ele><time>2026-05-02T18:11:19.276Z</time></trkpt><trkpt lat="43.8672683" lon="6.474205"><ele>1109.0</ele><time>2026-05-02T18:11:20.276Z</time></trkpt><trkpt lat="43.8673117" lon="6.4740383"><ele>1109.0</ele><time>2026-05-02T18:11:21.276Z</time></trkpt><trkpt lat="43.8673117" lon="6.4738783"><ele>1109.0</ele><time>2026-05-02T18:11:22.276Z</time></trkpt><trkpt lat="43.8672917" lon="6.4737017"><ele>1109.0</ele><time>2026-05-02T18:11:23.276Z</time></trkpt><trkpt lat="43.867295" lon="6.47354"><ele>1108.0</ele><time>2026-05-02T18:11:24.276Z</time></trkpt><trkpt lat="43.8673383" lon="6.4733783"><ele>1107.0</ele><time>2026-05-02T18:11:25.276Z</time></trkpt><trkpt lat="43.8674" lon="6.4732383"><ele>1106.0</ele><time>2026-05-02T18:11:26.276Z</time></trkpt><trkpt lat="43.8674783" lon="6.473095"><ele>1105.0</ele><time>2026-05-02T18:11:27.276Z</time></trkpt><trkpt lat="43.867575" lon="6.4729383"><ele>1117.0</ele><time>2026-05-02T18:11:28.276Z</time></trkpt><trkpt lat="43.86767" lon="6.47277"><ele>1129.0</ele><time>2026-05-02T18:11:29.276Z</time></trkpt><trkpt lat="43.8677783" lon="6.4726"><ele>1141.0</ele><time>2026-05-02T18:11:30.276Z</time></trkpt><trkpt lat="43.8678833" lon="6.472425"><ele>1141.0</ele><time>2026-05-02T18:11:31.276Z</time></trkpt><trkpt lat="43.8679783" lon="6.47226"><ele>1141.0</ele><time>2026-05-02T18:11:32.276Z</time></trkpt><trkpt lat="43.86806" lon="6.4720867"><ele>1141.0</ele><time>2026-05-02T18:11:33.276Z</time></trkpt><trkpt lat="43.8681217" lon="6.4719117"><ele>1141.0</ele><time>2026-05-02T18:11:34.276Z</time></trkpt><trkpt lat="43.8681883" lon="6.4717433"><ele>1145.5</ele><time>2026-05-02T18:11:35.277Z</time></trkpt><trkpt lat="43.868265" lon="6.471615"><ele>1150.0</ele><time>2026-05-02T18:11:36.276Z</time></trkpt><trkpt lat="43.8683767" lon="6.4715383"><ele>1154.5</ele><time>2026-05-02T18:11:37.276Z</time></trkpt><trkpt lat="43.8684883" lon="6.4714833"><ele>1159.0</ele><time>2026-05-02T18:11:38.276Z</time></trkpt><trkpt lat="43.8685817" lon="6.47139"><ele>1156.0</ele><time>2026-05-02T18:11:39.276Z</time></trkpt><trkpt lat="43.8686433" lon="6.471265"><ele>1153.0</ele><time>2026-05-02T18:11:40.276Z</time></trkpt><trkpt lat="43.8686617" lon="6.471115"><ele>1150.0</ele><time>2026-05-02T18:11:41.276Z</time></trkpt><trkpt lat="43.8686583" lon="6.4709383"><ele>1147.0</ele><time>2026-05-02T18:11:42.276Z</time></trkpt><trkpt lat="43.868655" lon="6.4707417"><ele>1147.0</ele><time>2026-05-02T18:11:43.276Z</time></trkpt><trkpt lat="43.86867" lon="6.4705483"><ele>1147.0</ele><time>2026-05-02T18:11:44.276Z</time></trkpt><trkpt lat="43.8687033" lon="6.4703633"><ele>1147.0</ele><time>2026-05-02T18:11:45.276Z</time></trkpt><trkpt lat="43.8687433" lon="6.47017"><ele>1147.0</ele><time>2026-05-02T18:11:46.276Z</time></trkpt><trkpt lat="43.868805" lon="6.4699733"><ele>1144.75</ele><time>2026-05-02T18:11:47.276Z</time></trkpt><trkpt lat="43.8688717" lon="6.4697967"><ele>1142.5</ele><time>2026-05-02T18:11:48.276Z</time></trkpt><trkpt lat="43.8689433" lon="6.4696467"><ele>1140.25</ele><time>2026-05-02T18:11:49.276Z</time></trkpt><trkpt lat="43.8689983" lon="6.4694967"><ele>1138.0</ele><time>2026-05-02T18:11:50.277Z</time></trkpt><trkpt lat="43.8690133" lon="6.4693417"><ele>1136.75</ele><time>2026-05-02T18:11:51.276Z</time></trkpt><trkpt lat="43.8689817" lon="6.469175"><ele>1135.5</ele><time>2026-05-02T18:11:52.276Z</time></trkpt><trkpt lat="43.868945" lon="6.4690167"><ele>1134.25</ele><time>2026-05-02T18:11:53.276Z</time></trkpt><trkpt lat="43.8689317" lon="6.46885"><ele>1133.0</ele><time>2026-05-02T18:11:54.276Z</time></trkpt><trkpt lat="43.8689583" lon="6.46868"><ele>1133.0</ele><time>2026-05-02T18:11:55.276Z</time></trkpt><trkpt lat="43.8690017" lon="6.4685033"><ele>1133.0</ele><time>2026-05-02T18:11:56.276Z</time></trkpt><trkpt lat="43.86903" lon="6.4683367"><ele>1133.0</ele><time>2026-05-02T18:11:57.277Z</time></trkpt><trkpt lat="43.869035" lon="6.4681617"><ele>1133.0</ele><time>2026-05-02T18:11:58.276Z</time></trkpt><trkpt lat="43.8689983" lon="6.4680017"><ele>1134.25</ele><time>2026-05-02T18:11:59.277Z</time></trkpt><trkpt lat="43.868915" lon="6.467825"><ele>1135.5</ele><time>2026-05-02T18:12:00.276Z</time></trkpt><trkpt lat="43.8688183" lon="6.467675"><ele>1136.75</ele><time>2026-05-02T18:12:01.276Z</time></trkpt><trkpt lat="43.8687267" lon="6.4675417"><ele>1138.0</ele><time>2026-05-02T18:12:02.276Z</time></trkpt><trkpt lat="43.8686317" lon="6.46741"><ele>1138.0</ele><time>2026-05-02T18:12:03.276Z</time></trkpt><trkpt lat="43.8685233" lon="6.4673317"><ele>1138.0</ele><time>2026-05-02T18:12:04.276Z</time></trkpt><trkpt lat="43.8683967" lon="6.4673033"><ele>1138.0</ele><time>2026-05-02T18:12:05.277Z</time></trkpt><trkpt lat="43.86826" lon="6.467345"><ele>1138.0</ele><time>2026-05-02T18:12:06.276Z</time></trkpt><trkpt lat="43.8681317" lon="6.4674283"><ele>1136.0</ele><time>2026-05-02T18:12:07.277Z</time></trkpt><trkpt lat="43.8680017" lon="6.4675183"><ele>1134.0</ele><time>2026-05-02T18:12:08.276Z</time></trkpt><trkpt lat="43.8678783" lon="6.4675983"><ele>1132.0</ele><time>2026-05-02T18:12:09.276Z</time></trkpt><trkpt lat="43.867745" lon="6.4676317"><ele>1130.0</ele><time>2026-05-02T18:12:10.276Z</time></trkpt><trkpt lat="43.867615" lon="6.46763"><ele>1130.0</ele><time>2026-05-02T18:12:11.276Z</time></trkpt><trkpt lat="43.8674767" lon="6.4676117"><ele>1130.0</ele><time>2026-05-02T18:12:12.276Z</time></trkpt><trkpt lat="43.8673367" lon="6.46759"><ele>1130.0</ele><time>2026-05-02T18:12:13.277Z</time></trkpt><trkpt lat="43.8671883" lon="6.4675783"><ele>1130.0</ele><time>2026-05-02T18:12:14.276Z</time></trkpt><trkpt lat="43.8670467" lon="6.4675917"><ele>1130.0</ele><time>2026-05-02T18:12:15.276Z</time></trkpt><trkpt lat="43.8669183" lon="6.4676283"><ele>1130.0</ele><time>2026-05-02T18:12:16.277Z</time></trkpt><trkpt lat="43.8667967" lon="6.4677033"><ele>1130.0</ele><time>2026-05-02T18:12:17.276Z</time></trkpt><trkpt lat="43.8666717" lon="6.4677883"><ele>1130.0</ele><time>2026-05-02T18:12:18.276Z</time></trkpt><trkpt lat="43.8665517" lon="6.4678617"><ele>1129.2</ele><time>2026-05-02T18:12:19.277Z</time></trkpt><trkpt lat="43.86644" lon="6.467925"><ele>1128.4</ele><time>2026-05-02T18:12:20.276Z</time></trkpt><trkpt lat="43.8663367" lon="6.4679567"><ele>1127.6</ele><time>2026-05-02T18:12:21.276Z</time></trkpt><trkpt lat="43.8662317" lon="6.4679583"><ele>1126.8</ele><time>2026-05-02T18:12:22.277Z</time></trkpt><trkpt lat="43.86614" lon="6.4679"><ele>1126.0</ele><time>2026-05-02T18:12:23.277Z</time></trkpt><trkpt lat="43.8660567" lon="6.4678"><ele>1128.0</ele><time>2026-05-02T18:12:24.276Z</time></trkpt><trkpt lat="43.8659933" lon="6.4676617"><ele>1130.0</ele><time>2026-05-02T18:12:25.277Z</time></trkpt><trkpt lat="43.865935" lon="6.4675033"><ele>1132.0</ele><time>2026-05-02T18:12:26.276Z</time></trkpt><trkpt lat="43.8658783" lon="6.467345"><ele>1134.0</ele><time>2026-05-02T18:12:27.277Z</time></trkpt><trkpt lat="43.865815" lon="6.4671917"><ele>1137.5</ele><time>2026-05-02T18:12:28.277Z</time></trkpt><trkpt lat="43.8657467" lon="6.46704"><ele>1141.0</ele><time>2026-05-02T18:12:29.276Z</time></trkpt><trkpt lat="43.8656633" lon="6.466895"><ele>1144.5</ele><time>2026-05-02T18:12:30.277Z</time></trkpt><trkpt lat="43.86556" lon="6.466775"><ele>1148.0</ele><time>2026-05-02T18:12:31.276Z</time></trkpt><trkpt lat="43.8654483" lon="6.466695"><ele>1148.0</ele><time>2026-05-02T18:12:32.276Z</time></trkpt><trkpt lat="43.86533" lon="6.466625"><ele>1148.0</ele><time>2026-05-02T18:12:33.277Z</time></trkpt><trkpt lat="43.8652233" lon="6.466565"><ele>1148.0</ele><time>2026-05-02T18:12:34.276Z</time></trkpt><trkpt lat="43.86513" lon="6.4665017"><ele>1148.0</ele><time>2026-05-02T18:12:35.276Z</time></trkpt><trkpt lat="43.8650467" lon="6.46642"><ele>1146.6</ele><time>2026-05-02T18:12:36.276Z</time></trkpt><trkpt lat="43.8649883" lon="6.4663067"><ele>1145.1999999999998</ele><time>2026-05-02T18:12:37.277Z</time></trkpt><trkpt lat="43.8649617" lon="6.46618"><ele>1143.8</ele><time>2026-05-02T18:12:38.276Z</time></trkpt><trkpt lat="43.8649583" lon="6.4660367"><ele>1142.3999999999999</ele><time>2026-05-02T18:12:39.276Z</time></trkpt><trkpt lat="43.8649867" lon="6.4658717"><ele>1141.0</ele><time>2026-05-02T18:12:40.276Z</time></trkpt><trkpt lat="43.8650333" lon="6.4656917"><ele>1141.0</ele><time>2026-05-02T18:12:41.276Z</time></trkpt><trkpt lat="43.8650783" lon="6.465515"><ele>1141.0</ele><time>2026-05-02T18:12:42.276Z</time></trkpt><trkpt lat="43.8651233" lon="6.4653383"><ele>1141.0</ele><time>2026-05-02T18:12:43.276Z</time></trkpt><trkpt lat="43.8651667" lon="6.4651633"><ele>1141.0</ele><time>2026-05-02T18:12:44.276Z</time></trkpt><trkpt lat="43.8652117" lon="6.4650067"><ele>1142.8</ele><time>2026-05-02T18:12:45.276Z</time></trkpt><trkpt lat="43.86527" lon="6.4648617"><ele>1144.6</ele><time>2026-05-02T18:12:46.277Z</time></trkpt><trkpt lat="43.865325" lon="6.4647367"><ele>1146.4</ele><time>2026-05-02T18:12:47.276Z</time></trkpt><trkpt lat="43.8653733" lon="6.46461"><ele>1148.2</ele><time>2026-05-02T18:12:48.276Z</time></trkpt><trkpt lat="43.86542" lon="6.4644767"><ele>1150.0</ele><time>2026-05-02T18:12:49.276Z</time></trkpt><trkpt lat="43.865455" lon="6.464335"><ele>1150.0</ele><time>2026-05-02T18:12:50.277Z</time></trkpt><trkpt lat="43.8654867" lon="6.4641917"><ele>1150.0</ele><time>2026-05-02T18:12:51.276Z</time></trkpt><trkpt lat="43.8655083" lon="6.46404"><ele>1150.0</ele><time>2026-05-02T18:12:52.276Z</time></trkpt><trkpt lat="43.8655033" lon="6.463885"><ele>1150.0</ele><time>2026-05-02T18:12:53.277Z</time></trkpt><trkpt lat="43.8654967" lon="6.463715"><ele>1149.75</ele><time>2026-05-02T18:12:54.276Z</time></trkpt><trkpt lat="43.8655" lon="6.4635367"><ele>1149.5</ele><time>2026-05-02T18:12:55.276Z</time></trkpt><trkpt lat="43.8655017" lon="6.4633533"><ele>1149.25</ele><time>2026-05-02T18:12:56.276Z</time></trkpt><trkpt lat="43.865505" lon="6.4631617"><ele>1149.0</ele><time>2026-05-02T18:12:57.276Z</time></trkpt><trkpt lat="43.86551" lon="6.4629683"><ele>1148.25</ele><time>2026-05-02T18:12:58.277Z</time></trkpt><trkpt lat="43.86552" lon="6.462775"><ele>1147.5</ele><time>2026-05-02T18:12:59.276Z</time></trkpt><trkpt lat="43.8655233" lon="6.462585"><ele>1146.75</ele><time>2026-05-02T18:13:00.276Z</time></trkpt><trkpt lat="43.8655217" lon="6.4624083"><ele>1146.0</ele><time>2026-05-02T18:13:01.276Z</time></trkpt><trkpt lat="43.8655383" lon="6.4622217"><ele>1144.25</ele><time>2026-05-02T18:13:02.276Z</time></trkpt><trkpt lat="43.8655733" lon="6.4620483"><ele>1142.5</ele><time>2026-05-02T18:13:03.276Z</time></trkpt><trkpt lat="43.8656333" lon="6.461865"><ele>1140.75</ele><time>2026-05-02T18:13:04.277Z</time></trkpt><trkpt lat="43.865695" lon="6.4616867"><ele>1139.0</ele><time>2026-05-02T18:13:05.276Z</time></trkpt><trkpt lat="43.86576" lon="6.461495"><ele>1139.0</ele><time>2026-05-02T18:13:06.276Z</time></trkpt><trkpt lat="43.865825" lon="6.4613033"><ele>1139.0</ele><time>2026-05-02T18:13:07.277Z</time></trkpt><trkpt lat="43.8658867" lon="6.46111"><ele>1139.0</ele><time>2026-05-02T18:13:08.276Z</time></trkpt><trkpt lat="43.8659617" lon="6.4609117"><ele>1141.0</ele><time>2026-05-02T18:13:09.276Z</time></trkpt><trkpt lat="43.8660317" lon="6.460715"><ele>1143.0</ele><time>2026-05-02T18:13:10.276Z</time></trkpt><trkpt lat="43.8660983" lon="6.4605133"><ele>1145.0</ele><time>2026-05-02T18:13:11.276Z</time></trkpt><trkpt lat="43.866155" lon="6.4603267"><ele>1145.0</ele><time>2026-05-02T18:13:12.277Z</time></trkpt><trkpt lat="43.8662083" lon="6.4601433"><ele>1145.0</ele><time>2026-05-02T18:13:13.276Z</time></trkpt><trkpt lat="43.8662617" lon="6.45996"><ele>1145.0</ele><time>2026-05-02T18:13:14.276Z</time></trkpt><trkpt lat="43.8663083" lon="6.459785"><ele>1145.0</ele><time>2026-05-02T18:13:15.276Z</time></trkpt><trkpt lat="43.866365" lon="6.4596217"><ele>1143.4</ele><time>2026-05-02T18:13:16.277Z</time></trkpt><trkpt lat="43.8664267" lon="6.4594983"><ele>1141.8</ele><time>2026-05-02T18:13:17.276Z</time></trkpt><trkpt lat="43.8664733" lon="6.4593933"><ele>1140.2</ele><time>2026-05-02T18:13:18.277Z</time></trkpt><trkpt lat="43.86649" lon="6.4592817"><ele>1138.6</ele><time>2026-05-02T18:13:19.276Z</time></trkpt><trkpt lat="43.86648" lon="6.4591917"><ele>1137.0</ele><time>2026-05-02T18:13:20.276Z</time></trkpt><trkpt lat="43.8663917" lon="6.459095"><ele>1137.0</ele><time>2026-05-02T18:13:22.276Z</time></trkpt><trkpt lat="43.86631" lon="6.4591083"><ele>1137.0</ele><time>2026-05-02T18:13:23.276Z</time></trkpt><trkpt lat="43.866215" lon="6.4591867"><ele>1137.0</ele><time>2026-05-02T18:13:24.276Z</time></trkpt><trkpt lat="43.8661" lon="6.4593167"><ele>1137.0</ele><time>2026-05-02T18:13:25.276Z</time></trkpt><trkpt lat="43.8659767" lon="6.4594517"><ele>1132.6666666666667</ele><time>2026-05-02T18:13:26.277Z</time></trkpt><trkpt lat="43.8658467" lon="6.45958"><ele>1128.3333333333335</ele><time>2026-05-02T18:13:27.276Z</time></trkpt><trkpt lat="43.8657317" lon="6.4597283"><ele>1124.0</ele><time>2026-05-02T18:13:28.276Z</time></trkpt><trkpt lat="43.8656433" lon="6.4598983"><ele>1124.0</ele><time>2026-05-02T18:13:29.277Z</time></trkpt><trkpt lat="43.8655783" lon="6.46008"><ele>1124.0</ele><time>2026-05-02T18:13:30.276Z</time></trkpt><trkpt lat="43.8655083" lon="6.4602783"><ele>1124.0</ele><time>2026-05-02T18:13:31.276Z</time></trkpt><trkpt lat="43.8654333" lon="6.4604833"><ele>1125.5</ele><time>2026-05-02T18:13:32.276Z</time></trkpt><trkpt lat="43.8653733" lon="6.46069"><ele>1127.0</ele><time>2026-05-02T18:13:33.277Z</time></trkpt><trkpt lat="43.8653183" lon="6.460875"><ele>1128.5</ele><time>2026-05-02T18:13:34.276Z</time></trkpt><trkpt lat="43.86527" lon="6.46105"><ele>1130.0</ele><time>2026-05-02T18:13:35.276Z</time></trkpt><trkpt lat="43.8652267" lon="6.4612067"><ele>1129.142857142857</ele><time>2026-05-02T18:13:36.276Z</time></trkpt><trkpt lat="43.865185" lon="6.46133"><ele>1128.2857142857142</ele><time>2026-05-02T18:13:37.276Z</time></trkpt><trkpt lat="43.86514" lon="6.461415"><ele>1127.4285714285716</ele><time>2026-05-02T18:13:38.276Z</time></trkpt><trkpt lat="43.8650783" lon="6.461455"><ele>1126.5714285714284</ele><time>2026-05-02T18:13:39.277Z</time></trkpt><trkpt lat="43.8650117" lon="6.46145"><ele>1125.7142857142858</ele><time>2026-05-02T18:13:40.276Z</time></trkpt><trkpt lat="43.864955" lon="6.4613967"><ele>1124.857142857143</ele><time>2026-05-02T18:13:41.277Z</time></trkpt><trkpt lat="43.8649267" lon="6.461305"><ele>1124.0</ele><time>2026-05-02T18:13:42.276Z</time></trkpt><trkpt lat="43.8649183" lon="6.4611683"><ele>1120.0</ele><time>2026-05-02T18:13:43.276Z</time></trkpt><trkpt lat="43.8649383" lon="6.460985"><ele>1116.0</ele><time>2026-05-02T18:13:44.276Z</time></trkpt><trkpt lat="43.864965" lon="6.460765"><ele>1112.0</ele><time>2026-05-02T18:13:45.276Z</time></trkpt><trkpt lat="43.8650117" lon="6.4605283"><ele>1110.6666666666667</ele><time>2026-05-02T18:13:46.277Z</time></trkpt><trkpt lat="43.8650517" lon="6.4602917"><ele>1109.3333333333333</ele><time>2026-05-02T18:13:47.276Z</time></trkpt><trkpt lat="43.865085" lon="6.4600533"><ele>1108.0</ele><time>2026-05-02T18:13:48.276Z</time></trkpt><trkpt lat="43.8651017" lon="6.4598417"><ele>1110.6666666666665</ele><time>2026-05-02T18:13:49.277Z</time></trkpt><trkpt lat="43.865145" lon="6.4596167"><ele>1113.3333333333333</ele><time>2026-05-02T18:13:50.277Z</time></trkpt><trkpt lat="43.8651783" lon="6.4594017"><ele>1116.0</ele><time>2026-05-02T18:13:51.276Z</time></trkpt><trkpt lat="43.86522" lon="6.459175"><ele>1116.0</ele><time>2026-05-02T18:13:52.276Z</time></trkpt><trkpt lat="43.8652833" lon="6.458955"><ele>1116.0</ele><time>2026-05-02T18:13:53.276Z</time></trkpt><trkpt lat="43.86535" lon="6.4587417"><ele>1116.0</ele><time>2026-05-02T18:13:54.276Z</time></trkpt><trkpt lat="43.8654133" lon="6.4585217"><ele>1112.6666666666667</ele><time>2026-05-02T18:13:55.276Z</time></trkpt><trkpt lat="43.8654733" lon="6.4582833"><ele>1109.3333333333335</ele><time>2026-05-02T18:13:56.276Z</time></trkpt><trkpt lat="43.865535" lon="6.4580567"><ele>1106.0</ele><time>2026-05-02T18:13:57.276Z</time></trkpt><trkpt lat="43.8655967" lon="6.4578433"><ele>1102.3333333333335</ele><time>2026-05-02T18:13:58.276Z</time></trkpt><trkpt lat="43.865655" lon="6.4576383"><ele>1098.6666666666667</ele><time>2026-05-02T18:13:59.277Z</time></trkpt><trkpt lat="43.8657067" lon="6.45742"><ele>1095.0</ele><time>2026-05-02T18:14:00.277Z</time></trkpt><trkpt lat="43.8657467" lon="6.4571967"><ele>1093.25</ele><time>2026-05-02T18:14:01.277Z</time></trkpt><trkpt lat="43.8657583" lon="6.4569933"><ele>1091.5</ele><time>2026-05-02T18:14:02.276Z</time></trkpt><trkpt lat="43.8657683" lon="6.45679"><ele>1089.75</ele><time>2026-05-02T18:14:03.277Z</time></trkpt><trkpt lat="43.8657933" lon="6.4565867"><ele>1088.0</ele><time>2026-05-02T18:14:04.276Z</time></trkpt><trkpt lat="43.8658383" lon="6.456395"><ele>1087.0</ele><time>2026-05-02T18:14:05.276Z</time></trkpt><trkpt lat="43.8659067" lon="6.456195"><ele>1086.0</ele><time>2026-05-02T18:14:06.277Z</time></trkpt><trkpt lat="43.86596" lon="6.4559883"><ele>1085.0</ele><time>2026-05-02T18:14:07.276Z</time></trkpt><trkpt lat="43.866025" lon="6.455775"><ele>1085.0</ele><time>2026-05-02T18:14:08.276Z</time></trkpt><trkpt lat="43.8660833" lon="6.455545"><ele>1085.0</ele><time>2026-05-02T18:14:09.276Z</time></trkpt><trkpt lat="43.86615" lon="6.4553283"><ele>1085.0</ele><time>2026-05-02T18:14:10.276Z</time></trkpt><trkpt lat="43.8662317" lon="6.4551117"><ele>1083.0</ele><time>2026-05-02T18:14:11.276Z</time></trkpt><trkpt lat="43.86633" lon="6.45492"><ele>1081.0</ele><time>2026-05-02T18:14:12.277Z</time></trkpt><trkpt lat="43.8664417" lon="6.4547483"><ele>1079.0</ele><time>2026-05-02T18:14:13.276Z</time></trkpt><trkpt lat="43.8665783" lon="6.4546133"><ele>1076.3333333333335</ele><time>2026-05-02T18:14:14.276Z</time></trkpt><trkpt lat="43.8667283" lon="6.4545233"><ele>1073.6666666666667</ele><time>2026-05-02T18:14:15.276Z</time></trkpt><trkpt lat="43.86687" lon="6.45444"><ele>1071.0</ele><time>2026-05-02T18:14:16.276Z</time></trkpt><trkpt lat="43.8670217" lon="6.454375"><ele>1070.6666666666667</ele><time>2026-05-02T18:14:17.276Z</time></trkpt><trkpt lat="43.867185" lon="6.4543067"><ele>1070.3333333333335</ele><time>2026-05-02T18:14:18.276Z</time></trkpt><trkpt lat="43.8673517" lon="6.4542517"><ele>1070.0</ele><time>2026-05-02T18:14:19.276Z</time></trkpt><trkpt lat="43.8675117" lon="6.4541617"><ele>1071.0</ele><time>2026-05-02T18:14:20.277Z</time></trkpt><trkpt lat="43.8676583" lon="6.45404"><ele>1072.0</ele><time>2026-05-02T18:14:21.276Z</time></trkpt><trkpt lat="43.8677867" lon="6.4538767"><ele>1073.0</ele><time>2026-05-02T18:14:22.276Z</time></trkpt><trkpt lat="43.8679167" lon="6.453705"><ele>1073.0</ele><time>2026-05-02T18:14:23.276Z</time></trkpt><trkpt lat="43.8680183" lon="6.4535"><ele>1073.0</ele><time>2026-05-02T18:14:24.276Z</time></trkpt><trkpt lat="43.8681" lon="6.45328"><ele>1073.0</ele><time>2026-05-02T18:14:25.276Z</time></trkpt><trkpt lat="43.8681833" lon="6.45307"><ele>1072.0</ele><time>2026-05-02T18:14:26.276Z</time></trkpt><trkpt lat="43.8682683" lon="6.452855"><ele>1071.0</ele><time>2026-05-02T18:14:27.276Z</time></trkpt><trkpt lat="43.8683567" lon="6.45264"><ele>1070.0</ele><time>2026-05-02T18:14:28.276Z</time></trkpt><trkpt lat="43.868455" lon="6.4524367"><ele>1068.6666666666667</ele><time>2026-05-02T18:14:29.277Z</time></trkpt><trkpt lat="43.8685683" lon="6.4522383"><ele>1067.3333333333333</ele><time>2026-05-02T18:14:30.277Z</time></trkpt><trkpt lat="43.8686817" lon="6.4520317"><ele>1066.0</ele><time>2026-05-02T18:14:31.276Z</time></trkpt><trkpt lat="43.8688" lon="6.451835"><ele>1066.0</ele><time>2026-05-02T18:14:32.277Z</time></trkpt><trkpt lat="43.8689083" lon="6.4516433"><ele>1066.0</ele><time>2026-05-02T18:14:33.276Z</time></trkpt><trkpt lat="43.8690083" lon="6.4514733"><ele>1066.0</ele><time>2026-05-02T18:14:34.276Z</time></trkpt><trkpt lat="43.8691133" lon="6.451295"><ele>1064.75</ele><time>2026-05-02T18:14:35.277Z</time></trkpt><trkpt lat="43.8692167" lon="6.451125"><ele>1063.5</ele><time>2026-05-02T18:14:36.277Z</time></trkpt><trkpt lat="43.869305" lon="6.4509567"><ele>1062.25</ele><time>2026-05-02T18:14:37.276Z</time></trkpt><trkpt lat="43.8693917" lon="6.4508083"><ele>1061.0</ele><time>2026-05-02T18:14:38.276Z</time></trkpt><trkpt lat="43.8694783" lon="6.450675"><ele>1061.0</ele><time>2026-05-02T18:14:39.276Z</time></trkpt><trkpt lat="43.8695483" lon="6.45056"><ele>1061.0</ele><time>2026-05-02T18:14:40.277Z</time></trkpt><trkpt lat="43.8696167" lon="6.4504483"><ele>1061.0</ele><time>2026-05-02T18:14:41.276Z</time></trkpt><trkpt lat="43.869675" lon="6.4503517"><ele>1061.0</ele><time>2026-05-02T18:14:42.276Z</time></trkpt><trkpt lat="43.86971" lon="6.4502633"><ele>1061.0</ele><time>2026-05-02T18:14:43.276Z</time></trkpt><trkpt lat="43.8697433" lon="6.4501867"><ele>1061.0</ele><time>2026-05-02T18:14:44.276Z</time></trkpt><trkpt lat="43.869725" lon="6.4500467"><ele>1060.1666666666667</ele><time>2026-05-02T18:14:46.276Z</time></trkpt><trkpt lat="43.8696733" lon="6.44998"><ele>1059.3333333333335</ele><time>2026-05-02T18:14:47.276Z</time></trkpt><trkpt lat="43.8696117" lon="6.4499083"><ele>1058.5</ele><time>2026-05-02T18:14:48.276Z</time></trkpt><trkpt lat="43.869545" lon="6.4498367"><ele>1057.6666666666667</ele><time>2026-05-02T18:14:49.276Z</time></trkpt><trkpt lat="43.8694783" lon="6.4497717"><ele>1056.8333333333333</ele><time>2026-05-02T18:14:50.276Z</time></trkpt><trkpt lat="43.869415" lon="6.4497217"><ele>1056.0</ele><time>2026-05-02T18:14:51.276Z</time></trkpt><trkpt lat="43.8693233" lon="6.449625"><ele>1055.0</ele><time>2026-05-02T18:14:53.276Z</time></trkpt><trkpt lat="43.8692817" lon="6.449535"><ele>1055.0</ele><time>2026-05-02T18:14:56.276Z</time></trkpt><trkpt lat="43.8693083" lon="6.449445"><ele>1055.0</ele><time>2026-05-02T18:14:59.276Z</time></trkpt><trkpt lat="43.8693333" lon="6.44934"><ele>1055.0</ele><time>2026-05-02T18:15:02.276Z</time></trkpt><trkpt lat="43.8693033" lon="6.4492467"><ele>1055.0</ele><time>2026-05-02T18:15:05.276Z</time></trkpt></trkseg></trk></gpx>